<?xml version='1.0' encoding='UTF-8'?><gpx version="1.1" creator="JPX - https://github.com/jenetics/jpx" xmlns="http://www.topografix.com/GPX/1/1"><trk><trkseg><trkpt lat="38.70163318128204" lon="16.45695805831024"><ele>324.0</ele><time>2026-05-04T06:06:59Z</time></trkpt><trkpt lat="38.701712286737624" lon="16.456878552645417"><ele>324.0</ele><time>2026-05-04T06:07:56Z</time></trkpt><trkpt lat="38.701806819530916" lon="16.456865901050538"><ele>324.0</ele><time>2026-05-04T06:08:00Z</time></trkpt><trkpt lat="38.70183669101245" lon="16.45679446374561"><ele>324.0</ele><time>2026-05-04T06:08:08Z</time></trkpt><trkpt lat="38.70183402484703" lon="16.45669380079072"><ele>324.0</ele><time>2026-05-04T06:08:14Z</time></trkpt><trkpt lat="38.70182922726896" lon="16.456606662371694"><ele>324.0</ele><time>2026-05-04T06:08:19Z</time></trkpt><trkpt lat="38.701812960919774" lon="16.456519570599582"><ele>324.0</ele><time>2026-05-04T06:08:24Z</time></trkpt><trkpt lat="38.70181346431269" lon="16.456615633912673"><ele>324.0</ele><time>2026-05-04T06:08:55Z</time></trkpt><trkpt lat="38.701824407719826" lon="16.456699184584313"><ele>324.0</ele><time>2026-05-04T06:09:04Z</time></trkpt><trkpt lat="38.70179999756568" lon="16.45677611603924"><ele>324.0</ele><time>2026-05-04T06:09:09Z</time></trkpt><trkpt lat="38.701774007745065" lon="16.45685709433472"><ele>324.0</ele><time>2026-05-04T06:09:15Z</time></trkpt><trkpt lat="38.701780113755056" lon="16.456946113707453"><ele>324.0</ele><time>2026-05-04T06:09:21Z</time></trkpt><trkpt lat="38.70179878810458" lon="16.457035528073085"><ele>324.0</ele><time>2026-05-04T06:09:31Z</time></trkpt><trkpt lat="38.701800393009336" lon="16.45712378663897"><ele>324.0</ele><time>2026-05-04T06:09:39Z</time></trkpt><trkpt lat="38.701733093889246" lon="16.457139090066775"><ele>324.0</ele><time>2026-05-04T06:09:44Z</time></trkpt><trkpt lat="38.701670908601436" lon="16.457121807334218"><ele>324.0</ele><time>2026-05-04T06:09:49Z</time></trkpt><trkpt lat="38.70157533824809" lon="16.45711620557155"><ele>324.0</ele><time>2026-05-04T06:10:01Z</time></trkpt><trkpt lat="38.701511480011945" lon="16.45711989551152"><ele>324.0</ele><time>2026-05-04T06:10:06Z</time></trkpt><trkpt lat="38.70144106782265" lon="16.457127044690345"><ele>324.0</ele><time>2026-05-04T06:10:12Z</time></trkpt><trkpt lat="38.701371428045334" lon="16.45712185059734"><ele>324.0</ele><time>2026-05-04T06:10:18Z</time></trkpt><trkpt lat="38.701297412176" lon="16.457113722834773"><ele>324.14285714285717</ele><time>2026-05-04T06:10:24Z</time></trkpt><trkpt lat="38.70122597846491" lon="16.457126721988363"><ele>324.2857142857143</ele><time>2026-05-04T06:10:30Z</time></trkpt><trkpt lat="38.70116307223692" lon="16.45713897942306"><ele>324.42857142857144</ele><time>2026-05-04T06:10:35Z</time></trkpt><trkpt lat="38.70109505240309" lon="16.457147824337255"><ele>324.57142857142856</ele><time>2026-05-04T06:10:41Z</time></trkpt><trkpt lat="38.70103048177433" lon="16.457167153638352"><ele>324.7142857142857</ele><time>2026-05-04T06:10:46Z</time></trkpt><trkpt lat="38.70096075165254" lon="16.457187583691024"><ele>324.85714285714283</ele><time>2026-05-04T06:10:52Z</time></trkpt><trkpt lat="38.7008948427655" lon="16.457204675077417"><ele>325.0</ele><time>2026-05-04T06:10:57Z</time></trkpt><trkpt lat="38.700827649436164" lon="16.457214196653148"><ele>324.57142857142856</ele><time>2026-05-04T06:11:02Z</time></trkpt><trkpt lat="38.700762961773044" lon="16.457234435635428"><ele>324.14285714285717</ele><time>2026-05-04T06:11:07Z</time></trkpt><trkpt lat="38.70069870587026" lon="16.457233667438718"><ele>323.7142857142857</ele><time>2026-05-04T06:11:12Z</time></trkpt><trkpt lat="38.700634700823876" lon="16.457232578115928"><ele>323.2857142857143</ele><time>2026-05-04T06:11:17Z</time></trkpt><trkpt lat="38.70055963830551" lon="16.457235524011708"><ele>322.8571428571429</ele><time>2026-05-04T06:11:23Z</time></trkpt><trkpt lat="38.70048281280683" lon="16.45726437797471"><ele>322.42857142857144</ele><time>2026-05-04T06:11:29Z</time></trkpt><trkpt lat="38.700429155087626" lon="16.45732541027655"><ele>322.0</ele><time>2026-05-04T06:11:34Z</time></trkpt><trkpt lat="38.70038925475933" lon="16.45739346767222"><ele>322.0</ele><time>2026-05-04T06:11:39Z</time></trkpt><trkpt lat="38.700357570780426" lon="16.45746469880299"><ele>322.0</ele><time>2026-05-04T06:11:44Z</time></trkpt><trkpt lat="38.70032529570845" lon="16.45753930472635"><ele>322.0</ele><time>2026-05-04T06:11:49Z</time></trkpt><trkpt lat="38.70028980293407" lon="16.457636590348084"><ele>322.0</ele><time>2026-05-04T06:11:55Z</time></trkpt><trkpt lat="38.70027438047843" lon="16.457720885114547"><ele>322.0</ele><time>2026-05-04T06:12:00Z</time></trkpt><trkpt lat="38.700268992350864" lon="16.457818312973153"><ele>322.0</ele><time>2026-05-04T06:12:05Z</time></trkpt><trkpt lat="38.70029589341831" lon="16.45790268461167"><ele>322.0</ele><time>2026-05-04T06:12:11Z</time></trkpt><trkpt lat="38.70032517950929" lon="16.457993718977566"><ele>322.0</ele><time>2026-05-04T06:12:17Z</time></trkpt><trkpt lat="38.70032955743092" lon="16.458085382517687"><ele>322.0</ele><time>2026-05-04T06:12:23Z</time></trkpt><trkpt lat="38.70032407558665" lon="16.458185746887686"><ele>322.0</ele><time>2026-05-04T06:12:29Z</time></trkpt><trkpt lat="38.700325504959444" lon="16.45827203806498"><ele>322.0</ele><time>2026-05-04T06:12:33Z</time></trkpt><trkpt lat="38.70033238887255" lon="16.458359920750553"><ele>322.0</ele><time>2026-05-04T06:12:39Z</time></trkpt><trkpt lat="38.700360543882475" lon="16.458432610135112"><ele>322.0</ele><time>2026-05-04T06:12:44Z</time></trkpt><trkpt lat="38.700380602121996" lon="16.45851056855496"><ele>322.0</ele><time>2026-05-04T06:12:49Z</time></trkpt><trkpt lat="38.700375457765574" lon="16.458593191744473"><ele>322.0</ele><time>2026-05-04T06:12:56Z</time></trkpt><trkpt lat="38.700341921451034" lon="16.458523367049573"><ele>322.0</ele><time>2026-05-04T06:13:01Z</time></trkpt><trkpt lat="38.700313996017094" lon="16.458441609068757"><ele>322.0</ele><time>2026-05-04T06:13:06Z</time></trkpt><trkpt lat="38.70028094529086" lon="16.458368145675657"><ele>322.0</ele><time>2026-05-04T06:13:11Z</time></trkpt><trkpt lat="38.70024560183382" lon="16.458291751031048"><ele>322.0</ele><time>2026-05-04T06:13:17Z</time></trkpt><trkpt lat="38.700199141180796" lon="16.458220984911108"><ele>322.0</ele><time>2026-05-04T06:13:23Z</time></trkpt><trkpt lat="38.70015560454463" lon="16.45814973472681"><ele>322.0</ele><time>2026-05-04T06:13:28Z</time></trkpt><trkpt lat="38.700116083860856" lon="16.458076520716773"><ele>321.57142857142856</ele><time>2026-05-04T06:13:35Z</time></trkpt><trkpt lat="38.70007514244542" lon="16.458011323456276"><ele>321.1428571428571</ele><time>2026-05-04T06:13:40Z</time></trkpt><trkpt lat="38.70002528434803" lon="16.457947851915296"><ele>320.7142857142857</ele><time>2026-05-04T06:13:44Z</time></trkpt><trkpt lat="38.699987059649374" lon="16.457876210246344"><ele>320.2857142857143</ele><time>2026-05-04T06:13:51Z</time></trkpt><trkpt lat="38.69995877718086" lon="16.45779489318119"><ele>319.85714285714283</ele><time>2026-05-04T06:13:56Z</time></trkpt><trkpt lat="38.69996644436529" lon="16.457699762754086"><ele>319.42857142857144</ele><time>2026-05-04T06:14:03Z</time></trkpt><trkpt lat="38.69994548906744" lon="16.457619730826934"><ele>319.0</ele><time>2026-05-04T06:14:10Z</time></trkpt><trkpt lat="38.69991464541507" lon="16.457540733479565"><ele>319.0</ele><time>2026-05-04T06:14:15Z</time></trkpt><trkpt lat="38.699877750594574" lon="16.457474075972588"><ele>319.0</ele><time>2026-05-04T06:14:21Z</time></trkpt><trkpt lat="38.69987288531552" lon="16.457391844896176"><ele>319.0</ele><time>2026-05-04T06:14:28Z</time></trkpt><trkpt lat="38.699905890198835" lon="16.457320412088233"><ele>319.0</ele><time>2026-05-04T06:14:33Z</time></trkpt><trkpt lat="38.69994225933358" lon="16.45723061152493"><ele>319.0</ele><time>2026-05-04T06:14:40Z</time></trkpt><trkpt lat="38.69997449858491" lon="16.457154917158228"><ele>319.0</ele><time>2026-05-04T06:14:46Z</time></trkpt><trkpt lat="38.69999572299375" lon="16.457076554556824"><ele>319.0</ele><time>2026-05-04T06:14:52Z</time></trkpt><trkpt lat="38.700036261458514" lon="16.457003336852466"><ele>319.2857142857143</ele><time>2026-05-04T06:14:58Z</time></trkpt><trkpt lat="38.70005973451828" lon="16.456927394034086"><ele>319.57142857142856</ele><time>2026-05-04T06:15:04Z</time></trkpt><trkpt lat="38.70008943725395" lon="16.45685341045179"><ele>319.85714285714283</ele><time>2026-05-04T06:15:10Z</time></trkpt><trkpt lat="38.70012040035195" lon="16.45675997440659"><ele>320.1428571428571</ele><time>2026-05-04T06:15:16Z</time></trkpt><trkpt lat="38.700156516199634" lon="16.456693887961077"><ele>320.42857142857144</ele><time>2026-05-04T06:15:21Z</time></trkpt><trkpt lat="38.70018659612386" lon="16.456607247863786"><ele>320.71428571428567</ele><time>2026-05-04T06:15:28Z</time></trkpt><trkpt lat="38.70022961826635" lon="16.456533994833908"><ele>321.0</ele><time>2026-05-04T06:15:35Z</time></trkpt><trkpt lat="38.70027168063502" lon="16.45646470384848"><ele>320.99999999999994</ele><time>2026-05-04T06:15:40Z</time></trkpt><trkpt lat="38.7003077616651" lon="16.45639484466418"><ele>321.0</ele><time>2026-05-04T06:15:47Z</time></trkpt><trkpt lat="38.70034810141394" lon="16.456325265894545"><ele>321.0</ele><time>2026-05-04T06:15:52Z</time></trkpt><trkpt lat="38.70037534038401" lon="16.456229327017024"><ele>321.0</ele><time>2026-05-04T06:16:00Z</time></trkpt><trkpt lat="38.700406858980344" lon="16.45615068149156"><ele>321.0</ele><time>2026-05-04T06:16:05Z</time></trkpt><trkpt lat="38.700447677432486" lon="16.45607756997734"><ele>320.99999999999994</ele><time>2026-05-04T06:16:12Z</time></trkpt><trkpt lat="38.7004698929104" lon="16.456001549172885"><ele>321.0</ele><time>2026-05-04T06:16:19Z</time></trkpt><trkpt lat="38.70051215234927" lon="16.455938186045827"><ele>321.71428571428567</ele><time>2026-05-04T06:16:24Z</time></trkpt><trkpt lat="38.700536748016674" lon="16.45585414400303"><ele>322.42857142857144</ele><time>2026-05-04T06:16:30Z</time></trkpt><trkpt lat="38.70055414096332" lon="16.455768679517664"><ele>323.1428571428571</ele><time>2026-05-04T06:16:37Z</time></trkpt><trkpt lat="38.70056217699228" lon="16.45567925557635"><ele>323.85714285714283</ele><time>2026-05-04T06:16:51Z</time></trkpt><trkpt lat="38.70053682769224" lon="16.455599633924578"><ele>324.57142857142856</ele><time>2026-05-04T06:16:57Z</time></trkpt><trkpt lat="38.70050846804852" lon="16.45551725538675"><ele>325.2857142857143</ele><time>2026-05-04T06:17:03Z</time></trkpt><trkpt lat="38.70049775553126" lon="16.45542205414406"><ele>326.0</ele><time>2026-05-04T06:17:10Z</time></trkpt><trkpt lat="38.700490482752876" lon="16.45531724127173"><ele>326.42857142857144</ele><time>2026-05-04T06:17:22Z</time></trkpt><trkpt lat="38.70051139694339" lon="16.455236601634805"><ele>326.85714285714283</ele><time>2026-05-04T06:17:30Z</time></trkpt><trkpt lat="38.70050320024845" lon="16.455144391444517"><ele>327.2857142857143</ele><time>2026-05-04T06:17:38Z</time></trkpt><trkpt lat="38.70050102496201" lon="16.455057623479714"><ele>327.7142857142857</ele><time>2026-05-04T06:17:47Z</time></trkpt><trkpt lat="38.7004760863775" lon="16.454982908575744"><ele>328.1428571428571</ele><time>2026-05-04T06:17:52Z</time></trkpt><trkpt lat="38.70043214156392" lon="16.45491657731035"><ele>328.57142857142856</ele><time>2026-05-04T06:18:02Z</time></trkpt><trkpt lat="38.7003969515277" lon="16.454839987109015"><ele>329.0</ele><time>2026-05-04T06:18:10Z</time></trkpt><trkpt lat="38.70035094957228" lon="16.454769618811635"><ele>329.0</ele><time>2026-05-04T06:18:16Z</time></trkpt><trkpt lat="38.70031287318524" lon="16.454689505065165"><ele>329.0</ele><time>2026-05-04T06:18:23Z</time></trkpt><trkpt lat="38.70024192454362" lon="16.45470036540456"><ele>329.0</ele><time>2026-05-04T06:19:03Z</time></trkpt><trkpt lat="38.70021433252635" lon="16.454625568603007"><ele>329.0</ele><time>2026-05-04T06:19:08Z</time></trkpt><trkpt lat="38.70018820286065" lon="16.454548723900437"><ele>329.0</ele><time>2026-05-04T06:19:15Z</time></trkpt><trkpt lat="38.70013790666923" lon="16.45447430917311"><ele>329.0</ele><time>2026-05-04T06:19:24Z</time></trkpt><trkpt lat="38.7001158041167" lon="16.45437174507633"><ele>329.0</ele><time>2026-05-04T06:19:32Z</time></trkpt><trkpt lat="38.70008514780507" lon="16.454282031857954"><ele>330.0</ele><time>2026-05-04T06:19:42Z</time></trkpt><trkpt lat="38.70003173211923" lon="16.454231127398558"><ele>331.0</ele><time>2026-05-04T06:19:49Z</time></trkpt><trkpt lat="38.69998574384705" lon="16.454161562969535"><ele>332.0</ele><time>2026-05-04T06:20:00Z</time></trkpt><trkpt lat="38.69999769144143" lon="16.454074027641795"><ele>333.0</ele><time>2026-05-04T06:20:06Z</time></trkpt><trkpt lat="38.69999606421917" lon="16.45399156461967"><ele>334.0</ele><time>2026-05-04T06:20:14Z</time></trkpt><trkpt lat="38.69996537709938" lon="16.453908816296703"><ele>335.0</ele><time>2026-05-04T06:20:22Z</time></trkpt><trkpt lat="38.699943766266436" lon="16.453825277466194"><ele>336.0</ele><time>2026-05-04T06:20:29Z</time></trkpt><trkpt lat="38.69990911856504" lon="16.453749898833205"><ele>336.57142857142856</ele><time>2026-05-04T06:20:35Z</time></trkpt><trkpt lat="38.69990355322577" lon="16.45365484466001"><ele>337.1428571428571</ele><time>2026-05-04T06:20:42Z</time></trkpt><trkpt lat="38.69987604963989" lon="16.453582088471656"><ele>337.7142857142857</ele><time>2026-05-04T06:20:49Z</time></trkpt><trkpt lat="38.69983827140173" lon="16.4535047567536"><ele>338.2857142857143</ele><time>2026-05-04T06:20:54Z</time></trkpt><trkpt lat="38.69980596417001" lon="16.453428298161892"><ele>338.85714285714283</ele><time>2026-05-04T06:20:59Z</time></trkpt><trkpt lat="38.69977059091973" lon="16.453354928099174"><ele>339.42857142857144</ele><time>2026-05-04T06:21:05.999Z</time></trkpt><trkpt lat="38.69972989868852" lon="16.45328571673642"><ele>340.0</ele><time>2026-05-04T06:21:13Z</time></trkpt><trkpt lat="38.699695549475855" lon="16.45320466099141"><ele>340.0</ele><time>2026-05-04T06:21:20Z</time></trkpt><trkpt lat="38.69965440608143" lon="16.453127521581607"><ele>340.0</ele><time>2026-05-04T06:21:26Z</time></trkpt><trkpt lat="38.699611139357884" lon="16.45306273362787"><ele>340.0</ele><time>2026-05-04T06:21:33Z</time></trkpt><trkpt lat="38.69956074647027" lon="16.45300115191589"><ele>340.0</ele><time>2026-05-04T06:21:38Z</time></trkpt><trkpt lat="38.69950603408255" lon="16.452952935371826"><ele>340.0</ele><time>2026-05-04T06:21:43Z</time></trkpt><trkpt lat="38.69947074167772" lon="16.452876634970444"><ele>340.0</ele><time>2026-05-04T06:21:51Z</time></trkpt><trkpt lat="38.69944797579979" lon="16.45279745523875"><ele>340.0</ele><time>2026-05-04T06:21:59Z</time></trkpt><trkpt lat="38.699409974739055" lon="16.45271616099284"><ele>341.14285714285717</ele><time>2026-05-04T06:22:06Z</time></trkpt><trkpt lat="38.69938799327575" lon="16.45262624768695"><ele>342.2857142857143</ele><time>2026-05-04T06:22:13Z</time></trkpt><trkpt lat="38.69935272029687" lon="16.452547060457714"><ele>343.42857142857144</ele><time>2026-05-04T06:22:19Z</time></trkpt><trkpt lat="38.699319285101986" lon="16.45246998635232"><ele>344.57142857142856</ele><time>2026-05-04T06:22:26Z</time></trkpt><trkpt lat="38.699281542154544" lon="16.452396216763336"><ele>345.7142857142857</ele><time>2026-05-04T06:22:33Z</time></trkpt><trkpt lat="38.699251767374136" lon="16.45230903037299"><ele>346.85714285714283</ele><time>2026-05-04T06:22:39Z</time></trkpt><trkpt lat="38.69921945562349" lon="16.45223723388697"><ele>348.0</ele><time>2026-05-04T06:23:29Z</time></trkpt><trkpt lat="38.69921436511447" lon="16.45215274508806"><ele>347.85714285714283</ele><time>2026-05-04T06:23:34Z</time></trkpt><trkpt lat="38.69920033951615" lon="16.452063182296378"><ele>347.7142857142857</ele><time>2026-05-04T06:23:42Z</time></trkpt><trkpt lat="38.69919100329123" lon="16.451975617251936"><ele>347.57142857142856</ele><time>2026-05-04T06:23:49Z</time></trkpt><trkpt lat="38.69916789310364" lon="16.451894324627037"><ele>347.42857142857144</ele><time>2026-05-04T06:23:55Z</time></trkpt><trkpt lat="38.69913511715144" lon="16.45181673979057"><ele>347.2857142857143</ele><time>2026-05-04T06:24:01Z</time></trkpt><trkpt lat="38.69910195688797" lon="16.451742395347797"><ele>347.14285714285717</ele><time>2026-05-04T06:24:07Z</time></trkpt><trkpt lat="38.69905829745272" lon="16.451676875889383"><ele>347.0</ele><time>2026-05-04T06:24:13Z</time></trkpt><trkpt lat="38.69901926515584" lon="16.45160443101338"><ele>347.0</ele><time>2026-05-04T06:24:19Z</time></trkpt><trkpt lat="38.698979940330254" lon="16.451528601513882"><ele>347.0</ele><time>2026-05-04T06:24:25Z</time></trkpt><trkpt lat="38.6989389462232" lon="16.451462444313037"><ele>347.0</ele><time>2026-05-04T06:24:30Z</time></trkpt><trkpt lat="38.69888961841194" lon="16.451396789049948"><ele>347.0</ele><time>2026-05-04T06:24:37Z</time></trkpt><trkpt lat="38.698838096819856" lon="16.45133578236271"><ele>347.0</ele><time>2026-05-04T06:24:43Z</time></trkpt><trkpt lat="38.69878349307049" lon="16.451283025465333"><ele>347.0</ele><time>2026-05-04T06:24:48Z</time></trkpt><trkpt lat="38.698730340959564" lon="16.451239527758663"><ele>347.0</ele><time>2026-05-04T06:24:54Z</time></trkpt><trkpt lat="38.698678224849296" lon="16.451189925991986"><ele>347.14285714285717</ele><time>2026-05-04T06:24:59Z</time></trkpt><trkpt lat="38.69862334230658" lon="16.451138130513957"><ele>347.2857142857143</ele><time>2026-05-04T06:25:05Z</time></trkpt><trkpt lat="38.698568748525375" lon="16.451078380673103"><ele>347.42857142857144</ele><time>2026-05-04T06:25:11Z</time></trkpt><trkpt lat="38.69851419842156" lon="16.451010357292137"><ele>347.57142857142856</ele><time>2026-05-04T06:25:17Z</time></trkpt><trkpt lat="38.69846237830347" lon="16.450961369771832"><ele>347.7142857142857</ele><time>2026-05-04T06:25:23Z</time></trkpt><trkpt lat="38.698406926170954" lon="16.450901816487487"><ele>347.85714285714283</ele><time>2026-05-04T06:25:29Z</time></trkpt><trkpt lat="38.69835591513506" lon="16.45083939013151"><ele>348.0</ele><time>2026-05-04T06:25:35Z</time></trkpt><trkpt lat="38.698308185207516" lon="16.45078669309442"><ele>348.2857142857143</ele><time>2026-05-04T06:25:40Z</time></trkpt><trkpt lat="38.69825060450082" lon="16.450727185389756"><ele>348.57142857142856</ele><time>2026-05-04T06:25:46Z</time></trkpt><trkpt lat="38.69819762433027" lon="16.45066290585341"><ele>348.8571428571429</ele><time>2026-05-04T06:25:52Z</time></trkpt><trkpt lat="38.69814973746778" lon="16.450609805751554"><ele>349.1428571428571</ele><time>2026-05-04T06:25:57Z</time></trkpt><trkpt lat="38.69809782481027" lon="16.450544312938074"><ele>349.42857142857144</ele><time>2026-05-04T06:26:03Z</time></trkpt><trkpt lat="38.698048394825406" lon="16.45048926502077"><ele>349.7142857142857</ele><time>2026-05-04T06:26:08Z</time></trkpt><trkpt lat="38.697988553016785" lon="16.45043411258609"><ele>350.0</ele><time>2026-05-04T06:26:14Z</time></trkpt><trkpt lat="38.697938487628385" lon="16.450373949748577"><ele>350.0</ele><time>2026-05-04T06:26:19Z</time></trkpt><trkpt lat="38.69788499395326" lon="16.45032370818376"><ele>350.0</ele><time>2026-05-04T06:26:25Z</time></trkpt><trkpt lat="38.69783962647714" lon="16.450265160525166"><ele>350.0</ele><time>2026-05-04T06:26:30Z</time></trkpt><trkpt lat="38.69778959741913" lon="16.450204505544768"><ele>350.0</ele><time>2026-05-04T06:26:36Z</time></trkpt><trkpt lat="38.69774091507519" lon="16.450148821459173"><ele>350.0</ele><time>2026-05-04T06:26:41Z</time></trkpt><trkpt lat="38.697684295429134" lon="16.450109139552396"><ele>350.0</ele><time>2026-05-04T06:26:47Z</time></trkpt><trkpt lat="38.69762671600606" lon="16.450062958111847"><ele>350.0</ele><time>2026-05-04T06:26:54Z</time></trkpt><trkpt lat="38.69757161021588" lon="16.449998917280013"><ele>350.42857142857144</ele><time>2026-05-04T06:27:00Z</time></trkpt><trkpt lat="38.69750709273162" lon="16.449944344512105"><ele>350.8571428571429</ele><time>2026-05-04T06:27:07Z</time></trkpt><trkpt lat="38.697452140724735" lon="16.449885771808074"><ele>351.2857142857143</ele><time>2026-05-04T06:27:13Z</time></trkpt><trkpt lat="38.697393787441754" lon="16.449826350998315"><ele>351.7142857142857</ele><time>2026-05-04T06:27:19Z</time></trkpt><trkpt lat="38.69734494137046" lon="16.449764993016704"><ele>352.14285714285717</ele><time>2026-05-04T06:27:25Z</time></trkpt><trkpt lat="38.697291461616054" lon="16.449698689291065"><ele>352.57142857142856</ele><time>2026-05-04T06:27:31Z</time></trkpt><trkpt lat="38.69725191934576" lon="16.449632893587143"><ele>353.0</ele><time>2026-05-04T06:27:38Z</time></trkpt><trkpt lat="38.697209113203996" lon="16.44955531763403"><ele>353.0</ele><time>2026-05-04T06:27:45Z</time></trkpt><trkpt lat="38.6971487590176" lon="16.449520799669266"><ele>353.0</ele><time>2026-05-04T06:27:51Z</time></trkpt><trkpt lat="38.69707419169605" lon="16.449525732873273"><ele>353.0</ele><time>2026-05-04T06:27:57Z</time></trkpt><trkpt lat="38.69699692145871" lon="16.449520072086838"><ele>353.0</ele><time>2026-05-04T06:28:03Z</time></trkpt><trkpt lat="38.69693086564729" lon="16.449506101051874"><ele>353.0</ele><time>2026-05-04T06:28:08Z</time></trkpt><trkpt lat="38.69686495304864" lon="16.44949446771192"><ele>353.0</ele><time>2026-05-04T06:28:14Z</time></trkpt><trkpt lat="38.69679118049445" lon="16.449476286925158"><ele>353.0</ele><time>2026-05-04T06:28:20Z</time></trkpt><trkpt lat="38.69672635903535" lon="16.449453192006036"><ele>352.57142857142856</ele><time>2026-05-04T06:28:25Z</time></trkpt><trkpt lat="38.69666266359203" lon="16.449435491586367"><ele>352.14285714285717</ele><time>2026-05-04T06:28:30Z</time></trkpt><trkpt lat="38.69659695153762" lon="16.449417552338453"><ele>351.7142857142857</ele><time>2026-05-04T06:28:36Z</time></trkpt><trkpt lat="38.696532391618256" lon="16.449397328016847"><ele>351.2857142857143</ele><time>2026-05-04T06:28:41Z</time></trkpt><trkpt lat="38.69646312341492" lon="16.449374480108254"><ele>350.8571428571429</ele><time>2026-05-04T06:28:47Z</time></trkpt><trkpt lat="38.696399629453666" lon="16.449340086785107"><ele>350.42857142857144</ele><time>2026-05-04T06:28:52Z</time></trkpt><trkpt lat="38.69632284991422" lon="16.44931815947913"><ele>350.0</ele><time>2026-05-04T06:28:59Z</time></trkpt><trkpt lat="38.69626602219738" lon="16.449279040949225"><ele>350.0</ele><time>2026-05-04T06:29:04Z</time></trkpt><trkpt lat="38.69620469862214" lon="16.449233922361344"><ele>350.0</ele><time>2026-05-04T06:29:10Z</time></trkpt><trkpt lat="38.696149645825614" lon="16.449192251432294"><ele>350.0</ele><time>2026-05-04T06:29:15Z</time></trkpt><trkpt lat="38.69610130866199" lon="16.44911806452807"><ele>350.0</ele><time>2026-05-04T06:29:21Z</time></trkpt><trkpt lat="38.69603794838778" lon="16.449090584534034"><ele>350.0</ele><time>2026-05-04T06:29:25.999Z</time></trkpt><trkpt lat="38.695975381933245" lon="16.449101146994625"><ele>350.0</ele><time>2026-05-04T06:29:31Z</time></trkpt><trkpt lat="38.695908724189245" lon="16.449117156588823"><ele>350.0</ele><time>2026-05-04T06:29:39Z</time></trkpt><trkpt lat="38.695888111402425" lon="16.44903539018896"><ele>349.57142857142856</ele><time>2026-05-04T06:29:50Z</time></trkpt><trkpt lat="38.69594853995186" lon="16.449012729732107"><ele>349.1428571428571</ele><time>2026-05-04T06:29:58Z</time></trkpt><trkpt lat="38.69596432307137" lon="16.448931683822956"><ele>348.7142857142857</ele><time>2026-05-04T06:30:12Z</time></trkpt><trkpt lat="38.69594269858809" lon="16.448821934083266"><ele>348.2857142857143</ele><time>2026-05-04T06:30:19Z</time></trkpt><trkpt lat="38.69592470917058" lon="16.448741886211465"><ele>347.85714285714283</ele><time>2026-05-04T06:30:27Z</time></trkpt><trkpt lat="38.69588958055878" lon="16.44867173168655"><ele>347.42857142857144</ele><time>2026-05-04T06:30:34Z</time></trkpt><trkpt lat="38.69586042986169" lon="16.44858585883019"><ele>347.0</ele><time>2026-05-04T06:30:41Z</time></trkpt><trkpt lat="38.695826296808676" lon="16.448513514795184"><ele>348.14285714285717</ele><time>2026-05-04T06:30:48Z</time></trkpt><trkpt lat="38.69583716625381" lon="16.448420749687205"><ele>349.2857142857143</ele><time>2026-05-04T06:31:06Z</time></trkpt><trkpt lat="38.69585572673155" lon="16.44834060092031"><ele>350.42857142857144</ele><time>2026-05-04T06:31:12Z</time></trkpt><trkpt lat="38.69585750954119" lon="16.44823919510346"><ele>351.57142857142856</ele><time>2026-05-04T06:31:20Z</time></trkpt><trkpt lat="38.69586081076622" lon="16.44814664236586"><ele>352.7142857142857</ele><time>2026-05-04T06:31:26Z</time></trkpt><trkpt lat="38.69586851162661" lon="16.448062014871102"><ele>353.85714285714283</ele><time>2026-05-04T06:31:31.999Z</time></trkpt><trkpt lat="38.69586974103779" lon="16.447970359156816"><ele>355.0</ele><time>2026-05-04T06:31:38Z</time></trkpt><trkpt lat="38.69585936511472" lon="16.447883847255984"><ele>355.7142857142857</ele><time>2026-05-04T06:31:45Z</time></trkpt><trkpt lat="38.69583953028859" lon="16.447799584962052"><ele>356.42857142857144</ele><time>2026-05-04T06:31:50Z</time></trkpt><trkpt lat="38.695828450868895" lon="16.447708707522178"><ele>357.1428571428571</ele><time>2026-05-04T06:31:56Z</time></trkpt><trkpt lat="38.69580564623596" lon="16.44762877236006"><ele>357.8571428571429</ele><time>2026-05-04T06:32:01Z</time></trkpt><trkpt lat="38.69578698865629" lon="16.447537688152284"><ele>358.5714285714286</ele><time>2026-05-04T06:32:08Z</time></trkpt><trkpt lat="38.69577844587976" lon="16.447450603329504"><ele>359.2857142857143</ele><time>2026-05-04T06:32:15Z</time></trkpt><trkpt lat="38.69576130498801" lon="16.44736756759345"><ele>360.0</ele><time>2026-05-04T06:32:21Z</time></trkpt><trkpt lat="38.695740658406244" lon="16.447285981264603"><ele>360.0</ele><time>2026-05-04T06:32:27Z</time></trkpt><trkpt lat="38.695724033916484" lon="16.447190006120287"><ele>360.0</ele><time>2026-05-04T06:32:33Z</time></trkpt><trkpt lat="38.695708468111896" lon="16.44711054801149"><ele>360.0</ele><time>2026-05-04T06:32:39Z</time></trkpt><trkpt lat="38.69568979829986" lon="16.4470248207232"><ele>360.0</ele><time>2026-05-04T06:32:45Z</time></trkpt><trkpt lat="38.69567375506424" lon="16.44693520495135"><ele>360.0</ele><time>2026-05-04T06:32:51Z</time></trkpt><trkpt lat="38.69565528847896" lon="16.44685456945405"><ele>360.0</ele><time>2026-05-04T06:32:56Z</time></trkpt><trkpt lat="38.69563799980548" lon="16.446774189127897"><ele>360.0</ele><time>2026-05-04T06:33:02Z</time></trkpt><trkpt lat="38.69562072027726" lon="16.446682155530976"><ele>360.2857142857143</ele><time>2026-05-04T06:33:08Z</time></trkpt><trkpt lat="38.695602146635274" lon="16.44660499879889"><ele>360.5714285714286</ele><time>2026-05-04T06:33:13Z</time></trkpt><trkpt lat="38.69560650022829" lon="16.446519199337168"><ele>360.8571428571429</ele><time>2026-05-04T06:33:19Z</time></trkpt><trkpt lat="38.69560852273005" lon="16.446433180848906"><ele>361.1428571428571</ele><time>2026-05-04T06:33:26Z</time></trkpt><trkpt lat="38.69561649602715" lon="16.446349317713274"><ele>361.42857142857144</ele><time>2026-05-04T06:33:32Z</time></trkpt><trkpt lat="38.69562571117144" lon="16.446264357153307"><ele>361.7142857142857</ele><time>2026-05-04T06:33:37.999Z</time></trkpt><trkpt lat="38.69562261668333" lon="16.446182321293794"><ele>362.0</ele><time>2026-05-04T06:33:43Z</time></trkpt><trkpt lat="38.69562976464563" lon="16.446099690810755"><ele>361.42857142857144</ele><time>2026-05-04T06:33:49Z</time></trkpt><trkpt lat="38.69565788189959" lon="16.446024940945158"><ele>360.85714285714283</ele><time>2026-05-04T06:33:55Z</time></trkpt><trkpt lat="38.695672497430564" lon="16.44594361527542"><ele>360.28571428571433</ele><time>2026-05-04T06:34:00Z</time></trkpt><trkpt lat="38.69570177995817" lon="16.44586949460549"><ele>359.7142857142857</ele><time>2026-05-04T06:34:07Z</time></trkpt><trkpt lat="38.69573905378096" lon="16.445788360232275"><ele>359.14285714285717</ele><time>2026-05-04T06:34:13Z</time></trkpt><trkpt lat="38.69576359473753" lon="16.445707750487724"><ele>358.5714285714286</ele><time>2026-05-04T06:34:19Z</time></trkpt><trkpt lat="38.69578855751683" lon="16.445627342413317"><ele>358.0</ele><time>2026-05-04T06:34:25Z</time></trkpt><trkpt lat="38.695824344145954" lon="16.44554907802043"><ele>358.00000000000006</ele><time>2026-05-04T06:34:31Z</time></trkpt><trkpt lat="38.69584776258648" lon="16.445467350223456"><ele>358.0</ele><time>2026-05-04T06:34:37Z</time></trkpt><trkpt lat="38.695889278504154" lon="16.445390713548193"><ele>358.0</ele><time>2026-05-04T06:34:43Z</time></trkpt><trkpt lat="38.69591989821335" lon="16.445316047483484"><ele>358.0</ele><time>2026-05-04T06:34:48Z</time></trkpt><trkpt lat="38.695955596344994" lon="16.445230834259785"><ele>358.0</ele><time>2026-05-04T06:34:54Z</time></trkpt><trkpt lat="38.69599294366794" lon="16.445158256661703"><ele>358.00000000000006</ele><time>2026-05-04T06:35:00Z</time></trkpt><trkpt lat="38.696036981864054" lon="16.445081670025953"><ele>358.0</ele><time>2026-05-04T06:35:06Z</time></trkpt><trkpt lat="38.69608252546505" lon="16.445007138290453"><ele>359.42857142857144</ele><time>2026-05-04T06:35:12Z</time></trkpt><trkpt lat="38.696103968228094" lon="16.44492459797977"><ele>360.8571428571429</ele><time>2026-05-04T06:35:18Z</time></trkpt><trkpt lat="38.69613404732959" lon="16.444853005229263"><ele>362.28571428571433</ele><time>2026-05-04T06:35:25Z</time></trkpt><trkpt lat="38.69616983972785" lon="16.444774856411854"><ele>363.7142857142857</ele><time>2026-05-04T06:35:35Z</time></trkpt><trkpt lat="38.69620625065295" lon="16.444704129862384"><ele>365.1428571428571</ele><time>2026-05-04T06:35:41Z</time></trkpt><trkpt lat="38.696244532705556" lon="16.44462769740124"><ele>366.5714285714286</ele><time>2026-05-04T06:35:46.999Z</time></trkpt><trkpt lat="38.696279062727555" lon="16.444553342676638"><ele>368.0</ele><time>2026-05-04T06:35:53Z</time></trkpt><trkpt lat="38.696309132837996" lon="16.44447963649668"><ele>368.0</ele><time>2026-05-04T06:35:58Z</time></trkpt><trkpt lat="38.69634412218242" lon="16.444398481879873"><ele>368.0</ele><time>2026-05-04T06:36:04Z</time></trkpt><trkpt lat="38.696375568236945" lon="16.44432683701067"><ele>368.0</ele><time>2026-05-04T06:36:09Z</time></trkpt><trkpt lat="38.69641513590455" lon="16.444248280871296"><ele>368.0</ele><time>2026-05-04T06:36:15Z</time></trkpt><trkpt lat="38.69645150253009" lon="16.444170108003156"><ele>368.0</ele><time>2026-05-04T06:36:21Z</time></trkpt><trkpt lat="38.6964847747444" lon="16.444091873431795"><ele>368.0</ele><time>2026-05-04T06:36:27Z</time></trkpt><trkpt lat="38.69651982848471" lon="16.444016133864693"><ele>368.0</ele><time>2026-05-04T06:36:33Z</time></trkpt><trkpt lat="38.6965588288672" lon="16.443934600459343"><ele>368.0</ele><time>2026-05-04T06:36:39Z</time></trkpt><trkpt lat="38.69658471369159" lon="16.44385679210012"><ele>368.0</ele><time>2026-05-04T06:36:45Z</time></trkpt><trkpt lat="38.69661991588941" lon="16.443777367664435"><ele>368.0</ele><time>2026-05-04T06:36:52Z</time></trkpt><trkpt lat="38.696654726437686" lon="16.44370939549874"><ele>368.0</ele><time>2026-05-04T06:36:58Z</time></trkpt><trkpt lat="38.696693363362805" lon="16.44364263179656"><ele>368.0</ele><time>2026-05-04T06:37:05Z</time></trkpt><trkpt lat="38.696732677197794" lon="16.4435795733059"><ele>368.0</ele><time>2026-05-04T06:37:11Z</time></trkpt><trkpt lat="38.69676643287345" lon="16.4434946082111"><ele>368.0</ele><time>2026-05-04T06:37:17Z</time></trkpt><trkpt lat="38.69680741053498" lon="16.44341550457568"><ele>367.42857142857144</ele><time>2026-05-04T06:37:23Z</time></trkpt><trkpt lat="38.69684535406267" lon="16.443331868168922"><ele>366.85714285714283</ele><time>2026-05-04T06:37:29Z</time></trkpt><trkpt lat="38.69688823211126" lon="16.44325414579907"><ele>366.2857142857143</ele><time>2026-05-04T06:37:36Z</time></trkpt><trkpt lat="38.69691395753884" lon="16.443175641296165"><ele>365.7142857142857</ele><time>2026-05-04T06:37:41Z</time></trkpt><trkpt lat="38.696954192193324" lon="16.443104098405485"><ele>365.1428571428571</ele><time>2026-05-04T06:37:46Z</time></trkpt><trkpt lat="38.69698036756007" lon="16.443009230659243"><ele>364.57142857142856</ele><time>2026-05-04T06:37:52.999Z</time></trkpt><trkpt lat="38.69701360730842" lon="16.442929133492783"><ele>364.0</ele><time>2026-05-04T06:38:00Z</time></trkpt><trkpt lat="38.69705591203958" lon="16.442856398923396"><ele>365.2857142857143</ele><time>2026-05-04T06:38:06Z</time></trkpt><trkpt lat="38.69708747388557" lon="16.442779525414704"><ele>366.57142857142856</ele><time>2026-05-04T06:38:12Z</time></trkpt><trkpt lat="38.69712538423253" lon="16.44270030528622"><ele>367.8571428571429</ele><time>2026-05-04T06:38:18Z</time></trkpt><trkpt lat="38.6971601006349" lon="16.4426258389006"><ele>369.1428571428571</ele><time>2026-05-04T06:38:24Z</time></trkpt><trkpt lat="38.697196142948584" lon="16.44255092572378"><ele>370.42857142857144</ele><time>2026-05-04T06:38:30Z</time></trkpt><trkpt lat="38.697234201919606" lon="16.442479367177658"><ele>371.7142857142857</ele><time>2026-05-04T06:38:36Z</time></trkpt><trkpt lat="38.69726169603935" lon="16.44239606774816"><ele>373.0</ele><time>2026-05-04T06:38:42Z</time></trkpt><trkpt lat="38.69727903451218" lon="16.442303529280885"><ele>373.0</ele><time>2026-05-04T06:38:48Z</time></trkpt><trkpt lat="38.69728913405703" lon="16.44220692504297"><ele>373.0</ele><time>2026-05-04T06:38:54Z</time></trkpt><trkpt lat="38.6973020606226" lon="16.44212188972453"><ele>373.0</ele><time>2026-05-04T06:38:59Z</time></trkpt><trkpt lat="38.69731160358063" lon="16.44203135266962"><ele>373.0</ele><time>2026-05-04T06:39:04Z</time></trkpt><trkpt lat="38.69731787389887" lon="16.441949884395566"><ele>373.0</ele><time>2026-05-04T06:39:09Z</time></trkpt><trkpt lat="38.6973356168939" lon="16.441868051525983"><ele>373.0</ele><time>2026-05-04T06:39:14Z</time></trkpt><trkpt lat="38.69735977669251" lon="16.441791492610673"><ele>373.0</ele><time>2026-05-04T06:39:20Z</time></trkpt><trkpt lat="38.69738016321091" lon="16.441710615971246"><ele>373.0</ele><time>2026-05-04T06:39:27Z</time></trkpt><trkpt lat="38.6973904677291" lon="16.44162594018666"><ele>373.0</ele><time>2026-05-04T06:39:32Z</time></trkpt><trkpt lat="38.69739880644741" lon="16.441535416797638"><ele>373.0</ele><time>2026-05-04T06:39:38Z</time></trkpt><trkpt lat="38.69741952724062" lon="16.44145597862565"><ele>373.0</ele><time>2026-05-04T06:39:42Z</time></trkpt><trkpt lat="38.69744053643796" lon="16.441366967807063"><ele>373.0</ele><time>2026-05-04T06:39:49Z</time></trkpt><trkpt lat="38.697446752530325" lon="16.441277229466415"><ele>373.0</ele><time>2026-05-04T06:39:55Z</time></trkpt><trkpt lat="38.69746965443492" lon="16.441190850862085"><ele>373.0</ele><time>2026-05-04T06:40:01Z</time></trkpt><trkpt lat="38.697479321353214" lon="16.44110612725153"><ele>373.0</ele><time>2026-05-04T06:40:06Z</time></trkpt><trkpt lat="38.69749899004681" lon="16.441010957149235"><ele>373.0</ele><time>2026-05-04T06:40:12Z</time></trkpt><trkpt lat="38.697506418755246" lon="16.44092957190885"><ele>373.0</ele><time>2026-05-04T06:40:17Z</time></trkpt><trkpt lat="38.69751150610566" lon="16.44082783498237"><ele>373.0</ele><time>2026-05-04T06:40:23Z</time></trkpt><trkpt lat="38.69718731397344" lon="16.439507121101276"><ele>380.5</ele><time>2026-05-04T06:41:08Z</time></trkpt><trkpt lat="38.69751003315627" lon="16.43923057201981"><ele>388.0</ele><time>2026-05-04T06:41:09Z</time></trkpt><trkpt lat="38.697624356841594" lon="16.439100887817613"><ele>388.0</ele><time>2026-05-04T06:41:10Z</time></trkpt><trkpt lat="38.697706844216704" lon="16.439005570599356"><ele>388.0</ele><time>2026-05-04T06:41:11Z</time></trkpt><trkpt lat="38.69784011998288" lon="16.438925411953203"><ele>388.0</ele><time>2026-05-04T06:41:12Z</time></trkpt><trkpt lat="38.69790843517568" lon="16.439089805571744"><ele>388.0</ele><time>2026-05-04T06:41:15Z</time></trkpt><trkpt lat="38.698068312720004" lon="16.43950424761902"><ele>390.0</ele><time>2026-05-04T06:41:16Z</time></trkpt><trkpt lat="38.697984437467255" lon="16.43958472591128"><ele>392.0</ele><time>2026-05-04T06:41:17Z</time></trkpt><trkpt lat="38.6978707588158" lon="16.440062236322646"><ele>392.0</ele><time>2026-05-04T06:41:18Z</time></trkpt><trkpt lat="38.69793412852012" lon="16.44001675506869"><ele>392.0</ele><time>2026-05-04T06:41:50Z</time></trkpt><trkpt lat="38.69797907379688" lon="16.439937527000897"><ele>392.0</ele><time>2026-05-04T06:41:57Z</time></trkpt><trkpt lat="38.698033730653066" lon="16.43987137062967"><ele>392.0</ele><time>2026-05-04T06:42:07Z</time></trkpt><trkpt lat="38.69807924433637" lon="16.43978355751282"><ele>392.0</ele><time>2026-05-04T06:42:13Z</time></trkpt><trkpt lat="38.698125345308945" lon="16.439720528238972"><ele>392.0</ele><time>2026-05-04T06:42:19Z</time></trkpt><trkpt lat="38.6981432982822" lon="16.43963641487104"><ele>392.0</ele><time>2026-05-04T06:42:24Z</time></trkpt><trkpt lat="38.69817912170638" lon="16.439559130818857"><ele>390.14285714285717</ele><time>2026-05-04T06:42:29Z</time></trkpt><trkpt lat="38.69820941537616" lon="16.439482026334424"><ele>388.2857142857143</ele><time>2026-05-04T06:42:34Z</time></trkpt><trkpt lat="38.69823855786547" lon="16.439394415696686"><ele>386.42857142857144</ele><time>2026-05-04T06:42:40Z</time></trkpt><trkpt lat="38.69826650431748" lon="16.439318756271053"><ele>384.57142857142856</ele><time>2026-05-04T06:42:47Z</time></trkpt><trkpt lat="38.6982878765013" lon="16.43923099019271"><ele>382.7142857142857</ele><time>2026-05-04T06:42:53Z</time></trkpt><trkpt lat="38.69831652885963" lon="16.439152398794718"><ele>380.8571428571429</ele><time>2026-05-04T06:42:58Z</time></trkpt><trkpt lat="38.69834739149473" lon="16.43906028153893"><ele>379.0</ele><time>2026-05-04T06:43:05Z</time></trkpt><trkpt lat="38.69837604227388" lon="16.438981368978332"><ele>379.00000000000006</ele><time>2026-05-04T06:43:09Z</time></trkpt><trkpt lat="38.69839541718318" lon="16.43889572373833"><ele>379.0</ele><time>2026-05-04T06:43:14Z</time></trkpt><trkpt lat="38.69843479851513" lon="16.438797405320827"><ele>379.0</ele><time>2026-05-04T06:43:20Z</time></trkpt><trkpt lat="38.69845109758277" lon="16.438716977554595"><ele>379.0</ele><time>2026-05-04T06:43:26Z</time></trkpt><trkpt lat="38.69849488480969" lon="16.438637704972766"><ele>379.0</ele><time>2026-05-04T06:43:32Z</time></trkpt><trkpt lat="38.69854233803874" lon="16.438577243502056"><ele>379.00000000000006</ele><time>2026-05-04T06:43:38Z</time></trkpt><trkpt lat="38.698605289414566" lon="16.438528898542675"><ele>379.0</ele><time>2026-05-04T06:43:42Z</time></trkpt><trkpt lat="38.69864855372919" lon="16.43846973288919"><ele>379.8571428571429</ele><time>2026-05-04T06:43:47Z</time></trkpt><trkpt lat="38.698674917885256" lon="16.438394759851736"><ele>380.7142857142857</ele><time>2026-05-04T06:43:55Z</time></trkpt><trkpt lat="38.698672960288185" lon="16.43830607992216"><ele>381.57142857142856</ele><time>2026-05-04T06:44:00Z</time></trkpt><trkpt lat="38.6986863618026" lon="16.438209128504653"><ele>382.42857142857144</ele><time>2026-05-04T06:44:07.999Z</time></trkpt><trkpt lat="38.698704181291156" lon="16.43811448724664"><ele>383.2857142857143</ele><time>2026-05-04T06:44:13Z</time></trkpt><trkpt lat="38.6986871891654" lon="16.438036242463575"><ele>384.14285714285717</ele><time>2026-05-04T06:44:19Z</time></trkpt><trkpt lat="38.698680727826535" lon="16.4379540061186"><ele>385.0</ele><time>2026-05-04T06:44:25Z</time></trkpt><trkpt lat="38.69870496892127" lon="16.437872774819045"><ele>385.00000000000006</ele><time>2026-05-04T06:44:32Z</time></trkpt><trkpt lat="38.69872961826781" lon="16.437768432888966"><ele>385.0</ele><time>2026-05-04T06:44:38Z</time></trkpt><trkpt lat="38.69875054945555" lon="16.437680299703405"><ele>385.0</ele><time>2026-05-04T06:44:44Z</time></trkpt><trkpt lat="38.698793306430616" lon="16.437605538098214"><ele>385.0</ele><time>2026-05-04T06:44:51Z</time></trkpt><trkpt lat="38.698815139827275" lon="16.43752459149479"><ele>385.00000000000006</ele><time>2026-05-04T06:44:57Z</time></trkpt><trkpt lat="38.6988450785936" lon="16.437424288079256"><ele>385.0</ele><time>2026-05-04T06:45:03Z</time></trkpt><trkpt lat="38.69887579682605" lon="16.437343547717333"><ele>385.0</ele><time>2026-05-04T06:45:09Z</time></trkpt><trkpt lat="38.69890439214157" lon="16.43727115210007"><ele>385.0</ele><time>2026-05-04T06:45:12Z</time></trkpt><trkpt lat="38.69893703796728" lon="16.437201398963428"><ele>385.0</ele><time>2026-05-04T06:45:19Z</time></trkpt><trkpt lat="38.69897913606035" lon="16.437129728800095"><ele>385.0</ele><time>2026-05-04T06:45:25Z</time></trkpt><trkpt lat="38.69900385659299" lon="16.437050275881642"><ele>385.0</ele><time>2026-05-04T06:45:30Z</time></trkpt><trkpt lat="38.69902580814212" lon="16.436969988818685"><ele>385.0</ele><time>2026-05-04T06:45:36Z</time></trkpt><trkpt lat="38.69908008851885" lon="16.436906759936956"><ele>385.0</ele><time>2026-05-04T06:45:41Z</time></trkpt><trkpt lat="38.69912965552388" lon="16.436851869741506"><ele>385.33333333333337</ele><time>2026-05-04T06:45:47Z</time></trkpt><trkpt lat="38.69917892088283" lon="16.43678725384857"><ele>385.6666666666667</ele><time>2026-05-04T06:45:53Z</time></trkpt><trkpt lat="38.69923878580123" lon="16.43670572227823"><ele>386.0</ele><time>2026-05-04T06:45:59Z</time></trkpt><trkpt lat="38.699285605727525" lon="16.43665094898539"><ele>386.33333333333337</ele><time>2026-05-04T06:46:04Z</time></trkpt><trkpt lat="38.69935738359401" lon="16.436596093707166"><ele>386.6666666666667</ele><time>2026-05-04T06:46:12Z</time></trkpt><trkpt lat="38.699417104002315" lon="16.436534067535803"><ele>387.0</ele><time>2026-05-04T06:46:17Z</time></trkpt><trkpt lat="38.69948839381402" lon="16.436506926582933"><ele>387.0</ele><time>2026-05-04T06:46:25Z</time></trkpt><trkpt lat="38.699551322062895" lon="16.43644980192989"><ele>387.0</ele><time>2026-05-04T06:46:32Z</time></trkpt><trkpt lat="38.69959977352631" lon="16.436385608551866"><ele>387.0</ele><time>2026-05-04T06:46:35Z</time></trkpt><trkpt lat="38.69968867289773" lon="16.43635168903313"><ele>387.0</ele><time>2026-05-04T06:46:44Z</time></trkpt><trkpt lat="38.69973930760982" lon="16.436293602608213"><ele>387.0</ele><time>2026-05-04T06:46:49Z</time></trkpt><trkpt lat="38.69979704045404" lon="16.436241699857128"><ele>387.0</ele><time>2026-05-04T06:46:56Z</time></trkpt><trkpt lat="38.69986255403217" lon="16.436192440697514"><ele>385.0</ele><time>2026-05-04T06:47:01Z</time></trkpt><trkpt lat="38.69992664592473" lon="16.436150640958168"><ele>383.0</ele><time>2026-05-04T06:47:08Z</time></trkpt><trkpt lat="38.69997595529033" lon="16.436097279574852"><ele>381.0</ele><time>2026-05-04T06:47:13Z</time></trkpt><trkpt lat="38.7000376441079" lon="16.436021836304665"><ele>379.0</ele><time>2026-05-04T06:47:20Z</time></trkpt><trkpt lat="38.70010833998209" lon="16.43598702016244"><ele>377.0</ele><time>2026-05-04T06:47:23Z</time></trkpt><trkpt lat="38.70016706505665" lon="16.435910470415624"><ele>375.0</ele><time>2026-05-04T06:47:33Z</time></trkpt><trkpt lat="38.700206067664716" lon="16.435829828329204"><ele>375.5714285714286</ele><time>2026-05-04T06:47:38Z</time></trkpt><trkpt lat="38.700259889531374" lon="16.435785892749976"><ele>376.1428571428571</ele><time>2026-05-04T06:47:45Z</time></trkpt><trkpt lat="38.700300379912655" lon="16.43572142153724"><ele>376.7142857142857</ele><time>2026-05-04T06:47:50Z</time></trkpt><trkpt lat="38.700349650604124" lon="16.435670372638253"><ele>377.28571428571433</ele><time>2026-05-04T06:47:54Z</time></trkpt><trkpt lat="38.700397568563105" lon="16.43559501152389"><ele>377.8571428571429</ele><time>2026-05-04T06:47:59Z</time></trkpt><trkpt lat="38.70042768788682" lon="16.435518121746803"><ele>378.42857142857144</ele><time>2026-05-04T06:48:05Z</time></trkpt><trkpt lat="38.70047220488525" lon="16.435450636147518"><ele>379.0</ele><time>2026-05-04T06:48:11Z</time></trkpt><trkpt lat="38.70049720496409" lon="16.435370655209276"><ele>379.00000000000006</ele><time>2026-05-04T06:48:15Z</time></trkpt><trkpt lat="38.700547788212994" lon="16.435292193376707"><ele>379.0</ele><time>2026-05-04T06:48:22Z</time></trkpt><trkpt lat="38.70058497994433" lon="16.43520478468899"><ele>379.0</ele><time>2026-05-04T06:48:28Z</time></trkpt><trkpt lat="38.700636022760726" lon="16.43514565094015"><ele>379.0</ele><time>2026-05-04T06:48:34Z</time></trkpt><trkpt lat="38.70066607522023" lon="16.43505613368307"><ele>379.0</ele><time>2026-05-04T06:48:40Z</time></trkpt><trkpt lat="38.70070737019999" lon="16.4349839730384"><ele>379.00000000000006</ele><time>2026-05-04T06:48:46Z</time></trkpt><trkpt lat="38.70074496922139" lon="16.43490700488577"><ele>379.0</ele><time>2026-05-04T06:48:51Z</time></trkpt><trkpt lat="38.700786047033304" lon="16.434831855395558"><ele>379.00000000000006</ele><time>2026-05-04T06:48:57Z</time></trkpt><trkpt lat="38.7008337479927" lon="16.434777661179293"><ele>379.0</ele><time>2026-05-04T06:49:05Z</time></trkpt><trkpt lat="38.70089596344436" lon="16.43476061168112"><ele>379.0</ele><time>2026-05-04T06:49:09Z</time></trkpt><trkpt lat="38.70094146656871" lon="16.434685083432882"><ele>379.0</ele><time>2026-05-04T06:49:15Z</time></trkpt><trkpt lat="38.7009806830432" lon="16.434618561426515"><ele>379.0</ele><time>2026-05-04T06:49:20Z</time></trkpt><trkpt lat="38.7010169023384" lon="16.43454068242612"><ele>379.00000000000006</ele><time>2026-05-04T06:49:26Z</time></trkpt><trkpt lat="38.701062332723836" lon="16.43448156403474"><ele>379.0</ele><time>2026-05-04T06:49:32Z</time></trkpt><trkpt lat="38.701112055355175" lon="16.434414542417763"><ele>378.8571428571429</ele><time>2026-05-04T06:49:38Z</time></trkpt><trkpt lat="38.7011496046356" lon="16.43432738551802"><ele>378.7142857142857</ele><time>2026-05-04T06:49:44Z</time></trkpt><trkpt lat="38.701180864634125" lon="16.43425628727346"><ele>378.57142857142856</ele><time>2026-05-04T06:49:50Z</time></trkpt><trkpt lat="38.70120970306047" lon="16.434179349121365"><ele>378.42857142857144</ele><time>2026-05-04T06:49:56Z</time></trkpt><trkpt lat="38.70124351223436" lon="16.43409637448382"><ele>378.2857142857143</ele><time>2026-05-04T06:50:02Z</time></trkpt><trkpt lat="38.70125476426555" lon="16.434012718846258"><ele>378.14285714285717</ele><time>2026-05-04T06:50:08Z</time></trkpt><trkpt lat="38.701282703039325" lon="16.433938317228414"><ele>378.0</ele><time>2026-05-04T06:50:13Z</time></trkpt><trkpt lat="38.70130238976901" lon="16.433857362193315"><ele>378.0</ele><time>2026-05-04T06:50:19Z</time></trkpt><trkpt lat="38.70132430803518" lon="16.433768408415716"><ele>378.0</ele><time>2026-05-04T06:50:25Z</time></trkpt><trkpt lat="38.701336686086734" lon="16.433678183314385"><ele>378.0</ele><time>2026-05-04T06:50:31Z</time></trkpt><trkpt lat="38.70134492630751" lon="16.433594195075436"><ele>378.0</ele><time>2026-05-04T06:50:36Z</time></trkpt><trkpt lat="38.70134853773036" lon="16.43349967516391"><ele>378.0</ele><time>2026-05-04T06:50:43Z</time></trkpt><trkpt lat="38.70134352772946" lon="16.43341718204856"><ele>378.0</ele><time>2026-05-04T06:50:48Z</time></trkpt><trkpt lat="38.70134439225987" lon="16.433324058861192"><ele>378.0</ele><time>2026-05-04T06:50:53Z</time></trkpt><trkpt lat="38.70134356706932" lon="16.43323270308865"><ele>378.0</ele><time>2026-05-04T06:50:59Z</time></trkpt><trkpt lat="38.70135311553036" lon="16.43314242941791"><ele>378.0</ele><time>2026-05-04T06:51:05Z</time></trkpt><trkpt lat="38.701355241167626" lon="16.43305794378672"><ele>378.0</ele><time>2026-05-04T06:51:10Z</time></trkpt><trkpt lat="38.70135060370411" lon="16.432972666788025"><ele>378.0</ele><time>2026-05-04T06:51:15Z</time></trkpt><trkpt lat="38.701349868946735" lon="16.432889992693458"><ele>378.0</ele><time>2026-05-04T06:51:20Z</time></trkpt><trkpt lat="38.70134746310273" lon="16.432800175224642"><ele>378.0</ele><time>2026-05-04T06:51:26Z</time></trkpt><trkpt lat="38.701336406955555" lon="16.43271602480691"><ele>378.0</ele><time>2026-05-04T06:51:31Z</time></trkpt><trkpt lat="38.7013281899487" lon="16.432619801206112"><ele>378.2857142857143</ele><time>2026-05-04T06:51:36Z</time></trkpt><trkpt lat="38.701289728350254" lon="16.432533540790214"><ele>378.57142857142856</ele><time>2026-05-04T06:51:42Z</time></trkpt><trkpt lat="38.70127985025256" lon="16.43244793916642"><ele>378.8571428571429</ele><time>2026-05-04T06:51:47Z</time></trkpt><trkpt lat="38.70127550317942" lon="16.432365509707118"><ele>379.1428571428571</ele><time>2026-05-04T06:51:52Z</time></trkpt><trkpt lat="38.701244124723395" lon="16.43226833278157"><ele>379.42857142857144</ele><time>2026-05-04T06:51:57Z</time></trkpt><trkpt lat="38.70126714498835" lon="16.43219111231847"><ele>379.7142857142857</ele><time>2026-05-04T06:52:10Z</time></trkpt><trkpt lat="38.70125281118755" lon="16.432095321844933"><ele>380.0</ele><time>2026-05-04T06:52:19Z</time></trkpt><trkpt lat="38.70123983647889" lon="16.432001921755997"><ele>380.14285714285717</ele><time>2026-05-04T06:52:25Z</time></trkpt><trkpt lat="38.70125386103378" lon="16.43191569649247"><ele>380.28571428571433</ele><time>2026-05-04T06:52:31Z</time></trkpt><trkpt lat="38.701224172565226" lon="16.43183831685144"><ele>380.42857142857144</ele><time>2026-05-04T06:52:37Z</time></trkpt><trkpt lat="38.70121498613015" lon="16.431756193779897"><ele>380.57142857142856</ele><time>2026-05-04T06:52:44Z</time></trkpt><trkpt lat="38.70120970378056" lon="16.43167289307317"><ele>380.7142857142857</ele><time>2026-05-04T06:52:49Z</time></trkpt><trkpt lat="38.70121607655532" lon="16.431583525177928"><ele>380.85714285714283</ele><time>2026-05-04T06:52:54Z</time></trkpt><trkpt lat="38.70118474752395" lon="16.431512586612474"><ele>381.0</ele><time>2026-05-04T06:53:30Z</time></trkpt><trkpt lat="38.70115810537532" lon="16.43143199647347"><ele>381.0</ele><time>2026-05-04T06:53:36Z</time></trkpt><trkpt lat="38.70112123120461" lon="16.43134940437443"><ele>381.0</ele><time>2026-05-04T06:53:42Z</time></trkpt><trkpt lat="38.701075216426595" lon="16.43127270049906"><ele>381.0</ele><time>2026-05-04T06:53:48Z</time></trkpt><trkpt lat="38.701041799709955" lon="16.431202169759494"><ele>381.0</ele><time>2026-05-04T06:53:53Z</time></trkpt><trkpt lat="38.701006567048175" lon="16.43113298013272"><ele>381.0</ele><time>2026-05-04T06:53:58Z</time></trkpt><trkpt lat="38.70098045565194" lon="16.431046550901822"><ele>381.0</ele><time>2026-05-04T06:54:04Z</time></trkpt><trkpt lat="38.700974247242726" lon="16.43095323854322"><ele>381.0</ele><time>2026-05-04T06:54:10Z</time></trkpt><trkpt lat="38.70095680032177" lon="16.43087510406928"><ele>379.85714285714283</ele><time>2026-05-04T06:54:15Z</time></trkpt><trkpt lat="38.700949789480724" lon="16.4307804212447"><ele>378.7142857142857</ele><time>2026-05-04T06:54:21Z</time></trkpt><trkpt lat="38.70093895809189" lon="16.430699813731287"><ele>377.57142857142856</ele><time>2026-05-04T06:54:26Z</time></trkpt><trkpt lat="38.700940402288715" lon="16.43061892904178"><ele>376.42857142857144</ele><time>2026-05-04T06:54:31Z</time></trkpt><trkpt lat="38.700923565092594" lon="16.430527295188536"><ele>375.28571428571433</ele><time>2026-05-04T06:54:36Z</time></trkpt><trkpt lat="38.70091064956241" lon="16.430446849728494"><ele>374.14285714285717</ele><time>2026-05-04T06:54:41Z</time></trkpt><trkpt lat="38.700899534530265" lon="16.43035904719517"><ele>373.0</ele><time>2026-05-04T06:54:47Z</time></trkpt><trkpt lat="38.70088928000965" lon="16.43026631401235"><ele>373.0</ele><time>2026-05-04T06:54:52Z</time></trkpt><trkpt lat="38.700887511018074" lon="16.430184010261005"><ele>373.0</ele><time>2026-05-04T06:54:57Z</time></trkpt><trkpt lat="38.70088572310608" lon="16.430080796784555"><ele>373.0</ele><time>2026-05-04T06:55:03Z</time></trkpt><trkpt lat="38.7009016307431" lon="16.429997817045077"><ele>373.0</ele><time>2026-05-04T06:55:08Z</time></trkpt><trkpt lat="38.700937954347914" lon="16.42991458066615"><ele>373.0</ele><time>2026-05-04T06:55:14Z</time></trkpt><trkpt lat="38.7009860440841" lon="16.429859696632654"><ele>373.0</ele><time>2026-05-04T06:55:19Z</time></trkpt><trkpt lat="38.70104026709188" lon="16.42980769993603"><ele>373.0</ele><time>2026-05-04T06:55:24Z</time></trkpt><trkpt lat="38.701103753951344" lon="16.429760668463484"><ele>374.0</ele><time>2026-05-04T06:55:30Z</time></trkpt><trkpt lat="38.701160063556344" lon="16.429705797114234"><ele>375.0</ele><time>2026-05-04T06:55:35Z</time></trkpt><trkpt lat="38.701214802508346" lon="16.429655217242992"><ele>376.0</ele><time>2026-05-04T06:55:40Z</time></trkpt><trkpt lat="38.701252646071076" lon="16.42958563481944"><ele>377.0</ele><time>2026-05-04T06:55:45Z</time></trkpt><trkpt lat="38.701295974731906" lon="16.429521621280646"><ele>378.0</ele><time>2026-05-04T06:55:50Z</time></trkpt><trkpt lat="38.7013206095433" lon="16.429440108128947"><ele>379.0</ele><time>2026-05-04T06:55:55Z</time></trkpt><trkpt lat="38.70134520816859" lon="16.429350856437935"><ele>380.0</ele><time>2026-05-04T06:56:01Z</time></trkpt><trkpt lat="38.70136539370606" lon="16.42926949487361"><ele>380.0</ele><time>2026-05-04T06:56:07Z</time></trkpt><trkpt lat="38.70137623655622" lon="16.429180265167652"><ele>380.0</ele><time>2026-05-04T06:56:12Z</time></trkpt><trkpt lat="38.70138931900544" lon="16.42908005291357"><ele>380.0</ele><time>2026-05-04T06:56:18Z</time></trkpt><trkpt lat="38.70140051503945" lon="16.428993517849708"><ele>380.0</ele><time>2026-05-04T06:56:23Z</time></trkpt><trkpt lat="38.70140552044137" lon="16.428906796692527"><ele>380.0</ele><time>2026-05-04T06:56:28Z</time></trkpt><trkpt lat="38.70141188141586" lon="16.428818097647316"><ele>380.0</ele><time>2026-05-04T06:56:33Z</time></trkpt><trkpt lat="38.70142671803707" lon="16.428735172647617"><ele>380.0</ele><time>2026-05-04T06:56:39Z</time></trkpt><trkpt lat="38.70143734674087" lon="16.42865538102074"><ele>379.7142857142857</ele><time>2026-05-04T06:56:43Z</time></trkpt><trkpt lat="38.70146685546421" lon="16.42856522981269"><ele>379.42857142857144</ele><time>2026-05-04T06:56:50Z</time></trkpt><trkpt lat="38.70149952685848" lon="16.428489918800484"><ele>379.1428571428571</ele><time>2026-05-04T06:56:55Z</time></trkpt><trkpt lat="38.70152831580561" lon="16.428410561762583"><ele>378.8571428571429</ele><time>2026-05-04T06:57:00Z</time></trkpt><trkpt lat="38.701551999677996" lon="16.42833035931888"><ele>378.57142857142856</ele><time>2026-05-04T06:57:05Z</time></trkpt><trkpt lat="38.70158359878103" lon="16.428256845790216"><ele>378.2857142857143</ele><time>2026-05-04T06:57:10Z</time></trkpt><trkpt lat="38.70161252286771" lon="16.428181229667487"><ele>378.0</ele><time>2026-05-04T06:57:15Z</time></trkpt><trkpt lat="38.701639124745014" lon="16.42809931556348"><ele>378.0</ele><time>2026-05-04T06:57:20Z</time></trkpt><trkpt lat="38.701662834347616" lon="16.428008389188093"><ele>378.0</ele><time>2026-05-04T06:57:26Z</time></trkpt><trkpt lat="38.70169387471019" lon="16.427914879254907"><ele>378.0</ele><time>2026-05-04T06:57:32Z</time></trkpt><trkpt lat="38.70173093723469" lon="16.42782613830661"><ele>378.0</ele><time>2026-05-04T06:57:39Z</time></trkpt><trkpt lat="38.70176507905711" lon="16.42772948392588"><ele>378.0</ele><time>2026-05-04T06:57:44Z</time></trkpt><trkpt lat="38.70180386299929" lon="16.427658852764615"><ele>378.0</ele><time>2026-05-04T06:57:50Z</time></trkpt><trkpt lat="38.70182996522834" lon="16.42758416436623"><ele>378.0</ele><time>2026-05-04T06:57:55Z</time></trkpt><trkpt lat="38.70185916169854" lon="16.427502382105693"><ele>377.57142857142856</ele><time>2026-05-04T06:58:01Z</time></trkpt><trkpt lat="38.701887805041586" lon="16.427421367354913"><ele>377.1428571428571</ele><time>2026-05-04T06:58:06Z</time></trkpt><trkpt lat="38.70191425587328" lon="16.42734355575561"><ele>376.7142857142857</ele><time>2026-05-04T06:58:11Z</time></trkpt><trkpt lat="38.70194639040422" lon="16.427262451423847"><ele>376.2857142857143</ele><time>2026-05-04T06:58:16Z</time></trkpt><trkpt lat="38.70198327412561" lon="16.427187758477594"><ele>375.85714285714283</ele><time>2026-05-04T06:58:22Z</time></trkpt><trkpt lat="38.7020039777533" lon="16.427099127203295"><ele>375.42857142857144</ele><time>2026-05-04T06:58:27Z</time></trkpt><trkpt lat="38.702037378974225" lon="16.427026369771802"><ele>375.0</ele><time>2026-05-04T06:58:32Z</time></trkpt><trkpt lat="38.70206829178634" lon="16.42695275692379"><ele>376.0</ele><time>2026-05-04T06:58:37Z</time></trkpt><trkpt lat="38.702100973533966" lon="16.42688180299676"><ele>377.0</ele><time>2026-05-04T06:58:42Z</time></trkpt><trkpt lat="38.7021430167341" lon="16.426808774247085"><ele>378.0</ele><time>2026-05-04T06:58:47Z</time></trkpt><trkpt lat="38.70218725524718" lon="16.42674967471247"><ele>379.0</ele><time>2026-05-04T06:58:51.999Z</time></trkpt><trkpt lat="38.70224548771976" lon="16.426687638994448"><ele>380.0</ele><time>2026-05-04T06:58:58Z</time></trkpt><trkpt lat="38.70228262059571" lon="16.426611530203278"><ele>381.0</ele><time>2026-05-04T06:59:03Z</time></trkpt><trkpt lat="38.702320723315665" lon="16.426539763173942"><ele>382.0</ele><time>2026-05-04T06:59:08Z</time></trkpt><trkpt lat="38.70235428455782" lon="16.42646576192712"><ele>382.0</ele><time>2026-05-04T06:59:14Z</time></trkpt><trkpt lat="38.702385643182645" lon="16.42638220397566"><ele>382.0</ele><time>2026-05-04T06:59:19Z</time></trkpt><trkpt lat="38.70241479042519" lon="16.426296913745432"><ele>382.0</ele><time>2026-05-04T06:59:25Z</time></trkpt><trkpt lat="38.7024419250717" lon="16.42621704053874"><ele>382.0</ele><time>2026-05-04T06:59:30Z</time></trkpt><trkpt lat="38.702468682873324" lon="16.426135926606193"><ele>382.0</ele><time>2026-05-04T06:59:35Z</time></trkpt><trkpt lat="38.70249638876927" lon="16.42605775834231"><ele>382.0</ele><time>2026-05-04T06:59:39Z</time></trkpt><trkpt lat="38.702527239989536" lon="16.425985898024695"><ele>382.0</ele><time>2026-05-04T06:59:46Z</time></trkpt><trkpt lat="38.70255453290915" lon="16.42590998721499"><ele>381.2857142857143</ele><time>2026-05-04T06:59:51Z</time></trkpt><trkpt lat="38.70257469271176" lon="16.425833368152396"><ele>380.57142857142856</ele><time>2026-05-04T06:59:56Z</time></trkpt><trkpt lat="38.70260742375636" lon="16.425755333674054"><ele>379.85714285714283</ele><time>2026-05-04T07:00:01Z</time></trkpt><trkpt lat="38.70261355466321" lon="16.425669337301912"><ele>379.1428571428571</ele><time>2026-05-04T07:00:05Z</time></trkpt><trkpt lat="38.70264981384816" lon="16.425599723478427"><ele>378.42857142857144</ele><time>2026-05-04T07:00:12Z</time></trkpt><trkpt lat="38.702672618908" lon="16.425524037135162"><ele>377.71428571428567</ele><time>2026-05-04T07:00:18Z</time></trkpt><trkpt lat="38.70271409760367" lon="16.425446035407276"><ele>377.0</ele><time>2026-05-04T07:00:24Z</time></trkpt><trkpt lat="38.70273431350139" lon="16.425368843124183"><ele>377.71428571428567</ele><time>2026-05-04T07:00:29Z</time></trkpt><trkpt lat="38.70276164978897" lon="16.425283533831905"><ele>378.42857142857144</ele><time>2026-05-04T07:00:34Z</time></trkpt><trkpt lat="38.702795783713555" lon="16.42519718680873"><ele>379.1428571428571</ele><time>2026-05-04T07:00:41Z</time></trkpt><trkpt lat="38.70283505311263" lon="16.425113761338007"><ele>379.85714285714283</ele><time>2026-05-04T07:00:46Z</time></trkpt><trkpt lat="38.70285257070347" lon="16.425029050067764"><ele>380.57142857142856</ele><time>2026-05-04T07:00:51Z</time></trkpt><trkpt lat="38.70288668825304" lon="16.42493142469548"><ele>381.2857142857143</ele><time>2026-05-04T07:00:57Z</time></trkpt><trkpt lat="38.70291550879525" lon="16.42484551906328"><ele>382.0</ele><time>2026-05-04T07:01:04Z</time></trkpt><trkpt lat="38.70294608574997" lon="16.424757970656803"><ele>382.0</ele><time>2026-05-04T07:01:09Z</time></trkpt><trkpt lat="38.7029807419187" lon="16.42467682822029"><ele>382.0</ele><time>2026-05-04T07:01:14Z</time></trkpt><trkpt lat="38.70301579548523" lon="16.424607903299087"><ele>382.0</ele><time>2026-05-04T07:01:20Z</time></trkpt><trkpt lat="38.7030549287931" lon="16.424541746619358"><ele>382.0</ele><time>2026-05-04T07:01:26Z</time></trkpt><trkpt lat="38.703091435173675" lon="16.42446541542262"><ele>382.0</ele><time>2026-05-04T07:01:30Z</time></trkpt><trkpt lat="38.703131242016454" lon="16.424380942829636"><ele>382.0</ele><time>2026-05-04T07:01:37Z</time></trkpt><trkpt lat="38.70319825590541" lon="16.42430271714047"><ele>382.0</ele><time>2026-05-04T07:01:43Z</time></trkpt><trkpt lat="38.703247444447705" lon="16.42423500197934"><ele>381.42857142857144</ele><time>2026-05-04T07:01:50Z</time></trkpt><trkpt lat="38.70330114927727" lon="16.424176806552225"><ele>380.85714285714283</ele><time>2026-05-04T07:01:57Z</time></trkpt><trkpt lat="38.7033444164428" lon="16.424116033849966"><ele>380.2857142857143</ele><time>2026-05-04T07:02:16Z</time></trkpt><trkpt lat="38.703389939998914" lon="16.424057253848087"><ele>379.7142857142857</ele><time>2026-05-04T07:02:21Z</time></trkpt><trkpt lat="38.703438565750126" lon="16.42398493624764"><ele>379.1428571428571</ele><time>2026-05-04T07:02:27Z</time></trkpt><trkpt lat="38.70348560449229" lon="16.42392270371857"><ele>378.57142857142856</ele><time>2026-05-04T07:02:33Z</time></trkpt><trkpt lat="38.703530803863906" lon="16.423863224737932"><ele>378.0</ele><time>2026-05-04T07:02:39Z</time></trkpt><trkpt lat="38.70357398279395" lon="16.423786617798168"><ele>378.42857142857144</ele><time>2026-05-04T07:02:44Z</time></trkpt><trkpt lat="38.70360966369247" lon="16.423710566790035"><ele>378.8571428571429</ele><time>2026-05-04T07:02:50Z</time></trkpt><trkpt lat="38.70364123137969" lon="16.42362759805309"><ele>379.2857142857143</ele><time>2026-05-04T07:02:59Z</time></trkpt><trkpt lat="38.70367627051847" lon="16.42355882360518"><ele>379.7142857142857</ele><time>2026-05-04T07:03:04.999Z</time></trkpt><trkpt lat="38.703707414232916" lon="16.423487169223677"><ele>380.14285714285717</ele><time>2026-05-04T07:03:10Z</time></trkpt><trkpt lat="38.7037451759604" lon="16.423410743531534"><ele>380.57142857142856</ele><time>2026-05-04T07:03:15Z</time></trkpt><trkpt lat="38.70378385393688" lon="16.42333256047019"><ele>381.0</ele><time>2026-05-04T07:03:21Z</time></trkpt><trkpt lat="38.70383167549275" lon="16.423266817076595"><ele>381.0</ele><time>2026-05-04T07:03:27Z</time></trkpt><trkpt lat="38.70386804797096" lon="16.42319132015797"><ele>381.0</ele><time>2026-05-04T07:03:32Z</time></trkpt><trkpt lat="38.70390723626282" lon="16.423114254375083"><ele>381.0</ele><time>2026-05-04T07:03:38Z</time></trkpt><trkpt lat="38.70394369636176" lon="16.42302777721686"><ele>381.0</ele><time>2026-05-04T07:03:44Z</time></trkpt><trkpt lat="38.703975649249436" lon="16.42295414469777"><ele>381.0</ele><time>2026-05-04T07:03:49Z</time></trkpt><trkpt lat="38.70401450257802" lon="16.422882107297532"><ele>381.0</ele><time>2026-05-04T07:03:55Z</time></trkpt><trkpt lat="38.70404876754184" lon="16.42279627556395"><ele>381.0</ele><time>2026-05-04T07:04:01Z</time></trkpt><trkpt lat="38.704092409922325" lon="16.42273627503562"><ele>381.1428571428571</ele><time>2026-05-04T07:04:06Z</time></trkpt><trkpt lat="38.70413350976583" lon="16.422658933592356"><ele>381.28571428571433</ele><time>2026-05-04T07:04:11Z</time></trkpt><trkpt lat="38.70417589912829" lon="16.422578144187415"><ele>381.42857142857144</ele><time>2026-05-04T07:04:17Z</time></trkpt><trkpt lat="38.70423256837981" lon="16.42253695906326"><ele>381.57142857142856</ele><time>2026-05-04T07:04:22Z</time></trkpt><trkpt lat="38.704293714212625" lon="16.422474949533193"><ele>381.71428571428567</ele><time>2026-05-04T07:04:28Z</time></trkpt><trkpt lat="38.70435332755662" lon="16.42241768217635"><ele>381.8571428571429</ele><time>2026-05-04T07:04:33Z</time></trkpt><trkpt lat="38.70440380499865" lon="16.422368135507217"><ele>382.0</ele><time>2026-05-04T07:04:37Z</time></trkpt><trkpt lat="38.70445122114351" lon="16.42229157312841"><ele>382.0</ele><time>2026-05-04T07:04:44Z</time></trkpt><trkpt lat="38.70449343361524" lon="16.4221985531103"><ele>382.0</ele><time>2026-05-04T07:04:50Z</time></trkpt><trkpt lat="38.70454344720364" lon="16.422125508869655"><ele>382.0</ele><time>2026-05-04T07:04:56Z</time></trkpt><trkpt lat="38.704584045605024" lon="16.422045644545666"><ele>382.0</ele><time>2026-05-04T07:05:02Z</time></trkpt><trkpt lat="38.70460590456182" lon="16.42196964576524"><ele>382.0</ele><time>2026-05-04T07:05:06Z</time></trkpt><trkpt lat="38.704636350451075" lon="16.421885941451936"><ele>382.0</ele><time>2026-05-04T07:05:13Z</time></trkpt><trkpt lat="38.704667390923674" lon="16.421809000525553"><ele>382.0</ele><time>2026-05-04T07:05:18Z</time></trkpt><trkpt lat="38.70470552951689" lon="16.421744639758654"><ele>381.66666666666663</ele><time>2026-05-04T07:05:23Z</time></trkpt><trkpt lat="38.70475106766874" lon="16.4216804193929"><ele>381.3333333333333</ele><time>2026-05-04T07:05:28Z</time></trkpt><trkpt lat="38.70479626125052" lon="16.42161826872665"><ele>381.0</ele><time>2026-05-04T07:05:33Z</time></trkpt><trkpt lat="38.704870869832526" lon="16.421574539713088"><ele>380.6666666666667</ele><time>2026-05-04T07:05:40Z</time></trkpt><trkpt lat="38.7049702646022" lon="16.421565433701648"><ele>380.33333333333337</ele><time>2026-05-04T07:05:48Z</time></trkpt><trkpt lat="38.705039541988974" lon="16.42155640402042"><ele>380.0</ele><time>2026-05-04T07:05:54Z</time></trkpt><trkpt lat="38.70510885863831" lon="16.421541169987627"><ele>380.0</ele><time>2026-05-04T07:05:59Z</time></trkpt><trkpt lat="38.705176468388586" lon="16.42151386696298"><ele>380.0</ele><time>2026-05-04T07:06:05Z</time></trkpt><trkpt lat="38.705239923704774" lon="16.42148398796239"><ele>380.0</ele><time>2026-05-04T07:06:10Z</time></trkpt><trkpt lat="38.70530405502456" lon="16.42143228227842"><ele>380.0</ele><time>2026-05-04T07:06:15Z</time></trkpt><trkpt lat="38.70536296950673" lon="16.421373191678697"><ele>380.0</ele><time>2026-05-04T07:06:20Z</time></trkpt><trkpt lat="38.70541904426629" lon="16.421308359767718"><ele>380.0</ele><time>2026-05-04T07:06:26Z</time></trkpt><trkpt lat="38.705468694057146" lon="16.421248829374555"><ele>380.0</ele><time>2026-05-04T07:06:32Z</time></trkpt><trkpt lat="38.70552277805502" lon="16.421190476320668"><ele>380.14285714285717</ele><time>2026-05-04T07:06:38Z</time></trkpt><trkpt lat="38.70557257637772" lon="16.421138700317226"><ele>380.28571428571433</ele><time>2026-05-04T07:06:43Z</time></trkpt><trkpt lat="38.705626254637444" lon="16.42109357769523"><ele>380.42857142857144</ele><time>2026-05-04T07:06:48Z</time></trkpt><trkpt lat="38.70569266119566" lon="16.421047048633906"><ele>380.57142857142856</ele><time>2026-05-04T07:06:54Z</time></trkpt><trkpt lat="38.70574602647853" lon="16.420993841099584"><ele>380.7142857142857</ele><time>2026-05-04T07:06:59Z</time></trkpt><trkpt lat="38.70580567281477" lon="16.420929672967606"><ele>380.85714285714283</ele><time>2026-05-04T07:07:05Z</time></trkpt><trkpt lat="38.70587709609651" lon="16.420899533093024"><ele>381.0</ele><time>2026-05-04T07:07:09.999Z</time></trkpt><trkpt lat="38.70592986970508" lon="16.420828598387583"><ele>381.0</ele><time>2026-05-04T07:07:15.999Z</time></trkpt><trkpt lat="38.705979912654584" lon="16.420776742287735"><ele>381.0</ele><time>2026-05-04T07:07:22Z</time></trkpt><trkpt lat="38.70603987157663" lon="16.42072214512369"><ele>381.0</ele><time>2026-05-04T07:07:28Z</time></trkpt><trkpt lat="38.706100230087095" lon="16.420679538757703"><ele>381.0</ele><time>2026-05-04T07:07:33Z</time></trkpt><trkpt lat="38.7061536125055" lon="16.420630717759256"><ele>381.0</ele><time>2026-05-04T07:07:38Z</time></trkpt><trkpt lat="38.70619562372296" lon="16.420565736383473"><ele>381.0</ele><time>2026-05-04T07:07:43Z</time></trkpt><trkpt lat="38.706224696294676" lon="16.420484087096334"><ele>381.0</ele><time>2026-05-04T07:07:49Z</time></trkpt><trkpt lat="38.70625686154558" lon="16.420411512441124"><ele>381.4285714285714</ele><time>2026-05-04T07:07:53Z</time></trkpt><trkpt lat="38.7062819087698" lon="16.420324374713214"><ele>381.8571428571429</ele><time>2026-05-04T07:07:59Z</time></trkpt><trkpt lat="38.70630094855412" lon="16.42023709569545"><ele>382.2857142857143</ele><time>2026-05-04T07:08:04Z</time></trkpt><trkpt lat="38.70632438019449" lon="16.420149992052494"><ele>382.71428571428567</ele><time>2026-05-04T07:08:10Z</time></trkpt><trkpt lat="38.70634822628738" lon="16.420064142331203"><ele>383.1428571428571</ele><time>2026-05-04T07:08:16Z</time></trkpt><trkpt lat="38.70638023836385" lon="16.419988264838654"><ele>383.57142857142856</ele><time>2026-05-04T07:08:21Z</time></trkpt><trkpt lat="38.70640201575755" lon="16.419912022129616"><ele>384.0</ele><time>2026-05-04T07:08:26Z</time></trkpt><trkpt lat="38.70643320700501" lon="16.41984120347655"><ele>383.99999999999994</ele><time>2026-05-04T07:08:31Z</time></trkpt><trkpt lat="38.70646859138215" lon="16.41976727948934"><ele>384.0</ele><time>2026-05-04T07:08:36Z</time></trkpt><trkpt lat="38.70648924121187" lon="16.419689131659645"><ele>384.0</ele><time>2026-05-04T07:08:41Z</time></trkpt><trkpt lat="38.70652727121502" lon="16.419619657806734"><ele>384.0</ele><time>2026-05-04T07:08:47Z</time></trkpt><trkpt lat="38.70655328986389" lon="16.419535204050348"><ele>384.0</ele><time>2026-05-04T07:08:52Z</time></trkpt><trkpt lat="38.70658910367698" lon="16.419462814442447"><ele>383.99999999999994</ele><time>2026-05-04T07:08:58Z</time></trkpt><trkpt lat="38.706622254710936" lon="16.41939106475918"><ele>384.0</ele><time>2026-05-04T07:09:03Z</time></trkpt><trkpt lat="38.706655466726744" lon="16.41931709710504"><ele>383.85714285714283</ele><time>2026-05-04T07:09:08Z</time></trkpt><trkpt lat="38.706709477715556" lon="16.419255671165576"><ele>383.7142857142857</ele><time>2026-05-04T07:09:14Z</time></trkpt><trkpt lat="38.7067462306651" lon="16.419184700454135"><ele>383.57142857142856</ele><time>2026-05-04T07:09:19Z</time></trkpt><trkpt lat="38.70678930922499" lon="16.419115155742553"><ele>383.42857142857144</ele><time>2026-05-04T07:09:25Z</time></trkpt><trkpt lat="38.706827385658926" lon="16.419034590840287"><ele>383.2857142857143</ele><time>2026-05-04T07:09:31Z</time></trkpt><trkpt lat="38.70685664811006" lon="16.41895748182111"><ele>383.1428571428571</ele><time>2026-05-04T07:09:35Z</time></trkpt><trkpt lat="38.70689345926764" lon="16.41887242450352"><ele>383.0</ele><time>2026-05-04T07:09:41Z</time></trkpt><trkpt lat="38.706916475228226" lon="16.418777964296535"><ele>384.1428571428571</ele><time>2026-05-04T07:10:00Z</time></trkpt><trkpt lat="38.70693111230928" lon="16.418682520532034"><ele>385.2857142857143</ele><time>2026-05-04T07:10:06Z</time></trkpt><trkpt lat="38.706969190014895" lon="16.41859579745415"><ele>386.42857142857144</ele><time>2026-05-04T07:10:12Z</time></trkpt><trkpt lat="38.70701294584465" lon="16.418521496364097"><ele>387.57142857142856</ele><time>2026-05-04T07:10:17Z</time></trkpt><trkpt lat="38.70704960370139" lon="16.418442895744572"><ele>388.7142857142857</ele><time>2026-05-04T07:10:23Z</time></trkpt><trkpt lat="38.707077112591655" lon="16.418367535312093"><ele>389.85714285714283</ele><time>2026-05-04T07:10:32Z</time></trkpt><trkpt lat="38.70709432751946" lon="16.41828380000276"><ele>391.0</ele><time>2026-05-04T07:10:37Z</time></trkpt><trkpt lat="38.70711326840753" lon="16.418192242044363"><ele>390.99999999999994</ele><time>2026-05-04T07:10:43Z</time></trkpt><trkpt lat="38.707128303174485" lon="16.41809567376892"><ele>391.0</ele><time>2026-05-04T07:10:49Z</time></trkpt><trkpt lat="38.70713562524043" lon="16.418006446066894"><ele>391.0</ele><time>2026-05-04T07:10:55Z</time></trkpt><trkpt lat="38.70714935155803" lon="16.41792382250688"><ele>391.0</ele><time>2026-05-04T07:11:01Z</time></trkpt><trkpt lat="38.70715270203321" lon="16.41783560260272"><ele>391.0</ele><time>2026-05-04T07:11:07Z</time></trkpt><trkpt lat="38.707158761771794" lon="16.417744446346596"><ele>390.99999999999994</ele><time>2026-05-04T07:11:12Z</time></trkpt><trkpt lat="38.70717275724731" lon="16.417655659738948"><ele>391.0</ele><time>2026-05-04T07:11:18Z</time></trkpt><trkpt lat="38.70718963925375" lon="16.417569498356173"><ele>390.85714285714283</ele><time>2026-05-04T07:11:24Z</time></trkpt><trkpt lat="38.70720547151691" lon="16.417473879545234"><ele>390.7142857142857</ele><time>2026-05-04T07:11:30Z</time></trkpt><trkpt lat="38.7072214468969" lon="16.41738362800203"><ele>390.57142857142856</ele><time>2026-05-04T07:11:35Z</time></trkpt><trkpt lat="38.707224663004965" lon="16.417294038360314"><ele>390.42857142857144</ele><time>2026-05-04T07:11:40Z</time></trkpt><trkpt lat="38.70724242876495" lon="16.417205455305307"><ele>390.2857142857143</ele><time>2026-05-04T07:11:46Z</time></trkpt><trkpt lat="38.70725016084572" lon="16.41711744889061"><ele>390.1428571428571</ele><time>2026-05-04T07:11:52Z</time></trkpt><trkpt lat="38.70726581088376" lon="16.417028564398038"><ele>390.0</ele><time>2026-05-04T07:11:57Z</time></trkpt><trkpt lat="38.70728325508613" lon="16.416942191237343"><ele>389.85714285714283</ele><time>2026-05-04T07:12:03Z</time></trkpt><trkpt lat="38.70730089415451" lon="16.416849705332545"><ele>389.71428571428567</ele><time>2026-05-04T07:12:08Z</time></trkpt><trkpt lat="38.7073108963698" lon="16.416762402695298"><ele>389.57142857142856</ele><time>2026-05-04T07:12:13Z</time></trkpt><trkpt lat="38.70731891825227" lon="16.41667994457784"><ele>389.42857142857144</ele><time>2026-05-04T07:12:19Z</time></trkpt><trkpt lat="38.7073303978994" lon="16.416590464391305"><ele>389.2857142857143</ele><time>2026-05-04T07:12:24Z</time></trkpt><trkpt lat="38.70733456710269" lon="16.416497696951094"><ele>389.14285714285717</ele><time>2026-05-04T07:12:29Z</time></trkpt><trkpt lat="38.707360237318134" lon="16.416415193255848"><ele>389.0</ele><time>2026-05-04T07:12:35Z</time></trkpt><trkpt lat="38.70738334598227" lon="16.416324205983955"><ele>389.0</ele><time>2026-05-04T07:12:41Z</time></trkpt><trkpt lat="38.70741945248889" lon="16.416248962020674"><ele>389.0</ele><time>2026-05-04T07:12:47Z</time></trkpt><trkpt lat="38.70744206828417" lon="16.416169048193805"><ele>389.0</ele><time>2026-05-04T07:12:51Z</time></trkpt><trkpt lat="38.70746133033319" lon="16.416083326546165"><ele>389.0</ele><time>2026-05-04T07:12:57Z</time></trkpt><trkpt lat="38.70748950806681" lon="16.41601072330655"><ele>389.0</ele><time>2026-05-04T07:13:02Z</time></trkpt><trkpt lat="38.70751101437535" lon="16.415894026167575"><ele>389.0</ele><time>2026-05-04T07:13:07Z</time></trkpt><trkpt lat="38.70754207321006" lon="16.41581441759476"><ele>389.0</ele><time>2026-05-04T07:13:14Z</time></trkpt><trkpt lat="38.70758795709934" lon="16.415748611625222"><ele>389.0</ele><time>2026-05-04T07:13:19Z</time></trkpt><trkpt lat="38.70759520550842" lon="16.415666237288647"><ele>389.0</ele><time>2026-05-04T07:13:24Z</time></trkpt><trkpt lat="38.707610902719544" lon="16.415583372682192"><ele>389.0</ele><time>2026-05-04T07:13:29Z</time></trkpt><trkpt lat="38.70763460813544" lon="16.415505239719156"><ele>389.0</ele><time>2026-05-04T07:13:34Z</time></trkpt><trkpt lat="38.70766079088247" lon="16.415419488237294"><ele>389.0</ele><time>2026-05-04T07:13:40Z</time></trkpt><trkpt lat="38.70768554430114" lon="16.415339121607705"><ele>389.0</ele><time>2026-05-04T07:13:44Z</time></trkpt><trkpt lat="38.70771226431038" lon="16.41526011554428"><ele>389.0</ele><time>2026-05-04T07:13:49Z</time></trkpt><trkpt lat="38.70773821421423" lon="16.415180410079635"><ele>389.7142857142857</ele><time>2026-05-04T07:13:54Z</time></trkpt><trkpt lat="38.707758228482234" lon="16.41509999252225"><ele>390.4285714285714</ele><time>2026-05-04T07:14:00Z</time></trkpt><trkpt lat="38.707783817794706" lon="16.41502565570026"><ele>391.1428571428571</ele><time>2026-05-04T07:14:05Z</time></trkpt><trkpt lat="38.707814069310714" lon="16.414932889631192"><ele>391.8571428571429</ele><time>2026-05-04T07:14:10Z</time></trkpt><trkpt lat="38.707860987060435" lon="16.41485746995136"><ele>392.57142857142856</ele><time>2026-05-04T07:14:17Z</time></trkpt><trkpt lat="38.70788602009378" lon="16.41477855721047"><ele>393.2857142857143</ele><time>2026-05-04T07:14:21Z</time></trkpt><trkpt lat="38.70791410389315" lon="16.414698422391215"><ele>394.0</ele><time>2026-05-04T07:14:27Z</time></trkpt><trkpt lat="38.707941509467425" lon="16.414616200947904"><ele>394.0</ele><time>2026-05-04T07:14:32Z</time></trkpt><trkpt lat="38.70798866739793" lon="16.41455997230179"><ele>394.0</ele><time>2026-05-04T07:14:37Z</time></trkpt><trkpt lat="38.708013833727186" lon="16.414481657526093"><ele>394.0</ele><time>2026-05-04T07:14:42Z</time></trkpt><trkpt lat="38.708037559068444" lon="16.41440484337681"><ele>394.0</ele><time>2026-05-04T07:14:46Z</time></trkpt><trkpt lat="38.708083750811795" lon="16.41433682405859"><ele>394.0</ele><time>2026-05-04T07:14:52Z</time></trkpt><trkpt lat="38.70812033809513" lon="16.414256192905007"><ele>394.0</ele><time>2026-05-04T07:14:58Z</time></trkpt><trkpt lat="38.70813994030201" lon="16.414168603123144"><ele>394.0</ele><time>2026-05-04T07:15:03Z</time></trkpt><trkpt lat="38.708165427542085" lon="16.414084024145836"><ele>394.0</ele><time>2026-05-04T07:15:09Z</time></trkpt><trkpt lat="38.708178188813456" lon="16.41398519061334"><ele>394.0</ele><time>2026-05-04T07:15:14Z</time></trkpt><trkpt lat="38.70819457453544" lon="16.41389848715939"><ele>394.0</ele><time>2026-05-04T07:15:21Z</time></trkpt><trkpt lat="38.70819809121707" lon="16.41380941039666"><ele>394.0</ele><time>2026-05-04T07:15:27Z</time></trkpt><trkpt lat="38.70820489842528" lon="16.413729058185005"><ele>394.0</ele><time>2026-05-04T07:15:31Z</time></trkpt><trkpt lat="38.70820483739057" lon="16.413636908898585"><ele>394.0</ele><time>2026-05-04T07:15:37Z</time></trkpt><trkpt lat="38.70821121487645" lon="16.413553845494967"><ele>394.0</ele><time>2026-05-04T07:15:42Z</time></trkpt><trkpt lat="38.708221431771925" lon="16.413452950647926"><ele>393.57142857142856</ele><time>2026-05-04T07:15:47Z</time></trkpt><trkpt lat="38.7082301189364" lon="16.41336745760165"><ele>393.14285714285717</ele><time>2026-05-04T07:15:53Z</time></trkpt><trkpt lat="38.70822707301602" lon="16.41328421580764"><ele>392.71428571428567</ele><time>2026-05-04T07:15:58Z</time></trkpt><trkpt lat="38.70823075719681" lon="16.413182708728936"><ele>392.2857142857143</ele><time>2026-05-04T07:16:04Z</time></trkpt><trkpt lat="38.70824226024811" lon="16.413102013336115"><ele>391.85714285714283</ele><time>2026-05-04T07:16:08Z</time></trkpt><trkpt lat="38.7082633488518" lon="16.413017340925784"><ele>391.4285714285714</ele><time>2026-05-04T07:16:13Z</time></trkpt><trkpt lat="38.70828686371084" lon="16.412928807092975"><ele>391.0</ele><time>2026-05-04T07:16:19Z</time></trkpt><trkpt lat="38.70830993083925" lon="16.41284472894999"><ele>390.57142857142856</ele><time>2026-05-04T07:16:25Z</time></trkpt><trkpt lat="38.708334772942344" lon="16.412751068055943"><ele>390.1428571428571</ele><time>2026-05-04T07:16:30Z</time></trkpt><trkpt lat="38.708366040558225" lon="16.412674298464243"><ele>389.71428571428567</ele><time>2026-05-04T07:16:36Z</time></trkpt><trkpt lat="38.70838840783595" lon="16.412590568054085"><ele>389.2857142857143</ele><time>2026-05-04T07:16:41Z</time></trkpt><trkpt lat="38.70840625451721" lon="16.41250210397753"><ele>388.8571428571429</ele><time>2026-05-04T07:16:46Z</time></trkpt><trkpt lat="38.70843325026548" lon="16.412416944529667"><ele>388.4285714285714</ele><time>2026-05-04T07:16:52Z</time></trkpt><trkpt lat="38.70847278776856" lon="16.412343613151073"><ele>388.0</ele><time>2026-05-04T07:16:57Z</time></trkpt><trkpt lat="38.708501400497475" lon="16.412270252875256"><ele>388.0</ele><time>2026-05-04T07:17:02Z</time></trkpt><trkpt lat="38.70852492217207" lon="16.41219527644333"><ele>388.0</ele><time>2026-05-04T07:17:06Z</time></trkpt><trkpt lat="38.708573171727316" lon="16.412127989137655"><ele>388.0</ele><time>2026-05-04T07:17:12Z</time></trkpt><trkpt lat="38.708622131287946" lon="16.412072267564646"><ele>388.0</ele><time>2026-05-04T07:17:18Z</time></trkpt><trkpt lat="38.70867586619593" lon="16.41200117928119"><ele>388.0</ele><time>2026-05-04T07:17:24Z</time></trkpt><trkpt lat="38.70870911550989" lon="16.411929844621433"><ele>388.0</ele><time>2026-05-04T07:17:29Z</time></trkpt><trkpt lat="38.70876135209641" lon="16.411879170598713"><ele>388.0</ele><time>2026-05-04T07:17:35Z</time></trkpt><trkpt lat="38.70881748625818" lon="16.411827669680658"><ele>389.59999999999997</ele><time>2026-05-04T07:17:41Z</time></trkpt><trkpt lat="38.70899005273322" lon="16.411792007699447"><ele>391.2</ele><time>2026-05-04T07:17:55Z</time></trkpt><trkpt lat="38.70906142345211" lon="16.411767993375186"><ele>392.8</ele><time>2026-05-04T07:18:01Z</time></trkpt><trkpt lat="38.70913865408042" lon="16.41176658571559"><ele>394.4</ele><time>2026-05-04T07:18:06Z</time></trkpt><trkpt lat="38.70919614616236" lon="16.411717091661107"><ele>396.0</ele><time>2026-05-04T07:18:12Z</time></trkpt><trkpt lat="38.70922048836555" lon="16.411614401152974"><ele>396.0</ele><time>2026-05-04T07:18:17Z</time></trkpt><trkpt lat="38.709228372289985" lon="16.411531436985655"><ele>396.0</ele><time>2026-05-04T07:18:24Z</time></trkpt><trkpt lat="38.70925707904129" lon="16.411457788105594"><ele>396.0</ele><time>2026-05-04T07:18:29Z</time></trkpt><trkpt lat="38.70929760445734" lon="16.411389700557795"><ele>396.0</ele><time>2026-05-04T07:18:35Z</time></trkpt><trkpt lat="38.70937041965046" lon="16.411245434859374"><ele>396.0</ele><time>2026-05-04T07:18:54Z</time></trkpt><trkpt lat="38.709409903910206" lon="16.411178609789474"><ele>396.0</ele><time>2026-05-04T07:18:59Z</time></trkpt><trkpt lat="38.70945576999653" lon="16.411114140776277"><ele>397.42857142857144</ele><time>2026-05-04T07:19:05Z</time></trkpt><trkpt lat="38.709482597435546" lon="16.411041126493533"><ele>398.85714285714283</ele><time>2026-05-04T07:19:10Z</time></trkpt><trkpt lat="38.70950952264545" lon="16.410965501478255"><ele>400.2857142857143</ele><time>2026-05-04T07:19:14Z</time></trkpt><trkpt lat="38.70954274807353" lon="16.410888786801845"><ele>401.7142857142857</ele><time>2026-05-04T07:19:24Z</time></trkpt><trkpt lat="38.70957065868036" lon="16.410801666624096"><ele>403.1428571428571</ele><time>2026-05-04T07:19:31Z</time></trkpt><trkpt lat="38.70956273279171" lon="16.41071917983776"><ele>404.57142857142856</ele><time>2026-05-04T07:19:36Z</time></trkpt><trkpt lat="38.70957654024846" lon="16.41062942628161"><ele>406.0</ele><time>2026-05-04T07:19:43Z</time></trkpt><trkpt lat="38.70959016415501" lon="16.410543315191866"><ele>405.42857142857144</ele><time>2026-05-04T07:19:49Z</time></trkpt><trkpt lat="38.709603872164436" lon="16.410462259261983"><ele>404.8571428571429</ele><time>2026-05-04T07:19:54Z</time></trkpt><trkpt lat="38.70961801689503" lon="16.41037507954241"><ele>404.2857142857143</ele><time>2026-05-04T07:20:00Z</time></trkpt><trkpt lat="38.70963390483434" lon="16.410293864030532"><ele>403.7142857142857</ele><time>2026-05-04T07:20:05Z</time></trkpt><trkpt lat="38.709696551327724" lon="16.41024778587119"><ele>403.14285714285717</ele><time>2026-05-04T07:20:11Z</time></trkpt><trkpt lat="38.709746959908365" lon="16.41019002355957"><ele>402.57142857142856</ele><time>2026-05-04T07:20:16Z</time></trkpt><trkpt lat="38.70981161621586" lon="16.410138436516466"><ele>402.0</ele><time>2026-05-04T07:20:22Z</time></trkpt><trkpt lat="38.709853721705734" lon="16.41005416853512"><ele>402.0</ele><time>2026-05-04T07:20:27Z</time></trkpt><trkpt lat="38.70988578811449" lon="16.409980445271078"><ele>402.0</ele><time>2026-05-04T07:20:32Z</time></trkpt><trkpt lat="38.7099343343098" lon="16.40991791261876"><ele>402.0</ele><time>2026-05-04T07:20:39Z</time></trkpt><trkpt lat="38.70995248187284" lon="16.40983793595087"><ele>402.0</ele><time>2026-05-04T07:20:44Z</time></trkpt><trkpt lat="38.70998934406906" lon="16.409747529373316"><ele>402.0</ele><time>2026-05-04T07:20:52Z</time></trkpt><trkpt lat="38.71004446735257" lon="16.409667085402692"><ele>402.0</ele><time>2026-05-04T07:20:58Z</time></trkpt><trkpt lat="38.710056019151594" lon="16.409577858424147"><ele>402.0</ele><time>2026-05-04T07:21:02Z</time></trkpt><trkpt lat="38.71026487717646" lon="16.40958887108747"><ele>404.0</ele><time>2026-05-04T07:21:21Z</time></trkpt><trkpt lat="38.71036455012291" lon="16.409597668212733"><ele>406.0</ele><time>2026-05-04T07:21:25Z</time></trkpt><trkpt lat="38.71038320693197" lon="16.40971845756219"><ele>408.0</ele><time>2026-05-04T07:21:28Z</time></trkpt><trkpt lat="38.710259279422495" lon="16.40916828071794"><ele>408.0</ele><time>2026-05-04T07:22:15Z</time></trkpt><trkpt lat="38.71029511616283" lon="16.409071108105742"><ele>408.0</ele><time>2026-05-04T07:22:17Z</time></trkpt><trkpt lat="38.71040647892993" lon="16.409979234078683"><ele>408.0</ele><time>2026-05-04T07:22:20Z</time></trkpt><trkpt lat="38.71040298813129" lon="16.409889201075902"><ele>408.0</ele><time>2026-05-04T07:23:00.021Z</time></trkpt><trkpt lat="38.71039964272597" lon="16.409791265072606"><ele>408.0</ele><time>2026-05-04T07:23:01.021Z</time></trkpt><trkpt lat="38.71038721533403" lon="16.4098833551991"><ele>408.0</ele><time>2026-05-04T07:23:39Z</time></trkpt><trkpt lat="38.71042896414947" lon="16.409820828840214"><ele>408.0</ele><time>2026-05-04T07:25:50Z</time></trkpt></trkseg><trkseg><trkpt lat="38.710462755456646" lon="16.40978892388082"><ele>408.0</ele><time>2026-05-04T07:46:42Z</time></trkpt><trkpt lat="38.71037735942928" lon="16.409827381319555"><ele>408.0</ele><time>2026-05-04T07:47:41Z</time></trkpt><trkpt lat="38.71038941628443" lon="16.40974584314662"><ele>408.0</ele><time>2026-05-04T07:47:48Z</time></trkpt><trkpt lat="38.71039634047921" lon="16.409662374625423"><ele>408.0</ele><time>2026-05-04T07:47:54Z</time></trkpt><trkpt lat="38.71039450904505" lon="16.409571510642063"><ele>408.0</ele><time>2026-05-04T07:48:00Z</time></trkpt><trkpt lat="38.71045369535891" lon="16.409518098344574"><ele>408.0</ele><time>2026-05-04T07:48:05Z</time></trkpt><trkpt lat="38.71044010536677" lon="16.409427878591814"><ele>408.0</ele><time>2026-05-04T07:48:13Z</time></trkpt><trkpt lat="38.71045134338807" lon="16.40934098613046"><ele>408.0</ele><time>2026-05-04T07:48:20Z</time></trkpt><trkpt lat="38.710521302857735" lon="16.409326726648857"><ele>408.0</ele><time>2026-05-04T07:48:25Z</time></trkpt><trkpt lat="38.71055484411256" lon="16.409400955558436"><ele>408.0</ele><time>2026-05-04T07:48:35.019Z</time></trkpt><trkpt lat="38.71043693563385" lon="16.409432177116617"><ele>408.0</ele><time>2026-05-04T07:48:44.018Z</time></trkpt><trkpt lat="38.7105627592581" lon="16.40932083093896"><ele>408.0</ele><time>2026-05-04T07:48:45Z</time></trkpt><trkpt lat="38.71049237285429" lon="16.409341392164407"><ele>408.0</ele><time>2026-05-04T07:48:55Z</time></trkpt><trkpt lat="38.710465353458524" lon="16.409252370192057"><ele>408.0</ele><time>2026-05-04T07:49:02Z</time></trkpt><trkpt lat="38.71044840428483" lon="16.409162225990336"><ele>408.0</ele><time>2026-05-04T07:49:07Z</time></trkpt><trkpt lat="38.71046002880208" lon="16.409060744198563"><ele>408.0</ele><time>2026-05-04T07:49:10Z</time></trkpt><trkpt lat="38.710506935629745" lon="16.408999889664408"><ele>408.0</ele><time>2026-05-04T07:49:17Z</time></trkpt><trkpt lat="38.710525448642805" lon="16.408911871922736"><ele>408.0</ele><time>2026-05-04T07:49:23Z</time></trkpt><trkpt lat="38.710546304897335" lon="16.40882890630144"><ele>408.0</ele><time>2026-05-04T07:49:28Z</time></trkpt><trkpt lat="38.71054129148028" lon="16.40873371501444"><ele>408.14285714285717</ele><time>2026-05-04T07:49:31Z</time></trkpt><trkpt lat="38.710571488218356" lon="16.408651816730238"><ele>408.28571428571433</ele><time>2026-05-04T07:49:38Z</time></trkpt><trkpt lat="38.71058956206978" lon="16.408573229726002"><ele>408.42857142857144</ele><time>2026-05-04T07:49:46Z</time></trkpt><trkpt lat="38.71057132947606" lon="16.40849309241578"><ele>408.57142857142856</ele><time>2026-05-04T07:49:49Z</time></trkpt><trkpt lat="38.71061034110534" lon="16.40840811984232"><ele>408.7142857142857</ele><time>2026-05-04T07:49:53Z</time></trkpt><trkpt lat="38.71059839780558" lon="16.408317795178395"><ele>408.85714285714283</ele><time>2026-05-04T07:49:59Z</time></trkpt><trkpt lat="38.71054890761512" lon="16.4082579851587"><ele>409.0</ele><time>2026-05-04T07:50:15Z</time></trkpt><trkpt lat="38.7105275673538" lon="16.40817167220308"><ele>409.0</ele><time>2026-05-04T07:50:22Z</time></trkpt><trkpt lat="38.71051230982811" lon="16.408092565826927"><ele>409.0</ele><time>2026-05-04T07:50:29Z</time></trkpt><trkpt lat="38.71049778427636" lon="16.40800442218184"><ele>409.0</ele><time>2026-05-04T07:50:35Z</time></trkpt><trkpt lat="38.71048994364764" lon="16.40791264040795"><ele>409.0</ele><time>2026-05-04T07:50:41Z</time></trkpt><trkpt lat="38.71048246824239" lon="16.407828844502646"><ele>409.0</ele><time>2026-05-04T07:50:47Z</time></trkpt><trkpt lat="38.71046153360906" lon="16.40772262293685"><ele>409.0</ele><time>2026-05-04T07:50:52Z</time></trkpt><trkpt lat="38.710464184859404" lon="16.40763475477785"><ele>409.0</ele><time>2026-05-04T07:50:57Z</time></trkpt><trkpt lat="38.71045352186604" lon="16.407546249747586"><ele>408.5</ele><time>2026-05-04T07:51:01Z</time></trkpt><trkpt lat="38.710508892282476" lon="16.407491810144865"><ele>408.0</ele><time>2026-05-04T07:51:09Z</time></trkpt><trkpt lat="38.71057366960043" lon="16.407406870639424"><ele>407.5</ele><time>2026-05-04T07:51:16Z</time></trkpt><trkpt lat="38.710617751464284" lon="16.40734227533054"><ele>407.0</ele><time>2026-05-04T07:51:22Z</time></trkpt><trkpt lat="38.71098146557386" lon="16.406860502836167"><ele>407.0</ele><time>2026-05-04T07:52:03.021Z</time></trkpt><trkpt lat="38.71073495440472" lon="16.407413847938802"><ele>406.99999999999994</ele><time>2026-05-04T07:52:04.019Z</time></trkpt><trkpt lat="38.71065554963034" lon="16.40736271999756"><ele>407.0</ele><time>2026-05-04T07:52:05Z</time></trkpt><trkpt lat="38.71070560944902" lon="16.407248348986133"><ele>407.0</ele><time>2026-05-04T07:52:14Z</time></trkpt><trkpt lat="38.710768409034" lon="16.407226003261997"><ele>407.0</ele><time>2026-05-04T07:52:18Z</time></trkpt><trkpt lat="38.71080292546923" lon="16.407151122106878"><ele>406.99999999999994</ele><time>2026-05-04T07:52:24Z</time></trkpt><trkpt lat="38.71084045412792" lon="16.407082444536282"><ele>407.0</ele><time>2026-05-04T07:52:29Z</time></trkpt><trkpt lat="38.710819479862685" lon="16.406987192277594"><ele>406.8571428571429</ele><time>2026-05-04T07:52:34Z</time></trkpt><trkpt lat="38.71080431936225" lon="16.4069088181398"><ele>406.7142857142857</ele><time>2026-05-04T07:52:38Z</time></trkpt><trkpt lat="38.71078382069531" lon="16.40682546661841"><ele>406.57142857142856</ele><time>2026-05-04T07:52:45Z</time></trkpt><trkpt lat="38.71075769694601" lon="16.406747412892376"><ele>406.42857142857144</ele><time>2026-05-04T07:52:52Z</time></trkpt><trkpt lat="38.7107877957613" lon="16.406832900665187"><ele>406.2857142857143</ele><time>2026-05-04T07:56:25Z</time></trkpt><trkpt lat="38.71074672276714" lon="16.40689528493991"><ele>406.14285714285717</ele><time>2026-05-04T07:56:31Z</time></trkpt><trkpt lat="38.710678647434754" lon="16.406906621333405"><ele>406.0</ele><time>2026-05-04T07:56:37Z</time></trkpt><trkpt lat="38.71075335091385" lon="16.406847901921232"><ele>406.0</ele><time>2026-05-04T07:56:56Z</time></trkpt><trkpt lat="38.710801251516926" lon="16.40679157805288"><ele>406.0</ele><time>2026-05-04T07:57:02Z</time></trkpt><trkpt lat="38.71086754442528" lon="16.406764547717657"><ele>406.0</ele><time>2026-05-04T07:57:07Z</time></trkpt><trkpt lat="38.71088630612006" lon="16.406686407625173"><ele>406.0</ele><time>2026-05-04T07:57:19Z</time></trkpt><trkpt lat="38.71086090977447" lon="16.406593068032542"><ele>406.0</ele><time>2026-05-04T07:57:26Z</time></trkpt><trkpt lat="38.71084982704043" lon="16.406507889954703"><ele>406.0</ele><time>2026-05-04T07:57:33Z</time></trkpt><trkpt lat="38.710850354711134" lon="16.406414396999363"><ele>406.0</ele><time>2026-05-04T07:57:42Z</time></trkpt><trkpt lat="38.7108253318422" lon="16.406325211323832"><ele>406.14285714285717</ele><time>2026-05-04T07:57:48Z</time></trkpt><trkpt lat="38.71079173403631" lon="16.40623921874192"><ele>406.2857142857143</ele><time>2026-05-04T07:57:53Z</time></trkpt><trkpt lat="38.710768118128826" lon="16.40615850798132"><ele>406.42857142857144</ele><time>2026-05-04T07:57:57Z</time></trkpt><trkpt lat="38.71074485021071" lon="16.40606738295956"><ele>406.57142857142856</ele><time>2026-05-04T07:58:01Z</time></trkpt><trkpt lat="38.71069570981552" lon="16.405979032385975"><ele>406.7142857142857</ele><time>2026-05-04T07:58:07Z</time></trkpt><trkpt lat="38.71071209692104" lon="16.40589594807948"><ele>406.8571428571429</ele><time>2026-05-04T07:58:16Z</time></trkpt><trkpt lat="38.710688015774934" lon="16.4058131637013"><ele>407.0</ele><time>2026-05-04T07:58:22Z</time></trkpt><trkpt lat="38.71065955744874" lon="16.40572905914413"><ele>407.00000000000006</ele><time>2026-05-04T07:58:29Z</time></trkpt><trkpt lat="38.710639838686525" lon="16.40563529527004"><ele>407.0</ele><time>2026-05-04T07:58:34Z</time></trkpt><trkpt lat="38.710604473521066" lon="16.405567367813166"><ele>407.0</ele><time>2026-05-04T07:58:39Z</time></trkpt><trkpt lat="38.71056219885235" lon="16.405503024518463"><ele>407.0</ele><time>2026-05-04T07:58:44Z</time></trkpt><trkpt lat="38.71054243196436" lon="16.405416588188814"><ele>407.0</ele><time>2026-05-04T07:58:49Z</time></trkpt><trkpt lat="38.710536348077255" lon="16.40531813621469"><ele>407.00000000000006</ele><time>2026-05-04T07:58:55Z</time></trkpt><trkpt lat="38.71054588265043" lon="16.4052122615101"><ele>407.0</ele><time>2026-05-04T07:59:02Z</time></trkpt><trkpt lat="38.71053950346206" lon="16.40512713885443"><ele>407.14285714285717</ele><time>2026-05-04T07:59:08Z</time></trkpt><trkpt lat="38.710560313077735" lon="16.405035241735543"><ele>407.2857142857143</ele><time>2026-05-04T07:59:14Z</time></trkpt><trkpt lat="38.710582782545785" lon="16.40495289226283"><ele>407.42857142857144</ele><time>2026-05-04T07:59:20Z</time></trkpt><trkpt lat="38.71060103564372" lon="16.404868589847442"><ele>407.57142857142856</ele><time>2026-05-04T07:59:26Z</time></trkpt><trkpt lat="38.71058418565734" lon="16.404780312845624"><ele>407.7142857142857</ele><time>2026-05-04T07:59:31Z</time></trkpt><trkpt lat="38.71056509030903" lon="16.404687451920093"><ele>407.8571428571429</ele><time>2026-05-04T07:59:37Z</time></trkpt><trkpt lat="38.710528560318004" lon="16.40459362910011"><ele>408.0</ele><time>2026-05-04T07:59:42Z</time></trkpt><trkpt lat="38.710494018830595" lon="16.4045091123821"><ele>409.7142857142857</ele><time>2026-05-04T07:59:48Z</time></trkpt><trkpt lat="38.710482772926134" lon="16.40442229170523"><ele>411.42857142857144</ele><time>2026-05-04T08:00:04Z</time></trkpt><trkpt lat="38.710454047539834" lon="16.404346864656205"><ele>413.1428571428571</ele><time>2026-05-04T08:00:09Z</time></trkpt><trkpt lat="38.71043566521184" lon="16.404262035260754"><ele>414.8571428571429</ele><time>2026-05-04T08:00:16Z</time></trkpt><trkpt lat="38.710428765725254" lon="16.40417297824609"><ele>416.57142857142856</ele><time>2026-05-04T08:00:21Z</time></trkpt><trkpt lat="38.71041130718773" lon="16.404085612629153"><ele>418.2857142857143</ele><time>2026-05-04T08:00:27Z</time></trkpt><trkpt lat="38.71040686507695" lon="16.404005019288675"><ele>420.0</ele><time>2026-05-04T08:00:35Z</time></trkpt><trkpt lat="38.710392373974976" lon="16.40392113151242"><ele>421.7142857142857</ele><time>2026-05-04T08:00:39Z</time></trkpt><trkpt lat="38.7103963937574" lon="16.403821851460748"><ele>423.42857142857144</ele><time>2026-05-04T08:00:45Z</time></trkpt><trkpt lat="38.71036967212233" lon="16.40372830523697"><ele>425.1428571428571</ele><time>2026-05-04T08:00:51Z</time></trkpt><trkpt lat="38.71036938629365" lon="16.403645656002624"><ele>426.8571428571429</ele><time>2026-05-04T08:00:56Z</time></trkpt><trkpt lat="38.71040572153514" lon="16.403565829762787"><ele>428.57142857142856</ele><time>2026-05-04T08:01:00Z</time></trkpt><trkpt lat="38.71037760461101" lon="16.40349031811554"><ele>430.2857142857143</ele><time>2026-05-04T08:01:05Z</time></trkpt><trkpt lat="38.71035115559528" lon="16.40341381736539"><ele>432.0</ele><time>2026-05-04T08:01:10Z</time></trkpt><trkpt lat="38.710314767890246" lon="16.403337127416343"><ele>432.0</ele><time>2026-05-04T08:01:18Z</time></trkpt><trkpt lat="38.71029569556661" lon="16.403247138236804"><ele>432.0</ele><time>2026-05-04T08:01:25Z</time></trkpt><trkpt lat="38.71026643886164" lon="16.403159579703395"><ele>432.0</ele><time>2026-05-04T08:01:31Z</time></trkpt><trkpt lat="38.71028462554507" lon="16.403076765992083"><ele>432.0</ele><time>2026-05-04T08:01:36Z</time></trkpt><trkpt lat="38.71032306047043" lon="16.402985949071187"><ele>432.0</ele><time>2026-05-04T08:01:41Z</time></trkpt><trkpt lat="38.710308493952574" lon="16.402904517447674"><ele>432.0</ele><time>2026-05-04T08:01:45Z</time></trkpt><trkpt lat="38.710328267627055" lon="16.402808776523617"><ele>432.0</ele><time>2026-05-04T08:01:52Z</time></trkpt><trkpt lat="38.710368101180116" lon="16.402745594751632"><ele>432.0</ele><time>2026-05-04T08:02:00Z</time></trkpt><trkpt lat="38.71037714979735" lon="16.40266105037148"><ele>432.0</ele><time>2026-05-04T08:02:05Z</time></trkpt><trkpt lat="38.71042234493143" lon="16.402576827369305"><ele>432.0</ele><time>2026-05-04T08:02:11Z</time></trkpt><trkpt lat="38.71046876059703" lon="16.40249099626427"><ele>432.0</ele><time>2026-05-04T08:02:17Z</time></trkpt><trkpt lat="38.71048603586987" lon="16.4024067272757"><ele>432.0</ele><time>2026-05-04T08:02:25Z</time></trkpt><trkpt lat="38.71051433896605" lon="16.40230670371739"><ele>432.0</ele><time>2026-05-04T08:02:32Z</time></trkpt><trkpt lat="38.71054745159958" lon="16.40222939287449"><ele>432.0</ele><time>2026-05-04T08:02:39Z</time></trkpt><trkpt lat="38.71056247333311" lon="16.402144667276154"><ele>431.7142857142857</ele><time>2026-05-04T08:02:45Z</time></trkpt><trkpt lat="38.71057429411978" lon="16.40205887810204"><ele>431.42857142857144</ele><time>2026-05-04T08:02:51Z</time></trkpt><trkpt lat="38.71059523707228" lon="16.401970767832506"><ele>431.1428571428571</ele><time>2026-05-04T08:02:59Z</time></trkpt><trkpt lat="38.71061205973279" lon="16.401883588735142"><ele>430.8571428571429</ele><time>2026-05-04T08:03:06Z</time></trkpt><trkpt lat="38.71062924723716" lon="16.401792251922355"><ele>430.5714285714286</ele><time>2026-05-04T08:03:12Z</time></trkpt><trkpt lat="38.71063801856872" lon="16.401697724302885"><ele>430.2857142857143</ele><time>2026-05-04T08:03:19Z</time></trkpt><trkpt lat="38.710659758994595" lon="16.401610789721296"><ele>430.0</ele><time>2026-05-04T08:03:24Z</time></trkpt><trkpt lat="38.710665627279376" lon="16.401524360612125"><ele>430.0</ele><time>2026-05-04T08:03:30Z</time></trkpt><trkpt lat="38.71068299559015" lon="16.40143791179114"><ele>430.0</ele><time>2026-05-04T08:03:39Z</time></trkpt><trkpt lat="38.71069336453862" lon="16.40135549637647"><ele>430.0</ele><time>2026-05-04T08:03:45Z</time></trkpt><trkpt lat="38.71072600677764" lon="16.40127853750173"><ele>430.0</ele><time>2026-05-04T08:03:53Z</time></trkpt><trkpt lat="38.710762896688735" lon="16.401207463578796"><ele>430.0</ele><time>2026-05-04T08:04:00Z</time></trkpt><trkpt lat="38.710813409867484" lon="16.401157855505318"><ele>430.0</ele><time>2026-05-04T08:04:06Z</time></trkpt><trkpt lat="38.71087273972011" lon="16.401121201054025"><ele>430.0</ele><time>2026-05-04T08:04:13Z</time></trkpt><trkpt lat="38.71093319346955" lon="16.40108544561958"><ele>429.85714285714283</ele><time>2026-05-04T08:04:19Z</time></trkpt><trkpt lat="38.71098137897162" lon="16.401016848038765"><ele>429.7142857142857</ele><time>2026-05-04T08:04:37Z</time></trkpt><trkpt lat="38.711014641156005" lon="16.400946372283016"><ele>429.57142857142856</ele><time>2026-05-04T08:04:44Z</time></trkpt><trkpt lat="38.71105988697898" lon="16.400886387806167"><ele>429.42857142857144</ele><time>2026-05-04T08:04:52Z</time></trkpt><trkpt lat="38.7110928320047" lon="16.400814853715286"><ele>429.28571428571433</ele><time>2026-05-04T08:04:57Z</time></trkpt><trkpt lat="38.71111039602167" lon="16.400727142350753"><ele>429.14285714285717</ele><time>2026-05-04T08:05:03Z</time></trkpt><trkpt lat="38.711126918429756" lon="16.400636049295514"><ele>429.0</ele><time>2026-05-04T08:05:11Z</time></trkpt><trkpt lat="38.71112985066987" lon="16.400551496507553"><ele>432.2857142857143</ele><time>2026-05-04T08:05:15Z</time></trkpt><trkpt lat="38.711159231566654" lon="16.40047047329343"><ele>435.57142857142856</ele><time>2026-05-04T08:05:21Z</time></trkpt><trkpt lat="38.711166855325445" lon="16.40039008434843"><ele>438.8571428571429</ele><time>2026-05-04T08:05:26Z</time></trkpt><trkpt lat="38.71117213665498" lon="16.40030687004951"><ele>442.1428571428571</ele><time>2026-05-04T08:05:31Z</time></trkpt><trkpt lat="38.71118981182339" lon="16.400218424890852"><ele>445.4285714285714</ele><time>2026-05-04T08:05:39Z</time></trkpt><trkpt lat="38.711207567528945" lon="16.400126849327023"><ele>448.7142857142857</ele><time>2026-05-04T08:05:45Z</time></trkpt><trkpt lat="38.71121487641494" lon="16.400038596368848"><ele>452.0</ele><time>2026-05-04T08:05:51Z</time></trkpt><trkpt lat="38.71120446524991" lon="16.399957578655606"><ele>452.0</ele><time>2026-05-04T08:05:57Z</time></trkpt><trkpt lat="38.711206874405235" lon="16.399875904573772"><ele>452.0</ele><time>2026-05-04T08:06:03Z</time></trkpt><trkpt lat="38.711208916714185" lon="16.399788915175673"><ele>452.0</ele><time>2026-05-04T08:06:08Z</time></trkpt><trkpt lat="38.71120723904318" lon="16.39970506363198"><ele>452.0</ele><time>2026-05-04T08:06:22Z</time></trkpt><trkpt lat="38.71118897761444" lon="16.39962692081981"><ele>452.0</ele><time>2026-05-04T08:06:29Z</time></trkpt><trkpt lat="38.71116822974689" lon="16.39954380151316"><ele>452.0</ele><time>2026-05-04T08:06:35Z</time></trkpt><trkpt lat="38.711160182457895" lon="16.399455954594913"><ele>452.0</ele><time>2026-05-04T08:06:44Z</time></trkpt><trkpt lat="38.7111379077078" lon="16.399377423060088"><ele>450.0</ele><time>2026-05-04T08:06:52Z</time></trkpt><trkpt lat="38.711111731852846" lon="16.399298731324052"><ele>448.0</ele><time>2026-05-04T08:06:59Z</time></trkpt><trkpt lat="38.711108924744636" lon="16.399212286476168"><ele>446.0</ele><time>2026-05-04T08:07:08Z</time></trkpt><trkpt lat="38.71110404579139" lon="16.39911908519122"><ele>444.0</ele><time>2026-05-04T08:07:17Z</time></trkpt><trkpt lat="38.71107672365884" lon="16.39903560805502"><ele>442.0</ele><time>2026-05-04T08:07:24Z</time></trkpt><trkpt lat="38.71110449531529" lon="16.398929163499112"><ele>440.0</ele><time>2026-05-04T08:07:34Z</time></trkpt><trkpt lat="38.711068284713576" lon="16.39885179945568"><ele>438.0</ele><time>2026-05-04T08:07:42Z</time></trkpt><trkpt lat="38.71107104755268" lon="16.398770505611253"><ele>442.8571428571429</ele><time>2026-05-04T08:07:50Z</time></trkpt><trkpt lat="38.711078154209325" lon="16.398682302321248"><ele>447.71428571428567</ele><time>2026-05-04T08:07:55Z</time></trkpt><trkpt lat="38.71110239990299" lon="16.398604093659824"><ele>452.57142857142856</ele><time>2026-05-04T08:08:04Z</time></trkpt><trkpt lat="38.71112592515155" lon="16.398529204561395"><ele>457.42857142857144</ele><time>2026-05-04T08:08:08Z</time></trkpt><trkpt lat="38.71115020294875" lon="16.398445113951666"><ele>462.28571428571433</ele><time>2026-05-04T08:08:15Z</time></trkpt><trkpt lat="38.71116995635671" lon="16.398353653255736"><ele>467.1428571428571</ele><time>2026-05-04T08:08:26Z</time></trkpt><trkpt lat="38.71119042791785" lon="16.39826219573333"><ele>472.0</ele><time>2026-05-04T08:08:31Z</time></trkpt><trkpt lat="38.711257237209814" lon="16.398244793354596"><ele>472.0</ele><time>2026-05-04T08:08:38Z</time></trkpt><trkpt lat="38.71128219554015" lon="16.398160707455432"><ele>472.0</ele><time>2026-05-04T08:08:44Z</time></trkpt><trkpt lat="38.711313526796054" lon="16.398083212077786"><ele>472.0</ele><time>2026-05-04T08:08:49Z</time></trkpt><trkpt lat="38.71137263021232" lon="16.3980442639244"><ele>472.0</ele><time>2026-05-04T08:08:59Z</time></trkpt><trkpt lat="38.71140693126096" lon="16.39797163684412"><ele>472.0</ele><time>2026-05-04T08:09:04Z</time></trkpt><trkpt lat="38.71146126535068" lon="16.397907467727137"><ele>472.0</ele><time>2026-05-04T08:09:11Z</time></trkpt><trkpt lat="38.71148808962042" lon="16.397832483102302"><ele>472.0</ele><time>2026-05-04T08:09:17Z</time></trkpt><trkpt lat="38.71153343622167" lon="16.397769934126966"><ele>471.1428571428571</ele><time>2026-05-04T08:09:23Z</time></trkpt><trkpt lat="38.71155324217144" lon="16.397690680599514"><ele>470.28571428571433</ele><time>2026-05-04T08:09:28Z</time></trkpt><trkpt lat="38.71157853120904" lon="16.3976053907872"><ele>469.42857142857144</ele><time>2026-05-04T08:09:34Z</time></trkpt><trkpt lat="38.71159933554149" lon="16.397524347191396"><ele>468.57142857142856</ele><time>2026-05-04T08:09:40Z</time></trkpt><trkpt lat="38.71161504944222" lon="16.397444572692912"><ele>467.71428571428567</ele><time>2026-05-04T08:09:46Z</time></trkpt><trkpt lat="38.71162687332411" lon="16.397361291366632"><ele>466.8571428571429</ele><time>2026-05-04T08:09:51Z</time></trkpt><trkpt lat="38.71163155025138" lon="16.39726801003518"><ele>466.0</ele><time>2026-05-04T08:09:56Z</time></trkpt><trkpt lat="38.71165217011713" lon="16.397185696369625"><ele>465.8571428571429</ele><time>2026-05-04T08:10:03Z</time></trkpt><trkpt lat="38.71166930007755" lon="16.397098184118207"><ele>465.71428571428567</ele><time>2026-05-04T08:10:10Z</time></trkpt><trkpt lat="38.711683191945575" lon="16.397006929567606"><ele>465.57142857142856</ele><time>2026-05-04T08:10:18Z</time></trkpt><trkpt lat="38.71170333164824" lon="16.396917676591748"><ele>465.42857142857144</ele><time>2026-05-04T08:10:26Z</time></trkpt><trkpt lat="38.71173316093293" lon="16.396839800234105"><ele>465.28571428571433</ele><time>2026-05-04T08:10:33Z</time></trkpt><trkpt lat="38.71175868501869" lon="16.396764093873056"><ele>465.1428571428571</ele><time>2026-05-04T08:10:38Z</time></trkpt><trkpt lat="38.71177666735649" lon="16.396678311897944"><ele>465.0</ele><time>2026-05-04T08:10:45Z</time></trkpt><trkpt lat="38.711812850923934" lon="16.396587526889444"><ele>465.0</ele><time>2026-05-04T08:10:50Z</time></trkpt><trkpt lat="38.711857166770976" lon="16.39652421338999"><ele>465.0</ele><time>2026-05-04T08:10:57Z</time></trkpt><trkpt lat="38.71188479295998" lon="16.396450184295"><ele>465.0</ele><time>2026-05-04T08:11:02Z</time></trkpt><trkpt lat="38.711941130346666" lon="16.396394771519642"><ele>465.0</ele><time>2026-05-04T08:11:10Z</time></trkpt><trkpt lat="38.71195543365657" lon="16.39630423049009"><ele>465.0</ele><time>2026-05-04T08:11:17Z</time></trkpt><trkpt lat="38.711975139829455" lon="16.396211441878492"><ele>465.0</ele><time>2026-05-04T08:11:27Z</time></trkpt><trkpt lat="38.71198915169451" lon="16.39612896493626"><ele>465.0</ele><time>2026-05-04T08:11:33Z</time></trkpt><trkpt lat="38.71199315446553" lon="16.396033546776206"><ele>467.57142857142856</ele><time>2026-05-04T08:11:39Z</time></trkpt><trkpt lat="38.711993677706296" lon="16.395939594736333"><ele>470.14285714285717</ele><time>2026-05-04T08:11:45Z</time></trkpt><trkpt lat="38.71199745146944" lon="16.39584614174374"><ele>472.7142857142857</ele><time>2026-05-04T08:11:51Z</time></trkpt><trkpt lat="38.712021264234025" lon="16.395755340128417"><ele>475.2857142857143</ele><time>2026-05-04T08:11:58Z</time></trkpt><trkpt lat="38.71201764077927" lon="16.39567030348563"><ele>477.8571428571429</ele><time>2026-05-04T08:12:02Z</time></trkpt><trkpt lat="38.71205986134788" lon="16.39560617640518"><ele>480.42857142857144</ele><time>2026-05-04T08:12:09Z</time></trkpt><trkpt lat="38.71205447343345" lon="16.395512764689133"><ele>483.0</ele><time>2026-05-04T08:12:13Z</time></trkpt><trkpt lat="38.71206455008946" lon="16.39543058673344"><ele>483.0</ele><time>2026-05-04T08:12:20Z</time></trkpt><trkpt lat="38.712111943932996" lon="16.395372919102666"><ele>483.0</ele><time>2026-05-04T08:12:24Z</time></trkpt><trkpt lat="38.71213032560207" lon="16.395292597167987"><ele>483.0</ele><time>2026-05-04T08:12:30Z</time></trkpt><trkpt lat="38.712145568466795" lon="16.395209327938915"><ele>483.0</ele><time>2026-05-04T08:12:37Z</time></trkpt><trkpt lat="38.71214961976156" lon="16.395116567936864"><ele>483.0</ele><time>2026-05-04T08:12:43Z</time></trkpt><trkpt lat="38.712174762411856" lon="16.395022790556688"><ele>483.0</ele><time>2026-05-04T08:12:49Z</time></trkpt><trkpt lat="38.712207607781586" lon="16.394944755657317"><ele>483.0</ele><time>2026-05-04T08:12:56Z</time></trkpt><trkpt lat="38.71221301126033" lon="16.394843596114942"><ele>483.0</ele><time>2026-05-04T08:13:01Z</time></trkpt><trkpt lat="38.712253909581094" lon="16.39478171879601"><ele>483.0</ele><time>2026-05-04T08:13:07Z</time></trkpt><trkpt lat="38.71228998679472" lon="16.394694937438196"><ele>483.0</ele><time>2026-05-04T08:13:14Z</time></trkpt><trkpt lat="38.71234287052269" lon="16.394586163024233"><ele>483.0</ele><time>2026-05-04T08:13:19Z</time></trkpt><trkpt lat="38.71239764654289" lon="16.394528380661054"><ele>483.0</ele><time>2026-05-04T08:13:29Z</time></trkpt><trkpt lat="38.71245554471234" lon="16.39447239369486"><ele>483.0</ele><time>2026-05-04T08:13:37Z</time></trkpt><trkpt lat="38.71251144670731" lon="16.394421821603395"><ele>482.42857142857144</ele><time>2026-05-04T08:13:42Z</time></trkpt><trkpt lat="38.7125499517456" lon="16.394352173118435"><ele>481.8571428571429</ele><time>2026-05-04T08:13:47Z</time></trkpt><trkpt lat="38.712617621181316" lon="16.39434850011358"><ele>481.2857142857143</ele><time>2026-05-04T08:13:52Z</time></trkpt><trkpt lat="38.712672587041155" lon="16.39430557421359"><ele>480.7142857142857</ele><time>2026-05-04T08:14:00Z</time></trkpt><trkpt lat="38.71270077196544" lon="16.394216937079594"><ele>480.14285714285717</ele><time>2026-05-04T08:14:07Z</time></trkpt><trkpt lat="38.7127428372241" lon="16.39414223952345"><ele>479.57142857142856</ele><time>2026-05-04T08:14:15Z</time></trkpt><trkpt lat="38.712761039873904" lon="16.39406451559949"><ele>479.0</ele><time>2026-05-04T08:14:19Z</time></trkpt><trkpt lat="38.71277448978646" lon="16.393973638143013"><ele>481.85714285714283</ele><time>2026-05-04T08:14:27Z</time></trkpt><trkpt lat="38.712790988476435" lon="16.393890606740662"><ele>484.7142857142858</ele><time>2026-05-04T08:14:34Z</time></trkpt><trkpt lat="38.712808458302625" lon="16.39381226224302"><ele>487.5714285714286</ele><time>2026-05-04T08:14:40Z</time></trkpt><trkpt lat="38.712835585831996" lon="16.393718357729096"><ele>490.42857142857144</ele><time>2026-05-04T08:14:48Z</time></trkpt><trkpt lat="38.71288741234781" lon="16.393638157336362"><ele>493.28571428571433</ele><time>2026-05-04T08:14:57Z</time></trkpt><trkpt lat="38.71292296391903" lon="16.393552310989268"><ele>496.1428571428572</ele><time>2026-05-04T08:15:20Z</time></trkpt><trkpt lat="38.712953879629744" lon="16.393476364649448"><ele>499.00000000000006</ele><time>2026-05-04T08:15:25Z</time></trkpt><trkpt lat="38.71297371046921" lon="16.393395136027905"><ele>499.00000000000006</ele><time>2026-05-04T08:15:30Z</time></trkpt><trkpt lat="38.713024264835376" lon="16.393315490073682"><ele>499.0</ele><time>2026-05-04T08:15:38Z</time></trkpt><trkpt lat="38.713030178158114" lon="16.393234860174157"><ele>499.00000000000006</ele><time>2026-05-04T08:15:47Z</time></trkpt><trkpt lat="38.71306294703489" lon="16.393154790048218"><ele>499.00000000000006</ele><time>2026-05-04T08:15:54Z</time></trkpt><trkpt lat="38.713082732364576" lon="16.39307167766647"><ele>499.0</ele><time>2026-05-04T08:16:03Z</time></trkpt><trkpt lat="38.713107746576135" lon="16.392977148992948"><ele>499.00000000000006</ele><time>2026-05-04T08:16:11Z</time></trkpt><trkpt lat="38.71314264965974" lon="16.392899557100517"><ele>499.00000000000006</ele><time>2026-05-04T08:16:19Z</time></trkpt><trkpt lat="38.713181541913315" lon="16.392827511114756"><ele>498.7142857142858</ele><time>2026-05-04T08:16:27Z</time></trkpt><trkpt lat="38.713221244496545" lon="16.392756035483515"><ele>498.42857142857144</ele><time>2026-05-04T08:16:36Z</time></trkpt><trkpt lat="38.71324369063971" lon="16.392665623139262"><ele>498.14285714285717</ele><time>2026-05-04T08:16:41Z</time></trkpt><trkpt lat="38.71329791964293" lon="16.39262175861901"><ele>497.8571428571429</ele><time>2026-05-04T08:16:49Z</time></trkpt><trkpt lat="38.71334025634227" lon="16.392558667193867"><ele>497.57142857142856</ele><time>2026-05-04T08:16:56Z</time></trkpt><trkpt lat="38.7133853116725" lon="16.392500832427448"><ele>497.2857142857143</ele><time>2026-05-04T08:17:01Z</time></trkpt><trkpt lat="38.7134656423815" lon="16.39245346923069"><ele>497.0</ele><time>2026-05-04T08:17:08Z</time></trkpt><trkpt lat="38.71352999283898" lon="16.392441229527346"><ele>496.99999999999994</ele><time>2026-05-04T08:17:18Z</time></trkpt><trkpt lat="38.71358731659627" lon="16.392377467090295"><ele>497.0</ele><time>2026-05-04T08:17:25Z</time></trkpt><trkpt lat="38.71351144185631" lon="16.39240923811909"><ele>497.0</ele><time>2026-05-04T08:17:38Z</time></trkpt><trkpt lat="38.71357889946209" lon="16.392341897584895"><ele>497.0</ele><time>2026-05-04T08:17:49Z</time></trkpt><trkpt lat="38.71364376196916" lon="16.392342975788953"><ele>496.99999999999994</ele><time>2026-05-04T08:17:53Z</time></trkpt><trkpt lat="38.713713589168954" lon="16.392347587156063"><ele>497.0</ele><time>2026-05-04T08:18:04Z</time></trkpt><trkpt lat="38.71379311412115" lon="16.392351336741967"><ele>501.66666666666663</ele><time>2026-05-04T08:18:09Z</time></trkpt><trkpt lat="38.713882218699084" lon="16.39230221265715"><ele>506.3333333333333</ele><time>2026-05-04T08:18:20Z</time></trkpt><trkpt lat="38.713951436932305" lon="16.39227755935537"><ele>511.0</ele><time>2026-05-04T08:18:35Z</time></trkpt><trkpt lat="38.714057337430255" lon="16.3922587587108"><ele>515.6666666666666</ele><time>2026-05-04T08:18:51Z</time></trkpt><trkpt lat="38.71412122168861" lon="16.392258779733428"><ele>520.3333333333334</ele><time>2026-05-04T08:19:03Z</time></trkpt><trkpt lat="38.71419247011471" lon="16.39224174477236"><ele>525.0</ele><time>2026-05-04T08:19:13Z</time></trkpt><trkpt lat="38.71426565888479" lon="16.39220899982425"><ele>525.0</ele><time>2026-05-04T08:19:24Z</time></trkpt><trkpt lat="38.71434429823865" lon="16.392206641633354"><ele>525.0</ele><time>2026-05-04T08:19:35Z</time></trkpt><trkpt lat="38.71440919458042" lon="16.39219688926471"><ele>525.0</ele><time>2026-05-04T08:19:43Z</time></trkpt><trkpt lat="38.71447126665808" lon="16.39216511141581"><ele>525.0</ele><time>2026-05-04T08:19:52Z</time></trkpt><trkpt lat="38.7145409248343" lon="16.392146227707002"><ele>525.0</ele><time>2026-05-04T08:20:00Z</time></trkpt><trkpt lat="38.714594504853466" lon="16.392092187270354"><ele>525.0</ele><time>2026-05-04T08:20:08Z</time></trkpt><trkpt lat="38.71464974373592" lon="16.39202465262757"><ele>525.0</ele><time>2026-05-04T08:20:23Z</time></trkpt><trkpt lat="38.71470474599196" lon="16.3919712475914"><ele>527.0</ele><time>2026-05-04T08:20:29Z</time></trkpt><trkpt lat="38.71473001209283" lon="16.3918864572199"><ele>529.0</ele><time>2026-05-04T08:20:37Z</time></trkpt><trkpt lat="38.71477644207858" lon="16.391822498212047"><ele>531.0</ele><time>2026-05-04T08:20:45Z</time></trkpt><trkpt lat="38.71481186323212" lon="16.391742435346046"><ele>533.0</ele><time>2026-05-04T08:20:50Z</time></trkpt><trkpt lat="38.71486043551132" lon="16.39166967618214"><ele>535.0</ele><time>2026-05-04T08:20:58Z</time></trkpt><trkpt lat="38.714833399665885" lon="16.391743317376672"><ele>537.0</ele><time>2026-05-04T08:21:31Z</time></trkpt><trkpt lat="38.71489388340756" lon="16.391716147505704"><ele>539.0</ele><time>2026-05-04T08:21:35Z</time></trkpt><trkpt lat="38.714987526753596" lon="16.391712228070073"><ele>539.0</ele><time>2026-05-04T08:21:42Z</time></trkpt><trkpt lat="38.715052349101946" lon="16.39172700696449"><ele>539.0</ele><time>2026-05-04T08:21:50Z</time></trkpt><trkpt lat="38.715117505187685" lon="16.391727698657785"><ele>539.0</ele><time>2026-05-04T08:21:56Z</time></trkpt><trkpt lat="38.71518009852165" lon="16.39174321018321"><ele>539.0</ele><time>2026-05-04T08:22:04Z</time></trkpt><trkpt lat="38.71526228433487" lon="16.39175509065773"><ele>539.0</ele><time>2026-05-04T08:22:12Z</time></trkpt><trkpt lat="38.715334624592884" lon="16.39179376310771"><ele>539.0</ele><time>2026-05-04T08:22:24Z</time></trkpt><trkpt lat="38.71535968002156" lon="16.3918695081433"><ele>539.0</ele><time>2026-05-04T08:22:31Z</time></trkpt><trkpt lat="38.71540729003057" lon="16.391924737969017"><ele>540.8571428571429</ele><time>2026-05-04T08:22:37Z</time></trkpt><trkpt lat="38.715451380902145" lon="16.391989076163497"><ele>542.7142857142858</ele><time>2026-05-04T08:22:43Z</time></trkpt><trkpt lat="38.715517017133074" lon="16.392006581041567"><ele>544.5714285714286</ele><time>2026-05-04T08:22:51Z</time></trkpt><trkpt lat="38.715585737944814" lon="16.39200741371156"><ele>546.4285714285714</ele><time>2026-05-04T08:22:58Z</time></trkpt><trkpt lat="38.71565719419438" lon="16.39201339702896"><ele>548.2857142857143</ele><time>2026-05-04T08:23:04Z</time></trkpt><trkpt lat="38.71572087093627" lon="16.392044008317356"><ele>550.1428571428571</ele><time>2026-05-04T08:23:11Z</time></trkpt><trkpt lat="38.715778375129645" lon="16.392088322422502"><ele>552.0</ele><time>2026-05-04T08:23:20Z</time></trkpt><trkpt lat="38.71584366831292" lon="16.39213987277502"><ele>552.0</ele><time>2026-05-04T08:23:33Z</time></trkpt><trkpt lat="38.71592154720976" lon="16.392181696492518"><ele>552.0</ele><time>2026-05-04T08:23:41Z</time></trkpt><trkpt lat="38.71599481290134" lon="16.392150242087748"><ele>552.0</ele><time>2026-05-04T08:23:51Z</time></trkpt><trkpt lat="38.716058660764965" lon="16.392168442163005"><ele>552.0</ele><time>2026-05-04T08:24:01Z</time></trkpt><trkpt lat="38.716120267734915" lon="16.392120482998056"><ele>552.0</ele><time>2026-05-04T08:24:07Z</time></trkpt><trkpt lat="38.71618030570051" lon="16.392055006970423"><ele>552.0</ele><time>2026-05-04T08:24:15Z</time></trkpt><trkpt lat="38.716227498298316" lon="16.39197281939025"><ele>555.0</ele><time>2026-05-04T08:24:27Z</time></trkpt><trkpt lat="38.716291667265494" lon="16.391925879073643"><ele>558.0</ele><time>2026-05-04T08:24:34Z</time></trkpt><trkpt lat="38.71636608301133" lon="16.39194692470067"><ele>561.0</ele><time>2026-05-04T08:24:45Z</time></trkpt><trkpt lat="38.71642947247617" lon="16.39194358274646"><ele>564.0</ele><time>2026-05-04T08:24:53Z</time></trkpt><trkpt lat="38.716438689386564" lon="16.391846879663916"><ele>567.0</ele><time>2026-05-04T08:25:02Z</time></trkpt><trkpt lat="38.716470225463006" lon="16.391765506058686"><ele>570.0</ele><time>2026-05-04T08:25:12Z</time></trkpt><trkpt lat="38.716491999507326" lon="16.391682834578802"><ele>573.0</ele><time>2026-05-04T08:27:51Z</time></trkpt><trkpt lat="38.71651896615036" lon="16.391607135700315"><ele>573.0</ele><time>2026-05-04T08:28:00Z</time></trkpt><trkpt lat="38.71653278073842" lon="16.39152369241949"><ele>573.0</ele><time>2026-05-04T08:28:05Z</time></trkpt><trkpt lat="38.716593183389776" lon="16.391558191939925"><ele>573.0</ele><time>2026-05-04T08:28:21Z</time></trkpt><trkpt lat="38.71667188565599" lon="16.391587095875146"><ele>573.0</ele><time>2026-05-04T08:28:29Z</time></trkpt><trkpt lat="38.7167469713372" lon="16.39156593042766"><ele>573.0</ele><time>2026-05-04T08:28:38Z</time></trkpt><trkpt lat="38.716807512684085" lon="16.3915298202212"><ele>573.0</ele><time>2026-05-04T08:28:52Z</time></trkpt><trkpt lat="38.71687154386813" lon="16.391503513604263"><ele>573.0</ele><time>2026-05-04T08:29:02Z</time></trkpt><trkpt lat="38.71690184960218" lon="16.39142835022294"><ele>576.2857142857143</ele><time>2026-05-04T08:29:11Z</time></trkpt><trkpt lat="38.716963116224555" lon="16.391375027239665"><ele>579.5714285714287</ele><time>2026-05-04T08:29:20Z</time></trkpt><trkpt lat="38.717014911550606" lon="16.39131130865952"><ele>582.8571428571429</ele><time>2026-05-04T08:29:42Z</time></trkpt><trkpt lat="38.71705901168202" lon="16.39124461141804"><ele>586.1428571428571</ele><time>2026-05-04T08:29:53Z</time></trkpt><trkpt lat="38.717085893488694" lon="16.391158371749192"><ele>589.4285714285713</ele><time>2026-05-04T08:30:25Z</time></trkpt><trkpt lat="38.717098623753394" lon="16.391247782280516"><ele>592.7142857142857</ele><time>2026-05-04T08:30:30Z</time></trkpt><trkpt lat="38.71713059326724" lon="16.391325159581676"><ele>596.0</ele><time>2026-05-04T08:30:37Z</time></trkpt><trkpt lat="38.71717066090585" lon="16.391399775079993"><ele>596.0</ele><time>2026-05-04T08:30:44Z</time></trkpt><trkpt lat="38.71721575536182" lon="16.39147052645292"><ele>596.0</ele><time>2026-05-04T08:30:53Z</time></trkpt><trkpt lat="38.717231007632265" lon="16.391556624890374"><ele>596.0</ele><time>2026-05-04T08:31:02Z</time></trkpt><trkpt lat="38.717267108730645" lon="16.39164470755805"><ele>596.0</ele><time>2026-05-04T08:31:09Z</time></trkpt><trkpt lat="38.717295801413776" lon="16.391728198402944"><ele>596.0</ele><time>2026-05-04T08:31:17Z</time></trkpt><trkpt lat="38.71733438297416" lon="16.391809936787002"><ele>596.0</ele><time>2026-05-04T08:31:23Z</time></trkpt><trkpt lat="38.717403176833976" lon="16.391793418699834"><ele>596.0</ele><time>2026-05-04T08:31:31Z</time></trkpt><trkpt lat="38.71745282573811" lon="16.391727656993"><ele>596.0</ele><time>2026-05-04T08:31:37Z</time></trkpt><trkpt lat="38.71749160450394" lon="16.391657737968103"><ele>596.0</ele><time>2026-05-04T08:31:43Z</time></trkpt><trkpt lat="38.71752832949286" lon="16.391592165833735"><ele>596.0</ele><time>2026-05-04T08:31:51Z</time></trkpt><trkpt lat="38.71757561667138" lon="16.39150671379309"><ele>596.0</ele><time>2026-05-04T08:32:00Z</time></trkpt><trkpt lat="38.71760871056744" lon="16.391427937120618"><ele>596.0</ele><time>2026-05-04T08:32:07Z</time></trkpt><trkpt lat="38.71764822722105" lon="16.391353063837784"><ele>596.0</ele><time>2026-05-04T08:32:14Z</time></trkpt><trkpt lat="38.717688784943284" lon="16.391277419130205"><ele>596.0</ele><time>2026-05-04T08:32:21Z</time></trkpt><trkpt lat="38.71772011453392" lon="16.391201870254662"><ele>597.8571428571429</ele><time>2026-05-04T08:32:27Z</time></trkpt><trkpt lat="38.71776020396922" lon="16.39113015551396"><ele>599.7142857142857</ele><time>2026-05-04T08:32:34Z</time></trkpt><trkpt lat="38.71780321270643" lon="16.391062266317356"><ele>601.5714285714286</ele><time>2026-05-04T08:32:43Z</time></trkpt><trkpt lat="38.71784916817368" lon="16.390996265710335"><ele>603.4285714285714</ele><time>2026-05-04T08:32:51Z</time></trkpt><trkpt lat="38.71789931518056" lon="16.3909167334673"><ele>605.2857142857142</ele><time>2026-05-04T08:32:58Z</time></trkpt><trkpt lat="38.71793917729947" lon="16.390848118053313"><ele>607.1428571428571</ele><time>2026-05-04T08:33:04Z</time></trkpt><trkpt lat="38.717972511035136" lon="16.39077607671023"><ele>609.0</ele><time>2026-05-04T08:33:11Z</time></trkpt><trkpt lat="38.71801574118392" lon="16.39070402932274"><ele>609.0</ele><time>2026-05-04T08:33:18Z</time></trkpt><trkpt lat="38.71806385413091" lon="16.39062026459042"><ele>609.0</ele><time>2026-05-04T08:33:24Z</time></trkpt><trkpt lat="38.718102999239775" lon="16.390547570318702"><ele>609.0</ele><time>2026-05-04T08:33:31Z</time></trkpt><trkpt lat="38.7181432090536" lon="16.390469667369832"><ele>609.0</ele><time>2026-05-04T08:33:37Z</time></trkpt><trkpt lat="38.71818220768816" lon="16.39038449550437"><ele>609.0</ele><time>2026-05-04T08:33:44Z</time></trkpt><trkpt lat="38.71822477897764" lon="16.390322437692156"><ele>609.0</ele><time>2026-05-04T08:33:50Z</time></trkpt><trkpt lat="38.71825223057637" lon="16.390244867709068"><ele>609.0</ele><time>2026-05-04T08:33:59Z</time></trkpt><trkpt lat="38.71829119905232" lon="16.39016839195982"><ele>609.0</ele><time>2026-05-04T08:34:05Z</time></trkpt><trkpt lat="38.718318360468" lon="16.39008015965438"><ele>609.0</ele><time>2026-05-04T08:34:11Z</time></trkpt><trkpt lat="38.718354516584064" lon="16.39000298412053"><ele>609.0</ele><time>2026-05-04T08:34:18Z</time></trkpt><trkpt lat="38.718397487898656" lon="16.389925328157467"><ele>609.0</ele><time>2026-05-04T08:34:25Z</time></trkpt><trkpt lat="38.718437216465304" lon="16.389860188646868"><ele>609.0</ele><time>2026-05-04T08:34:31Z</time></trkpt><trkpt lat="38.718466558435416" lon="16.389787059926313"><ele>609.0</ele><time>2026-05-04T08:34:37Z</time></trkpt><trkpt lat="38.71849606437722" lon="16.389712540315163"><ele>609.0</ele><time>2026-05-04T08:34:43Z</time></trkpt><trkpt lat="38.718511186729756" lon="16.389631098580256"><ele>609.1428571428571</ele><time>2026-05-04T08:34:49Z</time></trkpt><trkpt lat="38.718530270043125" lon="16.38954102563297"><ele>609.2857142857142</ele><time>2026-05-04T08:34:56Z</time></trkpt><trkpt lat="38.71854962919687" lon="16.38945469133792"><ele>609.4285714285714</ele><time>2026-05-04T08:35:02Z</time></trkpt><trkpt lat="38.718548284669254" lon="16.389371669390556"><ele>609.5714285714286</ele><time>2026-05-04T08:35:07Z</time></trkpt><trkpt lat="38.71854032623038" lon="16.38928912822525"><ele>609.7142857142857</ele><time>2026-05-04T08:35:13Z</time></trkpt><trkpt lat="38.718546806201374" lon="16.389205343561134"><ele>609.8571428571429</ele><time>2026-05-04T08:35:19Z</time></trkpt><trkpt lat="38.71856565771896" lon="16.389120767257"><ele>610.0</ele><time>2026-05-04T08:35:26Z</time></trkpt><trkpt lat="38.718592139333516" lon="16.3890390531543"><ele>611.8571428571429</ele><time>2026-05-04T08:35:33Z</time></trkpt><trkpt lat="38.71861552737319" lon="16.388961226553974"><ele>613.7142857142857</ele><time>2026-05-04T08:35:39Z</time></trkpt><trkpt lat="38.718604930111326" lon="16.388877715845794"><ele>615.5714285714286</ele><time>2026-05-04T08:35:46Z</time></trkpt><trkpt lat="38.71862071750018" lon="16.3887867991568"><ele>617.4285714285714</ele><time>2026-05-04T08:35:52Z</time></trkpt><trkpt lat="38.718645446403436" lon="16.38869825781935"><ele>619.2857142857142</ele><time>2026-05-04T08:35:59Z</time></trkpt><trkpt lat="38.71866689007826" lon="16.388607323134206"><ele>621.1428571428571</ele><time>2026-05-04T08:36:06Z</time></trkpt><trkpt lat="38.71868267790881" lon="16.388520954270806"><ele>623.0</ele><time>2026-05-04T08:36:12Z</time></trkpt><trkpt lat="38.718697457177036" lon="16.38844167430293"><ele>623.4285714285714</ele><time>2026-05-04T08:36:16Z</time></trkpt><trkpt lat="38.71871789004361" lon="16.388347752830693"><ele>623.8571428571429</ele><time>2026-05-04T08:36:22Z</time></trkpt><trkpt lat="38.7187373502398" lon="16.38825405225693"><ele>624.2857142857142</ele><time>2026-05-04T08:36:29Z</time></trkpt><trkpt lat="38.71876015819967" lon="16.388162030916337"><ele>624.7142857142858</ele><time>2026-05-04T08:36:36Z</time></trkpt><trkpt lat="38.71878907962322" lon="16.38807935593699"><ele>625.1428571428571</ele><time>2026-05-04T08:36:43Z</time></trkpt><trkpt lat="38.71881513588186" lon="16.388000394402322"><ele>625.5714285714286</ele><time>2026-05-04T08:36:49Z</time></trkpt><trkpt lat="38.71882982381951" lon="16.38792076260756"><ele>626.0</ele><time>2026-05-04T08:36:53Z</time></trkpt><trkpt lat="38.71886333499413" lon="16.387844551517865"><ele>626.5714285714286</ele><time>2026-05-04T08:37:01Z</time></trkpt><trkpt lat="38.71889661103705" lon="16.387768895186838"><ele>627.1428571428571</ele><time>2026-05-04T08:37:06Z</time></trkpt><trkpt lat="38.71894097192087" lon="16.387688331267878"><ele>627.7142857142858</ele><time>2026-05-04T08:37:15Z</time></trkpt><trkpt lat="38.718963342862295" lon="16.387604580026064"><ele>628.2857142857142</ele><time>2026-05-04T08:37:22Z</time></trkpt><trkpt lat="38.71898106965563" lon="16.387526357644024"><ele>628.8571428571429</ele><time>2026-05-04T08:37:27Z</time></trkpt><trkpt lat="38.71901377118249" lon="16.3874563764255"><ele>629.4285714285714</ele><time>2026-05-04T08:37:34Z</time></trkpt><trkpt lat="38.71904438294039" lon="16.3873840197607"><ele>630.0</ele><time>2026-05-04T08:37:41Z</time></trkpt><trkpt lat="38.71908836207064" lon="16.387323839835005"><ele>630.0</ele><time>2026-05-04T08:37:47Z</time></trkpt><trkpt lat="38.71911884151423" lon="16.38723269842665"><ele>630.0</ele><time>2026-05-04T08:37:54Z</time></trkpt><trkpt lat="38.71913301348336" lon="16.38714195337553"><ele>630.0</ele><time>2026-05-04T08:38:01Z</time></trkpt><trkpt lat="38.71916719122926" lon="16.387067805655004"><ele>630.0</ele><time>2026-05-04T08:38:08Z</time></trkpt><trkpt lat="38.71916836790973" lon="16.386973320215464"><ele>630.0</ele><time>2026-05-04T08:38:17Z</time></trkpt><trkpt lat="38.719110801762454" lon="16.386915138004284"><ele>630.0</ele><time>2026-05-04T08:38:25Z</time></trkpt><trkpt lat="38.719101700149714" lon="16.38682450484655"><ele>630.0</ele><time>2026-05-04T08:38:31Z</time></trkpt><trkpt lat="38.71908971106823" lon="16.3867428929197"><ele>629.8333333333334</ele><time>2026-05-04T08:38:37Z</time></trkpt><trkpt lat="38.71906372912869" lon="16.386662566113394"><ele>629.6666666666666</ele><time>2026-05-04T08:38:47Z</time></trkpt><trkpt lat="38.71906165689144" lon="16.386544760213006"><ele>629.5</ele><time>2026-05-04T08:38:56Z</time></trkpt><trkpt lat="38.71905255807654" lon="16.38645193971251"><ele>629.3333333333333</ele><time>2026-05-04T08:39:02Z</time></trkpt><trkpt lat="38.71902311174866" lon="16.386368497857433"><ele>629.1666666666666</ele><time>2026-05-04T08:39:07Z</time></trkpt><trkpt lat="38.718958575775446" lon="16.386342977257023"><ele>629.0</ele><time>2026-05-04T08:39:11Z</time></trkpt><trkpt lat="38.7189427418388" lon="16.386243694905886"><ele>628.8571428571428</ele><time>2026-05-04T08:39:17Z</time></trkpt><trkpt lat="38.718897192168846" lon="16.386170946126587"><ele>628.7142857142858</ele><time>2026-05-04T08:39:23Z</time></trkpt><trkpt lat="38.71884652719916" lon="16.386121877956636"><ele>628.5714285714286</ele><time>2026-05-04T08:39:32Z</time></trkpt><trkpt lat="38.718849677531416" lon="16.38603780680269"><ele>628.4285714285713</ele><time>2026-05-04T08:39:38Z</time></trkpt><trkpt lat="38.71884749712578" lon="16.38595665294441"><ele>628.2857142857142</ele><time>2026-05-04T08:39:45Z</time></trkpt><trkpt lat="38.718832308427764" lon="16.3858491702168"><ele>628.1428571428571</ele><time>2026-05-04T08:39:54Z</time></trkpt><trkpt lat="38.71884011159954" lon="16.385747604639416"><ele>628.0</ele><time>2026-05-04T08:40:01Z</time></trkpt><trkpt lat="38.7188353484389" lon="16.385660713820354"><ele>627.9999999999999</ele><time>2026-05-04T08:40:07Z</time></trkpt><trkpt lat="38.7188079726966" lon="16.385580069746794"><ele>628.0</ele><time>2026-05-04T08:40:14Z</time></trkpt><trkpt lat="38.71873644510576" lon="16.385573656406937"><ele>628.0</ele><time>2026-05-04T08:40:20Z</time></trkpt><trkpt lat="38.718659465046656" lon="16.385604311750882"><ele>628.0</ele><time>2026-05-04T08:40:24Z</time></trkpt><trkpt lat="38.71858950226745" lon="16.385618664732927"><ele>628.0</ele><time>2026-05-04T08:40:29Z</time></trkpt><trkpt lat="38.71851480070941" lon="16.385619739361285"><ele>627.9999999999999</ele><time>2026-05-04T08:40:37Z</time></trkpt><trkpt lat="38.718455017822414" lon="16.385645773446594"><ele>628.0</ele><time>2026-05-04T08:40:45Z</time></trkpt><trkpt lat="38.71839196169075" lon="16.38564973228643"><ele>628.4285714285713</ele><time>2026-05-04T08:40:50Z</time></trkpt><trkpt lat="38.718322724949175" lon="16.385691397585884"><ele>628.8571428571429</ele><time>2026-05-04T08:41:00Z</time></trkpt><trkpt lat="38.71829506327156" lon="16.385609553397448"><ele>629.2857142857142</ele><time>2026-05-04T08:41:15Z</time></trkpt><trkpt lat="38.71823768900762" lon="16.385540763128052"><ele>629.7142857142857</ele><time>2026-05-04T08:41:28Z</time></trkpt><trkpt lat="38.71822215113841" lon="16.385458339867352"><ele>630.1428571428571</ele><time>2026-05-04T08:41:36Z</time></trkpt><trkpt lat="38.71820756368392" lon="16.385374646354737"><ele>630.5714285714286</ele><time>2026-05-04T08:41:53Z</time></trkpt><trkpt lat="38.71826204262476" lon="16.385325397326763"><ele>631.0</ele><time>2026-05-04T08:42:03Z</time></trkpt><trkpt lat="38.71832543576166" lon="16.385297535641175"><ele>631.0</ele><time>2026-05-04T08:42:11Z</time></trkpt><trkpt lat="38.71839217712844" lon="16.38529441570268"><ele>631.0</ele><time>2026-05-04T08:42:17Z</time></trkpt><trkpt lat="38.7184484301073" lon="16.38524603851822"><ele>631.0</ele><time>2026-05-04T08:42:25Z</time></trkpt><trkpt lat="38.718494836439106" lon="16.38519138018597"><ele>631.0</ele><time>2026-05-04T08:42:34Z</time></trkpt><trkpt lat="38.71854954235966" lon="16.38512169570896"><ele>631.0</ele><time>2026-05-04T08:43:54Z</time></trkpt><trkpt lat="38.71861095946775" lon="16.38510186290703"><ele>631.0</ele><time>2026-05-04T08:44:00Z</time></trkpt><trkpt lat="38.71867586394135" lon="16.385068608514146"><ele>631.0</ele><time>2026-05-04T08:44:06Z</time></trkpt><trkpt lat="38.718743611599386" lon="16.38502048583869"><ele>631.2857142857143</ele><time>2026-05-04T08:44:13Z</time></trkpt><trkpt lat="38.71879914129437" lon="16.384975770675446"><ele>631.5714285714286</ele><time>2026-05-04T08:44:19Z</time></trkpt><trkpt lat="38.71884787135482" lon="16.384915865086406"><ele>631.8571428571429</ele><time>2026-05-04T08:44:25Z</time></trkpt><trkpt lat="38.71889004332139" lon="16.38485203406572"><ele>632.1428571428571</ele><time>2026-05-04T08:44:31Z</time></trkpt><trkpt lat="38.718953667669226" lon="16.384805506419458"><ele>632.4285714285714</ele><time>2026-05-04T08:44:38Z</time></trkpt><trkpt lat="38.71899345127999" lon="16.384724771236662"><ele>632.7142857142857</ele><time>2026-05-04T08:44:46Z</time></trkpt><trkpt lat="38.719039890175175" lon="16.38465163315559"><ele>633.0</ele><time>2026-05-04T08:44:52Z</time></trkpt><trkpt lat="38.71908376386053" lon="16.38457090386246"><ele>634.5714285714286</ele><time>2026-05-04T08:44:58Z</time></trkpt><trkpt lat="38.71913117245576" lon="16.38450413206113"><ele>636.1428571428571</ele><time>2026-05-04T08:45:06Z</time></trkpt><trkpt lat="38.719153133712595" lon="16.384424016913627"><ele>637.7142857142858</ele><time>2026-05-04T08:45:12Z</time></trkpt><trkpt lat="38.71917156752924" lon="16.384345919345765"><ele>639.2857142857142</ele><time>2026-05-04T08:45:17Z</time></trkpt><trkpt lat="38.71923183224171" lon="16.38430207546803"><ele>640.8571428571429</ele><time>2026-05-04T08:45:24Z</time></trkpt><trkpt lat="38.719281113194775" lon="16.38423397973259"><ele>642.4285714285714</ele><time>2026-05-04T08:45:32Z</time></trkpt><trkpt lat="38.719322445733326" lon="16.384168191185186"><ele>644.0</ele><time>2026-05-04T08:45:38Z</time></trkpt><trkpt lat="38.719371001927726" lon="16.38409080244776"><ele>644.0</ele><time>2026-05-04T08:45:46Z</time></trkpt><trkpt lat="38.71942177694961" lon="16.384038101995824"><ele>644.0</ele><time>2026-05-04T08:45:56Z</time></trkpt><trkpt lat="38.719450940124084" lon="16.383954273193197"><ele>644.0</ele><time>2026-05-04T08:46:02Z</time></trkpt><trkpt lat="38.71950685637973" lon="16.383900591753665"><ele>644.0</ele><time>2026-05-04T08:46:09Z</time></trkpt><trkpt lat="38.71954493562189" lon="16.383828899951414"><ele>644.0</ele><time>2026-05-04T08:46:16Z</time></trkpt><trkpt lat="38.719585667959144" lon="16.383753577042004"><ele>644.0</ele><time>2026-05-04T08:46:22Z</time></trkpt><trkpt lat="38.71964662932678" lon="16.383693979314383"><ele>644.0</ele><time>2026-05-04T08:46:32Z</time></trkpt><trkpt lat="38.719695832008455" lon="16.383636059788763"><ele>645.7142857142857</ele><time>2026-05-04T08:46:41Z</time></trkpt><trkpt lat="38.71973805606293" lon="16.383572530419677"><ele>647.4285714285714</ele><time>2026-05-04T08:46:48Z</time></trkpt><trkpt lat="38.71978331745204" lon="16.383506357351745"><ele>649.1428571428571</ele><time>2026-05-04T08:46:55Z</time></trkpt><trkpt lat="38.71984534251605" lon="16.383451637176147"><ele>650.8571428571429</ele><time>2026-05-04T08:47:04Z</time></trkpt><trkpt lat="38.71990406125387" lon="16.383403475872857"><ele>652.5714285714286</ele><time>2026-05-04T08:47:12Z</time></trkpt><trkpt lat="38.719945426274" lon="16.383336998685813"><ele>654.2857142857142</ele><time>2026-05-04T08:47:19Z</time></trkpt><trkpt lat="38.719998438320395" lon="16.383277442194046"><ele>656.0</ele><time>2026-05-04T08:47:27Z</time></trkpt><trkpt lat="38.720055681472196" lon="16.383214977578003"><ele>655.9999999999999</ele><time>2026-05-04T08:47:36Z</time></trkpt><trkpt lat="38.72011286957405" lon="16.38315720838121"><ele>656.0</ele><time>2026-05-04T08:47:45Z</time></trkpt><trkpt lat="38.720170274942014" lon="16.383096237741743"><ele>656.0</ele><time>2026-05-04T08:47:55Z</time></trkpt><trkpt lat="38.72022667372338" lon="16.383049070632406"><ele>656.0</ele><time>2026-05-04T08:48:03Z</time></trkpt><trkpt lat="38.7202861311138" lon="16.382991241019294"><ele>656.0</ele><time>2026-05-04T08:48:13Z</time></trkpt><trkpt lat="38.72031880185919" lon="16.382901925445122"><ele>655.9999999999999</ele><time>2026-05-04T08:48:23Z</time></trkpt><trkpt lat="38.720395371821525" lon="16.382899738482564"><ele>656.0</ele><time>2026-05-04T08:50:10Z</time></trkpt><trkpt lat="38.72046442554619" lon="16.38287150854216"><ele>660.7142857142857</ele><time>2026-05-04T08:50:17Z</time></trkpt><trkpt lat="38.72051763519578" lon="16.382811484349894"><ele>665.4285714285714</ele><time>2026-05-04T08:50:29Z</time></trkpt><trkpt lat="38.720579680821" lon="16.382757551678786"><ele>670.1428571428571</ele><time>2026-05-04T08:50:39Z</time></trkpt><trkpt lat="38.72062939761805" lon="16.382693449987684"><ele>674.8571428571429</ele><time>2026-05-04T08:50:47Z</time></trkpt><trkpt lat="38.72065662866114" lon="16.382611414973677"><ele>679.5714285714286</ele><time>2026-05-04T08:50:55Z</time></trkpt><trkpt lat="38.72067462468627" lon="16.382528241480166"><ele>684.2857142857142</ele><time>2026-05-04T08:51:06Z</time></trkpt><trkpt lat="38.72066695059456" lon="16.382446686228754"><ele>689.0</ele><time>2026-05-04T08:51:19Z</time></trkpt><trkpt lat="38.72069351528915" lon="16.382355445024906"><ele>689.0</ele><time>2026-05-04T08:51:52Z</time></trkpt><trkpt lat="38.72069463201388" lon="16.382259533845026"><ele>689.0</ele><time>2026-05-04T08:52:02Z</time></trkpt><trkpt lat="38.72074670628428" lon="16.382200335792422"><ele>689.0</ele><time>2026-05-04T08:52:24Z</time></trkpt><trkpt lat="38.72079189765951" lon="16.38212998516541"><ele>689.0</ele><time>2026-05-04T08:52:37Z</time></trkpt><trkpt lat="38.720826569831445" lon="16.38206145906711"><ele>689.0</ele><time>2026-05-04T08:52:45Z</time></trkpt><trkpt lat="38.72088020986385" lon="16.38200262544069"><ele>689.0</ele><time>2026-05-04T08:52:56Z</time></trkpt><trkpt lat="38.720874290836214" lon="16.381915001237694"><ele>689.0</ele><time>2026-05-04T08:53:07Z</time></trkpt><trkpt lat="38.72090800840358" lon="16.381845216190673"><ele>691.0</ele><time>2026-05-04T08:53:19Z</time></trkpt><trkpt lat="38.72094785182798" lon="16.381773961578833"><ele>693.0</ele><time>2026-05-04T08:53:30Z</time></trkpt><trkpt lat="38.72097306718168" lon="16.38168573926444"><ele>695.0</ele><time>2026-05-04T08:53:41Z</time></trkpt><trkpt lat="38.720994679195655" lon="16.38159223628393"><ele>697.0</ele><time>2026-05-04T08:53:50Z</time></trkpt><trkpt lat="38.720928583201015" lon="16.381548562498853"><ele>699.0</ele><time>2026-05-04T08:54:28Z</time></trkpt><trkpt lat="38.720977783977894" lon="16.381474476664735"><ele>701.0</ele><time>2026-05-04T08:55:26Z</time></trkpt><trkpt lat="38.721031341131265" lon="16.381417968557706"><ele>703.0</ele><time>2026-05-04T08:55:36Z</time></trkpt><trkpt lat="38.72105187374928" lon="16.381338831081056"><ele>707.0</ele><time>2026-05-04T08:55:44Z</time></trkpt><trkpt lat="38.721083847144094" lon="16.381252588701326"><ele>711.0</ele><time>2026-05-04T08:55:51Z</time></trkpt><trkpt lat="38.72114142617632" lon="16.381198820969267"><ele>715.0</ele><time>2026-05-04T08:56:00Z</time></trkpt><trkpt lat="38.721170467819626" lon="16.38112669238592"><ele>719.0</ele><time>2026-05-04T08:56:10Z</time></trkpt><trkpt lat="38.72121333801808" lon="16.38106150530931"><ele>723.0</ele><time>2026-05-04T08:56:17Z</time></trkpt><trkpt lat="38.72125134661134" lon="16.38099710538043"><ele>727.0</ele><time>2026-05-04T08:56:25Z</time></trkpt><trkpt lat="38.7213000638852" lon="16.380943006175187"><ele>731.0</ele><time>2026-05-04T08:56:31Z</time></trkpt><trkpt lat="38.7213470749868" lon="16.380885970006478"><ele>731.0</ele><time>2026-05-04T08:56:37Z</time></trkpt><trkpt lat="38.721389627609256" lon="16.380814469596654"><ele>731.0</ele><time>2026-05-04T08:56:45Z</time></trkpt><trkpt lat="38.72143454375925" lon="16.38075057320881"><ele>731.0</ele><time>2026-05-04T08:56:53Z</time></trkpt><trkpt lat="38.72148262086872" lon="16.38069427347299"><ele>731.0</ele><time>2026-05-04T08:57:01Z</time></trkpt><trkpt lat="38.721529753441814" lon="16.38062475109871"><ele>731.0</ele><time>2026-05-04T08:57:06Z</time></trkpt><trkpt lat="38.721581207339426" lon="16.38055957468611"><ele>731.0</ele><time>2026-05-04T08:57:14Z</time></trkpt><trkpt lat="38.72161302451519" lon="16.380470260928934"><ele>731.0</ele><time>2026-05-04T08:57:21Z</time></trkpt><trkpt lat="38.721670234113006" lon="16.38041621774305"><ele>730.4285714285714</ele><time>2026-05-04T08:57:27Z</time></trkpt><trkpt lat="38.72172217246581" lon="16.380368967598894"><ele>729.8571428571429</ele><time>2026-05-04T08:57:35Z</time></trkpt><trkpt lat="38.72176771825409" lon="16.380302534762162"><ele>729.2857142857142</ele><time>2026-05-04T08:57:42Z</time></trkpt><trkpt lat="38.721813753083104" lon="16.380238628182365"><ele>728.7142857142858</ele><time>2026-05-04T08:57:48Z</time></trkpt><trkpt lat="38.72182178832426" lon="16.380149467851147"><ele>728.1428571428572</ele><time>2026-05-04T08:57:55Z</time></trkpt><trkpt lat="38.72186460276139" lon="16.380080712114836"><ele>727.5714285714286</ele><time>2026-05-04T08:58:01Z</time></trkpt><trkpt lat="38.7219276044264" lon="16.380061074992177"><ele>727.0</ele><time>2026-05-04T08:58:08Z</time></trkpt><trkpt lat="38.72198583292418" lon="16.380006899911546"><ele>728.4285714285714</ele><time>2026-05-04T08:58:18Z</time></trkpt><trkpt lat="38.72204596585708" lon="16.37995978694155"><ele>729.8571428571429</ele><time>2026-05-04T08:58:24Z</time></trkpt><trkpt lat="38.722097186238756" lon="16.37990279659317"><ele>731.2857142857143</ele><time>2026-05-04T08:58:32Z</time></trkpt><trkpt lat="38.72214523495765" lon="16.379843639942163"><ele>732.7142857142858</ele><time>2026-05-04T08:58:38Z</time></trkpt><trkpt lat="38.722186217574944" lon="16.379766803078304"><ele>734.1428571428571</ele><time>2026-05-04T08:58:47Z</time></trkpt><trkpt lat="38.722221568082496" lon="16.379695621575706"><ele>735.5714285714287</ele><time>2026-05-04T08:58:55Z</time></trkpt><trkpt lat="38.7222647247628" lon="16.379634661629783"><ele>737.0</ele><time>2026-05-04T08:59:02Z</time></trkpt><trkpt lat="38.7223057689325" lon="16.37956252421621"><ele>737.1428571428572</ele><time>2026-05-04T08:59:09Z</time></trkpt><trkpt lat="38.72235576519639" lon="16.37950688098173"><ele>737.2857142857143</ele><time>2026-05-04T08:59:16Z</time></trkpt><trkpt lat="38.72241240975798" lon="16.37945889339247"><ele>737.4285714285714</ele><time>2026-05-04T08:59:22Z</time></trkpt><trkpt lat="38.72246674747287" lon="16.379406474097195"><ele>737.5714285714287</ele><time>2026-05-04T08:59:29Z</time></trkpt><trkpt lat="38.7224897844166" lon="16.379323545591976"><ele>737.7142857142857</ele><time>2026-05-04T08:59:35Z</time></trkpt><trkpt lat="38.722535087844264" lon="16.379257964208197"><ele>737.8571428571429</ele><time>2026-05-04T08:59:42Z</time></trkpt><trkpt lat="38.72257992122326" lon="16.379185284816277"><ele>738.0</ele><time>2026-05-04T08:59:48Z</time></trkpt><trkpt lat="38.722605582080774" lon="16.379107224740945"><ele>738.0</ele><time>2026-05-04T08:59:54Z</time></trkpt><trkpt lat="38.72263390033064" lon="16.379029079914613"><ele>738.0</ele><time>2026-05-04T09:00:02Z</time></trkpt><trkpt lat="38.72265374245982" lon="16.378944333303128"><ele>738.0</ele><time>2026-05-04T09:00:09Z</time></trkpt><trkpt lat="38.72266529166694" lon="16.378847943032884"><ele>738.0</ele><time>2026-05-04T09:00:14Z</time></trkpt><trkpt lat="38.722689475831324" lon="16.37876573194907"><ele>738.0</ele><time>2026-05-04T09:00:20Z</time></trkpt><trkpt lat="38.72274338669781" lon="16.37870074046284"><ele>738.0</ele><time>2026-05-04T09:00:29Z</time></trkpt><trkpt lat="38.722783053610364" lon="16.378622436585783"><ele>738.0</ele><time>2026-05-04T09:00:36Z</time></trkpt><trkpt lat="38.72283076281929" lon="16.37855852640924"><ele>740.4285714285714</ele><time>2026-05-04T09:00:43Z</time></trkpt><trkpt lat="38.72288513978869" lon="16.37851327016063"><ele>742.8571428571429</ele><time>2026-05-04T09:00:52Z</time></trkpt><trkpt lat="38.72294678315585" lon="16.378489168755127"><ele>745.2857142857142</ele><time>2026-05-04T09:00:59Z</time></trkpt><trkpt lat="38.72300127665592" lon="16.378446765785288"><ele>747.7142857142858</ele><time>2026-05-04T09:01:06Z</time></trkpt><trkpt lat="38.72303140406473" lon="16.378373856059373"><ele>750.1428571428572</ele><time>2026-05-04T09:01:14Z</time></trkpt><trkpt lat="38.72307737694808" lon="16.37829450041052"><ele>752.5714285714286</ele><time>2026-05-04T09:02:40Z</time></trkpt><trkpt lat="38.723009388809906" lon="16.378288937162818"><ele>755.0</ele><time>2026-05-04T09:02:56Z</time></trkpt><trkpt lat="38.723071062322305" lon="16.378265794427886"><ele>755.0</ele><time>2026-05-04T09:04:47Z</time></trkpt><trkpt lat="38.723100846788114" lon="16.37819060777642"><ele>755.0</ele><time>2026-05-04T09:04:57Z</time></trkpt><trkpt lat="38.72309672164265" lon="16.378103603801662"><ele>755.0</ele><time>2026-05-04T09:05:11Z</time></trkpt><trkpt lat="38.723084774079155" lon="16.378010203290017"><ele>755.0</ele><time>2026-05-04T09:05:19Z</time></trkpt><trkpt lat="38.7230864407912" lon="16.377928285725492"><ele>755.0</ele><time>2026-05-04T09:05:26Z</time></trkpt><trkpt lat="38.723050693870064" lon="16.377841893817696"><ele>755.0</ele><time>2026-05-04T09:05:35Z</time></trkpt><trkpt lat="38.72303560855645" lon="16.37775323706493"><ele>755.0</ele><time>2026-05-04T09:05:42Z</time></trkpt><trkpt lat="38.72301955575935" lon="16.377674918060627"><ele>758.1428571428571</ele><time>2026-05-04T09:05:53Z</time></trkpt><trkpt lat="38.72302034866156" lon="16.377579814201663"><ele>761.2857142857143</ele><time>2026-05-04T09:05:58Z</time></trkpt><trkpt lat="38.72301433027301" lon="16.377493877375176"><ele>764.4285714285714</ele><time>2026-05-04T09:06:08Z</time></trkpt><trkpt lat="38.72301609491758" lon="16.377404092070314"><ele>767.5714285714286</ele><time>2026-05-04T09:06:19Z</time></trkpt><trkpt lat="38.723025985819554" lon="16.377313342879887"><ele>770.7142857142858</ele><time>2026-05-04T09:06:25Z</time></trkpt><trkpt lat="38.72303219162991" lon="16.37723042365776"><ele>773.8571428571429</ele><time>2026-05-04T09:06:33Z</time></trkpt><trkpt lat="38.72305591026834" lon="16.37714377333452"><ele>777.0</ele><time>2026-05-04T09:06:43Z</time></trkpt><trkpt lat="38.723059278720186" lon="16.3770247349503"><ele>779.4285714285714</ele><time>2026-05-04T09:06:57Z</time></trkpt><trkpt lat="38.72304245929259" lon="16.376938442199457"><ele>781.8571428571429</ele><time>2026-05-04T09:07:07Z</time></trkpt><trkpt lat="38.723036356482005" lon="16.376857976337686"><ele>784.2857142857142</ele><time>2026-05-04T09:07:20Z</time></trkpt><trkpt lat="38.7230439783829" lon="16.376765469921132"><ele>786.7142857142858</ele><time>2026-05-04T09:07:26Z</time></trkpt><trkpt lat="38.723046234256365" lon="16.376669713851967"><ele>789.1428571428571</ele><time>2026-05-04T09:07:38Z</time></trkpt><trkpt lat="38.7230171266433" lon="16.376587794331634"><ele>791.5714285714286</ele><time>2026-05-04T09:08:09Z</time></trkpt><trkpt lat="38.72302032124017" lon="16.376499702791648"><ele>794.0</ele><time>2026-05-04T09:08:18Z</time></trkpt><trkpt lat="38.72308437180793" lon="16.3764553739586"><ele>794.0</ele><time>2026-05-04T09:08:29Z</time></trkpt><trkpt lat="38.72313833833135" lon="16.376410289876766"><ele>794.0</ele><time>2026-05-04T09:08:37Z</time></trkpt><trkpt lat="38.72318728880041" lon="16.376358825250332"><ele>794.0</ele><time>2026-05-04T09:08:45Z</time></trkpt><trkpt lat="38.723217417289995" lon="16.376287273557832"><ele>794.0</ele><time>2026-05-04T09:08:53Z</time></trkpt><trkpt lat="38.72323966522632" lon="16.376211513585183"><ele>794.0</ele><time>2026-05-04T09:08:59Z</time></trkpt><trkpt lat="38.72327553771437" lon="16.376144220070685"><ele>794.0</ele><time>2026-05-04T09:09:06Z</time></trkpt><trkpt lat="38.723274802243964" lon="16.376047269948014"><ele>794.0</ele><time>2026-05-04T09:09:12Z</time></trkpt><trkpt lat="38.7232696589075" lon="16.37596672783472"><ele>796.2857142857142</ele><time>2026-05-04T09:09:20Z</time></trkpt><trkpt lat="38.72324859637766" lon="16.375881182718587"><ele>798.5714285714286</ele><time>2026-05-04T09:09:27Z</time></trkpt><trkpt lat="38.723230003974344" lon="16.375789729265623"><ele>800.8571428571429</ele><time>2026-05-04T09:09:36Z</time></trkpt><trkpt lat="38.72319687125887" lon="16.37570732289562"><ele>803.1428571428571</ele><time>2026-05-04T09:09:45Z</time></trkpt><trkpt lat="38.72317740077977" lon="16.37562168068012"><ele>805.4285714285714</ele><time>2026-05-04T09:09:53Z</time></trkpt><trkpt lat="38.72315056622799" lon="16.375547485131637"><ele>807.7142857142857</ele><time>2026-05-04T09:09:59Z</time></trkpt><trkpt lat="38.7231225546567" lon="16.375465308385724"><ele>810.0</ele><time>2026-05-04T09:10:07Z</time></trkpt><trkpt lat="38.723106429130446" lon="16.37538033248708"><ele>810.4285714285713</ele><time>2026-05-04T09:10:13Z</time></trkpt><trkpt lat="38.72306570986654" lon="16.375312609255975"><ele>810.8571428571429</ele><time>2026-05-04T09:10:21Z</time></trkpt><trkpt lat="38.722995667259354" lon="16.375268086537677"><ele>811.2857142857142</ele><time>2026-05-04T09:10:26Z</time></trkpt><trkpt lat="38.7229288243269" lon="16.37528168162027"><ele>811.7142857142857</ele><time>2026-05-04T09:10:32Z</time></trkpt><trkpt lat="38.722865452338176" lon="16.37530091557075"><ele>812.1428571428571</ele><time>2026-05-04T09:11:29Z</time></trkpt><trkpt lat="38.72280645004568" lon="16.375333903451107"><ele>812.5714285714286</ele><time>2026-05-04T09:11:35Z</time></trkpt><trkpt lat="38.722741657084434" lon="16.3753448949561"><ele>813.0</ele><time>2026-05-04T09:11:42Z</time></trkpt><trkpt lat="38.722673996364016" lon="16.37536163815388"><ele>813.0</ele><time>2026-05-04T09:11:50Z</time></trkpt><trkpt lat="38.7225935419104" lon="16.375378569902953"><ele>813.0</ele><time>2026-05-04T09:11:59Z</time></trkpt><trkpt lat="38.72253124186131" lon="16.375354919857585"><ele>813.0</ele><time>2026-05-04T09:12:08Z</time></trkpt><trkpt lat="38.722471208099876" lon="16.375393846647317"><ele>813.0</ele><time>2026-05-04T09:12:14Z</time></trkpt><trkpt lat="38.722397287283414" lon="16.37541462075018"><ele>813.0</ele><time>2026-05-04T09:12:22Z</time></trkpt><trkpt lat="38.72233317586514" lon="16.375449403063268"><ele>813.0</ele><time>2026-05-04T09:12:28Z</time></trkpt><trkpt lat="38.72227434391837" lon="16.37548593081605"><ele>813.0</ele><time>2026-05-04T09:12:36Z</time></trkpt><trkpt lat="38.72220996356808" lon="16.37550000255625"><ele>813.0</ele><time>2026-05-04T09:12:42Z</time></trkpt><trkpt lat="38.722142510961355" lon="16.37553338907519"><ele>813.0</ele><time>2026-05-04T09:12:48Z</time></trkpt><trkpt lat="38.72213312409532" lon="16.37544747870856"><ele>813.0</ele><time>2026-05-04T09:13:05Z</time></trkpt><trkpt lat="38.72217600813514" lon="16.37538721541144"><ele>813.0</ele><time>2026-05-04T09:13:11Z</time></trkpt><trkpt lat="38.72222070451558" lon="16.375329133620568"><ele>813.0</ele><time>2026-05-04T09:13:19Z</time></trkpt><trkpt lat="38.72223576571086" lon="16.375248204106914"><ele>813.0</ele><time>2026-05-04T09:13:25Z</time></trkpt><trkpt lat="38.722231134631734" lon="16.37516613222979"><ele>813.0</ele><time>2026-05-04T09:13:34Z</time></trkpt><trkpt lat="38.72218419097761" lon="16.37508796647277"><ele>813.0</ele><time>2026-05-04T09:13:42Z</time></trkpt><trkpt lat="38.72215402371522" lon="16.375016593131388"><ele>813.0</ele><time>2026-05-04T09:13:49Z</time></trkpt><trkpt lat="38.722125399900754" lon="16.374941232968506"><ele>813.0</ele><time>2026-05-04T09:13:57Z</time></trkpt><trkpt lat="38.72208887171305" lon="16.37486754967607"><ele>813.0</ele><time>2026-05-04T09:14:03Z</time></trkpt><trkpt lat="38.72205360620441" lon="16.37479572347192"><ele>813.0</ele><time>2026-05-04T09:14:11Z</time></trkpt><trkpt lat="38.72201817187026" lon="16.374728813490115"><ele>813.0</ele><time>2026-05-04T09:14:17Z</time></trkpt><trkpt lat="38.7219862296469" lon="16.374658333680916"><ele>813.0</ele><time>2026-05-04T09:14:24Z</time></trkpt><trkpt lat="38.721941869874414" lon="16.374592565242235"><ele>814.2857142857143</ele><time>2026-05-04T09:14:30Z</time></trkpt><trkpt lat="38.721914544114924" lon="16.374512164181382"><ele>815.5714285714286</ele><time>2026-05-04T09:14:37Z</time></trkpt><trkpt lat="38.72188101817194" lon="16.374434589545377"><ele>816.8571428571429</ele><time>2026-05-04T09:14:44Z</time></trkpt><trkpt lat="38.72186770350888" lon="16.37435046894009"><ele>818.1428571428571</ele><time>2026-05-04T09:14:50Z</time></trkpt><trkpt lat="38.721912013215814" lon="16.374271237294963"><ele>819.4285714285713</ele><time>2026-05-04T09:14:58Z</time></trkpt><trkpt lat="38.721942935181644" lon="16.37418071378336"><ele>820.7142857142857</ele><time>2026-05-04T09:15:04Z</time></trkpt><trkpt lat="38.72187270015537" lon="16.374112006767668"><ele>822.0</ele><time>2026-05-04T09:15:12Z</time></trkpt><trkpt lat="38.7218955879235" lon="16.374035557671007"><ele>822.0</ele><time>2026-05-04T09:15:17Z</time></trkpt><trkpt lat="38.72187970123878" lon="16.37394430239326"><ele>822.0</ele><time>2026-05-04T09:15:24Z</time></trkpt><trkpt lat="38.721876103690946" lon="16.37386265002773"><ele>822.0</ele><time>2026-05-04T09:15:31Z</time></trkpt><trkpt lat="38.72189082354721" lon="16.373777982044604"><ele>822.0</ele><time>2026-05-04T09:15:38Z</time></trkpt><trkpt lat="38.72189921393879" lon="16.37368582036641"><ele>822.0</ele><time>2026-05-04T09:15:44Z</time></trkpt><trkpt lat="38.72189266432401" lon="16.37360043136178"><ele>822.0</ele><time>2026-05-04T09:15:50Z</time></trkpt><trkpt lat="38.72188765736013" lon="16.373507489470352"><ele>822.0</ele><time>2026-05-04T09:15:58Z</time></trkpt><trkpt lat="38.72185301733302" lon="16.37341336810616"><ele>822.4285714285714</ele><time>2026-05-04T09:16:04Z</time></trkpt><trkpt lat="38.72184677372486" lon="16.373330415828896"><ele>822.8571428571429</ele><time>2026-05-04T09:16:11Z</time></trkpt><trkpt lat="38.72182594017708" lon="16.37323044425298"><ele>823.2857142857142</ele><time>2026-05-04T09:16:19Z</time></trkpt><trkpt lat="38.7218217920192" lon="16.373132360700453"><ele>823.7142857142858</ele><time>2026-05-04T09:16:28Z</time></trkpt><trkpt lat="38.72182375432606" lon="16.373042877238838"><ele>824.1428571428572</ele><time>2026-05-04T09:16:35Z</time></trkpt><trkpt lat="38.721823372629586" lon="16.37293182536159"><ele>824.5714285714286</ele><time>2026-05-04T09:17:11Z</time></trkpt><trkpt lat="38.72183860937127" lon="16.37285024698231"><ele>825.0</ele><time>2026-05-04T09:17:17Z</time></trkpt><trkpt lat="38.72185095526639" lon="16.37276944344328"><ele>825.7142857142857</ele><time>2026-05-04T09:17:24Z</time></trkpt><trkpt lat="38.72187610240978" lon="16.372678377683393"><ele>826.4285714285714</ele><time>2026-05-04T09:17:32Z</time></trkpt><trkpt lat="38.721896586382314" lon="16.372590503315912"><ele>827.1428571428571</ele><time>2026-05-04T09:17:38Z</time></trkpt><trkpt lat="38.721908560689485" lon="16.37250831907343"><ele>827.8571428571429</ele><time>2026-05-04T09:17:44Z</time></trkpt><trkpt lat="38.721915206896135" lon="16.372421968135605"><ele>828.5714285714287</ele><time>2026-05-04T09:17:50Z</time></trkpt><trkpt lat="38.72191447054192" lon="16.372331625086655"><ele>829.2857142857143</ele><time>2026-05-04T09:17:56Z</time></trkpt><trkpt lat="38.721939949696576" lon="16.37225506514935"><ele>830.0</ele><time>2026-05-04T09:18:05Z</time></trkpt><trkpt lat="38.72193271166058" lon="16.37216525391282"><ele>833.7142857142858</ele><time>2026-05-04T09:18:16Z</time></trkpt><trkpt lat="38.72191913224396" lon="16.3720822891057"><ele>837.4285714285714</ele><time>2026-05-04T09:18:23Z</time></trkpt><trkpt lat="38.721913724283084" lon="16.371998901734347"><ele>841.1428571428571</ele><time>2026-05-04T09:18:29Z</time></trkpt><trkpt lat="38.72192619053465" lon="16.37190811248403"><ele>844.8571428571429</ele><time>2026-05-04T09:18:37Z</time></trkpt><trkpt lat="38.72193847716088" lon="16.371822776713397"><ele>848.5714285714286</ele><time>2026-05-04T09:18:45Z</time></trkpt><trkpt lat="38.721961503200866" lon="16.371738939604594"><ele>852.2857142857143</ele><time>2026-05-04T09:18:52Z</time></trkpt><trkpt lat="38.72196110864498" lon="16.371654684828655"><ele>856.0</ele><time>2026-05-04T09:18:59Z</time></trkpt><trkpt lat="38.7219746266778" lon="16.37157459998824"><ele>856.0000000000001</ele><time>2026-05-04T09:19:05Z</time></trkpt><trkpt lat="38.721987671574865" lon="16.37149132525539"><ele>856.0</ele><time>2026-05-04T09:19:10Z</time></trkpt><trkpt lat="38.7220286337491" lon="16.37142008430731"><ele>856.0</ele><time>2026-05-04T09:19:17Z</time></trkpt><trkpt lat="38.722068929739514" lon="16.37134570447146"><ele>856.0</ele><time>2026-05-04T09:19:24Z</time></trkpt><trkpt lat="38.72211348329967" lon="16.371285118114393"><ele>856.0</ele><time>2026-05-04T09:19:30Z</time></trkpt><trkpt lat="38.72213192675649" lon="16.371193318750713"><ele>856.0000000000001</ele><time>2026-05-04T09:19:37Z</time></trkpt><trkpt lat="38.72214680557889" lon="16.37111472016087"><ele>856.0</ele><time>2026-05-04T09:20:06Z</time></trkpt><trkpt lat="38.72215859981739" lon="16.371023862821904"><ele>855.4285714285714</ele><time>2026-05-04T09:20:13Z</time></trkpt><trkpt lat="38.722160622897626" lon="16.370934132929115"><ele>854.8571428571429</ele><time>2026-05-04T09:20:19Z</time></trkpt><trkpt lat="38.72219212561718" lon="16.37085147443335"><ele>854.2857142857142</ele><time>2026-05-04T09:20:26Z</time></trkpt><trkpt lat="38.72220861828316" lon="16.370764659962717"><ele>853.7142857142858</ele><time>2026-05-04T09:20:35Z</time></trkpt><trkpt lat="38.72224469806823" lon="16.370690026978977"><ele>853.1428571428571</ele><time>2026-05-04T09:20:41Z</time></trkpt><trkpt lat="38.722294308086546" lon="16.37062308735613"><ele>852.5714285714286</ele><time>2026-05-04T09:20:49Z</time></trkpt><trkpt lat="38.72231095850777" lon="16.370538323434072"><ele>852.0</ele><time>2026-05-04T09:20:54Z</time></trkpt><trkpt lat="38.72235193354385" lon="16.370462746826508"><ele>851.7142857142857</ele><time>2026-05-04T09:21:00Z</time></trkpt><trkpt lat="38.72240197643961" lon="16.37039674514364"><ele>851.4285714285714</ele><time>2026-05-04T09:21:06Z</time></trkpt><trkpt lat="38.72244655847356" lon="16.370328182844325"><ele>851.1428571428571</ele><time>2026-05-04T09:21:13Z</time></trkpt><trkpt lat="38.72248055845864" lon="16.37025737756188"><ele>850.8571428571429</ele><time>2026-05-04T09:21:18Z</time></trkpt><trkpt lat="38.722526697336605" lon="16.370188332276676"><ele>850.5714285714286</ele><time>2026-05-04T09:21:24Z</time></trkpt><trkpt lat="38.722574021369965" lon="16.370131321807413"><ele>850.2857142857142</ele><time>2026-05-04T09:21:31Z</time></trkpt><trkpt lat="38.72262154608851" lon="16.370075218929596"><ele>850.0</ele><time>2026-05-04T09:21:37Z</time></trkpt><trkpt lat="38.72266006043099" lon="16.370009197773516"><ele>850.0</ele><time>2026-05-04T09:21:45Z</time></trkpt><trkpt lat="38.722661352107934" lon="16.369927759919626"><ele>850.0</ele><time>2026-05-04T09:21:51Z</time></trkpt><trkpt lat="38.722658754396626" lon="16.36984369538907"><ele>850.0</ele><time>2026-05-04T09:21:57Z</time></trkpt><trkpt lat="38.722654346159686" lon="16.36974961248829"><ele>850.0</ele><time>2026-05-04T09:22:03Z</time></trkpt><trkpt lat="38.722656752214505" lon="16.369665873781564"><ele>850.0</ele><time>2026-05-04T09:22:09Z</time></trkpt><trkpt lat="38.72264481280124" lon="16.369584121103312"><ele>850.0</ele><time>2026-05-04T09:22:17Z</time></trkpt><trkpt lat="38.72260324385043" lon="16.36952018516845"><ele>850.0</ele><time>2026-05-04T09:22:25Z</time></trkpt><trkpt lat="38.722589445111645" lon="16.369435490835055"><ele>851.5714285714286</ele><time>2026-05-04T09:22:31Z</time></trkpt><trkpt lat="38.72257874927021" lon="16.36935283537079"><ele>853.1428571428571</ele><time>2026-05-04T09:22:36Z</time></trkpt><trkpt lat="38.72258268805471" lon="16.36926490757157"><ele>854.7142857142858</ele><time>2026-05-04T09:22:48Z</time></trkpt><trkpt lat="38.72256104275079" lon="16.369167296143058"><ele>856.2857142857142</ele><time>2026-05-04T09:22:56Z</time></trkpt><trkpt lat="38.72259325080074" lon="16.36908611358681"><ele>857.8571428571429</ele><time>2026-05-04T09:23:03Z</time></trkpt><trkpt lat="38.722577097989394" lon="16.369002600759753"><ele>859.4285714285714</ele><time>2026-05-04T09:23:09Z</time></trkpt><trkpt lat="38.722598202922796" lon="16.368926515956627"><ele>861.0</ele><time>2026-05-04T09:23:13Z</time></trkpt><trkpt lat="38.72260643623457" lon="16.368830292857616"><ele>862.0</ele><time>2026-05-04T09:23:22Z</time></trkpt><trkpt lat="38.72256520722872" lon="16.368739182400272"><ele>863.0</ele><time>2026-05-04T09:23:32Z</time></trkpt><trkpt lat="38.72250044453013" lon="16.368758586989067"><ele>864.0</ele><time>2026-05-04T09:23:38Z</time></trkpt><trkpt lat="38.72259954645827" lon="16.368731640171248"><ele>865.0</ele><time>2026-05-04T09:23:53Z</time></trkpt><trkpt lat="38.72253437353675" lon="16.368677752856314"><ele>866.0</ele><time>2026-05-04T09:24:19Z</time></trkpt><trkpt lat="38.722543893967874" lon="16.368579998255402"><ele>867.0</ele><time>2026-05-04T09:24:22Z</time></trkpt><trkpt lat="38.72249491715826" lon="16.368511275392112"><ele>867.0</ele><time>2026-05-04T09:24:29Z</time></trkpt><trkpt lat="38.72242599390189" lon="16.368498471070765"><ele>867.0</ele><time>2026-05-04T09:24:34Z</time></trkpt><trkpt lat="38.72237368310186" lon="16.368439768077547"><ele>867.0</ele><time>2026-05-04T09:24:41Z</time></trkpt><trkpt lat="38.7223549557004" lon="16.36836161747904"><ele>867.0</ele><time>2026-05-04T09:24:47Z</time></trkpt><trkpt lat="38.722408392601785" lon="16.368302468003147"><ele>867.0</ele><time>2026-05-04T09:24:54Z</time></trkpt><trkpt lat="38.72235194161139" lon="16.368352204527234"><ele>867.0</ele><time>2026-05-04T09:25:00Z</time></trkpt><trkpt lat="38.7223023748803" lon="16.368299172620745"><ele>867.0</ele><time>2026-05-04T09:25:06Z</time></trkpt><trkpt lat="38.722320873198534" lon="16.3682159349485"><ele>867.0</ele><time>2026-05-04T09:25:10Z</time></trkpt><trkpt lat="38.7223390050218" lon="16.368126409243622"><ele>867.0</ele><time>2026-05-04T09:25:19Z</time></trkpt><trkpt lat="38.72233011168394" lon="16.368027467083635"><ele>867.0</ele><time>2026-05-04T09:25:26Z</time></trkpt><trkpt lat="38.72236089887501" lon="16.367952307152155"><ele>867.0</ele><time>2026-05-04T09:25:32Z</time></trkpt><trkpt lat="38.72232942471806" lon="16.367880455564265"><ele>867.0</ele><time>2026-05-04T09:25:37Z</time></trkpt><trkpt lat="38.722334391617125" lon="16.367793141127372"><ele>867.0</ele><time>2026-05-04T09:25:44Z</time></trkpt><trkpt lat="38.72233024563035" lon="16.367706578381465"><ele>867.0</ele><time>2026-05-04T09:25:53Z</time></trkpt><trkpt lat="38.72227642044915" lon="16.367760727102116"><ele>867.0</ele><time>2026-05-04T09:26:02Z</time></trkpt><trkpt lat="38.722240216723755" lon="16.367842074039316"><ele>867.0</ele><time>2026-05-04T09:26:09Z</time></trkpt><trkpt lat="38.722191268621735" lon="16.3679160962162"><ele>867.0</ele><time>2026-05-04T09:26:15Z</time></trkpt><trkpt lat="38.722170819117046" lon="16.367994819402483"><ele>867.0</ele><time>2026-05-04T09:26:23Z</time></trkpt><trkpt lat="38.72216631593427" lon="16.3680799689055"><ele>867.0</ele><time>2026-05-04T09:26:36Z</time></trkpt><trkpt lat="38.7221727372352" lon="16.368203913654504"><ele>867.0</ele><time>2026-05-04T09:26:44Z</time></trkpt><trkpt lat="38.722178237954104" lon="16.368108373830527"><ele>867.0</ele><time>2026-05-04T09:27:33Z</time></trkpt><trkpt lat="38.722157176642185" lon="16.368028031481895"><ele>867.0</ele><time>2026-05-04T09:27:36Z</time></trkpt><trkpt lat="38.72210673567667" lon="16.367970089877296"><ele>867.0</ele><time>2026-05-04T09:27:43Z</time></trkpt><trkpt lat="38.72204909338739" lon="16.368006619942815"><ele>867.0</ele><time>2026-05-04T09:27:53Z</time></trkpt><trkpt lat="38.72198176552674" lon="16.368048372278036"><ele>867.0</ele><time>2026-05-04T09:28:20Z</time></trkpt><trkpt lat="38.72202746429552" lon="16.36797284853598"><ele>867.0</ele><time>2026-05-04T09:28:23Z</time></trkpt><trkpt lat="38.72204801753023" lon="16.36789424265"><ele>867.0</ele><time>2026-05-04T09:29:09Z</time></trkpt><trkpt lat="38.722003254998356" lon="16.367959494781786"><ele>867.0</ele><time>2026-05-04T09:29:42Z</time></trkpt><trkpt lat="38.72203853349687" lon="16.36802793819432"><ele>867.0</ele><time>2026-05-04T09:29:54Z</time></trkpt><trkpt lat="38.72209858544308" lon="16.36794471694991"><ele>867.0</ele><time>2026-05-04T09:30:02Z</time></trkpt><trkpt lat="38.72204390879816" lon="16.36789437853723"><ele>867.0</ele><time>2026-05-04T09:30:12Z</time></trkpt><trkpt lat="38.722025135218544" lon="16.367974807120298"><ele>867.0</ele><time>2026-05-04T09:31:29Z</time></trkpt><trkpt lat="38.722030647405525" lon="16.368058594053476"><ele>867.0</ele><time>2026-05-04T09:33:21Z</time></trkpt><trkpt lat="38.72206089509076" lon="16.36798451876452"><ele>867.0</ele><time>2026-05-04T09:35:31Z</time></trkpt><trkpt lat="38.72199898136505" lon="16.36802104420175"><ele>867.0</ele><time>2026-05-04T09:35:52Z</time></trkpt><trkpt lat="38.722026561455536" lon="16.36794591270309"><ele>867.0</ele><time>2026-05-04T09:38:01Z</time></trkpt><trkpt lat="38.72196980387696" lon="16.36804915182183"><ele>867.0</ele><time>2026-05-04T09:38:14Z</time></trkpt><trkpt lat="38.72203362594287" lon="16.368088793441835"><ele>867.0</ele><time>2026-05-04T09:38:42Z</time></trkpt><trkpt lat="38.72205282166989" lon="16.36816954944104"><ele>867.0</ele><time>2026-05-04T09:38:50Z</time></trkpt><trkpt lat="38.72211005957636" lon="16.36820952263982"><ele>867.0</ele><time>2026-05-04T09:38:57Z</time></trkpt><trkpt lat="38.72214032516466" lon="16.368115848608202"><ele>867.0</ele><time>2026-05-04T09:39:00Z</time></trkpt><trkpt lat="38.722151219714725" lon="16.368026886223596"><ele>866.4285714285714</ele><time>2026-05-04T09:39:07Z</time></trkpt><trkpt lat="38.722180948648216" lon="16.36795522514048"><ele>865.8571428571429</ele><time>2026-05-04T09:39:11Z</time></trkpt><trkpt lat="38.7222072798843" lon="16.36786869997482"><ele>865.2857142857143</ele><time>2026-05-04T09:39:27Z</time></trkpt><trkpt lat="38.722266684669705" lon="16.367818309054808"><ele>864.7142857142858</ele><time>2026-05-04T09:39:32Z</time></trkpt><trkpt lat="38.722313856247375" lon="16.367750225497584"><ele>864.1428571428571</ele><time>2026-05-04T09:39:40Z</time></trkpt><trkpt lat="38.722379224551055" lon="16.36772328278134"><ele>863.5714285714287</ele><time>2026-05-04T09:39:50Z</time></trkpt><trkpt lat="38.72243143894244" lon="16.36766908522822"><ele>863.0</ele><time>2026-05-04T09:40:02Z</time></trkpt><trkpt lat="38.722450349705696" lon="16.367590866351307"><ele>863.0000000000001</ele><time>2026-05-04T09:40:08Z</time></trkpt><trkpt lat="38.72250087140729" lon="16.367518302042235"><ele>863.0</ele><time>2026-05-04T09:40:13Z</time></trkpt><trkpt lat="38.722569792563235" lon="16.367481394566244"><ele>863.0</ele><time>2026-05-04T09:40:20Z</time></trkpt><trkpt lat="38.722639831415215" lon="16.367471386308182"><ele>863.0</ele><time>2026-05-04T09:40:28Z</time></trkpt><trkpt lat="38.722703270993485" lon="16.367420393223924"><ele>863.0</ele><time>2026-05-04T09:40:34Z</time></trkpt><trkpt lat="38.7227618722515" lon="16.367377590154888"><ele>863.0000000000001</ele><time>2026-05-04T09:40:39Z</time></trkpt><trkpt lat="38.722827031989574" lon="16.367343470692425"><ele>863.0</ele><time>2026-05-04T09:40:44Z</time></trkpt><trkpt lat="38.72287987103201" lon="16.36729449711704"><ele>862.5714285714287</ele><time>2026-05-04T09:40:50Z</time></trkpt><trkpt lat="38.722942417025095" lon="16.36726497382723"><ele>862.1428571428571</ele><time>2026-05-04T09:40:56Z</time></trkpt><trkpt lat="38.723006261527054" lon="16.36723430781569"><ele>861.7142857142858</ele><time>2026-05-04T09:41:03Z</time></trkpt><trkpt lat="38.72307484008745" lon="16.367215022565652"><ele>861.2857142857143</ele><time>2026-05-04T09:41:10Z</time></trkpt><trkpt lat="38.72314440178314" lon="16.36720986878305"><ele>860.8571428571429</ele><time>2026-05-04T09:41:16Z</time></trkpt><trkpt lat="38.72320318024852" lon="16.36716744771493"><ele>860.4285714285714</ele><time>2026-05-04T09:41:23Z</time></trkpt><trkpt lat="38.72325983076287" lon="16.367125240964562"><ele>860.0</ele><time>2026-05-04T09:41:27Z</time></trkpt><trkpt lat="38.72331890838743" lon="16.367091871735497"><ele>860.0</ele><time>2026-05-04T09:41:31Z</time></trkpt><trkpt lat="38.72338236394952" lon="16.367058567797347"><ele>860.0</ele><time>2026-05-04T09:41:37Z</time></trkpt><trkpt lat="38.723449092624534" lon="16.367029507968585"><ele>860.0</ele><time>2026-05-04T09:41:42Z</time></trkpt><trkpt lat="38.72351224669227" lon="16.3669977172332"><ele>860.0</ele><time>2026-05-04T09:41:48Z</time></trkpt><trkpt lat="38.72357104146683" lon="16.366956951359832"><ele>860.0</ele><time>2026-05-04T09:41:53Z</time></trkpt><trkpt lat="38.72362830329706" lon="16.36700010346813"><ele>860.0</ele><time>2026-05-04T09:41:59Z</time></trkpt><trkpt lat="38.723700742900945" lon="16.36698047433109"><ele>860.0</ele><time>2026-05-04T09:42:05Z</time></trkpt><trkpt lat="38.723746554491456" lon="16.366923306967742"><ele>861.8571428571428</ele><time>2026-05-04T09:42:11Z</time></trkpt><trkpt lat="38.723820597305924" lon="16.366878846873423"><ele>863.7142857142858</ele><time>2026-05-04T09:42:18Z</time></trkpt><trkpt lat="38.723872640976225" lon="16.366826973677576"><ele>865.5714285714286</ele><time>2026-05-04T09:42:23Z</time></trkpt><trkpt lat="38.723928938717435" lon="16.36676067990823"><ele>867.4285714285713</ele><time>2026-05-04T09:42:28Z</time></trkpt><trkpt lat="38.72398595120304" lon="16.366717277294427"><ele>869.2857142857142</ele><time>2026-05-04T09:42:32Z</time></trkpt><trkpt lat="38.724030694914795" lon="16.366656694269036"><ele>871.1428571428571</ele><time>2026-05-04T09:42:38Z</time></trkpt><trkpt lat="38.72408693784501" lon="16.366615963215143"><ele>873.0</ele><time>2026-05-04T09:42:42Z</time></trkpt><trkpt lat="38.724152993006264" lon="16.366597420965405"><ele>872.9999999999999</ele><time>2026-05-04T09:42:49Z</time></trkpt><trkpt lat="38.72423223320045" lon="16.36659484895461"><ele>873.0</ele><time>2026-05-04T09:42:56Z</time></trkpt><trkpt lat="38.72430303477932" lon="16.366596356380022"><ele>873.0</ele><time>2026-05-04T09:43:03Z</time></trkpt><trkpt lat="38.72437265285253" lon="16.36658296994277"><ele>873.0</ele><time>2026-05-04T09:43:09Z</time></trkpt><trkpt lat="38.72443585163818" lon="16.366571969303838"><ele>873.0</ele><time>2026-05-04T09:43:15Z</time></trkpt><trkpt lat="38.72447605372876" lon="16.36650201139081"><ele>872.9999999999999</ele><time>2026-05-04T09:43:17Z</time></trkpt><trkpt lat="38.724541500378" lon="16.366447244582247"><ele>873.0</ele><time>2026-05-04T09:43:23Z</time></trkpt><trkpt lat="38.72460287530473" lon="16.366410543806957"><ele>874.8571428571428</ele><time>2026-05-04T09:43:25Z</time></trkpt><trkpt lat="38.72460774717504" lon="16.366318059078505"><ele>876.7142857142857</ele><time>2026-05-04T09:43:32Z</time></trkpt><trkpt lat="38.7246494423357" lon="16.366234514177705"><ele>878.5714285714286</ele><time>2026-05-04T09:43:39Z</time></trkpt><trkpt lat="38.72466720819876" lon="16.366136834079455"><ele>880.4285714285713</ele><time>2026-05-04T09:43:46Z</time></trkpt><trkpt lat="38.72468484911807" lon="16.366059355636946"><ele>882.2857142857143</ele><time>2026-05-04T09:43:50Z</time></trkpt><trkpt lat="38.72469738090034" lon="16.36597337592108"><ele>884.1428571428571</ele><time>2026-05-04T09:43:56Z</time></trkpt><trkpt lat="38.72475246110043" lon="16.365890498649055"><ele>886.0</ele><time>2026-05-04T09:44:03Z</time></trkpt><trkpt lat="38.724778120095294" lon="16.365812157297064"><ele>886.0</ele><time>2026-05-04T09:44:14Z</time></trkpt><trkpt lat="38.72476881687592" lon="16.365721512392312"><ele>886.0</ele><time>2026-05-04T09:44:21Z</time></trkpt><trkpt lat="38.72479894575054" lon="16.365639447617912"><ele>886.0</ele><time>2026-05-04T09:44:24Z</time></trkpt><trkpt lat="38.724834527814124" lon="16.365559386080736"><ele>886.0</ele><time>2026-05-04T09:44:29Z</time></trkpt><trkpt lat="38.724863681739606" lon="16.365461101987"><ele>886.0</ele><time>2026-05-04T09:44:34Z</time></trkpt><trkpt lat="38.72487441124545" lon="16.365364934291627"><ele>886.0</ele><time>2026-05-04T09:44:43Z</time></trkpt><trkpt lat="38.72487705678766" lon="16.365279640895857"><ele>886.0</ele><time>2026-05-04T09:44:48Z</time></trkpt><trkpt lat="38.72490344869789" lon="16.365189066329197"><ele>885.2857142857143</ele><time>2026-05-04T09:44:55Z</time></trkpt><trkpt lat="38.7248984824925" lon="16.36510705153666"><ele>884.5714285714287</ele><time>2026-05-04T09:45:04Z</time></trkpt><trkpt lat="38.72492532939559" lon="16.365029072570163"><ele>883.8571428571429</ele><time>2026-05-04T09:45:09Z</time></trkpt><trkpt lat="38.72492343029153" lon="16.364942935149134"><ele>883.1428571428571</ele><time>2026-05-04T09:45:15Z</time></trkpt><trkpt lat="38.72496163540428" lon="16.364861640097786"><ele>882.4285714285714</ele><time>2026-05-04T09:45:22Z</time></trkpt><trkpt lat="38.72501714461921" lon="16.3648037010434"><ele>881.7142857142857</ele><time>2026-05-04T09:45:28Z</time></trkpt><trkpt lat="38.72504894109367" lon="16.364714411447085"><ele>881.0</ele><time>2026-05-04T09:45:34Z</time></trkpt><trkpt lat="38.72510561008593" lon="16.364670085555648"><ele>879.1666666666667</ele><time>2026-05-04T09:45:41Z</time></trkpt><trkpt lat="38.72516494090932" lon="16.364585523879377"><ele>877.3333333333334</ele><time>2026-05-04T09:45:48Z</time></trkpt><trkpt lat="38.72518415047145" lon="16.364496106973615"><ele>875.5</ele><time>2026-05-04T09:45:56Z</time></trkpt><trkpt lat="38.72524135569158" lon="16.364448894648387"><ele>873.6666666666667</ele><time>2026-05-04T09:46:02Z</time></trkpt><trkpt lat="38.725272081375664" lon="16.364350725427197"><ele>871.8333333333334</ele><time>2026-05-04T09:46:08Z</time></trkpt><trkpt lat="38.72531936573698" lon="16.36424360977729"><ele>870.0</ele><time>2026-05-04T09:46:15Z</time></trkpt><trkpt lat="38.72539030667662" lon="16.364216703260713"><ele>874.0</ele><time>2026-05-04T09:46:22Z</time></trkpt><trkpt lat="38.725428304077404" lon="16.364152219522772"><ele>878.0</ele><time>2026-05-04T09:46:28Z</time></trkpt><trkpt lat="38.72549147865396" lon="16.36415644252553"><ele>882.0</ele><time>2026-05-04T09:46:35Z</time></trkpt><trkpt lat="38.725547189483734" lon="16.36408105615512"><ele>886.0</ele><time>2026-05-04T09:46:44Z</time></trkpt><trkpt lat="38.725598096017954" lon="16.364010363726536"><ele>890.0</ele><time>2026-05-04T09:46:48Z</time></trkpt><trkpt lat="38.72566021223326" lon="16.363911626507985"><ele>894.0</ele><time>2026-05-04T09:46:54Z</time></trkpt><trkpt lat="38.725728378135095" lon="16.36389728854324"><ele>894.4285714285713</ele><time>2026-05-04T09:47:01Z</time></trkpt><trkpt lat="38.725785459747804" lon="16.363845248230177"><ele>894.8571428571429</ele><time>2026-05-04T09:47:08Z</time></trkpt><trkpt lat="38.725849334814946" lon="16.363824047157532"><ele>895.2857142857142</ele><time>2026-05-04T09:47:13Z</time></trkpt><trkpt lat="38.7258951503027" lon="16.363753747210193"><ele>895.7142857142857</ele><time>2026-05-04T09:47:17Z</time></trkpt><trkpt lat="38.72595420782412" lon="16.36370097215864"><ele>896.1428571428571</ele><time>2026-05-04T09:47:21Z</time></trkpt><trkpt lat="38.72601926787939" lon="16.363723383573976"><ele>896.5714285714286</ele><time>2026-05-04T09:47:27Z</time></trkpt><trkpt lat="38.72606631050996" lon="16.36366304808147"><ele>897.0</ele><time>2026-05-04T09:47:31Z</time></trkpt><trkpt lat="38.72612423289092" lon="16.363606339824756"><ele>897.0</ele><time>2026-05-04T09:47:36Z</time></trkpt><trkpt lat="38.72618403824566" lon="16.363561247416833"><ele>897.0</ele><time>2026-05-04T09:47:42Z</time></trkpt><trkpt lat="38.72625127254392" lon="16.36351067001987"><ele>897.0</ele><time>2026-05-04T09:47:48Z</time></trkpt><trkpt lat="38.72630492942289" lon="16.363434127247316"><ele>897.0</ele><time>2026-05-04T09:47:54Z</time></trkpt><trkpt lat="38.726360594186566" lon="16.363363706803817"><ele>897.0</ele><time>2026-05-04T09:48:03Z</time></trkpt><trkpt lat="38.726400798521254" lon="16.363267469913133"><ele>897.0</ele><time>2026-05-04T09:48:09Z</time></trkpt><trkpt lat="38.72642849506184" lon="16.3631687553627"><ele>897.0</ele><time>2026-05-04T09:48:13Z</time></trkpt><trkpt lat="38.72647041470248" lon="16.36309065885974"><ele>897.0</ele><time>2026-05-04T09:48:21Z</time></trkpt><trkpt lat="38.72649722348951" lon="16.363017011663594"><ele>897.0</ele><time>2026-05-04T09:48:27Z</time></trkpt><trkpt lat="38.72654468471414" lon="16.362927090212278"><ele>897.0</ele><time>2026-05-04T09:48:32Z</time></trkpt><trkpt lat="38.72659783841831" lon="16.36284257583986"><ele>897.0</ele><time>2026-05-04T09:48:38Z</time></trkpt><trkpt lat="38.72659704622795" lon="16.36275518078656"><ele>897.0</ele><time>2026-05-04T09:48:46Z</time></trkpt><trkpt lat="38.726638502296986" lon="16.36267211612158"><ele>895.4285714285714</ele><time>2026-05-04T09:48:51Z</time></trkpt><trkpt lat="38.72665188325436" lon="16.362591390581947"><ele>893.8571428571428</ele><time>2026-05-04T09:48:56Z</time></trkpt><trkpt lat="38.72661846706669" lon="16.362504277693617"><ele>892.2857142857142</ele><time>2026-05-04T09:49:01Z</time></trkpt><trkpt lat="38.72664275470072" lon="16.362428908574312"><ele>890.7142857142858</ele><time>2026-05-04T09:49:07Z</time></trkpt><trkpt lat="38.726606849951985" lon="16.362349864519906"><ele>889.1428571428571</ele><time>2026-05-04T09:49:11Z</time></trkpt><trkpt lat="38.72663968947192" lon="16.362269608923512"><ele>887.5714285714286</ele><time>2026-05-04T09:49:16Z</time></trkpt><trkpt lat="38.72665096763891" lon="16.362145777071394"><ele>886.0</ele><time>2026-05-04T09:49:23Z</time></trkpt><trkpt lat="38.72664065801124" lon="16.362045292636793"><ele>887.2857142857143</ele><time>2026-05-04T09:49:29Z</time></trkpt><trkpt lat="38.726685315101626" lon="16.36198149061987"><ele>888.5714285714287</ele><time>2026-05-04T09:49:36Z</time></trkpt><trkpt lat="38.72674823572703" lon="16.36196686802334"><ele>889.8571428571429</ele><time>2026-05-04T09:49:47Z</time></trkpt><trkpt lat="38.72680605662893" lon="16.361914655239648"><ele>891.1428571428571</ele><time>2026-05-04T09:49:55Z</time></trkpt><trkpt lat="38.72686914422186" lon="16.361934091202325"><ele>892.4285714285714</ele><time>2026-05-04T09:50:01Z</time></trkpt><trkpt lat="38.72692909858676" lon="16.36189894010168"><ele>893.7142857142857</ele><time>2026-05-04T09:50:07Z</time></trkpt><trkpt lat="38.72700949614169" lon="16.361900802760964"><ele>895.0</ele><time>2026-05-04T09:50:14Z</time></trkpt><trkpt lat="38.72705909656777" lon="16.361829977310904"><ele>895.0</ele><time>2026-05-04T09:50:22Z</time></trkpt><trkpt lat="38.72712290719258" lon="16.36180271816574"><ele>895.0</ele><time>2026-05-04T09:50:30Z</time></trkpt><trkpt lat="38.72718513450699" lon="16.361787866658656"><ele>895.0</ele><time>2026-05-04T09:50:38Z</time></trkpt><trkpt lat="38.72721570691477" lon="16.361695583790436"><ele>895.0</ele><time>2026-05-04T09:50:47Z</time></trkpt><trkpt lat="38.727226079946746" lon="16.36161276685911"><ele>895.0</ele><time>2026-05-04T09:50:50Z</time></trkpt><trkpt lat="38.72727844582994" lon="16.361561106269004"><ele>895.0</ele><time>2026-05-04T09:51:00Z</time></trkpt><trkpt lat="38.72732104198323" lon="16.361493039243612"><ele>895.0</ele><time>2026-05-04T09:51:13Z</time></trkpt><trkpt lat="38.72732950620452" lon="16.361382556231934"><ele>893.8571428571428</ele><time>2026-05-04T09:51:21Z</time></trkpt><trkpt lat="38.72736573221532" lon="16.361312360734424"><ele>892.7142857142858</ele><time>2026-05-04T09:51:24Z</time></trkpt><trkpt lat="38.727408377034756" lon="16.36125087743979"><ele>891.5714285714286</ele><time>2026-05-04T09:51:29Z</time></trkpt><trkpt lat="38.72735853515382" lon="16.361192176216466"><ele>890.4285714285713</ele><time>2026-05-04T09:51:32Z</time></trkpt><trkpt lat="38.727434642667895" lon="16.36119072686534"><ele>889.2857142857142</ele><time>2026-05-04T09:52:22Z</time></trkpt><trkpt lat="38.727484725116575" lon="16.36110981399187"><ele>888.1428571428571</ele><time>2026-05-04T09:52:29Z</time></trkpt><trkpt lat="38.72753343441228" lon="16.361053373703328"><ele>887.0</ele><time>2026-05-04T09:52:38Z</time></trkpt><trkpt lat="38.72757878072153" lon="16.360989913615423"><ele>886.9999999999999</ele><time>2026-05-04T09:52:47Z</time></trkpt><trkpt lat="38.72765469760829" lon="16.36094740098445"><ele>887.0</ele><time>2026-05-04T09:52:55Z</time></trkpt><trkpt lat="38.72767307994859" lon="16.36084019807555"><ele>887.0</ele><time>2026-05-04T09:53:01Z</time></trkpt><trkpt lat="38.727733962180245" lon="16.360798052021238"><ele>887.0</ele><time>2026-05-04T09:53:07Z</time></trkpt><trkpt lat="38.72773577724126" lon="16.360700038125447"><ele>887.0</ele><time>2026-05-04T09:53:12Z</time></trkpt><trkpt lat="38.72776210982078" lon="16.36062082820165"><ele>886.9999999999999</ele><time>2026-05-04T09:53:18Z</time></trkpt><trkpt lat="38.72780619125288" lon="16.360557741577974"><ele>887.0</ele><time>2026-05-04T09:53:27Z</time></trkpt><trkpt lat="38.72785188438182" lon="16.360486388289527"><ele>889.7142857142857</ele><time>2026-05-04T09:53:36Z</time></trkpt><trkpt lat="38.727904507701645" lon="16.360431636194537"><ele>892.4285714285713</ele><time>2026-05-04T09:53:44Z</time></trkpt><trkpt lat="38.727974540701055" lon="16.360387918636558"><ele>895.1428571428571</ele><time>2026-05-04T09:53:53Z</time></trkpt><trkpt lat="38.7280408876523" lon="16.360387111051498"><ele>897.8571428571428</ele><time>2026-05-04T09:53:58Z</time></trkpt><trkpt lat="38.728094968070565" lon="16.360324903035917"><ele>900.5714285714286</ele><time>2026-05-04T09:54:03Z</time></trkpt><trkpt lat="38.72816418606948" lon="16.360318705977278"><ele>903.2857142857141</ele><time>2026-05-04T09:54:11Z</time></trkpt><trkpt lat="38.728230662363636" lon="16.360292760561723"><ele>905.9999999999999</ele><time>2026-05-04T09:54:18Z</time></trkpt><trkpt lat="38.72828536029856" lon="16.360252634350186"><ele>906.0</ele><time>2026-05-04T09:54:23Z</time></trkpt><trkpt lat="38.728366904632885" lon="16.36025144774055"><ele>906.0</ele><time>2026-05-04T09:54:31Z</time></trkpt><trkpt lat="38.72841142269283" lon="16.36017671088326"><ele>906.0</ele><time>2026-05-04T09:54:35Z</time></trkpt><trkpt lat="38.72848554307571" lon="16.360117891187905"><ele>906.0</ele><time>2026-05-04T09:54:41Z</time></trkpt><trkpt lat="38.728549470863996" lon="16.36005942571102"><ele>906.0</ele><time>2026-05-04T09:54:47Z</time></trkpt><trkpt lat="38.728594774340806" lon="16.35997604684274"><ele>906.0</ele><time>2026-05-04T09:54:53Z</time></trkpt><trkpt lat="38.728661720842105" lon="16.359943088877127"><ele>907.7142857142856</ele><time>2026-05-04T09:55:01Z</time></trkpt><trkpt lat="38.72872001400807" lon="16.359901862322985"><ele>909.4285714285713</ele><time>2026-05-04T09:55:07Z</time></trkpt><trkpt lat="38.72875990836392" lon="16.35982430741314"><ele>911.1428571428571</ele><time>2026-05-04T09:55:12Z</time></trkpt><trkpt lat="38.728753078325596" lon="16.3597334688487"><ele>912.8571428571428</ele><time>2026-05-04T09:55:15Z</time></trkpt><trkpt lat="38.72873624763971" lon="16.35965473052131"><ele>914.5714285714284</ele><time>2026-05-04T09:55:21Z</time></trkpt><trkpt lat="38.72872152357726" lon="16.359561481256016"><ele>916.2857142857143</ele><time>2026-05-04T09:55:28Z</time></trkpt><trkpt lat="38.728686052767706" lon="16.359471268026642"><ele>918.0</ele><time>2026-05-04T09:55:35Z</time></trkpt><trkpt lat="38.72866207023099" lon="16.359396220165568"><ele>918.0</ele><time>2026-05-04T09:55:45Z</time></trkpt><trkpt lat="38.7286074487955" lon="16.35933364203475"><ele>918.0</ele><time>2026-05-04T09:55:49Z</time></trkpt><trkpt lat="38.728575475890736" lon="16.359261195748022"><ele>918.0</ele><time>2026-05-04T09:55:54Z</time></trkpt><trkpt lat="38.72854768585661" lon="16.359168263315023"><ele>918.0</ele><time>2026-05-04T09:56:04Z</time></trkpt><trkpt lat="38.72856428967232" lon="16.359087895452852"><ele>918.0</ele><time>2026-05-04T09:56:11Z</time></trkpt><trkpt lat="38.728592580487216" lon="16.358999342553556"><ele>918.0</ele><time>2026-05-04T09:56:20Z</time></trkpt><trkpt lat="38.728647033267116" lon="16.35895701584914"><ele>918.0</ele><time>2026-05-04T09:56:29Z</time></trkpt><trkpt lat="38.728692294799316" lon="16.358884090933046"><ele>918.5714285714287</ele><time>2026-05-04T09:56:35Z</time></trkpt><trkpt lat="38.7287462656434" lon="16.35883682923541"><ele>919.1428571428571</ele><time>2026-05-04T09:56:44Z</time></trkpt><trkpt lat="38.72880159424966" lon="16.358790323950178"><ele>919.7142857142858</ele><time>2026-05-04T09:56:57Z</time></trkpt><trkpt lat="38.72887656268737" lon="16.358780205332444"><ele>920.2857142857143</ele><time>2026-05-04T09:57:07Z</time></trkpt><trkpt lat="38.728937834118" lon="16.358800068481962"><ele>920.8571428571429</ele><time>2026-05-04T09:57:15Z</time></trkpt><trkpt lat="38.729008437386305" lon="16.3587916133664"><ele>921.4285714285714</ele><time>2026-05-04T09:57:21Z</time></trkpt><trkpt lat="38.72907290135977" lon="16.358787224827346"><ele>922.0</ele><time>2026-05-04T09:57:26Z</time></trkpt><trkpt lat="38.72913474256663" lon="16.358803735768085"><ele>922.0</ele><time>2026-05-04T09:57:32Z</time></trkpt><trkpt lat="38.72920487939706" lon="16.358832003181643"><ele>922.0000000000001</ele><time>2026-05-04T09:57:41Z</time></trkpt><trkpt lat="38.72927559312369" lon="16.35882543548896"><ele>922.0</ele><time>2026-05-04T09:57:48Z</time></trkpt><trkpt lat="38.72935585950083" lon="16.358809128773824"><ele>922.0</ele><time>2026-05-04T09:57:57Z</time></trkpt><trkpt lat="38.72941789419098" lon="16.358767564460436"><ele>922.0000000000001</ele><time>2026-05-04T09:58:05Z</time></trkpt><trkpt lat="38.72947737097557" lon="16.358735784297295"><ele>922.0</ele><time>2026-05-04T09:58:11Z</time></trkpt><trkpt lat="38.72954668701612" lon="16.3587337887722"><ele>922.0</ele><time>2026-05-04T09:58:19Z</time></trkpt><trkpt lat="38.72959477544559" lon="16.358665810940757"><ele>923.2857142857143</ele><time>2026-05-04T09:58:23Z</time></trkpt><trkpt lat="38.7296401126283" lon="16.358593774693656"><ele>924.5714285714287</ele><time>2026-05-04T09:58:27Z</time></trkpt><trkpt lat="38.72963624847847" lon="16.358508753016878"><ele>925.8571428571429</ele><time>2026-05-04T09:58:32Z</time></trkpt><trkpt lat="38.72963823126949" lon="16.358414925623478"><ele>927.1428571428571</ele><time>2026-05-04T09:58:37Z</time></trkpt><trkpt lat="38.72966055683006" lon="16.35833545323556"><ele>928.4285714285714</ele><time>2026-05-04T09:58:42Z</time></trkpt><trkpt lat="38.72968545265318" lon="16.358255385321826"><ele>929.7142857142858</ele><time>2026-05-04T09:58:47Z</time></trkpt><trkpt lat="38.729750102033776" lon="16.358224589094554"><ele>931.0</ele><time>2026-05-04T09:58:53Z</time></trkpt><trkpt lat="38.72980049138249" lon="16.358162930909753"><ele>931.0</ele><time>2026-05-04T09:58:59Z</time></trkpt><trkpt lat="38.72982548144098" lon="16.358068692330246"><ele>931.0</ele><time>2026-05-04T09:59:06Z</time></trkpt><trkpt lat="38.729865640390656" lon="16.35799112299784"><ele>931.0</ele><time>2026-05-04T09:59:12Z</time></trkpt><trkpt lat="38.72989732680069" lon="16.357920199095403"><ele>931.0</ele><time>2026-05-04T09:59:17Z</time></trkpt><trkpt lat="38.72991802843139" lon="16.35784289568623"><ele>931.0</ele><time>2026-05-04T09:59:22Z</time></trkpt><trkpt lat="38.7299104971749" lon="16.357761171177167"><ele>931.0</ele><time>2026-05-04T09:59:27Z</time></trkpt><trkpt lat="38.72985282751969" lon="16.357680777347067"><ele>931.0</ele><time>2026-05-04T09:59:31Z</time></trkpt><trkpt lat="38.72979776457612" lon="16.357629673925878"><ele>931.2857142857142</ele><time>2026-05-04T09:59:35Z</time></trkpt><trkpt lat="38.72973737501304" lon="16.357661503826044"><ele>931.5714285714286</ele><time>2026-05-04T09:59:42Z</time></trkpt><trkpt lat="38.72969826543742" lon="16.357740377059045"><ele>931.8571428571429</ele><time>2026-05-04T09:59:47Z</time></trkpt><trkpt lat="38.729649923641745" lon="16.35780280088766"><ele>932.1428571428571</ele><time>2026-05-04T09:59:55Z</time></trkpt><trkpt lat="38.72957823445333" lon="16.357794143802927"><ele>932.4285714285713</ele><time>2026-05-04T10:00:02Z</time></trkpt><trkpt lat="38.729513884431256" lon="16.35779814393635"><ele>932.7142857142857</ele><time>2026-05-04T10:00:08Z</time></trkpt><trkpt lat="38.729435273598675" lon="16.357801698220737"><ele>933.0</ele><time>2026-05-04T10:00:18Z</time></trkpt><trkpt lat="38.72936750902258" lon="16.357822359701757"><ele>933.2857142857142</ele><time>2026-05-04T10:00:23Z</time></trkpt><trkpt lat="38.7292912294166" lon="16.35780137047365"><ele>933.5714285714284</ele><time>2026-05-04T10:00:28Z</time></trkpt><trkpt lat="38.72923572730874" lon="16.35786178963628"><ele>933.8571428571429</ele><time>2026-05-04T10:00:34Z</time></trkpt><trkpt lat="38.7291720394923" lon="16.357902425755707"><ele>934.1428571428571</ele><time>2026-05-04T10:00:40Z</time></trkpt><trkpt lat="38.72911870634782" lon="16.357955458746254"><ele>934.4285714285714</ele><time>2026-05-04T10:00:46Z</time></trkpt><trkpt lat="38.72904635229135" lon="16.35795673425656"><ele>934.7142857142858</ele><time>2026-05-04T10:00:54Z</time></trkpt><trkpt lat="38.728977259413654" lon="16.357992870229246"><ele>935.0000000000001</ele><time>2026-05-04T10:01:00Z</time></trkpt><trkpt lat="38.72890490064197" lon="16.35799217442326"><ele>935.0000000000001</ele><time>2026-05-04T10:01:08Z</time></trkpt><trkpt lat="38.728855555942076" lon="16.35793336529993"><ele>935.0</ele><time>2026-05-04T10:01:17Z</time></trkpt><trkpt lat="38.72881324641789" lon="16.35787342237665"><ele>935.0000000000001</ele><time>2026-05-04T10:01:22Z</time></trkpt><trkpt lat="38.728749125222514" lon="16.357820557827527"><ele>935.0000000000001</ele><time>2026-05-04T10:01:28Z</time></trkpt><trkpt lat="38.728690464190954" lon="16.357765590881712"><ele>935.0</ele><time>2026-05-04T10:01:34Z</time></trkpt><trkpt lat="38.728655066992935" lon="16.357690275998102"><ele>935.0000000000001</ele><time>2026-05-04T10:01:41Z</time></trkpt><trkpt lat="38.72862319621415" lon="16.357605087988304"><ele>935.0000000000001</ele><time>2026-05-04T10:01:50Z</time></trkpt><trkpt lat="38.72860039980668" lon="16.357502838089015"><ele>935.0000000000001</ele><time>2026-05-04T10:01:57Z</time></trkpt><trkpt lat="38.72861996577258" lon="16.35741486678129"><ele>935.0</ele><time>2026-05-04T10:02:05Z</time></trkpt><trkpt lat="38.72864279755903" lon="16.357333750036677"><ele>935.0000000000001</ele><time>2026-05-04T10:02:12Z</time></trkpt><trkpt lat="38.728670757248246" lon="16.357259837453128"><ele>935.0000000000001</ele><time>2026-05-04T10:02:16Z</time></trkpt><trkpt lat="38.72871228781835" lon="16.35718493311348"><ele>935.0</ele><time>2026-05-04T10:02:23Z</time></trkpt><trkpt lat="38.728754871269615" lon="16.357115473542265"><ele>935.0000000000001</ele><time>2026-05-04T10:02:32Z</time></trkpt><trkpt lat="38.72882106143904" lon="16.35705204030437"><ele>935.0000000000001</ele><time>2026-05-04T10:02:39Z</time></trkpt><trkpt lat="38.72888829120644" lon="16.35703718356949"><ele>935.857142857143</ele><time>2026-05-04T10:02:48Z</time></trkpt><trkpt lat="38.72895674756587" lon="16.357063284110854"><ele>936.7142857142858</ele><time>2026-05-04T10:02:58Z</time></trkpt><trkpt lat="38.72901793481994" lon="16.35710861560437"><ele>937.5714285714286</ele><time>2026-05-04T10:03:05Z</time></trkpt><trkpt lat="38.729090792182646" lon="16.357124824418985"><ele>938.4285714285714</ele><time>2026-05-04T10:03:12Z</time></trkpt><trkpt lat="38.729150567270295" lon="16.35716766470135"><ele>939.2857142857142</ele><time>2026-05-04T10:03:19Z</time></trkpt><trkpt lat="38.72921535390467" lon="16.35715831057139"><ele>940.142857142857</ele><time>2026-05-04T10:03:25Z</time></trkpt><trkpt lat="38.72928983996484" lon="16.357110669640292"><ele>940.9999999999999</ele><time>2026-05-04T10:03:31Z</time></trkpt><trkpt lat="38.72935816201174" lon="16.35704800485843"><ele>941.8571428571427</ele><time>2026-05-04T10:03:37Z</time></trkpt><trkpt lat="38.72939243973858" lon="16.35695621855591"><ele>942.7142857142857</ele><time>2026-05-04T10:03:42Z</time></trkpt><trkpt lat="38.729420520647466" lon="16.356865072585578"><ele>943.5714285714284</ele><time>2026-05-04T10:03:48Z</time></trkpt><trkpt lat="38.72944643874841" lon="16.356781412207546"><ele>944.4285714285713</ele><time>2026-05-04T10:03:56Z</time></trkpt><trkpt lat="38.72944265078813" lon="16.356686216268027"><ele>945.2857142857142</ele><time>2026-05-04T10:04:03Z</time></trkpt><trkpt lat="38.729451657377254" lon="16.356602287779285"><ele>946.1428571428571</ele><time>2026-05-04T10:04:09Z</time></trkpt><trkpt lat="38.729458015555885" lon="16.35652039995055"><ele>947.0</ele><time>2026-05-04T10:04:17Z</time></trkpt><trkpt lat="38.72947264275947" lon="16.356435225548722"><ele>948.5714285714286</ele><time>2026-05-04T10:04:22Z</time></trkpt><trkpt lat="38.72945516059897" lon="16.35634959827885"><ele>950.1428571428571</ele><time>2026-05-04T10:04:27Z</time></trkpt><trkpt lat="38.72946537316343" lon="16.356260814099436"><ele>951.7142857142857</ele><time>2026-05-04T10:04:37Z</time></trkpt><trkpt lat="38.729460251430126" lon="16.35615012351592"><ele>953.2857142857142</ele><time>2026-05-04T10:04:42Z</time></trkpt><trkpt lat="38.729493351696675" lon="16.356068571030193"><ele>954.8571428571429</ele><time>2026-05-04T10:04:48Z</time></trkpt><trkpt lat="38.729553683079814" lon="16.356020464465747"><ele>956.4285714285713</ele><time>2026-05-04T10:04:57Z</time></trkpt><trkpt lat="38.72957319481605" lon="16.355933221645472"><ele>958.0</ele><time>2026-05-04T10:05:03Z</time></trkpt><trkpt lat="38.72961142460829" lon="16.355865626591324"><ele>958.0</ele><time>2026-05-04T10:05:08Z</time></trkpt><trkpt lat="38.729653668299534" lon="16.35579572209333"><ele>958.0</ele><time>2026-05-04T10:05:19Z</time></trkpt><trkpt lat="38.729651715638994" lon="16.355713040283238"><ele>958.0</ele><time>2026-05-04T10:05:22Z</time></trkpt><trkpt lat="38.729676506689934" lon="16.35563473172786"><ele>958.0</ele><time>2026-05-04T10:05:28Z</time></trkpt><trkpt lat="38.729708692721736" lon="16.355547805092172"><ele>958.0</ele><time>2026-05-04T10:05:35Z</time></trkpt><trkpt lat="38.72974611664564" lon="16.355479207006347"><ele>958.0</ele><time>2026-05-04T10:05:40Z</time></trkpt><trkpt lat="38.729787702374246" lon="16.35540172435736"><ele>958.0</ele><time>2026-05-04T10:05:46Z</time></trkpt><trkpt lat="38.72979861713545" lon="16.35531783929279"><ele>958.1428571428571</ele><time>2026-05-04T10:05:56Z</time></trkpt><trkpt lat="38.729858898183664" lon="16.355255945315772"><ele>958.2857142857143</ele><time>2026-05-04T10:06:05Z</time></trkpt><trkpt lat="38.72991158163084" lon="16.355193655125742"><ele>958.4285714285714</ele><time>2026-05-04T10:06:12Z</time></trkpt><trkpt lat="38.729976658804155" lon="16.35516366123193"><ele>958.5714285714286</ele><time>2026-05-04T10:06:18Z</time></trkpt><trkpt lat="38.73003689431113" lon="16.355122217302764"><ele>958.7142857142858</ele><time>2026-05-04T10:06:24Z</time></trkpt><trkpt lat="38.7301024084437" lon="16.35514181214486"><ele>958.8571428571429</ele><time>2026-05-04T10:06:33Z</time></trkpt><trkpt lat="38.730170586505025" lon="16.355102182769805"><ele>959.0</ele><time>2026-05-04T10:06:39Z</time></trkpt><trkpt lat="38.73023376113194" lon="16.355071965004182"><ele>959.5714285714286</ele><time>2026-05-04T10:06:45Z</time></trkpt><trkpt lat="38.73028916904489" lon="16.355019610117488"><ele>960.1428571428571</ele><time>2026-05-04T10:06:51Z</time></trkpt><trkpt lat="38.730345553659326" lon="16.354975617839596"><ele>960.7142857142858</ele><time>2026-05-04T10:06:57Z</time></trkpt><trkpt lat="38.73039737605311" lon="16.35492801156193"><ele>961.2857142857143</ele><time>2026-05-04T10:07:02Z</time></trkpt><trkpt lat="38.730455897914936" lon="16.35486412590304"><ele>961.8571428571429</ele><time>2026-05-04T10:07:08Z</time></trkpt><trkpt lat="38.73050587616493" lon="16.35480591741857"><ele>962.4285714285716</ele><time>2026-05-04T10:07:16Z</time></trkpt><trkpt lat="38.7305632911281" lon="16.354743141251653"><ele>963.0000000000001</ele><time>2026-05-04T10:07:22Z</time></trkpt><trkpt lat="38.730617932280666" lon="16.354684115232114"><ele>964.1428571428573</ele><time>2026-05-04T10:07:29Z</time></trkpt><trkpt lat="38.730671543502794" lon="16.35464076520266"><ele>965.2857142857143</ele><time>2026-05-04T10:07:35Z</time></trkpt><trkpt lat="38.73073212146964" lon="16.35460439030431"><ele>966.4285714285716</ele><time>2026-05-04T10:07:42Z</time></trkpt><trkpt lat="38.73079167491373" lon="16.354567951471353"><ele>967.5714285714287</ele><time>2026-05-04T10:07:48Z</time></trkpt><trkpt lat="38.730846000591605" lon="16.354526144261758"><ele>968.7142857142858</ele><time>2026-05-04T10:07:52Z</time></trkpt><trkpt lat="38.730901490468135" lon="16.35446260961807"><ele>969.8571428571429</ele><time>2026-05-04T10:07:58Z</time></trkpt><trkpt lat="38.73095321774131" lon="16.35441184217884"><ele>971.0</ele><time>2026-05-04T10:08:04Z</time></trkpt><trkpt lat="38.73102022363314" lon="16.354362017061394"><ele>971.0</ele><time>2026-05-04T10:08:10Z</time></trkpt><trkpt lat="38.73104420741882" lon="16.354281932902506"><ele>971.0000000000001</ele><time>2026-05-04T10:08:16Z</time></trkpt><trkpt lat="38.73106238304403" lon="16.354170018126293"><ele>971.0</ele><time>2026-05-04T10:08:23Z</time></trkpt><trkpt lat="38.73107246838641" lon="16.35408843710103"><ele>971.0</ele><time>2026-05-04T10:08:28Z</time></trkpt><trkpt lat="38.73104057871359" lon="16.354012954358655"><ele>971.0000000000001</ele><time>2026-05-04T10:08:33Z</time></trkpt><trkpt lat="38.73102239028596" lon="16.3539294455261"><ele>971.0</ele><time>2026-05-04T10:08:39Z</time></trkpt><trkpt lat="38.73099061765115" lon="16.353850760567198"><ele>971.0</ele><time>2026-05-04T10:08:44Z</time></trkpt><trkpt lat="38.73093316612195" lon="16.353785893913752"><ele>972.7142857142858</ele><time>2026-05-04T10:08:49Z</time></trkpt><trkpt lat="38.73086338591186" lon="16.35380977798795"><ele>974.4285714285716</ele><time>2026-05-04T10:08:53Z</time></trkpt><trkpt lat="38.73079766461313" lon="16.353817268538254"><ele>976.1428571428571</ele><time>2026-05-04T10:08:58Z</time></trkpt><trkpt lat="38.730735603645286" lon="16.35383650381852"><ele>977.8571428571429</ele><time>2026-05-04T10:09:04Z</time></trkpt><trkpt lat="38.73067169773011" lon="16.353821471439705"><ele>979.5714285714286</ele><time>2026-05-04T10:09:10Z</time></trkpt><trkpt lat="38.73060740979822" lon="16.35385060450373"><ele>981.2857142857142</ele><time>2026-05-04T10:09:16Z</time></trkpt><trkpt lat="38.73054270686893" lon="16.353826361141678"><ele>982.9999999999999</ele><time>2026-05-04T10:09:21Z</time></trkpt><trkpt lat="38.73047002729681" lon="16.353843333268173"><ele>982.9999999999999</ele><time>2026-05-04T10:09:28Z</time></trkpt><trkpt lat="38.730404629623145" lon="16.353858039072744"><ele>983.0</ele><time>2026-05-04T10:09:34Z</time></trkpt><trkpt lat="38.730343549469964" lon="16.353814395189772"><ele>982.9999999999999</ele><time>2026-05-04T10:09:40Z</time></trkpt><trkpt lat="38.73027916321987" lon="16.35378634262909"><ele>982.9999999999999</ele><time>2026-05-04T10:09:48Z</time></trkpt><trkpt lat="38.73023206773282" lon="16.353729806030266"><ele>983.0</ele><time>2026-05-04T10:09:54Z</time></trkpt><trkpt lat="38.73017120596305" lon="16.35370600066756"><ele>982.9999999999999</ele><time>2026-05-04T10:09:59Z</time></trkpt><trkpt lat="38.73012364111617" lon="16.353635465943526"><ele>982.9999999999999</ele><time>2026-05-04T10:10:06Z</time></trkpt><trkpt lat="38.73009025360755" lon="16.353563368069274"><ele>982.5714285714284</ele><time>2026-05-04T10:10:13Z</time></trkpt><trkpt lat="38.73005755325833" lon="16.35349066455603"><ele>982.1428571428571</ele><time>2026-05-04T10:10:18Z</time></trkpt><trkpt lat="38.730030145070444" lon="16.353402364921422"><ele>981.7142857142857</ele><time>2026-05-04T10:10:24Z</time></trkpt><trkpt lat="38.730025388910875" lon="16.35331018763725"><ele>981.2857142857142</ele><time>2026-05-04T10:10:31Z</time></trkpt><trkpt lat="38.73001900031302" lon="16.35322547460752"><ele>980.8571428571429</ele><time>2026-05-04T10:10:37Z</time></trkpt><trkpt lat="38.73004133134126" lon="16.35313325194843"><ele>980.4285714285714</ele><time>2026-05-04T10:10:42Z</time></trkpt><trkpt lat="38.730051173916564" lon="16.3530395991706"><ele>980.0</ele><time>2026-05-04T10:10:49Z</time></trkpt><trkpt lat="38.73003884225281" lon="16.352943879103425"><ele>980.0</ele><time>2026-05-04T10:10:56Z</time></trkpt><trkpt lat="38.7300834501413" lon="16.35287450784978"><ele>980.0</ele><time>2026-05-04T10:11:02Z</time></trkpt><trkpt lat="38.73009681968236" lon="16.35277431440528"><ele>980.0</ele><time>2026-05-04T10:11:09Z</time></trkpt><trkpt lat="38.730093721365805" lon="16.352686318881666"><ele>980.0</ele><time>2026-05-04T10:11:15Z</time></trkpt><trkpt lat="38.73011603089675" lon="16.352609217750537"><ele>980.0</ele><time>2026-05-04T10:11:19Z</time></trkpt><trkpt lat="38.73010616052539" lon="16.352512838227163"><ele>980.0</ele><time>2026-05-04T10:11:25Z</time></trkpt><trkpt lat="38.7301400074494" lon="16.352441364712043"><ele>980.0</ele><time>2026-05-04T10:11:30Z</time></trkpt><trkpt lat="38.73010469742868" lon="16.352365757856372"><ele>980.0</ele><time>2026-05-04T10:11:50Z</time></trkpt><trkpt lat="38.73003743352182" lon="16.352294884301987"><ele>980.0</ele><time>2026-05-04T10:11:59Z</time></trkpt><trkpt lat="38.7299574850939" lon="16.352275676494298"><ele>980.0</ele><time>2026-05-04T10:12:08Z</time></trkpt><trkpt lat="38.729895997086416" lon="16.352246159924242"><ele>980.0</ele><time>2026-05-04T10:12:13Z</time></trkpt><trkpt lat="38.729833900422584" lon="16.35219988953546"><ele>980.0</ele><time>2026-05-04T10:12:20Z</time></trkpt><trkpt lat="38.72977785278013" lon="16.35216182746353"><ele>980.0</ele><time>2026-05-04T10:12:26Z</time></trkpt><trkpt lat="38.729716287309586" lon="16.35212994237905"><ele>980.0</ele><time>2026-05-04T10:12:37Z</time></trkpt><trkpt lat="38.729639008537134" lon="16.352102332365344"><ele>981.0000000000001</ele><time>2026-05-04T10:12:42Z</time></trkpt><trkpt lat="38.72960105295484" lon="16.352027017311002"><ele>982.0</ele><time>2026-05-04T10:12:48Z</time></trkpt><trkpt lat="38.72954707823778" lon="16.351971321917226"><ele>983.0</ele><time>2026-05-04T10:12:54Z</time></trkpt><trkpt lat="38.72952249423437" lon="16.35188657861508"><ele>984.0</ele><time>2026-05-04T10:13:03Z</time></trkpt><trkpt lat="38.72945331070916" lon="16.351808290891903"><ele>985.0000000000001</ele><time>2026-05-04T10:13:22Z</time></trkpt><trkpt lat="38.729474191296795" lon="16.35171158899496"><ele>986.0</ele><time>2026-05-04T10:13:28Z</time></trkpt><trkpt lat="38.72954601264869" lon="16.351666373631694"><ele>986.0</ele><time>2026-05-04T10:13:35Z</time></trkpt><trkpt lat="38.72960313711375" lon="16.35171680430182"><ele>986.0</ele><time>2026-05-04T10:13:43Z</time></trkpt><trkpt lat="38.7296681746555" lon="16.351751846959367"><ele>986.0</ele><time>2026-05-04T10:13:50Z</time></trkpt><trkpt lat="38.72973799367891" lon="16.351759310516833"><ele>986.0</ele><time>2026-05-04T10:13:57Z</time></trkpt><trkpt lat="38.72980422375585" lon="16.351750006458815"><ele>986.0</ele><time>2026-05-04T10:14:03Z</time></trkpt><trkpt lat="38.729869222108256" lon="16.35172701914273"><ele>986.0</ele><time>2026-05-04T10:14:08Z</time></trkpt><trkpt lat="38.72993808648104" lon="16.35174877517405"><ele>986.0</ele><time>2026-05-04T10:14:15Z</time></trkpt><trkpt lat="38.73000909612095" lon="16.351716805418373"><ele>986.0</ele><time>2026-05-04T10:14:22Z</time></trkpt><trkpt lat="38.730064864326316" lon="16.35167716542096"><ele>986.0</ele><time>2026-05-04T10:14:26Z</time></trkpt><trkpt lat="38.73012453618651" lon="16.351637147715383"><ele>986.0</ele><time>2026-05-04T10:14:31Z</time></trkpt><trkpt lat="38.730176009431204" lon="16.35169092559559"><ele>986.0</ele><time>2026-05-04T10:14:42Z</time></trkpt><trkpt lat="38.73024514315095" lon="16.351720791532404"><ele>986.0</ele><time>2026-05-04T10:14:49Z</time></trkpt><trkpt lat="38.73031179346967" lon="16.351729166620153"><ele>986.0</ele><time>2026-05-04T10:14:53Z</time></trkpt><trkpt lat="38.730334956533596" lon="16.351818201264503"><ele>986.0</ele><time>2026-05-04T10:14:59Z</time></trkpt><trkpt lat="38.730385363735685" lon="16.351872878804798"><ele>986.4285714285713</ele><time>2026-05-04T10:15:05Z</time></trkpt><trkpt lat="38.73045486726807" lon="16.351904551581885"><ele>986.8571428571429</ele><time>2026-05-04T10:15:13Z</time></trkpt><trkpt lat="38.730520165135" lon="16.351938304349495"><ele>987.2857142857142</ele><time>2026-05-04T10:15:17Z</time></trkpt><trkpt lat="38.73057300663519" lon="16.351985861446572"><ele>987.7142857142857</ele><time>2026-05-04T10:15:27Z</time></trkpt><trkpt lat="38.73059468291385" lon="16.352071221858395"><ele>988.1428571428571</ele><time>2026-05-04T10:15:33Z</time></trkpt><trkpt lat="38.730607342912926" lon="16.352163500906624"><ele>988.5714285714286</ele><time>2026-05-04T10:15:39Z</time></trkpt><trkpt lat="38.730635860595996" lon="16.352236970130733"><ele>989.0</ele><time>2026-05-04T10:15:45Z</time></trkpt><trkpt lat="38.73062086697248" lon="16.352327478639292"><ele>989.0</ele><time>2026-05-04T10:15:51Z</time></trkpt><trkpt lat="38.730641898492784" lon="16.352414742125188"><ele>988.9999999999999</ele><time>2026-05-04T10:15:57Z</time></trkpt><trkpt lat="38.73069332799446" lon="16.352474251518206"><ele>989.0</ele><time>2026-05-04T10:16:03Z</time></trkpt><trkpt lat="38.73072856788058" lon="16.3525419212299"><ele>989.0</ele><time>2026-05-04T10:16:09Z</time></trkpt><trkpt lat="38.73076477286049" lon="16.352609530698945"><ele>988.9999999999999</ele><time>2026-05-04T10:16:15Z</time></trkpt><trkpt lat="38.73080110979052" lon="16.352680045881858"><ele>989.0</ele><time>2026-05-04T10:16:21Z</time></trkpt><trkpt lat="38.730865136076005" lon="16.352712213979707"><ele>989.0</ele><time>2026-05-04T10:16:27Z</time></trkpt><trkpt lat="38.73093159135886" lon="16.35272318396779"><ele>989.0</ele><time>2026-05-04T10:16:33Z</time></trkpt><trkpt lat="38.73099363679476" lon="16.352705225977935"><ele>988.9999999999999</ele><time>2026-05-04T10:16:39Z</time></trkpt><trkpt lat="38.73105341892266" lon="16.35262948072533"><ele>989.0</ele><time>2026-05-04T10:16:42Z</time></trkpt><trkpt lat="38.73111223871643" lon="16.352594714013954"><ele>989.0</ele><time>2026-05-04T10:16:47Z</time></trkpt><trkpt lat="38.73117894946356" lon="16.352563797379098"><ele>988.9999999999999</ele><time>2026-05-04T10:16:55Z</time></trkpt><trkpt lat="38.731241160716635" lon="16.35251611965819"><ele>989.0</ele><time>2026-05-04T10:17:03Z</time></trkpt><trkpt lat="38.731309101334546" lon="16.352557369506183"><ele>989.0</ele><time>2026-05-04T10:17:12Z</time></trkpt><trkpt lat="38.731364333005914" lon="16.352502869642557"><ele>990.4285714285713</ele><time>2026-05-04T10:17:18Z</time></trkpt><trkpt lat="38.73139942855698" lon="16.352414255545643"><ele>991.8571428571428</ele><time>2026-05-04T10:17:24Z</time></trkpt><trkpt lat="38.731430240219275" lon="16.352336704382285"><ele>993.2857142857142</ele><time>2026-05-04T10:17:29Z</time></trkpt><trkpt lat="38.73145921930376" lon="16.352257115438828"><ele>994.7142857142858</ele><time>2026-05-04T10:17:36Z</time></trkpt><trkpt lat="38.73147213970096" lon="16.352170480388"><ele>996.1428571428572</ele><time>2026-05-04T10:17:47Z</time></trkpt><trkpt lat="38.731485948591285" lon="16.352080902708806"><ele>997.5714285714287</ele><time>2026-05-04T10:17:54Z</time></trkpt><trkpt lat="38.73151633990511" lon="16.35200420960651"><ele>999.0</ele><time>2026-05-04T10:18:01Z</time></trkpt><trkpt lat="38.731513144347" lon="16.35192034806983"><ele>999.7142857142858</ele><time>2026-05-04T10:18:08Z</time></trkpt><trkpt lat="38.73151509664204" lon="16.351837611914615"><ele>1000.4285714285716</ele><time>2026-05-04T10:18:15Z</time></trkpt><trkpt lat="38.73152904785488" lon="16.351755820531395"><ele>1001.1428571428571</ele><time>2026-05-04T10:18:21Z</time></trkpt><trkpt lat="38.73153392691399" lon="16.35166814894081"><ele>1001.8571428571429</ele><time>2026-05-04T10:18:26Z</time></trkpt><trkpt lat="38.7315177154049" lon="16.351579158757623"><ele>1002.5714285714286</ele><time>2026-05-04T10:18:32Z</time></trkpt><trkpt lat="38.73153085804613" lon="16.351494316865374"><ele>1003.2857142857142</ele><time>2026-05-04T10:18:40Z</time></trkpt><trkpt lat="38.73152480838638" lon="16.35141374253648"><ele>1003.9999999999999</ele><time>2026-05-04T10:18:45Z</time></trkpt><trkpt lat="38.73153795551917" lon="16.35133397806854"><ele>1004.142857142857</ele><time>2026-05-04T10:18:49Z</time></trkpt><trkpt lat="38.73155351699494" lon="16.351244287628152"><ele>1004.2857142857142</ele><time>2026-05-04T10:18:56Z</time></trkpt><trkpt lat="38.73156438489015" lon="16.351163071128077"><ele>1004.4285714285714</ele><time>2026-05-04T10:19:02Z</time></trkpt><trkpt lat="38.731567140413475" lon="16.351071527410266"><ele>1004.5714285714286</ele><time>2026-05-04T10:19:07Z</time></trkpt><trkpt lat="38.73158866125072" lon="16.35098333293434"><ele>1004.7142857142858</ele><time>2026-05-04T10:19:14Z</time></trkpt><trkpt lat="38.731609872727574" lon="16.350881451652484"><ele>1004.857142857143</ele><time>2026-05-04T10:19:21Z</time></trkpt><trkpt lat="38.731583850204565" lon="16.350781060059123"><ele>1005.0000000000001</ele><time>2026-05-04T10:19:25Z</time></trkpt><trkpt lat="38.73159900732725" lon="16.350693067733673"><ele>1005.0000000000001</ele><time>2026-05-04T10:19:31Z</time></trkpt><trkpt lat="38.73164053201789" lon="16.350615621678408"><ele>1005.0</ele><time>2026-05-04T10:19:37Z</time></trkpt><trkpt lat="38.73166099074429" lon="16.35052800479017"><ele>1005.0000000000001</ele><time>2026-05-04T10:19:43Z</time></trkpt><trkpt lat="38.73169004910925" lon="16.350448038003513"><ele>1005.0000000000001</ele><time>2026-05-04T10:19:49Z</time></trkpt><trkpt lat="38.73173184145514" lon="16.350383910155728"><ele>1005.0</ele><time>2026-05-04T10:20:13Z</time></trkpt><trkpt lat="38.731765946828226" lon="16.350311859527633"><ele>1005.0000000000001</ele><time>2026-05-04T10:20:19Z</time></trkpt><trkpt lat="38.731812768517344" lon="16.350257048435292"><ele>1005.0000000000001</ele><time>2026-05-04T10:20:26Z</time></trkpt><trkpt lat="38.73185792200342" lon="16.350200033260837"><ele>1005.5714285714287</ele><time>2026-05-04T10:20:31Z</time></trkpt><trkpt lat="38.73190465038029" lon="16.350136497656386"><ele>1006.1428571428571</ele><time>2026-05-04T10:20:37Z</time></trkpt><trkpt lat="38.731958158774816" lon="16.350081787768154"><ele>1006.7142857142858</ele><time>2026-05-04T10:20:43Z</time></trkpt><trkpt lat="38.73201360653538" lon="16.350020527557447"><ele>1007.2857142857143</ele><time>2026-05-04T10:20:49Z</time></trkpt><trkpt lat="38.732065686948964" lon="16.349970527781153"><ele>1007.8571428571429</ele><time>2026-05-04T10:20:56Z</time></trkpt><trkpt lat="38.732119154252786" lon="16.349923480998683"><ele>1008.4285714285714</ele><time>2026-05-04T10:21:01Z</time></trkpt><trkpt lat="38.73218103779846" lon="16.3498850303655"><ele>1009.0</ele><time>2026-05-04T10:21:07Z</time></trkpt><trkpt lat="38.73224536966644" lon="16.349845062253404"><ele>1009.0</ele><time>2026-05-04T10:21:12Z</time></trkpt><trkpt lat="38.73229175372143" lon="16.34978711785842"><ele>1009.0</ele><time>2026-05-04T10:21:18Z</time></trkpt><trkpt lat="38.73235430906643" lon="16.349751741995572"><ele>1009.0</ele><time>2026-05-04T10:21:23Z</time></trkpt><trkpt lat="38.732420205727635" lon="16.349754148222654"><ele>1009.0</ele><time>2026-05-04T10:21:29Z</time></trkpt><trkpt lat="38.732480692361705" lon="16.34972844913065"><ele>1009.0</ele><time>2026-05-04T10:21:37Z</time></trkpt><trkpt lat="38.73254821534377" lon="16.349735199176944"><ele>1009.0</ele><time>2026-05-04T10:21:42Z</time></trkpt><trkpt lat="38.73262661463765" lon="16.349734990272086"><ele>1009.0</ele><time>2026-05-04T10:21:49Z</time></trkpt><trkpt lat="38.73267288570232" lon="16.349654388801426"><ele>1008.7142857142858</ele><time>2026-05-04T10:21:56Z</time></trkpt><trkpt lat="38.732716558144936" lon="16.3495919300184"><ele>1008.4285714285713</ele><time>2026-05-04T10:22:01Z</time></trkpt><trkpt lat="38.73267897594207" lon="16.34952485336098"><ele>1008.1428571428571</ele><time>2026-05-04T10:22:43Z</time></trkpt><trkpt lat="38.73261544587446" lon="16.34949092132073"><ele>1007.8571428571429</ele><time>2026-05-04T10:22:55Z</time></trkpt><trkpt lat="38.73256134860891" lon="16.34943714470427"><ele>1007.5714285714287</ele><time>2026-05-04T10:23:09Z</time></trkpt><trkpt lat="38.732521997363605" lon="16.349364227399438"><ele>1007.2857142857142</ele><time>2026-05-04T10:23:16Z</time></trkpt><trkpt lat="38.73249280806237" lon="16.349282223714773"><ele>1007.0</ele><time>2026-05-04T10:23:25Z</time></trkpt><trkpt lat="38.73245705704814" lon="16.34921238039838"><ele>1007.0</ele><time>2026-05-04T10:23:29Z</time></trkpt><trkpt lat="38.732406833803964" lon="16.34912699882449"><ele>1007.0</ele><time>2026-05-04T10:23:37Z</time></trkpt><trkpt lat="38.7323938778845" lon="16.34903787061566"><ele>1007.0</ele><time>2026-05-04T10:23:43Z</time></trkpt><trkpt lat="38.73237550920649" lon="16.348949869807154"><ele>1007.0</ele><time>2026-05-04T10:23:49Z</time></trkpt><trkpt lat="38.73236003744482" lon="16.34887145661023"><ele>1007.0</ele><time>2026-05-04T10:23:54Z</time></trkpt><trkpt lat="38.732361847295245" lon="16.34877297579729"><ele>1007.0</ele><time>2026-05-04T10:23:58Z</time></trkpt><trkpt lat="38.73234449311023" lon="16.348690820765423"><ele>1007.0</ele><time>2026-05-04T10:24:06Z</time></trkpt><trkpt lat="38.732294687076624" lon="16.34861461110517"><ele>1007.5714285714286</ele><time>2026-05-04T10:24:12Z</time></trkpt><trkpt lat="38.73228763116487" lon="16.348531916378487"><ele>1008.1428571428571</ele><time>2026-05-04T10:24:18Z</time></trkpt><trkpt lat="38.73223453567857" lon="16.34847828777883"><ele>1008.7142857142857</ele><time>2026-05-04T10:24:24Z</time></trkpt><trkpt lat="38.732172861411684" lon="16.3484174915443"><ele>1009.2857142857142</ele><time>2026-05-04T10:24:31Z</time></trkpt><trkpt lat="38.73212790278879" lon="16.348360706634637"><ele>1009.8571428571429</ele><time>2026-05-04T10:24:39Z</time></trkpt><trkpt lat="38.73207418493617" lon="16.34831034870906"><ele>1010.4285714285713</ele><time>2026-05-04T10:24:44Z</time></trkpt><trkpt lat="38.73205304889714" lon="16.348231178567772"><ele>1010.9999999999999</ele><time>2026-05-04T10:24:51Z</time></trkpt><trkpt lat="38.73202056200797" lon="16.34815209254459"><ele>1010.9999999999999</ele><time>2026-05-04T10:24:58Z</time></trkpt><trkpt lat="38.73197147853249" lon="16.34807815263418"><ele>1011.0</ele><time>2026-05-04T10:25:04Z</time></trkpt><trkpt lat="38.73193535060977" lon="16.34801158708453"><ele>1010.9999999999999</ele><time>2026-05-04T10:25:11Z</time></trkpt><trkpt lat="38.73188200869574" lon="16.347961210674402"><ele>1010.9999999999999</ele><time>2026-05-04T10:25:17Z</time></trkpt><trkpt lat="38.73183867813198" lon="16.347893117016625"><ele>1011.0</ele><time>2026-05-04T10:25:23Z</time></trkpt><trkpt lat="38.731793875129995" lon="16.347828536499982"><ele>1010.9999999999999</ele><time>2026-05-04T10:25:29Z</time></trkpt><trkpt lat="38.73174335663172" lon="16.34777095642359"><ele>1010.9999999999999</ele><time>2026-05-04T10:25:34Z</time></trkpt><trkpt lat="38.73167967720378" lon="16.34770337956864"><ele>1009.9999999999999</ele><time>2026-05-04T10:25:43Z</time></trkpt><trkpt lat="38.731637775420594" lon="16.347630596649292"><ele>1009.0</ele><time>2026-05-04T10:25:51Z</time></trkpt><trkpt lat="38.73158245626166" lon="16.347578622054524"><ele>1007.9999999999999</ele><time>2026-05-04T10:25:57Z</time></trkpt><trkpt lat="38.73151726254749" lon="16.347533797939484"><ele>1006.9999999999999</ele><time>2026-05-04T10:26:02Z</time></trkpt><trkpt lat="38.731452464150586" lon="16.34750226078357"><ele>1006.0</ele><time>2026-05-04T10:26:06Z</time></trkpt><trkpt lat="38.731395917590056" lon="16.347448220123265"><ele>1004.9999999999999</ele><time>2026-05-04T10:26:11Z</time></trkpt><trkpt lat="38.73133454450935" lon="16.347424671767936"><ele>1003.9999999999999</ele><time>2026-05-04T10:26:17Z</time></trkpt><trkpt lat="38.73128179761357" lon="16.34737909359616"><ele>1003.9999999999999</ele><time>2026-05-04T10:26:21Z</time></trkpt><trkpt lat="38.73121540438096" lon="16.347371889269713"><ele>1004.0</ele><time>2026-05-04T10:26:26Z</time></trkpt><trkpt lat="38.73115633319888" lon="16.34733440587822"><ele>1003.9999999999999</ele><time>2026-05-04T10:26:33Z</time></trkpt><trkpt lat="38.73107620467381" lon="16.347322228267682"><ele>1003.9999999999999</ele><time>2026-05-04T10:26:38Z</time></trkpt><trkpt lat="38.731001650943796" lon="16.34730612383415"><ele>1004.0</ele><time>2026-05-04T10:26:42Z</time></trkpt><trkpt lat="38.73092875292847" lon="16.34728024055111"><ele>1003.9999999999999</ele><time>2026-05-04T10:26:48Z</time></trkpt><trkpt lat="38.73086440128986" lon="16.347257002099386"><ele>1003.9999999999999</ele><time>2026-05-04T10:26:55Z</time></trkpt><trkpt lat="38.73080738477556" lon="16.347214059546786"><ele>1002.9999999999999</ele><time>2026-05-04T10:26:59Z</time></trkpt><trkpt lat="38.73073487872114" lon="16.3471803589979"><ele>1002.0</ele><time>2026-05-04T10:27:04Z</time></trkpt><trkpt lat="38.73066027467278" lon="16.347133357473176"><ele>1000.9999999999999</ele><time>2026-05-04T10:27:11Z</time></trkpt><trkpt lat="38.730617979883725" lon="16.347062619674585"><ele>999.9999999999999</ele><time>2026-05-04T10:27:17Z</time></trkpt><trkpt lat="38.73055979183062" lon="16.34701336534669"><ele>999.0</ele><time>2026-05-04T10:27:23Z</time></trkpt><trkpt lat="38.73049668849296" lon="16.346994766903943"><ele>997.9999999999999</ele><time>2026-05-04T10:27:27Z</time></trkpt><trkpt lat="38.73043017518231" lon="16.34696858547707"><ele>996.9999999999999</ele><time>2026-05-04T10:27:33Z</time></trkpt><trkpt lat="38.73037821928834" lon="16.346921748880042"><ele>996.9999999999999</ele><time>2026-05-04T10:27:37Z</time></trkpt><trkpt lat="38.73031028072388" lon="16.346923364397217"><ele>997.0</ele><time>2026-05-04T10:27:42Z</time></trkpt><trkpt lat="38.730251726352286" lon="16.346871171838526"><ele>996.9999999999999</ele><time>2026-05-04T10:27:49Z</time></trkpt><trkpt lat="38.73017852390684" lon="16.346844636811365"><ele>996.9999999999999</ele><time>2026-05-04T10:27:54Z</time></trkpt><trkpt lat="38.73010202863826" lon="16.346835284975363"><ele>997.0</ele><time>2026-05-04T10:28:01Z</time></trkpt><trkpt lat="38.73002998609776" lon="16.346816520915002"><ele>996.9999999999999</ele><time>2026-05-04T10:28:08Z</time></trkpt><trkpt lat="38.729960601152335" lon="16.346813761149193"><ele>996.9999999999999</ele><time>2026-05-04T10:28:13Z</time></trkpt><trkpt lat="38.72990320180188" lon="16.346847042484214"><ele>996.8571428571427</ele><time>2026-05-04T10:28:17Z</time></trkpt><trkpt lat="38.72983848089196" lon="16.346859080046322"><ele>996.7142857142857</ele><time>2026-05-04T10:28:21Z</time></trkpt><trkpt lat="38.72976078347386" lon="16.346853545625237"><ele>996.5714285714284</ele><time>2026-05-04T10:28:27Z</time></trkpt><trkpt lat="38.729684683499904" lon="16.3468123433025"><ele>996.4285714285713</ele><time>2026-05-04T10:28:34Z</time></trkpt><trkpt lat="38.729613592445325" lon="16.34680026091788"><ele>996.2857142857142</ele><time>2026-05-04T10:28:40Z</time></trkpt><trkpt lat="38.72954981227884" lon="16.346756097827434"><ele>996.1428571428571</ele><time>2026-05-04T10:28:44Z</time></trkpt><trkpt lat="38.72947763113785" lon="16.346775207454165"><ele>996.0</ele><time>2026-05-04T10:28:50Z</time></trkpt><trkpt lat="38.72942067482331" lon="16.346817421911915"><ele>995.5714285714286</ele><time>2026-05-04T10:28:54Z</time></trkpt><trkpt lat="38.72935942422662" lon="16.346792565841227"><ele>995.1428571428571</ele><time>2026-05-04T10:28:59Z</time></trkpt><trkpt lat="38.72929292346731" lon="16.34673120634735"><ele>994.7142857142857</ele><time>2026-05-04T10:29:08Z</time></trkpt><trkpt lat="38.729222623382654" lon="16.34669846579168"><ele>994.2857142857142</ele><time>2026-05-04T10:29:13Z</time></trkpt><trkpt lat="38.7291445585293" lon="16.346691758386378"><ele>993.8571428571429</ele><time>2026-05-04T10:29:19Z</time></trkpt><trkpt lat="38.72907072434744" lon="16.346654644510537"><ele>993.4285714285713</ele><time>2026-05-04T10:29:24Z</time></trkpt><trkpt lat="38.72900769228142" lon="16.346660035097145"><ele>993.0</ele><time>2026-05-04T10:29:30Z</time></trkpt><trkpt lat="38.72894549448436" lon="16.346642576140496"><ele>993.0</ele><time>2026-05-04T10:29:35Z</time></trkpt><trkpt lat="38.72886835531841" lon="16.346632558034337"><ele>993.0</ele><time>2026-05-04T10:29:42Z</time></trkpt><trkpt lat="38.72880698247147" lon="16.34660200698534"><ele>993.0</ele><time>2026-05-04T10:29:48Z</time></trkpt><trkpt lat="38.72874780398599" lon="16.346565895299587"><ele>993.0</ele><time>2026-05-04T10:29:52Z</time></trkpt><trkpt lat="38.728675399641155" lon="16.346521753389368"><ele>993.0</ele><time>2026-05-04T10:29:58Z</time></trkpt><trkpt lat="38.728599486721414" lon="16.34649631734006"><ele>993.0</ele><time>2026-05-04T10:30:04Z</time></trkpt><trkpt lat="38.728531483966385" lon="16.346474163757478"><ele>993.0</ele><time>2026-05-04T10:30:11Z</time></trkpt><trkpt lat="38.728469291302545" lon="16.34642536164438"><ele>992.7142857142857</ele><time>2026-05-04T10:30:17Z</time></trkpt><trkpt lat="38.728406791550356" lon="16.346376363700436"><ele>992.4285714285716</ele><time>2026-05-04T10:30:24Z</time></trkpt><trkpt lat="38.72834401382628" lon="16.346363273674125"><ele>992.1428571428572</ele><time>2026-05-04T10:30:28Z</time></trkpt><trkpt lat="38.728291433290195" lon="16.346307896283264"><ele>991.8571428571429</ele><time>2026-05-04T10:30:34Z</time></trkpt><trkpt lat="38.7282269587014" lon="16.346253979216037"><ele>991.5714285714287</ele><time>2026-05-04T10:30:39Z</time></trkpt><trkpt lat="38.7281556906683" lon="16.34624325201408"><ele>991.2857142857144</ele><time>2026-05-04T10:30:44Z</time></trkpt><trkpt lat="38.72808319915986" lon="16.346237098815788"><ele>991.0000000000001</ele><time>2026-05-04T10:30:49Z</time></trkpt><trkpt lat="38.728012897796425" lon="16.346206587491388"><ele>991.0000000000001</ele><time>2026-05-04T10:30:56Z</time></trkpt><trkpt lat="38.72793898594184" lon="16.346204143286744"><ele>991.0</ele><time>2026-05-04T10:31:00Z</time></trkpt><trkpt lat="38.727894196491505" lon="16.34613894221485"><ele>991.0000000000001</ele><time>2026-05-04T10:31:06Z</time></trkpt><trkpt lat="38.727843928859315" lon="16.346066308507577"><ele>991.0000000000001</ele><time>2026-05-04T10:31:12Z</time></trkpt><trkpt lat="38.72775913621158" lon="16.346078206691164"><ele>991.0</ele><time>2026-05-04T10:31:18Z</time></trkpt><trkpt lat="38.72769090073435" lon="16.34605625871391"><ele>991.0000000000001</ele><time>2026-05-04T10:31:24Z</time></trkpt><trkpt lat="38.72763986754599" lon="16.346008266698483"><ele>991.0000000000001</ele><time>2026-05-04T10:31:28Z</time></trkpt><trkpt lat="38.72756727230308" lon="16.34599643543109"><ele>991.1428571428573</ele><time>2026-05-04T10:31:34Z</time></trkpt><trkpt lat="38.727497684703934" lon="16.345972168944453"><ele>991.2857142857143</ele><time>2026-05-04T10:31:40Z</time></trkpt><trkpt lat="38.727439796788" lon="16.345922985601078"><ele>991.4285714285716</ele><time>2026-05-04T10:31:49Z</time></trkpt><trkpt lat="38.7273889667978" lon="16.345863713416158"><ele>991.5714285714287</ele><time>2026-05-04T10:31:53Z</time></trkpt><trkpt lat="38.72733273298421" lon="16.34582324241482"><ele>991.7142857142858</ele><time>2026-05-04T10:31:59Z</time></trkpt><trkpt lat="38.72729413715908" lon="16.345757803749937"><ele>991.8571428571429</ele><time>2026-05-04T10:32:05Z</time></trkpt><trkpt lat="38.727242455489765" lon="16.34568495768315"><ele>992.0</ele><time>2026-05-04T10:32:14Z</time></trkpt><trkpt lat="38.727224474825" lon="16.345595522876394"><ele>991.8333333333334</ele><time>2026-05-04T10:32:23Z</time></trkpt><trkpt lat="38.72721417119569" lon="16.34550240764272"><ele>991.6666666666667</ele><time>2026-05-04T10:32:30Z</time></trkpt><trkpt lat="38.72713961563821" lon="16.345467875528875"><ele>991.5</ele><time>2026-05-04T10:32:34Z</time></trkpt><trkpt lat="38.727069853203126" lon="16.345489429314394"><ele>991.3333333333333</ele><time>2026-05-04T10:32:38Z</time></trkpt><trkpt lat="38.72698778863801" lon="16.345455187218604"><ele>991.1666666666666</ele><time>2026-05-04T10:32:44Z</time></trkpt><trkpt lat="38.726919526558085" lon="16.34545736935155"><ele>991.0</ele><time>2026-05-04T10:32:48Z</time></trkpt><trkpt lat="38.726846312243175" lon="16.345446059254314"><ele>991.0000000000001</ele><time>2026-05-04T10:32:54Z</time></trkpt><trkpt lat="38.72677734413573" lon="16.34542626580664"><ele>991.0</ele><time>2026-05-04T10:33:00Z</time></trkpt><trkpt lat="38.72671032378344" lon="16.345406983722906"><ele>991.0000000000001</ele><time>2026-05-04T10:33:05Z</time></trkpt><trkpt lat="38.72664653909409" lon="16.34540206577158"><ele>991.0000000000001</ele><time>2026-05-04T10:33:08Z</time></trkpt><trkpt lat="38.72659324223211" lon="16.3453570587538"><ele>991.0</ele><time>2026-05-04T10:33:18Z</time></trkpt><trkpt lat="38.72654878090627" lon="16.345298217750912"><ele>991.0000000000001</ele><time>2026-05-04T10:33:25Z</time></trkpt><trkpt lat="38.7265372513295" lon="16.34520824932816"><ele>991.0000000000001</ele><time>2026-05-04T10:33:51Z</time></trkpt><trkpt lat="38.72648477262951" lon="16.345151216299204"><ele>991.0000000000001</ele><time>2026-05-04T10:33:58Z</time></trkpt><trkpt lat="38.726443308429154" lon="16.345074315643412"><ele>991.0</ele><time>2026-05-04T10:34:08Z</time></trkpt><trkpt lat="38.72640076037624" lon="16.34500420401403"><ele>991.0000000000001</ele><time>2026-05-04T10:34:13Z</time></trkpt><trkpt lat="38.726367784363035" lon="16.344920185171933"><ele>991.0000000000001</ele><time>2026-05-04T10:34:21Z</time></trkpt><trkpt lat="38.72632757083038" lon="16.34483437396784"><ele>991.0</ele><time>2026-05-04T10:34:28Z</time></trkpt><trkpt lat="38.726299534668094" lon="16.34474765975635"><ele>991.0000000000001</ele><time>2026-05-04T10:34:34Z</time></trkpt><trkpt lat="38.726272398333215" lon="16.34467073759932"><ele>991.0000000000001</ele><time>2026-05-04T10:34:41Z</time></trkpt><trkpt lat="38.726251198902" lon="16.344579895975468"><ele>991.0000000000001</ele><time>2026-05-04T10:34:47Z</time></trkpt><trkpt lat="38.726233599979196" lon="16.344492367968204"><ele>991.0</ele><time>2026-05-04T10:34:54Z</time></trkpt><trkpt lat="38.726187161545724" lon="16.344431760637487"><ele>991.0000000000001</ele><time>2026-05-04T10:34:59Z</time></trkpt><trkpt lat="38.72613313485755" lon="16.344357524228194"><ele>991.0000000000001</ele><time>2026-05-04T10:35:04Z</time></trkpt><trkpt lat="38.72609833207869" lon="16.3442650128799"><ele>991.0</ele><time>2026-05-04T10:35:11Z</time></trkpt><trkpt lat="38.72605213866378" lon="16.344200649340152"><ele>991.0000000000001</ele><time>2026-05-04T10:35:16Z</time></trkpt><trkpt lat="38.725989539353755" lon="16.344171491236814"><ele>991.0000000000001</ele><time>2026-05-04T10:35:21Z</time></trkpt><trkpt lat="38.72592883696964" lon="16.344108929992082"><ele>990.857142857143</ele><time>2026-05-04T10:35:26Z</time></trkpt><trkpt lat="38.72586980615721" lon="16.34403853372825"><ele>990.7142857142858</ele><time>2026-05-04T10:35:32Z</time></trkpt><trkpt lat="38.725824274171764" lon="16.343960512649907"><ele>990.5714285714286</ele><time>2026-05-04T10:35:39Z</time></trkpt><trkpt lat="38.725784088752626" lon="16.343887796724253"><ele>990.4285714285714</ele><time>2026-05-04T10:35:43Z</time></trkpt><trkpt lat="38.72574585768078" lon="16.343811798678875"><ele>990.2857142857142</ele><time>2026-05-04T10:35:49Z</time></trkpt><trkpt lat="38.72569798347155" lon="16.343751013079412"><ele>990.142857142857</ele><time>2026-05-04T10:35:54Z</time></trkpt><trkpt lat="38.725677242890896" lon="16.34367038564823"><ele>989.9999999999999</ele><time>2026-05-04T10:35:58Z</time></trkpt><trkpt lat="38.725683976789945" lon="16.343583222484146"><ele>989.9999999999999</ele><time>2026-05-04T10:36:02Z</time></trkpt><trkpt lat="38.7257045073266" lon="16.34348591735849"><ele>990.0</ele><time>2026-05-04T10:36:09Z</time></trkpt><trkpt lat="38.72570494505589" lon="16.34339739619449"><ele>989.9999999999999</ele><time>2026-05-04T10:36:14Z</time></trkpt><trkpt lat="38.72570164030019" lon="16.343306936493825"><ele>989.9999999999999</ele><time>2026-05-04T10:36:19.999Z</time></trkpt><trkpt lat="38.72571911826585" lon="16.343217642857727"><ele>990.0</ele><time>2026-05-04T10:36:25Z</time></trkpt><trkpt lat="38.725704609802975" lon="16.343136580031366"><ele>989.9999999999999</ele><time>2026-05-04T10:36:30Z</time></trkpt><trkpt lat="38.72565996081982" lon="16.343054271030176"><ele>989.9999999999999</ele><time>2026-05-04T10:36:35Z</time></trkpt><trkpt lat="38.72561617642109" lon="16.34299622033322"><ele>989.7142857142856</ele><time>2026-05-04T10:36:41Z</time></trkpt><trkpt lat="38.72556179528749" lon="16.3429547832507"><ele>989.4285714285713</ele><time>2026-05-04T10:36:47Z</time></trkpt><trkpt lat="38.725505383780884" lon="16.342909936051445"><ele>989.1428571428571</ele><time>2026-05-04T10:36:53Z</time></trkpt><trkpt lat="38.72545777169298" lon="16.342856258755155"><ele>988.8571428571428</ele><time>2026-05-04T10:36:58Z</time></trkpt><trkpt lat="38.72540433944808" lon="16.342800004033677"><ele>988.5714285714284</ele><time>2026-05-04T10:37:04Z</time></trkpt><trkpt lat="38.72535047735708" lon="16.34273522243579"><ele>988.2857142857143</ele><time>2026-05-04T10:37:09Z</time></trkpt><trkpt lat="38.72529444426105" lon="16.342689963831102"><ele>988.0</ele><time>2026-05-04T10:37:14Z</time></trkpt><trkpt lat="38.7252431120005" lon="16.34264251628624"><ele>987.7142857142858</ele><time>2026-05-04T10:37:20Z</time></trkpt><trkpt lat="38.72517997188043" lon="16.34258890884784"><ele>987.4285714285713</ele><time>2026-05-04T10:37:26Z</time></trkpt><trkpt lat="38.725132154963276" lon="16.34253312628322"><ele>987.1428571428571</ele><time>2026-05-04T10:37:31Z</time></trkpt><trkpt lat="38.725072255411135" lon="16.342483871467383"><ele>986.8571428571429</ele><time>2026-05-04T10:37:36Z</time></trkpt><trkpt lat="38.72501661695166" lon="16.34242530284017"><ele>986.5714285714287</ele><time>2026-05-04T10:37:42Z</time></trkpt><trkpt lat="38.72495544425426" lon="16.342392433107886"><ele>986.2857142857142</ele><time>2026-05-04T10:37:48Z</time></trkpt><trkpt lat="38.72489726669438" lon="16.342346063021353"><ele>986.0</ele><time>2026-05-04T10:37:54Z</time></trkpt><trkpt lat="38.724828160998456" lon="16.342315574848786"><ele>986.0</ele><time>2026-05-04T10:38:01Z</time></trkpt><trkpt lat="38.72475519865151" lon="16.3422942954213"><ele>986.0</ele><time>2026-05-04T10:38:08Z</time></trkpt><trkpt lat="38.7246913376492" lon="16.342250831659925"><ele>986.0</ele><time>2026-05-04T10:38:15Z</time></trkpt><trkpt lat="38.72463114686711" lon="16.342276761926584"><ele>986.0</ele><time>2026-05-04T10:38:20Z</time></trkpt><trkpt lat="38.72455636941732" lon="16.342265893260745"><ele>986.0</ele><time>2026-05-04T10:38:26Z</time></trkpt><trkpt lat="38.72448729789419" lon="16.34226213862131"><ele>986.0</ele><time>2026-05-04T10:38:34Z</time></trkpt><trkpt lat="38.7244117417485" lon="16.342264195018743"><ele>986.0</ele><time>2026-05-04T10:38:41Z</time></trkpt><trkpt lat="38.72434856881765" lon="16.34224475899484"><ele>986.2857142857142</ele><time>2026-05-04T10:38:47Z</time></trkpt><trkpt lat="38.724284330805" lon="16.342185844818573"><ele>986.5714285714287</ele><time>2026-05-04T10:38:54Z</time></trkpt><trkpt lat="38.72425272606694" lon="16.342114270735017"><ele>986.8571428571429</ele><time>2026-05-04T10:39:01Z</time></trkpt><trkpt lat="38.72420267614359" lon="16.342030203082146"><ele>987.1428571428571</ele><time>2026-05-04T10:39:06Z</time></trkpt><trkpt lat="38.72413585745059" lon="16.34200217184579"><ele>987.4285714285713</ele><time>2026-05-04T10:39:12Z</time></trkpt><trkpt lat="38.72406785231478" lon="16.342006802437695"><ele>987.7142857142858</ele><time>2026-05-04T10:39:17Z</time></trkpt><trkpt lat="38.72400278510904" lon="16.342002526699233"><ele>988.0</ele><time>2026-05-04T10:39:23Z</time></trkpt><trkpt lat="38.72394079961607" lon="16.342019405302615"><ele>988.0</ele><time>2026-05-04T10:39:27Z</time></trkpt><trkpt lat="38.723875203543095" lon="16.342031455432107"><ele>988.0</ele><time>2026-05-04T10:39:36Z</time></trkpt><trkpt lat="38.72380066279222" lon="16.342014412549478"><ele>988.0</ele><time>2026-05-04T10:39:42Z</time></trkpt><trkpt lat="38.72373745973094" lon="16.342021975005277"><ele>988.0</ele><time>2026-05-04T10:39:47Z</time></trkpt><trkpt lat="38.723668425832585" lon="16.342040143658238"><ele>988.0</ele><time>2026-05-04T10:39:54Z</time></trkpt><trkpt lat="38.72358900580221" lon="16.342036551725098"><ele>988.0</ele><time>2026-05-04T10:40:00Z</time></trkpt><trkpt lat="38.723525791973024" lon="16.342079161233297"><ele>988.0</ele><time>2026-05-04T10:40:05Z</time></trkpt><trkpt lat="38.7234593243839" lon="16.342111318284726"><ele>986.4999999999999</ele><time>2026-05-04T10:40:10Z</time></trkpt><trkpt lat="38.723355779905766" lon="16.34212967843816"><ele>985.0</ele><time>2026-05-04T10:40:19Z</time></trkpt><trkpt lat="38.72329412302714" lon="16.34211071101853"><ele>983.5</ele><time>2026-05-04T10:40:25Z</time></trkpt><trkpt lat="38.723219612123806" lon="16.34210814854884"><ele>982.0</ele><time>2026-05-04T10:40:31Z</time></trkpt><trkpt lat="38.72314792969031" lon="16.342108331685004"><ele>980.4999999999999</ele><time>2026-05-04T10:40:38Z</time></trkpt><trkpt lat="38.72307191542858" lon="16.342105508667338"><ele>979.0</ele><time>2026-05-04T10:40:45Z</time></trkpt><trkpt lat="38.72300899213709" lon="16.342124529257784"><ele>979.0</ele><time>2026-05-04T10:40:52Z</time></trkpt><trkpt lat="38.72293026047623" lon="16.342133180827965"><ele>979.0</ele><time>2026-05-04T10:41:03Z</time></trkpt><trkpt lat="38.7228665282991" lon="16.34213802215236"><ele>979.0</ele><time>2026-05-04T10:41:09Z</time></trkpt><trkpt lat="38.72279148191476" lon="16.34213139792876"><ele>979.0</ele><time>2026-05-04T10:41:17Z</time></trkpt><trkpt lat="38.7227226755302" lon="16.342139756170216"><ele>979.0</ele><time>2026-05-04T10:41:23Z</time></trkpt><trkpt lat="38.72265855048864" lon="16.342157938244"><ele>979.0</ele><time>2026-05-04T10:41:30Z</time></trkpt><trkpt lat="38.72259060274101" lon="16.342171832646518"><ele>979.0</ele><time>2026-05-04T10:41:37Z</time></trkpt><trkpt lat="38.72251365287427" lon="16.342192880752336"><ele>980.1428571428571</ele><time>2026-05-04T10:41:42Z</time></trkpt><trkpt lat="38.722447636153106" lon="16.342222221777764"><ele>981.2857142857143</ele><time>2026-05-04T10:41:49Z</time></trkpt><trkpt lat="38.72238427689049" lon="16.342242453945495"><ele>982.4285714285714</ele><time>2026-05-04T10:41:59Z</time></trkpt><trkpt lat="38.72232469910018" lon="16.34228657599215"><ele>983.5714285714286</ele><time>2026-05-04T10:42:07Z</time></trkpt><trkpt lat="38.722258176407166" lon="16.34229385559966"><ele>984.7142857142858</ele><time>2026-05-04T10:42:17Z</time></trkpt><trkpt lat="38.72223320365502" lon="16.34221626379751"><ele>985.8571428571429</ele><time>2026-05-04T10:42:33Z</time></trkpt><trkpt lat="38.72223798225098" lon="16.342134292144546"><ele>987.0</ele><time>2026-05-04T10:42:42Z</time></trkpt><trkpt lat="38.7221914621447" lon="16.34207112772938"><ele>984.4285714285714</ele><time>2026-05-04T10:42:47Z</time></trkpt><trkpt lat="38.72213305872325" lon="16.342023293100983"><ele>981.8571428571429</ele><time>2026-05-04T10:42:53Z</time></trkpt><trkpt lat="38.72207113134864" lon="16.34198055147461"><ele>979.2857142857142</ele><time>2026-05-04T10:42:56Z</time></trkpt><trkpt lat="38.722033134499505" lon="16.34190478073941"><ele>976.7142857142857</ele><time>2026-05-04T10:43:05Z</time></trkpt><trkpt lat="38.72198028481039" lon="16.34185257554187"><ele>974.1428571428571</ele><time>2026-05-04T10:43:11Z</time></trkpt><trkpt lat="38.72198102888565" lon="16.341769112535257"><ele>971.5714285714284</ele><time>2026-05-04T10:43:28Z</time></trkpt><trkpt lat="38.72199561729508" lon="16.341688553964925"><ele>968.9999999999999</ele><time>2026-05-04T10:43:39Z</time></trkpt><trkpt lat="38.72198637830816" lon="16.341605427648265"><ele>968.9999999999999</ele><time>2026-05-04T10:43:45Z</time></trkpt><trkpt lat="38.7219791965003" lon="16.34150871165542"><ele>969.0</ele><time>2026-05-04T10:43:51Z</time></trkpt><trkpt lat="38.7219619026082" lon="16.3414272764648"><ele>968.9999999999999</ele><time>2026-05-04T10:43:58Z</time></trkpt><trkpt lat="38.72194130362831" lon="16.341342836747852"><ele>968.9999999999999</ele><time>2026-05-04T10:44:06Z</time></trkpt><trkpt lat="38.72196018344695" lon="16.341263039249665"><ele>969.0</ele><time>2026-05-04T10:44:11Z</time></trkpt><trkpt lat="38.7219039056504" lon="16.341224127647372"><ele>968.9999999999999</ele><time>2026-05-04T10:44:14Z</time></trkpt><trkpt lat="38.72186550834295" lon="16.341159989618067"><ele>968.9999999999999</ele><time>2026-05-04T10:44:18Z</time></trkpt><trkpt lat="38.721838154572495" lon="16.341081996976385"><ele>967.142857142857</ele><time>2026-05-04T10:44:26Z</time></trkpt><trkpt lat="38.7217738059532" lon="16.34102001452174"><ele>965.2857142857142</ele><time>2026-05-04T10:44:31Z</time></trkpt><trkpt lat="38.72172409242626" lon="16.340944647133686"><ele>963.4285714285714</ele><time>2026-05-04T10:44:37Z</time></trkpt><trkpt lat="38.72169120598012" lon="16.340873878633726"><ele>961.5714285714286</ele><time>2026-05-04T10:44:44Z</time></trkpt><trkpt lat="38.7216831473646" lon="16.340788240341436"><ele>959.7142857142858</ele><time>2026-05-04T10:44:52Z</time></trkpt><trkpt lat="38.7216512469726" lon="16.340715113223144"><ele>957.857142857143</ele><time>2026-05-04T10:44:59Z</time></trkpt><trkpt lat="38.72163980382714" lon="16.34062655863588"><ele>956.0000000000001</ele><time>2026-05-04T10:45:05Z</time></trkpt><trkpt lat="38.72160937508268" lon="16.34054378096271"><ele>955.1428571428573</ele><time>2026-05-04T10:45:13Z</time></trkpt><trkpt lat="38.72158212858248" lon="16.340468349623144"><ele>954.2857142857143</ele><time>2026-05-04T10:45:19Z</time></trkpt><trkpt lat="38.72158862576114" lon="16.34038485803564"><ele>953.4285714285716</ele><time>2026-05-04T10:45:24Z</time></trkpt><trkpt lat="38.72152813150865" lon="16.340333061108826"><ele>952.5714285714287</ele><time>2026-05-04T10:45:28Z</time></trkpt><trkpt lat="38.72154510737946" lon="16.34024762675536"><ele>951.7142857142858</ele><time>2026-05-04T10:45:33Z</time></trkpt><trkpt lat="38.72150810424867" lon="16.340181188083175"><ele>950.8571428571429</ele><time>2026-05-04T10:45:38Z</time></trkpt><trkpt lat="38.721442865947" lon="16.340163398525064"><ele>950.0</ele><time>2026-05-04T10:45:45Z</time></trkpt><trkpt lat="38.721394273699936" lon="16.34010130140144"><ele>950.0</ele><time>2026-05-04T10:46:12Z</time></trkpt><trkpt lat="38.721364073819274" lon="16.340012100176498"><ele>950.0000000000001</ele><time>2026-05-04T10:46:17Z</time></trkpt><trkpt lat="38.721300240255" lon="16.3399918611731"><ele>950.0</ele><time>2026-05-04T10:46:21Z</time></trkpt><trkpt lat="38.72123360787634" lon="16.339961362763756"><ele>950.0</ele><time>2026-05-04T10:46:26Z</time></trkpt><trkpt lat="38.721175377763025" lon="16.33991575110156"><ele>950.0000000000001</ele><time>2026-05-04T10:46:31Z</time></trkpt><trkpt lat="38.72110745474775" lon="16.339875127153938"><ele>950.0</ele><time>2026-05-04T10:46:36Z</time></trkpt><trkpt lat="38.72105644872668" lon="16.3398203465351"><ele>950.0</ele><time>2026-05-04T10:46:41Z</time></trkpt><trkpt lat="38.72098983629247" lon="16.33978221250846"><ele>950.0</ele><time>2026-05-04T10:46:48Z</time></trkpt><trkpt lat="38.72095404721401" lon="16.339698840168115"><ele>950.0000000000001</ele><time>2026-05-04T10:46:58Z</time></trkpt><trkpt lat="38.72092768864135" lon="16.339613596900467"><ele>950.0</ele><time>2026-05-04T10:47:03Z</time></trkpt><trkpt lat="38.72088854153608" lon="16.33953687958346"><ele>950.0</ele><time>2026-05-04T10:47:08Z</time></trkpt><trkpt lat="38.72083989620251" lon="16.33947166061971"><ele>950.0000000000001</ele><time>2026-05-04T10:47:12Z</time></trkpt><trkpt lat="38.720812229802824" lon="16.339389556867253"><ele>950.0</ele><time>2026-05-04T10:47:19Z</time></trkpt><trkpt lat="38.72077381561543" lon="16.339306329752127"><ele>950.0</ele><time>2026-05-04T10:47:25Z</time></trkpt><trkpt lat="38.72074824398482" lon="16.33921936108675"><ele>950.0</ele><time>2026-05-04T10:47:31Z</time></trkpt><trkpt lat="38.72069377925199" lon="16.339147276743578"><ele>950.0000000000001</ele><time>2026-05-04T10:47:37Z</time></trkpt><trkpt lat="38.72067676618268" lon="16.33906745472692"><ele>950.0</ele><time>2026-05-04T10:47:43Z</time></trkpt><trkpt lat="38.72069000471639" lon="16.33898750355173"><ele>950.0</ele><time>2026-05-04T10:47:50Z</time></trkpt><trkpt lat="38.720672048508646" lon="16.3389030989276"><ele>950.0000000000001</ele><time>2026-05-04T10:47:56Z</time></trkpt><trkpt lat="38.72064104867732" lon="16.338820759035556"><ele>950.0</ele><time>2026-05-04T10:48:01Z</time></trkpt><trkpt lat="38.720582439604286" lon="16.338768530994358"><ele>950.0</ele><time>2026-05-04T10:48:06Z</time></trkpt><trkpt lat="38.72054026512323" lon="16.338695425294762"><ele>950.2857142857143</ele><time>2026-05-04T10:48:10Z</time></trkpt><trkpt lat="38.72048852702847" lon="16.338621909963265"><ele>950.5714285714287</ele><time>2026-05-04T10:48:17Z</time></trkpt><trkpt lat="38.72047796325341" lon="16.338537529212495"><ele>950.8571428571429</ele><time>2026-05-04T10:48:23Z</time></trkpt><trkpt lat="38.72046972811029" lon="16.3384553320438"><ele>951.1428571428571</ele><time>2026-05-04T10:48:30Z</time></trkpt><trkpt lat="38.720430933399655" lon="16.33837644121092"><ele>951.4285714285714</ele><time>2026-05-04T10:48:35Z</time></trkpt><trkpt lat="38.72043362717308" lon="16.33829434565683"><ele>951.7142857142858</ele><time>2026-05-04T10:48:41Z</time></trkpt><trkpt lat="38.72039713388437" lon="16.338202154649522"><ele>952.0</ele><time>2026-05-04T10:48:47Z</time></trkpt><trkpt lat="38.72037400516865" lon="16.338122952988325"><ele>952.9999999999999</ele><time>2026-05-04T10:49:09Z</time></trkpt><trkpt lat="38.72035746670181" lon="16.338011139734313"><ele>954.0</ele><time>2026-05-04T10:49:15Z</time></trkpt><trkpt lat="38.720387440793566" lon="16.337922272053383"><ele>955.0</ele><time>2026-05-04T10:49:21Z</time></trkpt><trkpt lat="38.720372662286245" lon="16.337839009663707"><ele>956.0</ele><time>2026-05-04T10:49:27Z</time></trkpt><trkpt lat="38.72039022252632" lon="16.337755766536194"><ele>956.9999999999999</ele><time>2026-05-04T10:49:36Z</time></trkpt><trkpt lat="38.720388246331105" lon="16.337665200977575"><ele>958.0</ele><time>2026-05-04T10:49:42Z</time></trkpt><trkpt lat="38.72041919650103" lon="16.337566715561678"><ele>958.0</ele><time>2026-05-04T10:49:47Z</time></trkpt><trkpt lat="38.7203904963227" lon="16.3374909074786"><ele>958.0</ele><time>2026-05-04T10:49:52Z</time></trkpt><trkpt lat="38.72032085721468" lon="16.337466808191962"><ele>958.0</ele><time>2026-05-04T10:49:56Z</time></trkpt><trkpt lat="38.72025164146683" lon="16.337444802289863"><ele>958.0</ele><time>2026-05-04T10:50:00Z</time></trkpt><trkpt lat="38.72022671995647" lon="16.337364808149772"><ele>958.0</ele><time>2026-05-04T10:50:08Z</time></trkpt><trkpt lat="38.720178474777754" lon="16.337299236458456"><ele>958.0</ele><time>2026-05-04T10:50:15Z</time></trkpt><trkpt lat="38.7201212812449" lon="16.337235250981585"><ele>958.0</ele><time>2026-05-04T10:50:22Z</time></trkpt><trkpt lat="38.720081625930526" lon="16.33716894779274"><ele>958.1428571428571</ele><time>2026-05-04T10:50:28Z</time></trkpt><trkpt lat="38.720025452549635" lon="16.337119412174587"><ele>958.2857142857143</ele><time>2026-05-04T10:50:33Z</time></trkpt><trkpt lat="38.71997470682808" lon="16.33704699183162"><ele>958.4285714285714</ele><time>2026-05-04T10:50:40Z</time></trkpt><trkpt lat="38.719920881955495" lon="16.336992409013583"><ele>958.5714285714286</ele><time>2026-05-04T10:50:46Z</time></trkpt><trkpt lat="38.71987227588911" lon="16.336938116626946"><ele>958.7142857142858</ele><time>2026-05-04T10:50:52Z</time></trkpt><trkpt lat="38.71981425965215" lon="16.33687945768438"><ele>958.8571428571429</ele><time>2026-05-04T10:50:58Z</time></trkpt><trkpt lat="38.71974667485782" lon="16.3368324713512"><ele>959.0</ele><time>2026-05-04T10:51:04Z</time></trkpt><trkpt lat="38.719697008977114" lon="16.336778564666616"><ele>959.0</ele><time>2026-05-04T10:51:10Z</time></trkpt><trkpt lat="38.71963861030572" lon="16.336720058757997"><ele>959.0</ele><time>2026-05-04T10:51:16Z</time></trkpt><trkpt lat="38.71959922836414" lon="16.336639544984568"><ele>959.0</ele><time>2026-05-04T10:51:23Z</time></trkpt><trkpt lat="38.719548885520695" lon="16.336576758170477"><ele>959.0</ele><time>2026-05-04T10:51:28Z</time></trkpt><trkpt lat="38.71951307210748" lon="16.336506853584666"><ele>959.0</ele><time>2026-05-04T10:51:34Z</time></trkpt><trkpt lat="38.719472081558145" lon="16.336442109047102"><ele>959.0</ele><time>2026-05-04T10:51:40Z</time></trkpt><trkpt lat="38.71942511745998" lon="16.336362988737275"><ele>959.0</ele><time>2026-05-04T10:51:46Z</time></trkpt><trkpt lat="38.71938215694264" lon="16.33630343798294"><ele>958.8571428571429</ele><time>2026-05-04T10:51:51Z</time></trkpt><trkpt lat="38.71934345077188" lon="16.33623638587067"><ele>958.7142857142858</ele><time>2026-05-04T10:51:58Z</time></trkpt><trkpt lat="38.71930458863212" lon="16.33614866636893"><ele>958.5714285714286</ele><time>2026-05-04T10:52:05Z</time></trkpt><trkpt lat="38.7192595869708" lon="16.336090501314043"><ele>958.4285714285714</ele><time>2026-05-04T10:52:10Z</time></trkpt><trkpt lat="38.71920251368229" lon="16.336043087192238"><ele>958.2857142857143</ele><time>2026-05-04T10:52:15Z</time></trkpt><trkpt lat="38.719156549265" lon="16.33598685994608"><ele>958.1428571428571</ele><time>2026-05-04T10:52:20Z</time></trkpt><trkpt lat="38.71911882206432" lon="16.335901316543538"><ele>958.0</ele><time>2026-05-04T10:52:27Z</time></trkpt><trkpt lat="38.719060197196114" lon="16.335827696922586"><ele>958.0</ele><time>2026-05-04T10:52:34Z</time></trkpt><trkpt lat="38.7190215250702" lon="16.335762423249577"><ele>958.0</ele><time>2026-05-04T10:52:40Z</time></trkpt><trkpt lat="38.71896591135123" lon="16.335713546332443"><ele>958.0</ele><time>2026-05-04T10:52:45Z</time></trkpt><trkpt lat="38.71891105229426" lon="16.33565021347509"><ele>958.0</ele><time>2026-05-04T10:52:52Z</time></trkpt><trkpt lat="38.71885251441429" lon="16.33559973955866"><ele>958.0</ele><time>2026-05-04T10:52:58Z</time></trkpt><trkpt lat="38.718773469969534" lon="16.335542526197276"><ele>958.0</ele><time>2026-05-04T10:53:27Z</time></trkpt><trkpt lat="38.71870198012046" lon="16.335527643753945"><ele>958.0</ele><time>2026-05-04T10:53:32Z</time></trkpt><trkpt lat="38.71872249649771" lon="16.335445943918025"><ele>957.8571428571429</ele><time>2026-05-04T10:53:41Z</time></trkpt><trkpt lat="38.71866021878012" lon="16.335509881448647"><ele>957.7142857142858</ele><time>2026-05-04T10:53:49Z</time></trkpt><trkpt lat="38.71862459222878" lon="16.335413725549095"><ele>957.5714285714287</ele><time>2026-05-04T10:53:53Z</time></trkpt><trkpt lat="38.71860200312814" lon="16.335326929470025"><ele>957.4285714285714</ele><time>2026-05-04T10:54:01Z</time></trkpt><trkpt lat="38.718569522742236" lon="16.335251165315917"><ele>957.2857142857144</ele><time>2026-05-04T10:54:06Z</time></trkpt><trkpt lat="38.718519538455695" lon="16.335191193270806"><ele>957.1428571428572</ele><time>2026-05-04T10:54:11Z</time></trkpt><trkpt lat="38.71848168504961" lon="16.33512544926626"><ele>957.0</ele><time>2026-05-04T10:54:16Z</time></trkpt><trkpt lat="38.71845104692429" lon="16.335031183482037"><ele>958.7142857142858</ele><time>2026-05-04T10:54:24Z</time></trkpt><trkpt lat="38.71842321419646" lon="16.334949840057135"><ele>960.4285714285716</ele><time>2026-05-04T10:54:28Z</time></trkpt><trkpt lat="38.7183626591628" lon="16.3348910467279"><ele>962.1428571428571</ele><time>2026-05-04T10:54:35Z</time></trkpt><trkpt lat="38.718316662772665" lon="16.334826610528168"><ele>963.8571428571429</ele><time>2026-05-04T10:54:39Z</time></trkpt><trkpt lat="38.71825035558673" lon="16.334780242629076"><ele>965.5714285714286</ele><time>2026-05-04T10:54:44Z</time></trkpt><trkpt lat="38.71821078473354" lon="16.33470709527329"><ele>967.2857142857142</ele><time>2026-05-04T10:54:51Z</time></trkpt><trkpt lat="38.718192925576176" lon="16.33462784325403"><ele>968.9999999999999</ele><time>2026-05-04T10:54:57Z</time></trkpt><trkpt lat="38.71812921709601" lon="16.334592831933012"><ele>968.9999999999999</ele><time>2026-05-04T10:55:00Z</time></trkpt><trkpt lat="38.71808030088091" lon="16.3345347239661"><ele>969.0</ele><time>2026-05-04T10:55:06Z</time></trkpt><trkpt lat="38.71802300807623" lon="16.334481240074243"><ele>968.9999999999999</ele><time>2026-05-04T10:55:11Z</time></trkpt><trkpt lat="38.71797852134888" lon="16.334412789143812"><ele>968.9999999999999</ele><time>2026-05-04T10:55:17Z</time></trkpt><trkpt lat="38.717950300747674" lon="16.334335795998815"><ele>969.0</ele><time>2026-05-04T10:55:22Z</time></trkpt><trkpt lat="38.71794277902203" lon="16.334255120006855"><ele>968.9999999999999</ele><time>2026-05-04T10:55:28Z</time></trkpt><trkpt lat="38.71789364916962" lon="16.33417909806459"><ele>968.9999999999999</ele><time>2026-05-04T10:55:33Z</time></trkpt><trkpt lat="38.71785152392205" lon="16.334104892140296"><ele>968.9999999999999</ele><time>2026-05-04T10:55:39Z</time></trkpt><trkpt lat="38.71780043552746" lon="16.33403761357979"><ele>969.0</ele><time>2026-05-04T10:55:44Z</time></trkpt><trkpt lat="38.71775616976315" lon="16.333979283174852"><ele>968.9999999999999</ele><time>2026-05-04T10:55:50Z</time></trkpt><trkpt lat="38.71770685266869" lon="16.333925601212297"><ele>968.9999999999999</ele><time>2026-05-04T10:55:55Z</time></trkpt><trkpt lat="38.717676720767386" lon="16.333847197327785"><ele>969.0</ele><time>2026-05-04T10:56:00Z</time></trkpt><trkpt lat="38.717642936613196" lon="16.333770647770102"><ele>968.9999999999999</ele><time>2026-05-04T10:56:05Z</time></trkpt><trkpt lat="38.71760362837363" lon="16.33368506766742"><ele>968.9999999999999</ele><time>2026-05-04T10:56:11Z</time></trkpt><trkpt lat="38.71756521429463" lon="16.33360447317018"><ele>969.9999999999999</ele><time>2026-05-04T10:56:17Z</time></trkpt><trkpt lat="38.71752509248456" lon="16.333530722187522"><ele>971.0</ele><time>2026-05-04T10:56:22Z</time></trkpt><trkpt lat="38.7175231225371" lon="16.333443751335526"><ele>971.9999999999999</ele><time>2026-05-04T10:56:27Z</time></trkpt><trkpt lat="38.7174769228916" lon="16.33338406908692"><ele>972.9999999999999</ele><time>2026-05-04T10:56:32Z</time></trkpt><trkpt lat="38.71743190942444" lon="16.333320133840893"><ele>974.0</ele><time>2026-05-04T10:56:37Z</time></trkpt><trkpt lat="38.717383861917085" lon="16.333249979546565"><ele>974.9999999999999</ele><time>2026-05-04T10:56:43Z</time></trkpt><trkpt lat="38.71735276043994" lon="16.33317803845706"><ele>975.9999999999999</ele><time>2026-05-04T10:56:49Z</time></trkpt><trkpt lat="38.71730576556762" lon="16.333108844849193"><ele>976.4285714285713</ele><time>2026-05-04T10:56:53Z</time></trkpt><trkpt lat="38.71727133652362" lon="16.33302882323469"><ele>976.8571428571429</ele><time>2026-05-04T10:56:58Z</time></trkpt><trkpt lat="38.717223439932845" lon="16.332956161765708"><ele>977.2857142857142</ele><time>2026-05-04T10:57:04Z</time></trkpt><trkpt lat="38.71717231643994" lon="16.332908772973656"><ele>977.7142857142857</ele><time>2026-05-04T10:57:09Z</time></trkpt><trkpt lat="38.717134400308616" lon="16.332842710770677"><ele>978.1428571428571</ele><time>2026-05-04T10:57:13Z</time></trkpt><trkpt lat="38.717136812666794" lon="16.332750803803442"><ele>978.5714285714286</ele><time>2026-05-04T10:57:19Z</time></trkpt><trkpt lat="38.71708809497722" lon="16.33267845963848"><ele>979.0</ele><time>2026-05-04T10:57:23Z</time></trkpt><trkpt lat="38.71707345506127" lon="16.332596734345532"><ele>979.0</ele><time>2026-05-04T10:57:29Z</time></trkpt><trkpt lat="38.71706757036733" lon="16.33251149647305"><ele>979.0</ele><time>2026-05-04T10:57:35Z</time></trkpt><trkpt lat="38.71708819506711" lon="16.332419362096395"><ele>979.0</ele><time>2026-05-04T10:57:41Z</time></trkpt><trkpt lat="38.71704688610363" lon="16.33233651574969"><ele>979.0</ele><time>2026-05-04T10:57:46Z</time></trkpt><trkpt lat="38.71704571200059" lon="16.332237958769646"><ele>979.0</ele><time>2026-05-04T10:57:55Z</time></trkpt><trkpt lat="38.71702227606253" lon="16.33214427284611"><ele>979.0</ele><time>2026-05-04T10:58:01Z</time></trkpt><trkpt lat="38.71705221138522" lon="16.332064543824632"><ele>979.0</ele><time>2026-05-04T10:58:05Z</time></trkpt><trkpt lat="38.71701286755096" lon="16.33197573744874"><ele>978.8571428571429</ele><time>2026-05-04T10:58:11Z</time></trkpt><trkpt lat="38.71699702957097" lon="16.3318940358844"><ele>978.7142857142858</ele><time>2026-05-04T10:58:16Z</time></trkpt><trkpt lat="38.7169521436168" lon="16.33181808602324"><ele>978.5714285714287</ele><time>2026-05-04T10:58:21Z</time></trkpt><trkpt lat="38.71692051219392" lon="16.33174782208997"><ele>978.4285714285714</ele><time>2026-05-04T10:58:27Z</time></trkpt><trkpt lat="38.71686176005188" lon="16.331689701852476"><ele>978.2857142857144</ele><time>2026-05-04T10:58:31Z</time></trkpt><trkpt lat="38.71687172409191" lon="16.331608670261765"><ele>978.1428571428572</ele><time>2026-05-04T10:58:35Z</time></trkpt><trkpt lat="38.71683116998342" lon="16.33152658281296"><ele>978.0</ele><time>2026-05-04T10:58:40Z</time></trkpt><trkpt lat="38.71678213866527" lon="16.331447162139554"><ele>977.2857142857143</ele><time>2026-05-04T10:58:45Z</time></trkpt><trkpt lat="38.716759565065374" lon="16.33136916583067"><ele>976.5714285714287</ele><time>2026-05-04T10:58:51Z</time></trkpt><trkpt lat="38.7167229499321" lon="16.331293819757548"><ele>975.8571428571429</ele><time>2026-05-04T10:58:57Z</time></trkpt><trkpt lat="38.71665830230401" lon="16.33125032812398"><ele>975.1428571428571</ele><time>2026-05-04T10:59:00Z</time></trkpt><trkpt lat="38.71664708597693" lon="16.3311580926045"><ele>974.4285714285714</ele><time>2026-05-04T10:59:07Z</time></trkpt><trkpt lat="38.716612666711775" lon="16.331082368982262"><ele>973.7142857142858</ele><time>2026-05-04T10:59:12Z</time></trkpt><trkpt lat="38.71662283638603" lon="16.330997455764876"><ele>973.0</ele><time>2026-05-04T10:59:17Z</time></trkpt><trkpt lat="38.71660881059699" lon="16.330904069286444"><ele>973.0</ele><time>2026-05-04T10:59:22Z</time></trkpt><trkpt lat="38.716604459787014" lon="16.330821758884444"><ele>973.0</ele><time>2026-05-04T10:59:27Z</time></trkpt><trkpt lat="38.7165814374832" lon="16.330739227705767"><ele>973.0</ele><time>2026-05-04T10:59:33Z</time></trkpt><trkpt lat="38.716572364514256" lon="16.330649555436572"><ele>973.0</ele><time>2026-05-04T10:59:41Z</time></trkpt><trkpt lat="38.71653946148995" lon="16.330563352926916"><ele>973.0</ele><time>2026-05-04T10:59:46Z</time></trkpt><trkpt lat="38.71647849499057" lon="16.33050523917898"><ele>973.0</ele><time>2026-05-04T10:59:50Z</time></trkpt><trkpt lat="38.716418814762676" lon="16.330454047261583"><ele>973.0</ele><time>2026-05-04T10:59:54Z</time></trkpt><trkpt lat="38.71637501682811" lon="16.330392827313418"><ele>972.5714285714286</ele><time>2026-05-04T11:00:03Z</time></trkpt><trkpt lat="38.71632650927346" lon="16.330321622590297"><ele>972.1428571428571</ele><time>2026-05-04T11:00:09Z</time></trkpt><trkpt lat="38.71632869032173" lon="16.33022816833463"><ele>971.7142857142858</ele><time>2026-05-04T11:00:17Z</time></trkpt><trkpt lat="38.716266710621134" lon="16.330176759146507"><ele>971.2857142857143</ele><time>2026-05-04T11:00:23Z</time></trkpt><trkpt lat="38.71621683526318" lon="16.3301126703959"><ele>970.8571428571429</ele><time>2026-05-04T11:00:27Z</time></trkpt><trkpt lat="38.71614049766159" lon="16.33007716725057"><ele>970.4285714285716</ele><time>2026-05-04T11:00:33Z</time></trkpt><trkpt lat="38.71607212421685" lon="16.330033498777276"><ele>970.0000000000001</ele><time>2026-05-04T11:00:39Z</time></trkpt><trkpt lat="38.7160211161165" lon="16.32997999753425"><ele>970.0000000000001</ele><time>2026-05-04T11:00:44Z</time></trkpt><trkpt lat="38.7159594375693" lon="16.329953848312687"><ele>970.0</ele><time>2026-05-04T11:00:49Z</time></trkpt><trkpt lat="38.71592013315493" lon="16.329874793515756"><ele>970.0000000000001</ele><time>2026-05-04T11:00:53Z</time></trkpt><trkpt lat="38.71585230837553" lon="16.32984909352634"><ele>970.0000000000001</ele><time>2026-05-04T11:00:57Z</time></trkpt><trkpt lat="38.71578475443036" lon="16.329838447554245"><ele>970.0</ele><time>2026-05-04T11:01:03Z</time></trkpt><trkpt lat="38.71571252227644" lon="16.329834813543858"><ele>970.0000000000001</ele><time>2026-05-04T11:01:10Z</time></trkpt><trkpt lat="38.7156354670414" lon="16.329831717572162"><ele>970.0000000000001</ele><time>2026-05-04T11:01:16Z</time></trkpt><trkpt lat="38.715569523382044" lon="16.32983114225558"><ele>970.0000000000001</ele><time>2026-05-04T11:01:24Z</time></trkpt><trkpt lat="38.71550030086528" lon="16.329834394229337"><ele>970.0</ele><time>2026-05-04T11:01:31Z</time></trkpt><trkpt lat="38.715432916944195" lon="16.32977908395225"><ele>970.0000000000001</ele><time>2026-05-04T11:01:52Z</time></trkpt><trkpt lat="38.715396984747464" lon="16.329868512531394"><ele>970.0000000000001</ele><time>2026-05-04T11:01:59Z</time></trkpt><trkpt lat="38.71542967775598" lon="16.329795393781648"><ele>970.0</ele><time>2026-05-04T11:02:20Z</time></trkpt><trkpt lat="38.715393994035125" lon="16.32970814008538"><ele>970.0000000000001</ele><time>2026-05-04T11:02:26Z</time></trkpt><trkpt lat="38.7153760124327" lon="16.32962986712791"><ele>970.0000000000001</ele><time>2026-05-04T11:02:33Z</time></trkpt><trkpt lat="38.715372704349505" lon="16.32954017820734"><ele>972.2857142857144</ele><time>2026-05-04T11:02:39Z</time></trkpt><trkpt lat="38.71536335695459" lon="16.329460073019142"><ele>974.5714285714287</ele><time>2026-05-04T11:02:45Z</time></trkpt><trkpt lat="38.71536189850322" lon="16.329359631192368"><ele>976.8571428571429</ele><time>2026-05-04T11:02:51Z</time></trkpt><trkpt lat="38.71535240650778" lon="16.32927480238273"><ele>979.1428571428572</ele><time>2026-05-04T11:03:00Z</time></trkpt><trkpt lat="38.71535297928595" lon="16.32918673463316"><ele>981.4285714285716</ele><time>2026-05-04T11:03:05Z</time></trkpt><trkpt lat="38.71531047256015" lon="16.329101705250466"><ele>983.7142857142857</ele><time>2026-05-04T11:03:11Z</time></trkpt><trkpt lat="38.715280828406165" lon="16.329028240014427"><ele>986.0</ele><time>2026-05-04T11:03:16Z</time></trkpt><trkpt lat="38.715249716568984" lon="16.328932747118607"><ele>982.4285714285713</ele><time>2026-05-04T11:03:21Z</time></trkpt><trkpt lat="38.71522558426018" lon="16.328857505029696"><ele>978.8571428571429</ele><time>2026-05-04T11:03:27Z</time></trkpt><trkpt lat="38.7152078254434" lon="16.328771128727332"><ele>975.2857142857142</ele><time>2026-05-04T11:03:32Z</time></trkpt><trkpt lat="38.71520399919037" lon="16.32867679479568"><ele>971.7142857142857</ele><time>2026-05-04T11:03:38Z</time></trkpt><trkpt lat="38.71519014775636" lon="16.328590008744147"><ele>968.1428571428571</ele><time>2026-05-04T11:03:44Z</time></trkpt><trkpt lat="38.71520760965597" lon="16.328498347300236"><ele>964.5714285714286</ele><time>2026-05-04T11:03:50Z</time></trkpt><trkpt lat="38.715163490788974" lon="16.32843527059321"><ele>961.0</ele><time>2026-05-04T11:03:55Z</time></trkpt><trkpt lat="38.71512442852813" lon="16.328367412102097"><ele>961.0</ele><time>2026-05-04T11:04:00Z</time></trkpt><trkpt lat="38.71511467652262" lon="16.328268580744222"><ele>960.9999999999999</ele><time>2026-05-04T11:04:05Z</time></trkpt><trkpt lat="38.71505056769964" lon="16.328223673592568"><ele>961.0</ele><time>2026-05-04T11:04:10Z</time></trkpt><trkpt lat="38.71498937669513" lon="16.328192861865272"><ele>961.0</ele><time>2026-05-04T11:04:16Z</time></trkpt><trkpt lat="38.71492873288158" lon="16.328166533018027"><ele>960.9999999999999</ele><time>2026-05-04T11:04:24Z</time></trkpt><trkpt lat="38.71485637261206" lon="16.32812369414613"><ele>961.0</ele><time>2026-05-04T11:04:32Z</time></trkpt><trkpt lat="38.7148216353002" lon="16.328056142086563"><ele>961.0</ele><time>2026-05-04T11:04:38Z</time></trkpt><trkpt lat="38.7147703110785" lon="16.327990735334698"><ele>960.8571428571428</ele><time>2026-05-04T11:04:43Z</time></trkpt><trkpt lat="38.71470185770141" lon="16.327946897317933"><ele>960.7142857142856</ele><time>2026-05-04T11:04:49Z</time></trkpt><trkpt lat="38.71465062525412" lon="16.327899372817328"><ele>960.5714285714286</ele><time>2026-05-04T11:04:59Z</time></trkpt><trkpt lat="38.71457603750958" lon="16.327873419692786"><ele>960.4285714285713</ele><time>2026-05-04T11:05:02Z</time></trkpt><trkpt lat="38.7145220285961" lon="16.32782701305913"><ele>960.2857142857142</ele><time>2026-05-04T11:05:08Z</time></trkpt><trkpt lat="38.71447760329234" lon="16.327757530028464"><ele>960.1428571428571</ele><time>2026-05-04T11:05:17Z</time></trkpt><trkpt lat="38.714397329518825" lon="16.32773047965772"><ele>960.0</ele><time>2026-05-04T11:05:22Z</time></trkpt><trkpt lat="38.71439482445697" lon="16.32764716496769"><ele>959.2857142857143</ele><time>2026-05-04T11:05:30Z</time></trkpt><trkpt lat="38.71433211955556" lon="16.32762769393756"><ele>958.5714285714284</ele><time>2026-05-04T11:05:34Z</time></trkpt><trkpt lat="38.71430495454229" lon="16.327540543134834"><ele>957.8571428571428</ele><time>2026-05-04T11:05:39Z</time></trkpt><trkpt lat="38.71423389183939" lon="16.327559544795196"><ele>957.1428571428571</ele><time>2026-05-04T11:05:42Z</time></trkpt><trkpt lat="38.714221430227525" lon="16.327468367599646"><ele>956.4285714285713</ele><time>2026-05-04T11:05:49Z</time></trkpt><trkpt lat="38.714173286619264" lon="16.327405602213634"><ele>955.7142857142856</ele><time>2026-05-04T11:05:54Z</time></trkpt><trkpt lat="38.71414431444496" lon="16.32733102616923"><ele>954.9999999999999</ele><time>2026-05-04T11:05:59Z</time></trkpt><trkpt lat="38.7141848001848" lon="16.327266284222233"><ele>954.9999999999999</ele><time>2026-05-04T11:06:05Z</time></trkpt><trkpt lat="38.71412390358372" lon="16.327235459345335"><ele>955.0</ele><time>2026-05-04T11:06:09Z</time></trkpt><trkpt lat="38.714087755253544" lon="16.327151328005755"><ele>954.9999999999999</ele><time>2026-05-04T11:06:15Z</time></trkpt><trkpt lat="38.714077271234416" lon="16.3270662601655"><ele>954.9999999999999</ele><time>2026-05-04T11:06:23Z</time></trkpt><trkpt lat="38.714031870173635" lon="16.327009914614745"><ele>955.0</ele><time>2026-05-04T11:06:27Z</time></trkpt><trkpt lat="38.71397994049598" lon="16.326942343964397"><ele>954.9999999999999</ele><time>2026-05-04T11:06:34Z</time></trkpt><trkpt lat="38.71397708549514" lon="16.326854625359918"><ele>954.9999999999999</ele><time>2026-05-04T11:06:39Z</time></trkpt><trkpt lat="38.71394660819237" lon="16.326767168345214"><ele>955.142857142857</ele><time>2026-05-04T11:06:45Z</time></trkpt><trkpt lat="38.713904539440115" lon="16.326681964387227"><ele>955.2857142857142</ele><time>2026-05-04T11:06:51Z</time></trkpt><trkpt lat="38.71386092680931" lon="16.326597654437546"><ele>955.4285714285714</ele><time>2026-05-04T11:06:57Z</time></trkpt><trkpt lat="38.71380377695202" lon="16.326562571377284"><ele>955.5714285714286</ele><time>2026-05-04T11:07:01Z</time></trkpt><trkpt lat="38.71375223637044" lon="16.326505494163552"><ele>955.7142857142858</ele><time>2026-05-04T11:07:07Z</time></trkpt><trkpt lat="38.71370442258313" lon="16.326448836305637"><ele>955.857142857143</ele><time>2026-05-04T11:07:14Z</time></trkpt><trkpt lat="38.713685073808236" lon="16.326371774906594"><ele>956.0000000000001</ele><time>2026-05-04T11:07:22Z</time></trkpt><trkpt lat="38.71365336392882" lon="16.326289586772983"><ele>956.0000000000001</ele><time>2026-05-04T11:07:29Z</time></trkpt><trkpt lat="38.713630865629305" lon="16.326210902136136"><ele>956.0</ele><time>2026-05-04T11:07:36Z</time></trkpt><trkpt lat="38.71358929772924" lon="16.326140377834907"><ele>956.0000000000001</ele><time>2026-05-04T11:07:42Z</time></trkpt><trkpt lat="38.71353893360429" lon="16.326070871355622"><ele>956.0000000000001</ele><time>2026-05-04T11:07:47Z</time></trkpt><trkpt lat="38.71349694543975" lon="16.325992288364727"><ele>956.0</ele><time>2026-05-04T11:07:53Z</time></trkpt><trkpt lat="38.713445908182685" lon="16.32591901165428"><ele>956.0000000000001</ele><time>2026-05-04T11:08:00Z</time></trkpt><trkpt lat="38.71340946246071" lon="16.325837477317194"><ele>956.0000000000001</ele><time>2026-05-04T11:08:06Z</time></trkpt><trkpt lat="38.71336022806229" lon="16.32577876934755"><ele>956.5714285714287</ele><time>2026-05-04T11:08:12Z</time></trkpt><trkpt lat="38.71331878975658" lon="16.325696347706458"><ele>957.1428571428571</ele><time>2026-05-04T11:08:20Z</time></trkpt><trkpt lat="38.713261817609705" lon="16.3256593801571"><ele>957.7142857142858</ele><time>2026-05-04T11:08:25Z</time></trkpt><trkpt lat="38.713217714615595" lon="16.325587510697915"><ele>958.2857142857143</ele><time>2026-05-04T11:08:31Z</time></trkpt><trkpt lat="38.713204509652876" lon="16.325502664772046"><ele>958.8571428571429</ele><time>2026-05-04T11:08:37Z</time></trkpt><trkpt lat="38.713163225811826" lon="16.325436037349256"><ele>959.4285714285714</ele><time>2026-05-04T11:08:43Z</time></trkpt><trkpt lat="38.71312261212367" lon="16.325353353887262"><ele>960.0</ele><time>2026-05-04T11:08:50Z</time></trkpt><trkpt lat="38.713067072075106" lon="16.325289312494025"><ele>960.0</ele><time>2026-05-04T11:08:58Z</time></trkpt><trkpt lat="38.71302080686135" lon="16.325222212037563"><ele>960.0</ele><time>2026-05-04T11:09:09Z</time></trkpt><trkpt lat="38.71305440633371" lon="16.325151765033755"><ele>960.0</ele><time>2026-05-04T11:09:20Z</time></trkpt><trkpt lat="38.713099374165125" lon="16.325077706364706"><ele>960.0</ele><time>2026-05-04T11:09:27Z</time></trkpt><trkpt lat="38.71314269195005" lon="16.325010277677606"><ele>960.0</ele><time>2026-05-04T11:09:34Z</time></trkpt><trkpt lat="38.71318757057774" lon="16.324945242118762"><ele>960.0</ele><time>2026-05-04T11:09:41Z</time></trkpt><trkpt lat="38.7131776100738" lon="16.324860798007432"><ele>960.0</ele><time>2026-05-04T11:09:46Z</time></trkpt><trkpt lat="38.7131505516432" lon="16.324787731202647"><ele>959.0</ele><time>2026-05-04T11:09:53Z</time></trkpt><trkpt lat="38.713171894730785" lon="16.32470592725784"><ele>958.0</ele><time>2026-05-04T11:10:02Z</time></trkpt><trkpt lat="38.713191636630796" lon="16.324623331806723"><ele>957.0</ele><time>2026-05-04T11:10:08Z</time></trkpt><trkpt lat="38.71323580559583" lon="16.32455534721786"><ele>956.0</ele><time>2026-05-04T11:10:14Z</time></trkpt><trkpt lat="38.71327010821875" lon="16.324480274487918"><ele>955.0</ele><time>2026-05-04T11:10:22Z</time></trkpt><trkpt lat="38.713304961337194" lon="16.324391790577398"><ele>954.0</ele><time>2026-05-04T11:10:29Z</time></trkpt><trkpt lat="38.7133544829426" lon="16.324340081255873"><ele>953.0</ele><time>2026-05-04T11:10:45Z</time></trkpt><trkpt lat="38.71341328747717" lon="16.324298336836378"><ele>953.0</ele><time>2026-05-04T11:10:53Z</time></trkpt><trkpt lat="38.71346611136926" lon="16.324249004534558"><ele>953.0</ele><time>2026-05-04T11:11:01Z</time></trkpt><trkpt lat="38.713531836262604" lon="16.324238777955173"><ele>953.0</ele><time>2026-05-04T11:11:09Z</time></trkpt><trkpt lat="38.71358829575367" lon="16.324180149163787"><ele>953.0</ele><time>2026-05-04T11:11:15Z</time></trkpt><trkpt lat="38.71363098814729" lon="16.324099565192782"><ele>953.0</ele><time>2026-05-04T11:11:21Z</time></trkpt><trkpt lat="38.7136786024274" lon="16.32403522787387"><ele>953.0</ele><time>2026-05-04T11:11:29Z</time></trkpt><trkpt lat="38.71370506158946" lon="16.323961986923305"><ele>953.0</ele><time>2026-05-04T11:11:37Z</time></trkpt><trkpt lat="38.713726068361254" lon="16.32386510327721"><ele>950.7142857142858</ele><time>2026-05-04T11:11:42Z</time></trkpt><trkpt lat="38.71371965120326" lon="16.323771110729567"><ele>948.4285714285713</ele><time>2026-05-04T11:11:49Z</time></trkpt><trkpt lat="38.71368710077828" lon="16.323666973798204"><ele>946.1428571428571</ele><time>2026-05-04T11:11:57Z</time></trkpt><trkpt lat="38.71368729057147" lon="16.32357210234189"><ele>943.8571428571429</ele><time>2026-05-04T11:12:06Z</time></trkpt><trkpt lat="38.71368072737273" lon="16.323489159654027"><ele>941.5714285714287</ele><time>2026-05-04T11:12:14Z</time></trkpt><trkpt lat="38.713750384553336" lon="16.32347790071159"><ele>939.2857142857142</ele><time>2026-05-04T11:12:23Z</time></trkpt><trkpt lat="38.7138030314824" lon="16.3234183085262"><ele>937.0</ele><time>2026-05-04T11:12:31Z</time></trkpt><trkpt lat="38.71388639623806" lon="16.323367204640608"><ele>937.0</ele><time>2026-05-04T11:12:42Z</time></trkpt><trkpt lat="38.71393762762319" lon="16.323311380004817"><ele>937.0</ele><time>2026-05-04T11:12:52Z</time></trkpt><trkpt lat="38.714000175455965" lon="16.323285594063265"><ele>937.0</ele><time>2026-05-04T11:12:58Z</time></trkpt><trkpt lat="38.714080474066535" lon="16.32330691836251"><ele>937.0</ele><time>2026-05-04T11:13:03Z</time></trkpt><trkpt lat="38.714143692869875" lon="16.32334132489769"><ele>937.0</ele><time>2026-05-04T11:13:12Z</time></trkpt><trkpt lat="38.71421002289825" lon="16.323406600432474"><ele>937.0</ele><time>2026-05-04T11:13:19Z</time></trkpt><trkpt lat="38.7142802243582" lon="16.323448219237022"><ele>937.0</ele><time>2026-05-04T11:13:24Z</time></trkpt><trkpt lat="38.71434436758418" lon="16.323480856161595"><ele>932.7142857142857</ele><time>2026-05-04T11:13:30Z</time></trkpt><trkpt lat="38.71440778339002" lon="16.32350014084376"><ele>928.4285714285716</ele><time>2026-05-04T11:13:37Z</time></trkpt><trkpt lat="38.71445003600405" lon="16.323435167117292"><ele>924.1428571428572</ele><time>2026-05-04T11:13:47Z</time></trkpt><trkpt lat="38.71448504083" lon="16.323351528920554"><ele>919.8571428571429</ele><time>2026-05-04T11:13:57Z</time></trkpt><trkpt lat="38.71450309864576" lon="16.323266337561407"><ele>915.5714285714287</ele><time>2026-05-04T11:14:02Z</time></trkpt><trkpt lat="38.71451661505213" lon="16.32318275980917"><ele>911.2857142857144</ele><time>2026-05-04T11:14:08Z</time></trkpt><trkpt lat="38.714501124475746" lon="16.323098694694117"><ele>907.0000000000001</ele><time>2026-05-04T11:14:13Z</time></trkpt><trkpt lat="38.71450174742404" lon="16.32301773153672"><ele>904.7142857142859</ele><time>2026-05-04T11:14:20Z</time></trkpt><trkpt lat="38.71452976787353" lon="16.322940679230012"><ele>902.4285714285714</ele><time>2026-05-04T11:14:27Z</time></trkpt><trkpt lat="38.714506918672846" lon="16.322862722977927"><ele>900.1428571428572</ele><time>2026-05-04T11:14:33Z</time></trkpt><trkpt lat="38.71447163666149" lon="16.322789393361813"><ele>897.8571428571429</ele><time>2026-05-04T11:14:40Z</time></trkpt><trkpt lat="38.71449966920696" lon="16.322694838584216"><ele>895.5714285714287</ele><time>2026-05-04T11:14:49Z</time></trkpt><trkpt lat="38.714489435940706" lon="16.322599917054553"><ele>893.2857142857143</ele><time>2026-05-04T11:15:02Z</time></trkpt><trkpt lat="38.71446670988387" lon="16.32252097016425"><ele>891.0</ele><time>2026-05-04T11:15:10Z</time></trkpt><trkpt lat="38.71441967997311" lon="16.32245985427972"><ele>889.8571428571429</ele><time>2026-05-04T11:15:21Z</time></trkpt><trkpt lat="38.714360960845916" lon="16.32242154283186"><ele>888.7142857142858</ele><time>2026-05-04T11:15:28Z</time></trkpt><trkpt lat="38.71429732694654" lon="16.322408999936627"><ele>887.5714285714287</ele><time>2026-05-04T11:15:35Z</time></trkpt><trkpt lat="38.71423773273243" lon="16.322357877756456"><ele>886.4285714285714</ele><time>2026-05-04T11:15:42Z</time></trkpt><trkpt lat="38.71417495135564" lon="16.322298548909906"><ele>885.2857142857142</ele><time>2026-05-04T11:16:03Z</time></trkpt><trkpt lat="38.714106009860096" lon="16.322217559913906"><ele>884.1428571428572</ele><time>2026-05-04T11:16:21Z</time></trkpt><trkpt lat="38.71403785244862" lon="16.322238738601854"><ele>883.0</ele><time>2026-05-04T11:16:31Z</time></trkpt><trkpt lat="38.714155336547854" lon="16.32225552312324"><ele>882.9999999999999</ele><time>2026-05-04T11:16:38Z</time></trkpt><trkpt lat="38.714059158558776" lon="16.322269156547307"><ele>883.0</ele><time>2026-05-04T11:17:12Z</time></trkpt><trkpt lat="38.71397980953583" lon="16.322231326332588"><ele>883.0</ele><time>2026-05-04T11:17:15Z</time></trkpt><trkpt lat="38.713900767084276" lon="16.322217502827378"><ele>883.0</ele><time>2026-05-04T11:17:21Z</time></trkpt><trkpt lat="38.713847130162" lon="16.32215358891959"><ele>882.9999999999999</ele><time>2026-05-04T11:17:29Z</time></trkpt><trkpt lat="38.713782357261856" lon="16.322123365852253"><ele>883.0</ele><time>2026-05-04T11:17:56Z</time></trkpt><trkpt lat="38.71373704512538" lon="16.322063920230143"><ele>883.0</ele><time>2026-05-04T11:18:01Z</time></trkpt><trkpt lat="38.71368165545215" lon="16.322002306875977"><ele>883.0</ele><time>2026-05-04T11:18:06Z</time></trkpt><trkpt lat="38.71374475560013" lon="16.322005928237076"><ele>883.0</ele><time>2026-05-04T11:18:11Z</time></trkpt><trkpt lat="38.713680016086784" lon="16.32202679366926"><ele>883.0</ele><time>2026-05-04T11:18:17Z</time></trkpt><trkpt lat="38.71374489587831" lon="16.322040098869355"><ele>883.0</ele><time>2026-05-04T11:18:39Z</time></trkpt><trkpt lat="38.713676811567574" lon="16.321988017978075"><ele>883.0</ele><time>2026-05-04T11:18:55Z</time></trkpt><trkpt lat="38.71362377649031" lon="16.321934563383664"><ele>883.0</ele><time>2026-05-04T11:19:01Z</time></trkpt><trkpt lat="38.7136896740769" lon="16.32192053736695"><ele>882.9999999999999</ele><time>2026-05-04T11:19:36Z</time></trkpt><trkpt lat="38.71357104512311" lon="16.321854559704995"><ele>883.0</ele><time>2026-05-04T11:19:45Z</time></trkpt><trkpt lat="38.713517052250786" lon="16.321809991302647"><ele>883.0</ele><time>2026-05-04T11:19:57Z</time></trkpt><trkpt lat="38.713577156818566" lon="16.321766296393395"><ele>883.0</ele><time>2026-05-04T11:20:14Z</time></trkpt><trkpt lat="38.71357254183326" lon="16.321684830341646"><ele>882.9999999999999</ele><time>2026-05-04T11:20:19Z</time></trkpt><trkpt lat="38.71352171022645" lon="16.32162499687586"><ele>883.0</ele><time>2026-05-04T11:20:34Z</time></trkpt><trkpt lat="38.71346019711737" lon="16.321594929605645"><ele>884.8333333333333</ele><time>2026-05-04T11:20:41Z</time></trkpt><trkpt lat="38.713415438379336" lon="16.32152858632886"><ele>886.6666666666666</ele><time>2026-05-04T11:20:45Z</time></trkpt><trkpt lat="38.71335489960118" lon="16.321489340957203"><ele>888.5</ele><time>2026-05-04T11:20:56Z</time></trkpt><trkpt lat="38.713313816413326" lon="16.321421784539123"><ele>890.3333333333333</ele><time>2026-05-04T11:21:02Z</time></trkpt><trkpt lat="38.71324104504598" lon="16.32135233743556"><ele>892.1666666666666</ele><time>2026-05-04T11:21:10Z</time></trkpt><trkpt lat="38.713194134598986" lon="16.321270624841723"><ele>894.0</ele><time>2026-05-04T11:21:19Z</time></trkpt><trkpt lat="38.713140994342204" lon="16.321196576208806"><ele>887.5</ele><time>2026-05-04T11:21:26Z</time></trkpt><trkpt lat="38.71309494169178" lon="16.32111600093629"><ele>881.0</ele><time>2026-05-04T11:21:34Z</time></trkpt><trkpt lat="38.713052920403136" lon="16.32104608415987"><ele>874.5</ele><time>2026-05-04T11:21:41Z</time></trkpt><trkpt lat="38.713263740530714" lon="16.32107691082106"><ele>868.0</ele><time>2026-05-04T11:21:48Z</time></trkpt><trkpt lat="38.71310754331181" lon="16.321076660489133"><ele>868.0</ele><time>2026-05-04T11:21:50Z</time></trkpt><trkpt lat="38.71314169309536" lon="16.320985018342874"><ele>868.0</ele><time>2026-05-04T11:21:52Z</time></trkpt><trkpt lat="38.71322685239023" lon="16.320886186146108"><ele>868.0</ele><time>2026-05-04T11:21:58Z</time></trkpt><trkpt lat="38.71311302822605" lon="16.320850008254"><ele>868.0</ele><time>2026-05-04T11:21:59Z</time></trkpt><trkpt lat="38.71303139086859" lon="16.32086613038615"><ele>868.0</ele><time>2026-05-04T11:22:00Z</time></trkpt><trkpt lat="38.71305144356862" lon="16.320775664484582"><ele>867.9999999999999</ele><time>2026-05-04T11:22:01Z</time></trkpt><trkpt lat="38.71300626034767" lon="16.320718569413955"><ele>868.0</ele><time>2026-05-04T11:22:07Z</time></trkpt><trkpt lat="38.712984517700114" lon="16.320639400280832"><ele>868.0</ele><time>2026-05-04T11:22:14Z</time></trkpt><trkpt lat="38.712918010738" lon="16.320621728369858"><ele>868.0</ele><time>2026-05-04T11:22:15Z</time></trkpt><trkpt lat="38.71280041339009" lon="16.32057686776957"><ele>867.9999999999999</ele><time>2026-05-04T11:22:19Z</time></trkpt><trkpt lat="38.712829224498776" lon="16.320488870396474"><ele>868.0</ele><time>2026-05-04T11:22:44Z</time></trkpt><trkpt lat="38.71276604984889" lon="16.320483083875512"><ele>866.1666666666666</ele><time>2026-05-04T11:22:58Z</time></trkpt><trkpt lat="38.712671269667624" lon="16.320426135020817"><ele>864.3333333333333</ele><time>2026-05-04T11:23:04Z</time></trkpt><trkpt lat="38.7126361931085" lon="16.32034502532878"><ele>862.5</ele><time>2026-05-04T11:23:23Z</time></trkpt><trkpt lat="38.712647648498034" lon="16.320434170813442"><ele>860.6666666666667</ele><time>2026-05-04T11:23:48Z</time></trkpt><trkpt lat="38.7127220083423" lon="16.32041661553685"><ele>858.8333333333334</ele><time>2026-05-04T11:24:26Z</time></trkpt><trkpt lat="38.71267113657229" lon="16.320342779451423"><ele>857.0</ele><time>2026-05-04T11:24:50Z</time></trkpt><trkpt lat="38.71261523417735" lon="16.320295039317283"><ele>857.0</ele><time>2026-05-04T11:24:53Z</time></trkpt><trkpt lat="38.71261257949678" lon="16.320212808239678"><ele>857.0</ele><time>2026-05-04T11:25:02Z</time></trkpt><trkpt lat="38.712553941594635" lon="16.320166017032122"><ele>857.0</ele><time>2026-05-04T11:25:07Z</time></trkpt><trkpt lat="38.71247979619462" lon="16.320118042362395"><ele>857.0</ele><time>2026-05-04T11:25:14Z</time></trkpt><trkpt lat="38.7124222603575" lon="16.3200671508886"><ele>857.0</ele><time>2026-05-04T11:25:19Z</time></trkpt><trkpt lat="38.7123793829469" lon="16.319972944256197"><ele>857.0</ele><time>2026-05-04T11:25:26Z</time></trkpt><trkpt lat="38.712361645445895" lon="16.319894478512648"><ele>857.0</ele><time>2026-05-04T11:25:31Z</time></trkpt><trkpt lat="38.712321274836704" lon="16.319825033936045"><ele>857.0</ele><time>2026-05-04T11:25:42Z</time></trkpt><trkpt lat="38.71227958988798" lon="16.31976374199265"><ele>857.0</ele><time>2026-05-04T11:25:50Z</time></trkpt><trkpt lat="38.71223811954874" lon="16.31968981193722"><ele>857.0</ele><time>2026-05-04T11:25:55Z</time></trkpt><trkpt lat="38.71220327657477" lon="16.31961572455872"><ele>857.0</ele><time>2026-05-04T11:26:02Z</time></trkpt><trkpt lat="38.71216422677504" lon="16.31955237491537"><ele>857.0</ele><time>2026-05-04T11:26:10Z</time></trkpt><trkpt lat="38.71217599879733" lon="16.31946854159368"><ele>857.0</ele><time>2026-05-04T11:26:17Z</time></trkpt><trkpt lat="38.71211266789237" lon="16.319434236040266"><ele>857.0</ele><time>2026-05-04T11:26:21Z</time></trkpt><trkpt lat="38.712142123230855" lon="16.319360419613542"><ele>855.8571428571429</ele><time>2026-05-04T11:26:34Z</time></trkpt><trkpt lat="38.71209312096114" lon="16.31927847837369"><ele>854.7142857142857</ele><time>2026-05-04T11:26:39.999Z</time></trkpt><trkpt lat="38.71205615078244" lon="16.31919583548002"><ele>853.5714285714287</ele><time>2026-05-04T11:26:55Z</time></trkpt><trkpt lat="38.71200043267669" lon="16.319153578629553"><ele>852.4285714285714</ele><time>2026-05-04T11:27:01Z</time></trkpt><trkpt lat="38.71195291269403" lon="16.319092852903694"><ele>851.2857142857143</ele><time>2026-05-04T11:27:05Z</time></trkpt><trkpt lat="38.7118982894325" lon="16.319048437877054"><ele>850.1428571428572</ele><time>2026-05-04T11:27:18Z</time></trkpt><trkpt lat="38.711879430584204" lon="16.31895442571814"><ele>849.0</ele><time>2026-05-04T11:27:26Z</time></trkpt><trkpt lat="38.711808520792026" lon="16.318892798955694"><ele>846.1428571428572</ele><time>2026-05-04T11:27:33Z</time></trkpt><trkpt lat="38.71181602258072" lon="16.318808478243696"><ele>843.2857142857143</ele><time>2026-05-04T11:27:48Z</time></trkpt><trkpt lat="38.71180061728847" lon="16.31872905928468"><ele>840.4285714285714</ele><time>2026-05-04T11:27:55Z</time></trkpt><trkpt lat="38.71178577361165" lon="16.31864450576387"><ele>837.5714285714287</ele><time>2026-05-04T11:28:02Z</time></trkpt><trkpt lat="38.71173472496781" lon="16.31858742661703"><ele>834.7142857142857</ele><time>2026-05-04T11:28:06Z</time></trkpt><trkpt lat="38.71164527244192" lon="16.31850685463788"><ele>831.8571428571429</ele><time>2026-05-04T11:28:13Z</time></trkpt><trkpt lat="38.711587996190566" lon="16.318468778610615"><ele>829.0</ele><time>2026-05-04T11:28:17Z</time></trkpt><trkpt lat="38.71154734977179" lon="16.31839234792975"><ele>829.0</ele><time>2026-05-04T11:28:21Z</time></trkpt><trkpt lat="38.711608864134256" lon="16.3183527000918"><ele>829.0</ele><time>2026-05-04T11:28:27Z</time></trkpt><trkpt lat="38.711592474983206" lon="16.318266442317665"><ele>829.0</ele><time>2026-05-04T11:28:32Z</time></trkpt><trkpt lat="38.71154981002242" lon="16.3181942114393"><ele>829.0</ele><time>2026-05-04T11:28:39Z</time></trkpt><trkpt lat="38.71154769268271" lon="16.31810122243883"><ele>829.0</ele><time>2026-05-04T11:28:47Z</time></trkpt><trkpt lat="38.711569253457654" lon="16.31801398230456"><ele>829.0</ele><time>2026-05-04T11:28:55Z</time></trkpt><trkpt lat="38.71158556299627" lon="16.31793022595674"><ele>829.0</ele><time>2026-05-04T11:29:03Z</time></trkpt><trkpt lat="38.71165128319017" lon="16.3178975931192"><ele>828.9999999999999</ele><time>2026-05-04T11:29:13Z</time></trkpt><trkpt lat="38.711734757802326" lon="16.31793432588951"><ele>829.0</ele><time>2026-05-04T11:29:21Z</time></trkpt><trkpt lat="38.71178990529742" lon="16.317979045919994"><ele>829.0</ele><time>2026-05-04T11:29:26Z</time></trkpt><trkpt lat="38.71180378900959" lon="16.31806045398082"><ele>829.0</ele><time>2026-05-04T11:29:31Z</time></trkpt><trkpt lat="38.71186764417406" lon="16.3181335059428"><ele>828.9999999999999</ele><time>2026-05-04T11:29:36Z</time></trkpt><trkpt lat="38.71191772309666" lon="16.31820379043664"><ele>829.0</ele><time>2026-05-04T11:29:44Z</time></trkpt><trkpt lat="38.7119949982946" lon="16.318216744841298"><ele>825.9999999999999</ele><time>2026-05-04T11:29:48Z</time></trkpt><trkpt lat="38.712080300031964" lon="16.318275514429374"><ele>823.0</ele><time>2026-05-04T11:29:53Z</time></trkpt><trkpt lat="38.71215119439795" lon="16.318317332615823"><ele>820.0</ele><time>2026-05-04T11:30:00Z</time></trkpt><trkpt lat="38.71219696229877" lon="16.31837289409035"><ele>817.0</ele><time>2026-05-04T11:30:11Z</time></trkpt><trkpt lat="38.71227081394902" lon="16.31832858337259"><ele>813.9999999999999</ele><time>2026-05-04T11:30:14Z</time></trkpt><trkpt lat="38.71232776690973" lon="16.318378949725208"><ele>811.0</ele><time>2026-05-04T11:30:22Z</time></trkpt><trkpt lat="38.71236607629758" lon="16.318461892927385"><ele>811.0</ele><time>2026-05-04T11:30:26Z</time></trkpt><trkpt lat="38.71243879215875" lon="16.318480850410477"><ele>811.0</ele><time>2026-05-04T11:30:31Z</time></trkpt><trkpt lat="38.71250980740968" lon="16.31847818085567"><ele>811.0</ele><time>2026-05-04T11:30:37Z</time></trkpt><trkpt lat="38.71256833171825" lon="16.31851803963928"><ele>811.0</ele><time>2026-05-04T11:30:40Z</time></trkpt><trkpt lat="38.71263351628002" lon="16.318531047885088"><ele>811.0</ele><time>2026-05-04T11:30:50Z</time></trkpt><trkpt lat="38.71270333379398" lon="16.318565561788418"><ele>811.0</ele><time>2026-05-04T11:30:57Z</time></trkpt><trkpt lat="38.7127717562904" lon="16.318603142998022"><ele>811.0</ele><time>2026-05-04T11:31:03Z</time></trkpt><trkpt lat="38.71283683753723" lon="16.318619466474384"><ele>811.4285714285714</ele><time>2026-05-04T11:31:09Z</time></trkpt><trkpt lat="38.712889443883086" lon="16.318690233660167"><ele>811.8571428571429</ele><time>2026-05-04T11:31:14Z</time></trkpt><trkpt lat="38.71295556899731" lon="16.318729701188087"><ele>812.2857142857143</ele><time>2026-05-04T11:31:23Z</time></trkpt><trkpt lat="38.71300976669285" lon="16.318789453492627"><ele>812.7142857142858</ele><time>2026-05-04T11:31:27Z</time></trkpt><trkpt lat="38.713044923474726" lon="16.318881023683616"><ele>813.1428571428571</ele><time>2026-05-04T11:31:34Z</time></trkpt><trkpt lat="38.71310706414261" lon="16.318952491598562"><ele>813.5714285714287</ele><time>2026-05-04T11:31:40Z</time></trkpt><trkpt lat="38.7131698771717" lon="16.31896820649399"><ele>814.0</ele><time>2026-05-04T11:31:44Z</time></trkpt><trkpt lat="38.713235782819" lon="16.31898277229781"><ele>814.0000000000001</ele><time>2026-05-04T11:31:50Z</time></trkpt><trkpt lat="38.71325662326289" lon="16.319061798964555"><ele>814.0</ele><time>2026-05-04T11:32:00Z</time></trkpt><trkpt lat="38.71333032363554" lon="16.319051863543564"><ele>814.0</ele><time>2026-05-04T11:32:05Z</time></trkpt><trkpt lat="38.71331131341274" lon="16.318963491728038"><ele>814.0</ele><time>2026-05-04T11:32:15Z</time></trkpt><trkpt lat="38.713350363264006" lon="16.31889493975428"><ele>814.0</ele><time>2026-05-04T11:32:34Z</time></trkpt><trkpt lat="38.71335318130457" lon="16.318810812030232"><ele>814.0000000000001</ele><time>2026-05-04T11:32:49Z</time></trkpt><trkpt lat="38.71340673792432" lon="16.318742870613015"><ele>814.0</ele><time>2026-05-04T11:33:06Z</time></trkpt><trkpt lat="38.713422923527226" lon="16.3186492688645"><ele>811.2857142857143</ele><time>2026-05-04T11:33:14Z</time></trkpt><trkpt lat="38.71345895166468" lon="16.31858132248939"><ele>808.5714285714286</ele><time>2026-05-04T11:33:20Z</time></trkpt><trkpt lat="38.71350989999843" lon="16.31850954343344"><ele>805.8571428571429</ele><time>2026-05-04T11:33:24Z</time></trkpt><trkpt lat="38.71353197813296" lon="16.318413452817463"><ele>803.1428571428571</ele><time>2026-05-04T11:33:34Z</time></trkpt><trkpt lat="38.71358906944087" lon="16.318363983584238"><ele>800.4285714285714</ele><time>2026-05-04T11:33:41Z</time></trkpt><trkpt lat="38.71362504191813" lon="16.318294401059685"><ele>797.7142857142858</ele><time>2026-05-04T11:33:48Z</time></trkpt><trkpt lat="38.71365130537047" lon="16.318212995877182"><ele>795.0</ele><time>2026-05-04T11:33:54Z</time></trkpt><trkpt lat="38.71368954209532" lon="16.31813678729568"><ele>793.0</ele><time>2026-05-04T11:34:04Z</time></trkpt><trkpt lat="38.71373142974401" lon="16.31807102975238"><ele>791.0</ele><time>2026-05-04T11:34:16Z</time></trkpt><trkpt lat="38.713690496556076" lon="16.317973996495194"><ele>789.0</ele><time>2026-05-04T11:34:33Z</time></trkpt><trkpt lat="38.713762480933035" lon="16.31794740878709"><ele>787.0</ele><time>2026-05-04T11:36:43Z</time></trkpt><trkpt lat="38.71378155997817" lon="16.318029507788577"><ele>785.0</ele><time>2026-05-04T11:37:25Z</time></trkpt><trkpt lat="38.713840325803496" lon="16.317981219155765"><ele>783.0</ele><time>2026-05-04T11:37:37Z</time></trkpt><trkpt lat="38.71378106264583" lon="16.31800890865461"><ele>781.0</ele><time>2026-05-04T11:37:50Z</time></trkpt><trkpt lat="38.71378293645333" lon="16.318101255879064"><ele>779.0</ele><time>2026-05-04T11:37:57Z</time></trkpt><trkpt lat="38.71382333242292" lon="16.318023238886497"><ele>777.0</ele><time>2026-05-04T11:38:13Z</time></trkpt><trkpt lat="38.71387159155841" lon="16.317966767722712"><ele>775.0</ele><time>2026-05-04T11:38:21Z</time></trkpt><trkpt lat="38.71392965062633" lon="16.317934915568113"><ele>773.0</ele><time>2026-05-04T11:38:27Z</time></trkpt><trkpt lat="38.71397543819277" lon="16.317879054859166"><ele>771.0</ele><time>2026-05-04T11:38:33Z</time></trkpt><trkpt lat="38.71401793900755" lon="16.31779667952595"><ele>769.0</ele><time>2026-05-04T11:38:42Z</time></trkpt><trkpt lat="38.71408935419592" lon="16.317750931645797"><ele>767.0</ele><time>2026-05-04T11:38:50Z</time></trkpt><trkpt lat="38.71414798938256" lon="16.31771183143298"><ele>767.0</ele><time>2026-05-04T11:38:55Z</time></trkpt><trkpt lat="38.71419447960832" lon="16.317649290630655"><ele>767.0</ele><time>2026-05-04T11:39:02Z</time></trkpt><trkpt lat="38.71422704644117" lon="16.317577315416965"><ele>767.0</ele><time>2026-05-04T11:39:08Z</time></trkpt><trkpt lat="38.71423783261454" lon="16.317495169023505"><ele>767.0</ele><time>2026-05-04T11:39:18Z</time></trkpt><trkpt lat="38.714248986434846" lon="16.317415692918487"><ele>767.0</ele><time>2026-05-04T11:39:25Z</time></trkpt><trkpt lat="38.714267688601126" lon="16.317333073266322"><ele>767.0</ele><time>2026-05-04T11:39:37Z</time></trkpt><trkpt lat="38.71431284026948" lon="16.31726789274903"><ele>767.0</ele><time>2026-05-04T11:39:46Z</time></trkpt><trkpt lat="38.71436455673741" lon="16.31720596305998"><ele>764.1428571428571</ele><time>2026-05-04T11:39:56Z</time></trkpt><trkpt lat="38.71437892594532" lon="16.317125231287765"><ele>761.2857142857143</ele><time>2026-05-04T11:40:08Z</time></trkpt><trkpt lat="38.71434694980449" lon="16.317048407040453"><ele>758.4285714285713</ele><time>2026-05-04T11:40:16Z</time></trkpt><trkpt lat="38.714326877246705" lon="16.31695171627765"><ele>755.5714285714286</ele><time>2026-05-04T11:40:30Z</time></trkpt><trkpt lat="38.714390668886665" lon="16.316895110240807"><ele>752.7142857142857</ele><time>2026-05-04T11:40:35Z</time></trkpt><trkpt lat="38.71443669764943" lon="16.316825630492595"><ele>749.8571428571428</ele><time>2026-05-04T11:40:43Z</time></trkpt><trkpt lat="38.71442802806338" lon="16.3167415704423"><ele>747.0</ele><time>2026-05-04T11:40:52Z</time></trkpt><trkpt lat="38.71440096852574" lon="16.316663436771957"><ele>745.5</ele><time>2026-05-04T11:41:01Z</time></trkpt><trkpt lat="38.714474896399885" lon="16.316635752024997"><ele>744.0</ele><time>2026-05-04T11:41:05Z</time></trkpt><trkpt lat="38.714526198618714" lon="16.31657175884504"><ele>742.5</ele><time>2026-05-04T11:41:09Z</time></trkpt><trkpt lat="38.71459219030596" lon="16.316485935247847"><ele>741.0</ele><time>2026-05-04T11:41:14Z</time></trkpt><trkpt lat="38.71456430643638" lon="16.31641302464446"><ele>739.5</ele><time>2026-05-04T11:41:18Z</time></trkpt><trkpt lat="38.7145921943959" lon="16.316319581039938"><ele>738.0</ele><time>2026-05-04T11:41:25Z</time></trkpt><trkpt lat="38.71463267966982" lon="16.316231009757324"><ele>735.4285714285714</ele><time>2026-05-04T11:41:41Z</time></trkpt><trkpt lat="38.7146791911918" lon="16.316166367573672"><ele>732.8571428571429</ele><time>2026-05-04T11:41:49Z</time></trkpt><trkpt lat="38.71472288811954" lon="16.316066518358458"><ele>730.2857142857142</ele><time>2026-05-04T11:41:55Z</time></trkpt><trkpt lat="38.71468366338194" lon="16.31600033987541"><ele>727.7142857142858</ele><time>2026-05-04T11:41:59Z</time></trkpt><trkpt lat="38.71466354472308" lon="16.315914551078727"><ele>725.1428571428572</ele><time>2026-05-04T11:42:04Z</time></trkpt><trkpt lat="38.714617618489385" lon="16.315839276323114"><ele>722.5714285714286</ele><time>2026-05-04T11:42:09Z</time></trkpt><trkpt lat="38.714576872809424" lon="16.31577162427693"><ele>720.0</ele><time>2026-05-04T11:42:13Z</time></trkpt><trkpt lat="38.71451830742696" lon="16.31571677052501"><ele>720.0</ele><time>2026-05-04T11:42:19Z</time></trkpt><trkpt lat="38.71444650384751" lon="16.315718444799206"><ele>720.0</ele><time>2026-05-04T11:42:30Z</time></trkpt><trkpt lat="38.71438147096724" lon="16.315689608927578"><ele>720.0</ele><time>2026-05-04T11:42:36Z</time></trkpt><trkpt lat="38.7143219605108" lon="16.315631916966332"><ele>720.0</ele><time>2026-05-04T11:42:43Z</time></trkpt><trkpt lat="38.71428031733422" lon="16.315565051946987"><ele>720.0</ele><time>2026-05-04T11:42:47Z</time></trkpt><trkpt lat="38.714279226747905" lon="16.31547784271815"><ele>720.0</ele><time>2026-05-04T11:42:57Z</time></trkpt><trkpt lat="38.714270281323365" lon="16.315394608502928"><ele>720.0</ele><time>2026-05-04T11:43:04Z</time></trkpt><trkpt lat="38.71423390670202" lon="16.315323109811178"><ele>719.0</ele><time>2026-05-04T11:43:09Z</time></trkpt><trkpt lat="38.7142124798672" lon="16.315235295504706"><ele>718.0</ele><time>2026-05-04T11:43:15Z</time></trkpt><trkpt lat="38.71422425820638" lon="16.315146080897318"><ele>717.0</ele><time>2026-05-04T11:43:22Z</time></trkpt><trkpt lat="38.71420052917375" lon="16.315061867670654"><ele>716.0</ele><time>2026-05-04T11:43:27Z</time></trkpt><trkpt lat="38.71417831867142" lon="16.314965854202075"><ele>715.0</ele><time>2026-05-04T11:43:33Z</time></trkpt><trkpt lat="38.714123788536874" lon="16.314887053558667"><ele>714.0</ele><time>2026-05-04T11:43:40Z</time></trkpt><trkpt lat="38.71413492911839" lon="16.31479203024377"><ele>713.0</ele><time>2026-05-04T11:43:46Z</time></trkpt><trkpt lat="38.7141053622282" lon="16.31470446052593"><ele>711.1666666666666</ele><time>2026-05-04T11:43:54Z</time></trkpt><trkpt lat="38.71404721147478" lon="16.314644149216488"><ele>709.3333333333333</ele><time>2026-05-04T11:43:57Z</time></trkpt><trkpt lat="38.71405694326272" lon="16.31454090296199"><ele>707.5</ele><time>2026-05-04T11:44:04Z</time></trkpt><trkpt lat="38.71405806865562" lon="16.3144525851789"><ele>705.6666666666666</ele><time>2026-05-04T11:44:10Z</time></trkpt><trkpt lat="38.71404526166502" lon="16.3143500430853"><ele>703.8333333333334</ele><time>2026-05-04T11:44:16Z</time></trkpt><trkpt lat="38.71410793644803" lon="16.314390962929544"><ele>702.0</ele><time>2026-05-04T11:44:32Z</time></trkpt><trkpt lat="38.714161708006785" lon="16.314462120005047"><ele>702.0000000000001</ele><time>2026-05-04T11:44:39Z</time></trkpt><trkpt lat="38.71417333934804" lon="16.314543632521442"><ele>702.0</ele><time>2026-05-04T11:44:48Z</time></trkpt><trkpt lat="38.714217117723024" lon="16.314612164624734"><ele>702.0</ele><time>2026-05-04T11:44:51Z</time></trkpt><trkpt lat="38.71427634820263" lon="16.314648336485504"><ele>702.0</ele><time>2026-05-04T11:44:58Z</time></trkpt><trkpt lat="38.714333398316825" lon="16.314726772153335"><ele>702.0</ele><time>2026-05-04T11:45:03Z</time></trkpt><trkpt lat="38.71439561450672" lon="16.314776946983216"><ele>702.0000000000001</ele><time>2026-05-04T11:45:08Z</time></trkpt><trkpt lat="38.71442308227522" lon="16.314854569545457"><ele>702.0</ele><time>2026-05-04T11:45:22Z</time></trkpt><trkpt lat="38.7144922484035" lon="16.314852717652325"><ele>702.5</ele><time>2026-05-04T11:45:43Z</time></trkpt><trkpt lat="38.71456616933417" lon="16.314883008554062"><ele>703.0</ele><time>2026-05-04T11:45:53Z</time></trkpt><trkpt lat="38.71462457504042" lon="16.314948507314057"><ele>703.5</ele><time>2026-05-04T11:46:02Z</time></trkpt><trkpt lat="38.7146883613755" lon="16.314946485284416"><ele>704.0</ele><time>2026-05-04T11:46:04Z</time></trkpt><trkpt lat="38.714773633775536" lon="16.314907273540438"><ele>704.5</ele><time>2026-05-04T11:46:10Z</time></trkpt><trkpt lat="38.71483863243757" lon="16.314934126015782"><ele>705.0</ele><time>2026-05-04T11:46:14Z</time></trkpt><trkpt lat="38.714944866452676" lon="16.314908863705217"><ele>705.0</ele><time>2026-05-04T11:46:33Z</time></trkpt><trkpt lat="38.71499816561559" lon="16.31495587203896"><ele>705.0</ele><time>2026-05-04T11:46:44Z</time></trkpt><trkpt lat="38.715114150386825" lon="16.31496794527836"><ele>705.0</ele><time>2026-05-04T11:46:59Z</time></trkpt><trkpt lat="38.71507116716083" lon="16.3148979980228"><ele>705.0</ele><time>2026-05-04T11:47:03Z</time></trkpt><trkpt lat="38.71518628215069" lon="16.314777558650892"><ele>705.0</ele><time>2026-05-04T11:47:22Z</time></trkpt><trkpt lat="38.715076373029035" lon="16.314702112175887"><ele>705.0</ele><time>2026-05-04T11:47:27Z</time></trkpt><trkpt lat="38.7150980551002" lon="16.314783791940382"><ele>705.0</ele><time>2026-05-04T11:47:33Z</time></trkpt><trkpt lat="38.71516881475805" lon="16.314693674955908"><ele>705.0</ele><time>2026-05-04T11:47:49Z</time></trkpt><trkpt lat="38.71516481342866" lon="16.314794812377468"><ele>705.0</ele><time>2026-05-04T11:47:57Z</time></trkpt><trkpt lat="38.71521534675548" lon="16.31486766924124"><ele>705.0</ele><time>2026-05-04T11:48:06Z</time></trkpt><trkpt lat="38.715173794994435" lon="16.314797675474605"><ele>705.0</ele><time>2026-05-04T11:48:14Z</time></trkpt><trkpt lat="38.71525083409821" lon="16.314806063094114"><ele>704.2857142857142</ele><time>2026-05-04T11:48:21Z</time></trkpt><trkpt lat="38.715308938792354" lon="16.314757447480073"><ele>703.5714285714286</ele><time>2026-05-04T11:48:32Z</time></trkpt><trkpt lat="38.715366480428976" lon="16.31466608949039"><ele>702.8571428571429</ele><time>2026-05-04T11:48:44Z</time></trkpt><trkpt lat="38.715347855406094" lon="16.314573832813384"><ele>702.1428571428571</ele><time>2026-05-04T11:49:00Z</time></trkpt><trkpt lat="38.71536871655501" lon="16.314489926204292"><ele>701.4285714285714</ele><time>2026-05-04T11:49:09Z</time></trkpt><trkpt lat="38.715413390049136" lon="16.314555067571725"><ele>700.7142857142857</ele><time>2026-05-04T11:49:52Z</time></trkpt><trkpt lat="38.715466290938416" lon="16.314607461109873"><ele>700.0</ele><time>2026-05-04T11:49:57Z</time></trkpt><trkpt lat="38.71551142069831" lon="16.31467201979615"><ele>700.0</ele><time>2026-05-04T11:50:01Z</time></trkpt><trkpt lat="38.7155430243627" lon="16.31474600301598"><ele>700.0</ele><time>2026-05-04T11:50:09Z</time></trkpt><trkpt lat="38.715552361622926" lon="16.314832732543866"><ele>700.0</ele><time>2026-05-04T11:50:14Z</time></trkpt><trkpt lat="38.71562205800859" lon="16.31483006943387"><ele>700.0</ele><time>2026-05-04T11:50:20Z</time></trkpt><trkpt lat="38.715696918427575" lon="16.314886858533804"><ele>700.0</ele><time>2026-05-04T11:50:27Z</time></trkpt><trkpt lat="38.71578144355805" lon="16.31493780470163"><ele>700.0</ele><time>2026-05-04T11:50:30Z</time></trkpt><trkpt lat="38.715848023993495" lon="16.314959653840436"><ele>700.0</ele><time>2026-05-04T11:50:33Z</time></trkpt><trkpt lat="38.715903164295064" lon="16.315009139765525"><ele>700.0</ele><time>2026-05-04T11:50:40Z</time></trkpt><trkpt lat="38.71596781672672" lon="16.31502409925931"><ele>700.0</ele><time>2026-05-04T11:50:46Z</time></trkpt><trkpt lat="38.71604794979803" lon="16.31501170939393"><ele>700.0</ele><time>2026-05-04T11:50:51Z</time></trkpt><trkpt lat="38.716135098752225" lon="16.315002654485422"><ele>700.0</ele><time>2026-05-04T11:50:54Z</time></trkpt><trkpt lat="38.71620430012326" lon="16.315000591813213"><ele>700.0</ele><time>2026-05-04T11:50:58Z</time></trkpt><trkpt lat="38.716274897591354" lon="16.315004408136694"><ele>700.0</ele><time>2026-05-04T11:51:05Z</time></trkpt><trkpt lat="38.716344966298735" lon="16.315048064925364"><ele>699.1428571428571</ele><time>2026-05-04T11:51:10Z</time></trkpt><trkpt lat="38.716402166029845" lon="16.315093116774836"><ele>698.2857142857142</ele><time>2026-05-04T11:51:15Z</time></trkpt><trkpt lat="38.71645360502465" lon="16.315145116724263"><ele>697.4285714285714</ele><time>2026-05-04T11:51:22Z</time></trkpt><trkpt lat="38.716525880802784" lon="16.315182144578788"><ele>696.5714285714286</ele><time>2026-05-04T11:51:28Z</time></trkpt><trkpt lat="38.7165928455015" lon="16.31518552733479"><ele>695.7142857142857</ele><time>2026-05-04T11:51:32Z</time></trkpt><trkpt lat="38.71666242649211" lon="16.315193177628554"><ele>694.8571428571429</ele><time>2026-05-04T11:51:37Z</time></trkpt><trkpt lat="38.71673722904271" lon="16.315193716041303"><ele>694.0</ele><time>2026-05-04T11:51:42Z</time></trkpt><trkpt lat="38.71679625509977" lon="16.315233065341715"><ele>694.0</ele><time>2026-05-04T11:51:48Z</time></trkpt><trkpt lat="38.716856651151204" lon="16.31528446430368"><ele>694.0</ele><time>2026-05-04T11:51:53.999Z</time></trkpt><trkpt lat="38.71689550956964" lon="16.315365760464562"><ele>694.0</ele><time>2026-05-04T11:51:59Z</time></trkpt><trkpt lat="38.716943000492634" lon="16.315426872116245"><ele>694.0</ele><time>2026-05-04T11:52:04Z</time></trkpt><trkpt lat="38.7169974999125" lon="16.315469197978352"><ele>694.0</ele><time>2026-05-04T11:52:08Z</time></trkpt><trkpt lat="38.71706165630471" lon="16.315505355094377"><ele>694.0</ele><time>2026-05-04T11:52:14Z</time></trkpt><trkpt lat="38.71712285338469" lon="16.315534260756337"><ele>694.0</ele><time>2026-05-04T11:52:18Z</time></trkpt><trkpt lat="38.71718986742176" lon="16.315535771888484"><ele>693.0</ele><time>2026-05-04T11:52:23Z</time></trkpt><trkpt lat="38.7172451993318" lon="16.3154796866514"><ele>692.0</ele><time>2026-05-04T11:52:27Z</time></trkpt><trkpt lat="38.71731311333149" lon="16.315420555189437"><ele>691.0</ele><time>2026-05-04T11:52:33Z</time></trkpt><trkpt lat="38.71736023818397" lon="16.315344739602438"><ele>690.0</ele><time>2026-05-04T11:52:39Z</time></trkpt><trkpt lat="38.71742035097474" lon="16.315276685756864"><ele>689.0</ele><time>2026-05-04T11:52:45Z</time></trkpt><trkpt lat="38.71747401705331" lon="16.315221033452648"><ele>688.0</ele><time>2026-05-04T11:52:51Z</time></trkpt><trkpt lat="38.717519549893595" lon="16.315154706177367"><ele>687.0</ele><time>2026-05-04T11:52:57Z</time></trkpt><trkpt lat="38.71756223023236" lon="16.315065391840257"><ele>687.0</ele><time>2026-05-04T11:53:03Z</time></trkpt><trkpt lat="38.71760789772058" lon="16.315002453778927"><ele>687.0</ele><time>2026-05-04T11:53:08Z</time></trkpt><trkpt lat="38.717651225025236" lon="16.314937990728133"><ele>687.0</ele><time>2026-05-04T11:53:15Z</time></trkpt><trkpt lat="38.71768165652665" lon="16.31486518945662"><ele>687.0</ele><time>2026-05-04T11:53:21Z</time></trkpt><trkpt lat="38.71771703846093" lon="16.314797848102447"><ele>687.0</ele><time>2026-05-04T11:53:27Z</time></trkpt><trkpt lat="38.717740315588664" lon="16.314719366315803"><ele>687.0</ele><time>2026-05-04T11:53:33Z</time></trkpt><trkpt lat="38.71775646903907" lon="16.31463890692705"><ele>687.0</ele><time>2026-05-04T11:53:39Z</time></trkpt><trkpt lat="38.71777316019423" lon="16.314549010597233"><ele>686.2857142857143</ele><time>2026-05-04T11:53:44Z</time></trkpt><trkpt lat="38.71780466234691" lon="16.314456433551452"><ele>685.5714285714286</ele><time>2026-05-04T11:53:48Z</time></trkpt><trkpt lat="38.717809694356106" lon="16.31436557653828"><ele>684.8571428571429</ele><time>2026-05-04T11:53:53Z</time></trkpt><trkpt lat="38.717846462727415" lon="16.314279036841743"><ele>684.1428571428571</ele><time>2026-05-04T11:53:58.999Z</time></trkpt><trkpt lat="38.717858502829955" lon="16.314197229352903"><ele>683.4285714285714</ele><time>2026-05-04T11:54:03.999Z</time></trkpt><trkpt lat="38.71787657042161" lon="16.31409393446985"><ele>682.7142857142857</ele><time>2026-05-04T11:54:08.999Z</time></trkpt><trkpt lat="38.717888229084075" lon="16.314007428042192"><ele>682.0</ele><time>2026-05-04T11:54:14Z</time></trkpt><trkpt lat="38.71792042544319" lon="16.31393754340617"><ele>681.1428571428571</ele><time>2026-05-04T11:54:20Z</time></trkpt><trkpt lat="38.71795194018488" lon="16.313848283066374"><ele>680.2857142857143</ele><time>2026-05-04T11:54:28Z</time></trkpt><trkpt lat="38.71798535766641" lon="16.313775226112046"><ele>679.4285714285714</ele><time>2026-05-04T11:54:32Z</time></trkpt><trkpt lat="38.718006842545144" lon="16.313689496027564"><ele>678.5714285714286</ele><time>2026-05-04T11:54:38Z</time></trkpt><trkpt lat="38.71802751204802" lon="16.313606785619548"><ele>677.7142857142857</ele><time>2026-05-04T11:54:43Z</time></trkpt><trkpt lat="38.71808056035231" lon="16.313537928163008"><ele>676.8571428571429</ele><time>2026-05-04T11:54:48Z</time></trkpt><trkpt lat="38.71812294867893" lon="16.313473295987887"><ele>676.0</ele><time>2026-05-04T11:54:54Z</time></trkpt><trkpt lat="38.71816711637583" lon="16.313405844330404"><ele>676.0</ele><time>2026-05-04T11:55:00Z</time></trkpt><trkpt lat="38.718217168465856" lon="16.313342791109847"><ele>676.0</ele><time>2026-05-04T11:55:06Z</time></trkpt><trkpt lat="38.718268972359404" lon="16.313269408463814"><ele>676.0</ele><time>2026-05-04T11:55:12Z</time></trkpt><trkpt lat="38.718308532014" lon="16.313204189312344"><ele>676.0</ele><time>2026-05-04T11:55:17Z</time></trkpt><trkpt lat="38.71834591377456" lon="16.313121418245395"><ele>676.0</ele><time>2026-05-04T11:55:22Z</time></trkpt><trkpt lat="38.718380800189976" lon="16.313052881899246"><ele>676.0</ele><time>2026-05-04T11:55:26Z</time></trkpt><trkpt lat="38.71841514252289" lon="16.31296138812357"><ele>676.0</ele><time>2026-05-04T11:55:31Z</time></trkpt><trkpt lat="38.71845608625451" lon="16.312893136823185"><ele>675.1428571428571</ele><time>2026-05-04T11:55:36Z</time></trkpt><trkpt lat="38.71849268869214" lon="16.312812407719278"><ele>674.2857142857142</ele><time>2026-05-04T11:55:41Z</time></trkpt><trkpt lat="38.71853090999541" lon="16.31274125075601"><ele>673.4285714285713</ele><time>2026-05-04T11:55:44Z</time></trkpt><trkpt lat="38.718582045188064" lon="16.31267685070984"><ele>672.5714285714286</ele><time>2026-05-04T11:55:50.999Z</time></trkpt><trkpt lat="38.718632676241505" lon="16.312617874292204"><ele>671.7142857142857</ele><time>2026-05-04T11:55:58.999Z</time></trkpt><trkpt lat="38.718699021641996" lon="16.31256823136542"><ele>670.8571428571428</ele><time>2026-05-04T11:56:04.999Z</time></trkpt><trkpt lat="38.71874569329533" lon="16.31250113315161"><ele>670.0</ele><time>2026-05-04T11:56:11.999Z</time></trkpt><trkpt lat="38.71878474100479" lon="16.312418410998355"><ele>669.7142857142857</ele><time>2026-05-04T11:56:17.999Z</time></trkpt><trkpt lat="38.71883544005389" lon="16.31236630902278"><ele>669.4285714285714</ele><time>2026-05-04T11:56:22.999Z</time></trkpt><trkpt lat="38.71889950633313" lon="16.312321620934277"><ele>669.1428571428571</ele><time>2026-05-04T11:56:27.999Z</time></trkpt><trkpt lat="38.718931192554365" lon="16.312227370867404"><ele>668.8571428571429</ele><time>2026-05-04T11:56:34Z</time></trkpt><trkpt lat="38.71896298539322" lon="16.31214351831852"><ele>668.5714285714286</ele><time>2026-05-04T11:56:41Z</time></trkpt><trkpt lat="38.71899105285944" lon="16.31206959756732"><ele>668.2857142857142</ele><time>2026-05-04T11:56:47Z</time></trkpt><trkpt lat="38.719033571248815" lon="16.31201005801898"><ele>668.0</ele><time>2026-05-04T11:56:53Z</time></trkpt><trkpt lat="38.71906311775121" lon="16.311920966517107"><ele>666.7142857142857</ele><time>2026-05-04T11:56:59Z</time></trkpt><trkpt lat="38.71910164916193" lon="16.311850880776653"><ele>665.4285714285714</ele><time>2026-05-04T11:57:05Z</time></trkpt><trkpt lat="38.719143092046636" lon="16.311782953270374"><ele>664.1428571428571</ele><time>2026-05-04T11:57:11Z</time></trkpt><trkpt lat="38.71917585440132" lon="16.311703111375156"><ele>662.8571428571429</ele><time>2026-05-04T11:57:17Z</time></trkpt><trkpt lat="38.71920565463781" lon="16.31161661984839"><ele>661.5714285714286</ele><time>2026-05-04T11:57:22Z</time></trkpt><trkpt lat="38.71924642804939" lon="16.31154547345628"><ele>660.2857142857143</ele><time>2026-05-04T11:57:29Z</time></trkpt><trkpt lat="38.71928608521714" lon="16.311480994173273"><ele>659.0</ele><time>2026-05-04T11:57:34Z</time></trkpt><trkpt lat="38.719323596447104" lon="16.31141038830104"><ele>658.4285714285714</ele><time>2026-05-04T11:57:40Z</time></trkpt><trkpt lat="38.7193406215014" lon="16.311330220501834"><ele>657.8571428571428</ele><time>2026-05-04T11:57:45Z</time></trkpt><trkpt lat="38.719373073981465" lon="16.311247716584244"><ele>657.2857142857142</ele><time>2026-05-04T11:57:50Z</time></trkpt><trkpt lat="38.71941200090574" lon="16.31118111640632"><ele>656.7142857142858</ele><time>2026-05-04T11:57:55Z</time></trkpt><trkpt lat="38.719456701791536" lon="16.311113303099823"><ele>656.1428571428571</ele><time>2026-05-04T11:58:01Z</time></trkpt><trkpt lat="38.719490005699775" lon="16.31104472694236"><ele>655.5714285714286</ele><time>2026-05-04T11:58:06Z</time></trkpt><trkpt lat="38.71952621204933" lon="16.310966620692845"><ele>655.0</ele><time>2026-05-04T11:58:12Z</time></trkpt><trkpt lat="38.719549583144214" lon="16.31089105245291"><ele>654.7142857142858</ele><time>2026-05-04T11:58:16.999Z</time></trkpt><trkpt lat="38.719580190483384" lon="16.31081965857415"><ele>654.4285714285714</ele><time>2026-05-04T11:58:22.999Z</time></trkpt><trkpt lat="38.71962314276777" lon="16.310733157537893"><ele>654.1428571428571</ele><time>2026-05-04T11:58:29Z</time></trkpt><trkpt lat="38.71967711397711" lon="16.310657394243737"><ele>653.8571428571429</ele><time>2026-05-04T11:58:33Z</time></trkpt><trkpt lat="38.719729685802506" lon="16.310594855418767"><ele>653.5714285714286</ele><time>2026-05-04T11:58:40Z</time></trkpt><trkpt lat="38.71978651973515" lon="16.310550703510287"><ele>653.2857142857143</ele><time>2026-05-04T11:58:45Z</time></trkpt><trkpt lat="38.71985693955401" lon="16.310553743897806"><ele>653.0</ele><time>2026-05-04T11:58:49Z</time></trkpt><trkpt lat="38.71991824197954" lon="16.310574806301393"><ele>652.1428571428572</ele><time>2026-05-04T11:58:55Z</time></trkpt><trkpt lat="38.7199751758689" lon="16.310538964819763"><ele>651.2857142857143</ele><time>2026-05-04T11:58:58Z</time></trkpt><trkpt lat="38.71991270552719" lon="16.310486974186325"><ele>650.4285714285714</ele><time>2026-05-04T11:59:02Z</time></trkpt><trkpt lat="38.71984611572188" lon="16.3104296756398"><ele>649.5714285714287</ele><time>2026-05-04T11:59:07Z</time></trkpt><trkpt lat="38.719785375476846" lon="16.310397826442383"><ele>648.7142857142858</ele><time>2026-05-04T11:59:12Z</time></trkpt><trkpt lat="38.719729229499826" lon="16.31032407699119"><ele>647.8571428571429</ele><time>2026-05-04T11:59:19Z</time></trkpt><trkpt lat="38.71967208005514" lon="16.31026531447348"><ele>647.0</ele><time>2026-05-04T11:59:25Z</time></trkpt><trkpt lat="38.71960858560161" lon="16.310207618607087"><ele>647.0</ele><time>2026-05-04T11:59:30Z</time></trkpt><trkpt lat="38.719540878273236" lon="16.310154739752093"><ele>647.0</ele><time>2026-05-04T11:59:36Z</time></trkpt><trkpt lat="38.71948340012978" lon="16.31012136252491"><ele>647.0</ele><time>2026-05-04T11:59:40Z</time></trkpt><trkpt lat="38.71941570924846" lon="16.310055792439073"><ele>647.0</ele><time>2026-05-04T11:59:44Z</time></trkpt><trkpt lat="38.71934839674173" lon="16.310009325527812"><ele>647.0</ele><time>2026-05-04T11:59:50Z</time></trkpt><trkpt lat="38.71928624227444" lon="16.309951695388513"><ele>647.0</ele><time>2026-05-04T11:59:57Z</time></trkpt><trkpt lat="38.71922980275635" lon="16.309904125922753"><ele>647.0</ele><time>2026-05-04T12:00:04Z</time></trkpt><trkpt lat="38.71916074368057" lon="16.309824330909773"><ele>646.1428571428571</ele><time>2026-05-04T12:00:09Z</time></trkpt><trkpt lat="38.71911998354396" lon="16.30974128586042"><ele>645.2857142857143</ele><time>2026-05-04T12:00:14Z</time></trkpt><trkpt lat="38.719089955415406" lon="16.309669583810713"><ele>644.4285714285714</ele><time>2026-05-04T12:00:19Z</time></trkpt><trkpt lat="38.71906311144544" lon="16.309596496614432"><ele>643.5714285714286</ele><time>2026-05-04T12:00:25Z</time></trkpt><trkpt lat="38.71902000399139" lon="16.3095030813891"><ele>642.7142857142857</ele><time>2026-05-04T12:00:30Z</time></trkpt><trkpt lat="38.71896633348834" lon="16.30944237292298"><ele>641.8571428571429</ele><time>2026-05-04T12:00:35Z</time></trkpt><trkpt lat="38.718918777852345" lon="16.309378286000964"><ele>641.0</ele><time>2026-05-04T12:00:40Z</time></trkpt><trkpt lat="38.71889158489782" lon="16.309299456942355"><ele>641.0</ele><time>2026-05-04T12:00:45Z</time></trkpt><trkpt lat="38.718863378171676" lon="16.309215166765934"><ele>641.0</ele><time>2026-05-04T12:00:50Z</time></trkpt><trkpt lat="38.71885765590126" lon="16.309129797195407"><ele>641.0</ele><time>2026-05-04T12:00:56Z</time></trkpt><trkpt lat="38.718859376793866" lon="16.309047893432908"><ele>641.0</ele><time>2026-05-04T12:01:01Z</time></trkpt><trkpt lat="38.71886462108422" lon="16.30896175784907"><ele>641.0</ele><time>2026-05-04T12:01:05Z</time></trkpt><trkpt lat="38.71888756249308" lon="16.30886961218155"><ele>641.0</ele><time>2026-05-04T12:01:11Z</time></trkpt><trkpt lat="38.71889356516225" lon="16.308769947288933"><ele>641.0</ele><time>2026-05-04T12:01:17Z</time></trkpt><trkpt lat="38.71891540035628" lon="16.30868967977759"><ele>640.0</ele><time>2026-05-04T12:01:22Z</time></trkpt><trkpt lat="38.71891984668638" lon="16.30859649901551"><ele>639.0</ele><time>2026-05-04T12:01:28Z</time></trkpt><trkpt lat="38.71894128579961" lon="16.30850667756071"><ele>638.0</ele><time>2026-05-04T12:01:33Z</time></trkpt><trkpt lat="38.718953700058265" lon="16.30842244924059"><ele>637.0</ele><time>2026-05-04T12:01:38Z</time></trkpt><trkpt lat="38.71897100865038" lon="16.308326832907646"><ele>636.0</ele><time>2026-05-04T12:01:44Z</time></trkpt><trkpt lat="38.718986856341694" lon="16.308241327488414"><ele>635.0</ele><time>2026-05-04T12:01:49Z</time></trkpt><trkpt lat="38.71898993078034" lon="16.308155093758963"><ele>634.0</ele><time>2026-05-04T12:01:54Z</time></trkpt><trkpt lat="38.718983102060776" lon="16.308067635078075"><ele>633.2857142857143</ele><time>2026-05-04T12:01:59Z</time></trkpt><trkpt lat="38.71896615444417" lon="16.307977112654008"><ele>632.5714285714286</ele><time>2026-05-04T12:02:05Z</time></trkpt><trkpt lat="38.718942486951136" lon="16.307894086359145"><ele>631.8571428571429</ele><time>2026-05-04T12:02:11Z</time></trkpt><trkpt lat="38.71891465717299" lon="16.30780582835966"><ele>631.1428571428571</ele><time>2026-05-04T12:02:17Z</time></trkpt><trkpt lat="38.71889167166298" lon="16.30772123863949"><ele>630.4285714285714</ele><time>2026-05-04T12:02:23Z</time></trkpt><trkpt lat="38.7188714751955" lon="16.307636915209677"><ele>629.7142857142857</ele><time>2026-05-04T12:02:28Z</time></trkpt><trkpt lat="38.71885317118933" lon="16.307550858405616"><ele>629.0</ele><time>2026-05-04T12:02:33Z</time></trkpt><trkpt lat="38.7188281780649" lon="16.307458649126897"><ele>629.0</ele><time>2026-05-04T12:02:39Z</time></trkpt><trkpt lat="38.718807174938554" lon="16.307377968585833"><ele>629.0</ele><time>2026-05-04T12:02:44Z</time></trkpt><trkpt lat="38.71878136149337" lon="16.30730077207612"><ele>629.0</ele><time>2026-05-04T12:02:49Z</time></trkpt><trkpt lat="38.718743331783976" lon="16.30722676775311"><ele>629.0</ele><time>2026-05-04T12:02:54Z</time></trkpt><trkpt lat="38.718712186269755" lon="16.30715093508166"><ele>629.0</ele><time>2026-05-04T12:02:59Z</time></trkpt><trkpt lat="38.71868434963482" lon="16.307070194401398"><ele>629.0</ele><time>2026-05-04T12:03:05Z</time></trkpt><trkpt lat="38.71865256624605" lon="16.306993524963776"><ele>629.0</ele><time>2026-05-04T12:03:11Z</time></trkpt><trkpt lat="38.718617991289015" lon="16.306913917422722"><ele>629.1428571428571</ele><time>2026-05-04T12:03:17Z</time></trkpt><trkpt lat="38.71858170576352" lon="16.306847788879985"><ele>629.2857142857143</ele><time>2026-05-04T12:03:22Z</time></trkpt><trkpt lat="38.718553199546484" lon="16.30676923087601"><ele>629.4285714285714</ele><time>2026-05-04T12:03:26Z</time></trkpt><trkpt lat="38.71852066504708" lon="16.306693937126585"><ele>629.5714285714286</ele><time>2026-05-04T12:03:31Z</time></trkpt><trkpt lat="38.718486468133975" lon="16.306608768155197"><ele>629.7142857142858</ele><time>2026-05-04T12:03:37Z</time></trkpt><trkpt lat="38.71846286574443" lon="16.306519989851314"><ele>629.8571428571429</ele><time>2026-05-04T12:03:43Z</time></trkpt><trkpt lat="38.71843757592799" lon="16.30643605006168"><ele>630.0</ele><time>2026-05-04T12:03:48Z</time></trkpt><trkpt lat="38.718416963475676" lon="16.306351993739245"><ele>629.7142857142857</ele><time>2026-05-04T12:03:54Z</time></trkpt><trkpt lat="38.71839906524217" lon="16.306259886511903"><ele>629.4285714285714</ele><time>2026-05-04T12:04:00Z</time></trkpt><trkpt lat="38.71839524754296" lon="16.30616887499048"><ele>629.1428571428571</ele><time>2026-05-04T12:04:05Z</time></trkpt><trkpt lat="38.718364555512494" lon="16.306092069231745"><ele>628.8571428571429</ele><time>2026-05-04T12:04:10Z</time></trkpt><trkpt lat="38.71833755384217" lon="16.306014407256146"><ele>628.5714285714286</ele><time>2026-05-04T12:04:15Z</time></trkpt><trkpt lat="38.718286619472494" lon="16.305949087309404"><ele>628.2857142857142</ele><time>2026-05-04T12:04:20Z</time></trkpt><trkpt lat="38.718229205364835" lon="16.305890307658604"><ele>628.0</ele><time>2026-05-04T12:04:27Z</time></trkpt><trkpt lat="38.71816597866674" lon="16.305849117118562"><ele>627.9999999999999</ele><time>2026-05-04T12:04:31Z</time></trkpt><trkpt lat="38.71810677105069" lon="16.305789631436195"><ele>628.0</ele><time>2026-05-04T12:04:37Z</time></trkpt><trkpt lat="38.71805466556778" lon="16.305730194318095"><ele>628.0</ele><time>2026-05-04T12:04:44Z</time></trkpt><trkpt lat="38.718008054071355" lon="16.305669477559913"><ele>628.0</ele><time>2026-05-04T12:04:49Z</time></trkpt><trkpt lat="38.71795551601819" lon="16.30561550122371"><ele>628.0</ele><time>2026-05-04T12:04:56Z</time></trkpt><trkpt lat="38.7178979674176" lon="16.305582685751162"><ele>627.9999999999999</ele><time>2026-05-04T12:05:00Z</time></trkpt><trkpt lat="38.71785458536338" lon="16.30552168894767"><ele>628.0</ele><time>2026-05-04T12:05:06Z</time></trkpt><trkpt lat="38.71780483184677" lon="16.30547014773013"><ele>625.5714285714286</ele><time>2026-05-04T12:05:11Z</time></trkpt><trkpt lat="38.71772229714354" lon="16.305440101362787"><ele>623.1428571428571</ele><time>2026-05-04T12:05:16Z</time></trkpt><trkpt lat="38.717671810825614" lon="16.305391561725628"><ele>620.7142857142858</ele><time>2026-05-04T12:05:21Z</time></trkpt><trkpt lat="38.71762509787284" lon="16.305336452027834"><ele>618.2857142857142</ele><time>2026-05-04T12:05:26Z</time></trkpt><trkpt lat="38.71756924343273" lon="16.3052563433884"><ele>615.8571428571429</ele><time>2026-05-04T12:05:31Z</time></trkpt><trkpt lat="38.71752557413977" lon="16.305197652253398"><ele>613.4285714285714</ele><time>2026-05-04T12:05:38Z</time></trkpt><trkpt lat="38.71748055527121" lon="16.305133993081437"><ele>611.0</ele><time>2026-05-04T12:05:43Z</time></trkpt><trkpt lat="38.71744705764077" lon="16.30506073561574"><ele>611.0000000000001</ele><time>2026-05-04T12:05:48Z</time></trkpt><trkpt lat="38.71741152333866" lon="16.30497553936022"><ele>611.0</ele><time>2026-05-04T12:05:53Z</time></trkpt><trkpt lat="38.71736584339745" lon="16.304906762369516"><ele>611.0</ele><time>2026-05-04T12:05:58Z</time></trkpt><trkpt lat="38.717306128619725" lon="16.3048351254097"><ele>611.0</ele><time>2026-05-04T12:06:03Z</time></trkpt><trkpt lat="38.71725770014048" lon="16.304760935466057"><ele>611.0</ele><time>2026-05-04T12:06:10Z</time></trkpt><trkpt lat="38.717222544520695" lon="16.304692285286077"><ele>611.0000000000001</ele><time>2026-05-04T12:06:15Z</time></trkpt><trkpt lat="38.71719153557914" lon="16.3046218270333"><ele>611.0</ele><time>2026-05-04T12:06:21Z</time></trkpt><trkpt lat="38.71713324449691" lon="16.304546456110902"><ele>609.8333333333333</ele><time>2026-05-04T12:06:27Z</time></trkpt><trkpt lat="38.717095115807396" lon="16.304455640882153"><ele>608.6666666666666</ele><time>2026-05-04T12:06:34Z</time></trkpt><trkpt lat="38.71703851668938" lon="16.304385406636232"><ele>607.5</ele><time>2026-05-04T12:06:40Z</time></trkpt><trkpt lat="38.716994155146224" lon="16.304306447693723"><ele>606.3333333333334</ele><time>2026-05-04T12:06:46Z</time></trkpt><trkpt lat="38.716956976201686" lon="16.304215385247435"><ele>605.1666666666667</ele><time>2026-05-04T12:06:50Z</time></trkpt><trkpt lat="38.7169236401461" lon="16.30414302301359"><ele>604.0</ele><time>2026-05-04T12:06:57Z</time></trkpt><trkpt lat="38.716935556597704" lon="16.304041540519567"><ele>604.0000000000001</ele><time>2026-05-04T12:07:04Z</time></trkpt><trkpt lat="38.71695485594522" lon="16.303955509462877"><ele>604.0</ele><time>2026-05-04T12:07:11Z</time></trkpt><trkpt lat="38.716986320803294" lon="16.303882695473558"><ele>604.0</ele><time>2026-05-04T12:07:16Z</time></trkpt><trkpt lat="38.71699411475438" lon="16.303787201881953"><ele>604.0</ele><time>2026-05-04T12:07:22Z</time></trkpt><trkpt lat="38.71698950171687" lon="16.303690057485507"><ele>604.0</ele><time>2026-05-04T12:07:27Z</time></trkpt><trkpt lat="38.717016497194024" lon="16.303602876215006"><ele>604.0000000000001</ele><time>2026-05-04T12:07:32Z</time></trkpt><trkpt lat="38.71701297293916" lon="16.303521005408175"><ele>604.0</ele><time>2026-05-04T12:07:38Z</time></trkpt><trkpt lat="38.717023733638754" lon="16.303439552735867"><ele>604.4285714285714</ele><time>2026-05-04T12:07:42Z</time></trkpt><trkpt lat="38.71703169786468" lon="16.30335237647609"><ele>604.8571428571429</ele><time>2026-05-04T12:07:45Z</time></trkpt><trkpt lat="38.71700962893787" lon="16.303267072820265"><ele>605.2857142857142</ele><time>2026-05-04T12:07:51Z</time></trkpt><trkpt lat="38.71698309344127" lon="16.303185752390483"><ele>605.7142857142858</ele><time>2026-05-04T12:07:56Z</time></trkpt><trkpt lat="38.71694399716688" lon="16.303094109468397"><ele>606.1428571428571</ele><time>2026-05-04T12:08:02Z</time></trkpt><trkpt lat="38.71689027519955" lon="16.303035891534773"><ele>606.5714285714286</ele><time>2026-05-04T12:08:09Z</time></trkpt><trkpt lat="38.71682974205531" lon="16.302999190386846"><ele>607.0</ele><time>2026-05-04T12:08:14Z</time></trkpt><trkpt lat="38.71676610156892" lon="16.302953924795613"><ele>606.9999999999999</ele><time>2026-05-04T12:08:19Z</time></trkpt><trkpt lat="38.716694522124754" lon="16.302955659462285"><ele>607.0</ele><time>2026-05-04T12:08:25Z</time></trkpt><trkpt lat="38.71662708351732" lon="16.30295170057372"><ele>607.0</ele><time>2026-05-04T12:08:31Z</time></trkpt><trkpt lat="38.71657417887708" lon="16.30300526126943"><ele>607.0</ele><time>2026-05-04T12:08:36Z</time></trkpt><trkpt lat="38.71650711574368" lon="16.303076148636148"><ele>607.0</ele><time>2026-05-04T12:08:41Z</time></trkpt><trkpt lat="38.716469689269175" lon="16.30315090075141"><ele>606.9999999999999</ele><time>2026-05-04T12:08:45Z</time></trkpt><trkpt lat="38.7164346213925" lon="16.30322243473064"><ele>607.0</ele><time>2026-05-04T12:08:53Z</time></trkpt><trkpt lat="38.71638086220711" lon="16.303287998151866"><ele>608.3333333333334</ele><time>2026-05-04T12:09:01Z</time></trkpt><trkpt lat="38.716323525019334" lon="16.30337101136951"><ele>609.6666666666667</ele><time>2026-05-04T12:09:08Z</time></trkpt><trkpt lat="38.716254075849776" lon="16.303390091609227"><ele>611.0</ele><time>2026-05-04T12:09:12Z</time></trkpt><trkpt lat="38.71618702458683" lon="16.303350403187864"><ele>612.3333333333334</ele><time>2026-05-04T12:09:23Z</time></trkpt><trkpt lat="38.71611780332981" lon="16.303307877354904"><ele>613.6666666666666</ele><time>2026-05-04T12:09:27Z</time></trkpt><trkpt lat="38.71603661710013" lon="16.303296326000087"><ele>615.0</ele><time>2026-05-04T12:09:33Z</time></trkpt><trkpt lat="38.715975028994166" lon="16.30324705124491"><ele>615.5714285714286</ele><time>2026-05-04T12:09:39Z</time></trkpt><trkpt lat="38.71591749695404" lon="16.303204205134676"><ele>616.1428571428572</ele><time>2026-05-04T12:09:46Z</time></trkpt><trkpt lat="38.71587968762427" lon="16.303139165841863"><ele>616.7142857142858</ele><time>2026-05-04T12:09:51Z</time></trkpt><trkpt lat="38.71582082811793" lon="16.30310817633344"><ele>617.2857142857142</ele><time>2026-05-04T12:09:55Z</time></trkpt><trkpt lat="38.715813044616475" lon="16.30302314003946"><ele>617.8571428571429</ele><time>2026-05-04T12:09:58Z</time></trkpt><trkpt lat="38.71575860647548" lon="16.302963737293616"><ele>618.4285714285714</ele><time>2026-05-04T12:10:04Z</time></trkpt><trkpt lat="38.715712516275545" lon="16.302898510787582"><ele>619.0</ele><time>2026-05-04T12:10:08Z</time></trkpt><trkpt lat="38.71566533697869" lon="16.302843541738508"><ele>617.5714285714286</ele><time>2026-05-04T12:10:12Z</time></trkpt><trkpt lat="38.71564204985387" lon="16.30275589093676"><ele>616.1428571428571</ele><time>2026-05-04T12:10:17Z</time></trkpt><trkpt lat="38.71559570267584" lon="16.30269957031756"><ele>614.7142857142858</ele><time>2026-05-04T12:10:21Z</time></trkpt><trkpt lat="38.71553594516887" lon="16.302643482682107"><ele>613.2857142857142</ele><time>2026-05-04T12:10:28Z</time></trkpt><trkpt lat="38.71548189568705" lon="16.302586232088938"><ele>611.8571428571429</ele><time>2026-05-04T12:10:33Z</time></trkpt><trkpt lat="38.715428939250884" lon="16.30252911174848"><ele>610.4285714285714</ele><time>2026-05-04T12:10:42Z</time></trkpt><trkpt lat="38.715380280752775" lon="16.302468759452836"><ele>609.0</ele><time>2026-05-04T12:10:47Z</time></trkpt><trkpt lat="38.71533810678766" lon="16.302388229166045"><ele>609.0</ele><time>2026-05-04T12:10:54Z</time></trkpt><trkpt lat="38.715293536311705" lon="16.302312809311427"><ele>609.0</ele><time>2026-05-04T12:10:59Z</time></trkpt><trkpt lat="38.71524280174207" lon="16.302258650735237"><ele>609.0</ele><time>2026-05-04T12:11:06Z</time></trkpt><trkpt lat="38.71521540767879" lon="16.302174258405717"><ele>609.0</ele><time>2026-05-04T12:11:11Z</time></trkpt><trkpt lat="38.71517849056081" lon="16.302098626809048"><ele>609.0</ele><time>2026-05-04T12:11:16Z</time></trkpt><trkpt lat="38.715154453674735" lon="16.302015300796917"><ele>609.0</ele><time>2026-05-04T12:11:20Z</time></trkpt><trkpt lat="38.715092554163306" lon="16.301948861472063"><ele>609.0</ele><time>2026-05-04T12:11:26Z</time></trkpt><trkpt lat="38.71504054832842" lon="16.30187846051558"><ele>607.5714285714286</ele><time>2026-05-04T12:11:31Z</time></trkpt><trkpt lat="38.714987610845114" lon="16.301803787872064"><ele>606.1428571428571</ele><time>2026-05-04T12:11:37Z</time></trkpt><trkpt lat="38.714955027995664" lon="16.301722007952886"><ele>604.7142857142858</ele><time>2026-05-04T12:11:42Z</time></trkpt><trkpt lat="38.714925923439" lon="16.3016398524803"><ele>603.2857142857142</ele><time>2026-05-04T12:11:48Z</time></trkpt><trkpt lat="38.714890744687985" lon="16.30157034250051"><ele>601.8571428571429</ele><time>2026-05-04T12:11:54Z</time></trkpt><trkpt lat="38.71485911453841" lon="16.301490347823332"><ele>600.4285714285714</ele><time>2026-05-04T12:12:00Z</time></trkpt><trkpt lat="38.7148323674516" lon="16.301408611753423"><ele>599.0</ele><time>2026-05-04T12:12:07Z</time></trkpt><trkpt lat="38.714784746836436" lon="16.301349951651037"><ele>596.7142857142858</ele><time>2026-05-04T12:12:17Z</time></trkpt><trkpt lat="38.71474861206821" lon="16.301279510800576"><ele>594.4285714285714</ele><time>2026-05-04T12:12:23Z</time></trkpt><trkpt lat="38.71471161404306" lon="16.301205467692967"><ele>592.1428571428571</ele><time>2026-05-04T12:12:29Z</time></trkpt><trkpt lat="38.71467734134909" lon="16.301136879389997"><ele>589.8571428571429</ele><time>2026-05-04T12:12:35Z</time></trkpt><trkpt lat="38.71465033492883" lon="16.301062871472126"><ele>587.5714285714286</ele><time>2026-05-04T12:12:41Z</time></trkpt><trkpt lat="38.71461604852713" lon="16.30099077895782"><ele>585.2857142857143</ele><time>2026-05-04T12:12:48Z</time></trkpt><trkpt lat="38.714583781575456" lon="16.300917800496634"><ele>583.0</ele><time>2026-05-04T12:12:54Z</time></trkpt><trkpt lat="38.714550760226814" lon="16.30084179523142"><ele>583.0000000000001</ele><time>2026-05-04T12:13:00Z</time></trkpt><trkpt lat="38.71451895721727" lon="16.300764480800087"><ele>583.0</ele><time>2026-05-04T12:13:06Z</time></trkpt><trkpt lat="38.7144690117794" lon="16.300689904480315"><ele>583.0</ele><time>2026-05-04T12:13:13Z</time></trkpt><trkpt lat="38.71445244062179" lon="16.300605094715678"><ele>583.0</ele><time>2026-05-04T12:13:21Z</time></trkpt><trkpt lat="38.71440587882235" lon="16.300529362228808"><ele>583.0</ele><time>2026-05-04T12:13:27Z</time></trkpt><trkpt lat="38.71436873784989" lon="16.300457070361446"><ele>583.0000000000001</ele><time>2026-05-04T12:13:32Z</time></trkpt><trkpt lat="38.714330504400905" lon="16.300371134597107"><ele>583.0</ele><time>2026-05-04T12:13:38Z</time></trkpt><trkpt lat="38.714286657051424" lon="16.30030432161219"><ele>581.2857142857143</ele><time>2026-05-04T12:13:44Z</time></trkpt><trkpt lat="38.714246834329174" lon="16.300229323131884"><ele>579.5714285714286</ele><time>2026-05-04T12:13:50Z</time></trkpt><trkpt lat="38.71420066596632" lon="16.300161605027142"><ele>577.8571428571429</ele><time>2026-05-04T12:13:58Z</time></trkpt><trkpt lat="38.714157979275605" lon="16.300102304080042"><ele>576.1428571428571</ele><time>2026-05-04T12:14:03Z</time></trkpt><trkpt lat="38.71411097309917" lon="16.30003362273334"><ele>574.4285714285714</ele><time>2026-05-04T12:14:07Z</time></trkpt><trkpt lat="38.714074862563756" lon="16.299961292734658"><ele>572.7142857142858</ele><time>2026-05-04T12:14:12Z</time></trkpt><trkpt lat="38.714039680531535" lon="16.299893014614376"><ele>571.0</ele><time>2026-05-04T12:14:18Z</time></trkpt><trkpt lat="38.714027702458914" lon="16.29980011422871"><ele>568.5714285714286</ele><time>2026-05-04T12:14:25Z</time></trkpt><trkpt lat="38.71402474560638" lon="16.299711177571645"><ele>566.1428571428571</ele><time>2026-05-04T12:14:32Z</time></trkpt><trkpt lat="38.714033080483276" lon="16.299624631199702"><ele>563.7142857142857</ele><time>2026-05-04T12:14:39Z</time></trkpt><trkpt lat="38.714049609367784" lon="16.299541578053184"><ele>561.2857142857142</ele><time>2026-05-04T12:14:46Z</time></trkpt><trkpt lat="38.71406736961245" lon="16.29946290580039"><ele>558.8571428571428</ele><time>2026-05-04T12:14:52Z</time></trkpt><trkpt lat="38.71408825547778" lon="16.299359041787486"><ele>556.4285714285714</ele><time>2026-05-04T12:14:59Z</time></trkpt><trkpt lat="38.71406762936347" lon="16.299268844573433"><ele>554.0</ele><time>2026-05-04T12:15:07Z</time></trkpt><trkpt lat="38.714039827968975" lon="16.29918980132438"><ele>554.0</ele><time>2026-05-04T12:15:16Z</time></trkpt><trkpt lat="38.713988462549935" lon="16.299142048558178"><ele>554.0</ele><time>2026-05-04T12:15:28Z</time></trkpt><trkpt lat="38.71392544697891" lon="16.299118565017544"><ele>554.0</ele><time>2026-05-04T12:15:37Z</time></trkpt><trkpt lat="38.71386352887112" lon="16.29908035507781"><ele>554.0</ele><time>2026-05-04T12:15:42Z</time></trkpt><trkpt lat="38.713796825916006" lon="16.299076328474"><ele>554.0</ele><time>2026-05-04T12:15:48Z</time></trkpt><trkpt lat="38.713725516731635" lon="16.299064997100086"><ele>554.0</ele><time>2026-05-04T12:15:55Z</time></trkpt><trkpt lat="38.71365474006595" lon="16.29908037009642"><ele>554.0</ele><time>2026-05-04T12:16:03Z</time></trkpt><trkpt lat="38.713590915569604" lon="16.29908500381912"><ele>552.8571428571429</ele><time>2026-05-04T12:16:10Z</time></trkpt><trkpt lat="38.71352769028584" lon="16.299097825943925"><ele>551.7142857142857</ele><time>2026-05-04T12:16:16Z</time></trkpt><trkpt lat="38.713464199200544" lon="16.29910659277189"><ele>550.5714285714286</ele><time>2026-05-04T12:16:22Z</time></trkpt><trkpt lat="38.71339336905889" lon="16.299108024982292"><ele>549.4285714285714</ele><time>2026-05-04T12:16:28Z</time></trkpt><trkpt lat="38.71331547485005" lon="16.29911673184435"><ele>548.2857142857142</ele><time>2026-05-04T12:16:33Z</time></trkpt><trkpt lat="38.71324730103428" lon="16.299085055374185"><ele>547.1428571428571</ele><time>2026-05-04T12:16:39Z</time></trkpt><trkpt lat="38.71318893846561" lon="16.299039058192502"><ele>546.0</ele><time>2026-05-04T12:16:44Z</time></trkpt><trkpt lat="38.71314213950118" lon="16.298977616357874"><ele>544.7142857142857</ele><time>2026-05-04T12:16:49Z</time></trkpt><trkpt lat="38.71311187956213" lon="16.298906419042762"><ele>543.4285714285714</ele><time>2026-05-04T12:16:54Z</time></trkpt><trkpt lat="38.71309587554894" lon="16.29882462849139"><ele>542.1428571428571</ele><time>2026-05-04T12:16:59Z</time></trkpt><trkpt lat="38.713099053695665" lon="16.298740888419637"><ele>540.8571428571429</ele><time>2026-05-04T12:17:04Z</time></trkpt><trkpt lat="38.713055831389134" lon="16.2986710119342"><ele>539.5714285714286</ele><time>2026-05-04T12:17:10Z</time></trkpt><trkpt lat="38.71301475334352" lon="16.298605071870625"><ele>538.2857142857142</ele><time>2026-05-04T12:17:15Z</time></trkpt><trkpt lat="38.712999680338136" lon="16.298525306896025"><ele>537.0</ele><time>2026-05-04T12:17:21Z</time></trkpt><trkpt lat="38.71297888960593" lon="16.298448923599807"><ele>536.9999999999999</ele><time>2026-05-04T12:17:27Z</time></trkpt><trkpt lat="38.71293690857784" lon="16.29838381893121"><ele>537.0</ele><time>2026-05-04T12:17:36Z</time></trkpt><trkpt lat="38.71296211520993" lon="16.29830731396974"><ele>537.0</ele><time>2026-05-04T12:17:44Z</time></trkpt><trkpt lat="38.71298607471191" lon="16.298219964467943"><ele>537.0</ele><time>2026-05-04T12:17:50Z</time></trkpt><trkpt lat="38.71301546100862" lon="16.29813930451968"><ele>537.0</ele><time>2026-05-04T12:17:56Z</time></trkpt><trkpt lat="38.713060696130555" lon="16.298074186265595"><ele>536.9999999999999</ele><time>2026-05-04T12:18:02Z</time></trkpt><trkpt lat="38.71308878095386" lon="16.298000787783987"><ele>537.0</ele><time>2026-05-04T12:18:08Z</time></trkpt><trkpt lat="38.71313526142067" lon="16.29794457523078"><ele>533.9999999999999</ele><time>2026-05-04T12:18:13Z</time></trkpt><trkpt lat="38.71318756559761" lon="16.2978782740367"><ele>531.0</ele><time>2026-05-04T12:18:18Z</time></trkpt><trkpt lat="38.71324224916459" lon="16.29779714560503"><ele>528.0</ele><time>2026-05-04T12:18:23Z</time></trkpt><trkpt lat="38.71330331472233" lon="16.29777620524497"><ele>525.0</ele><time>2026-05-04T12:18:27Z</time></trkpt><trkpt lat="38.713367685520396" lon="16.297810053137844"><ele>522.0</ele><time>2026-05-04T12:18:32Z</time></trkpt><trkpt lat="38.713401346664696" lon="16.297884147882794"><ele>518.9999999999999</ele><time>2026-05-04T12:18:39Z</time></trkpt><trkpt lat="38.71344124102031" lon="16.297963135114646"><ele>516.0</ele><time>2026-05-04T12:18:45Z</time></trkpt><trkpt lat="38.71345198298132" lon="16.298058270583695"><ele>517.8333333333334</ele><time>2026-05-04T12:18:50Z</time></trkpt><trkpt lat="38.713513795446914" lon="16.298107541440434"><ele>519.6666666666666</ele><time>2026-05-04T12:18:55Z</time></trkpt><trkpt lat="38.71352196510531" lon="16.298192256110863"><ele>521.5</ele><time>2026-05-04T12:18:59Z</time></trkpt><trkpt lat="38.71358733878556" lon="16.2982800161446"><ele>523.3333333333333</ele><time>2026-05-04T12:19:05Z</time></trkpt><trkpt lat="38.71368778447638" lon="16.298323035862932"><ele>525.1666666666666</ele><time>2026-05-04T12:19:18Z</time></trkpt><trkpt lat="38.71374765725712" lon="16.298288149035"><ele>527.0</ele><time>2026-05-04T12:19:25Z</time></trkpt><trkpt lat="38.71378162447119" lon="16.298218918440377"><ele>527.0</ele><time>2026-05-04T12:19:28Z</time></trkpt><trkpt lat="38.71383426083826" lon="16.298163359569145"><ele>527.0</ele><time>2026-05-04T12:19:33Z</time></trkpt><trkpt lat="38.71389539531387" lon="16.298131220627766"><ele>527.0</ele><time>2026-05-04T12:19:40Z</time></trkpt><trkpt lat="38.71394388560844" lon="16.298075672639442"><ele>527.0</ele><time>2026-05-04T12:19:47Z</time></trkpt><trkpt lat="38.714126355977506" lon="16.29806885643757"><ele>527.0</ele><time>2026-05-04T12:20:05Z</time></trkpt><trkpt lat="38.714332287747474" lon="16.298077841352722"><ele>522.6666666666666</ele><time>2026-05-04T12:20:25Z</time></trkpt><trkpt lat="38.71445226396886" lon="16.298089249528875"><ele>518.3333333333333</ele><time>2026-05-04T12:20:43Z</time></trkpt><trkpt lat="38.71451131281109" lon="16.298149828708215"><ele>514.0</ele><time>2026-05-04T12:20:49Z</time></trkpt><trkpt lat="38.714583668742236" lon="16.298155326955573"><ele>509.66666666666663</ele><time>2026-05-04T12:20:54Z</time></trkpt><trkpt lat="38.71462066155502" lon="16.29822937146637"><ele>505.3333333333333</ele><time>2026-05-04T12:21:07Z</time></trkpt><trkpt lat="38.71467995850679" lon="16.298261794117945"><ele>501.0</ele><time>2026-05-04T12:21:15Z</time></trkpt><trkpt lat="38.71482048651539" lon="16.298256839341388"><ele>501.0</ele><time>2026-05-04T12:21:28Z</time></trkpt><trkpt lat="38.71488413845388" lon="16.29824800514934"><ele>501.0</ele><time>2026-05-04T12:21:34Z</time></trkpt><trkpt lat="38.714930638230754" lon="16.298166996182566"><ele>501.0</ele><time>2026-05-04T12:21:43Z</time></trkpt><trkpt lat="38.714948375105145" lon="16.29808389224499"><ele>501.0</ele><time>2026-05-04T12:21:51Z</time></trkpt><trkpt lat="38.71496850672061" lon="16.298003965340015"><ele>501.0</ele><time>2026-05-04T12:22:03Z</time></trkpt><trkpt lat="38.71498410584107" lon="16.297906033590383"><ele>501.0</ele><time>2026-05-04T12:22:09Z</time></trkpt><trkpt lat="38.71500477415777" lon="16.29782627887702"><ele>501.0</ele><time>2026-05-04T12:22:19Z</time></trkpt><trkpt lat="38.71499185207213" lon="16.297736635263128"><ele>498.57142857142856</ele><time>2026-05-04T12:22:26Z</time></trkpt><trkpt lat="38.71500992201115" lon="16.297646658796573"><ele>496.1428571428571</ele><time>2026-05-04T12:22:34Z</time></trkpt><trkpt lat="38.71503373873459" lon="16.297557436970752"><ele>493.71428571428567</ele><time>2026-05-04T12:22:41Z</time></trkpt><trkpt lat="38.71509388585286" lon="16.297502437938316"><ele>491.2857142857143</ele><time>2026-05-04T12:22:49Z</time></trkpt><trkpt lat="38.715141639927374" lon="16.29744877173909"><ele>488.8571428571428</ele><time>2026-05-04T12:22:56Z</time></trkpt><trkpt lat="38.715197998372716" lon="16.297392726877415"><ele>486.4285714285714</ele><time>2026-05-04T12:23:02Z</time></trkpt><trkpt lat="38.715258608811425" lon="16.29734687275223"><ele>484.0</ele><time>2026-05-04T12:23:08Z</time></trkpt><trkpt lat="38.71531928934955" lon="16.297305206431872"><ele>482.71428571428567</ele><time>2026-05-04T12:23:13Z</time></trkpt><trkpt lat="38.715382730366926" lon="16.29727128424176"><ele>481.4285714285714</ele><time>2026-05-04T12:23:19Z</time></trkpt><trkpt lat="38.715445837814585" lon="16.297220812992247"><ele>480.1428571428571</ele><time>2026-05-04T12:23:26Z</time></trkpt><trkpt lat="38.715494173686565" lon="16.297157246345687"><ele>478.8571428571429</ele><time>2026-05-04T12:23:31Z</time></trkpt><trkpt lat="38.71545118581171" lon="16.297092557876724"><ele>477.5714285714286</ele><time>2026-05-04T12:23:43Z</time></trkpt><trkpt lat="38.715405493532636" lon="16.297021702441633"><ele>476.28571428571433</ele><time>2026-05-04T12:23:50Z</time></trkpt><trkpt lat="38.71534709591783" lon="16.296930307057515"><ele>475.0</ele><time>2026-05-04T12:24:22Z</time></trkpt><trkpt lat="38.71529255658938" lon="16.296862710029853"><ele>473.28571428571433</ele><time>2026-05-04T12:24:30Z</time></trkpt><trkpt lat="38.71524587318523" lon="16.296801373118083"><ele>471.5714285714286</ele><time>2026-05-04T12:24:37Z</time></trkpt><trkpt lat="38.71520448202543" lon="16.29673463305813"><ele>469.8571428571429</ele><time>2026-05-04T12:24:43Z</time></trkpt><trkpt lat="38.715152246852014" lon="16.296671407452827"><ele>468.1428571428571</ele><time>2026-05-04T12:24:50Z</time></trkpt><trkpt lat="38.71511976353704" lon="16.296593190463675"><ele>466.4285714285714</ele><time>2026-05-04T12:24:57Z</time></trkpt><trkpt lat="38.71508452214886" lon="16.29651500814163"><ele>464.71428571428567</ele><time>2026-05-04T12:25:06Z</time></trkpt><trkpt lat="38.7150500835783" lon="16.296446279243735"><ele>463.0</ele><time>2026-05-04T12:25:12Z</time></trkpt><trkpt lat="38.71504035080893" lon="16.29636491733528"><ele>460.57142857142856</ele><time>2026-05-04T12:25:18Z</time></trkpt><trkpt lat="38.71499703770781" lon="16.296300280119027"><ele>458.1428571428571</ele><time>2026-05-04T12:25:24Z</time></trkpt><trkpt lat="38.714972846100835" lon="16.29620638979848"><ele>455.71428571428567</ele><time>2026-05-04T12:25:30Z</time></trkpt><trkpt lat="38.714952887904644" lon="16.29611850784813"><ele>453.2857142857143</ele><time>2026-05-04T12:25:38Z</time></trkpt><trkpt lat="38.71490983747032" lon="16.29604069344956"><ele>450.85714285714283</ele><time>2026-05-04T12:25:45Z</time></trkpt><trkpt lat="38.71487856658101" lon="16.295953177043184"><ele>448.42857142857144</ele><time>2026-05-04T12:25:50Z</time></trkpt><trkpt lat="38.714850789321744" lon="16.295877792574387"><ele>446.0</ele><time>2026-05-04T12:25:57Z</time></trkpt><trkpt lat="38.71480968932592" lon="16.295803588019048"><ele>446.0</ele><time>2026-05-04T12:26:04Z</time></trkpt><trkpt lat="38.71475493857809" lon="16.29575028992841"><ele>446.0</ele><time>2026-05-04T12:26:11Z</time></trkpt><trkpt lat="38.714685037453705" lon="16.29574418271068"><ele>446.0</ele><time>2026-05-04T12:26:17Z</time></trkpt><trkpt lat="38.71462632709709" lon="16.295774040967192"><ele>446.0</ele><time>2026-05-04T12:26:24Z</time></trkpt><trkpt lat="38.71457098159923" lon="16.295844516085452"><ele>446.0</ele><time>2026-05-04T12:26:30Z</time></trkpt><trkpt lat="38.7145412245395" lon="16.295921552058168"><ele>446.0</ele><time>2026-05-04T12:26:36Z</time></trkpt><trkpt lat="38.71452910553494" lon="16.296012965859802"><ele>446.0</ele><time>2026-05-04T12:26:44Z</time></trkpt><trkpt lat="38.714468253977934" lon="16.296056146592502"><ele>446.0</ele><time>2026-05-04T12:26:52Z</time></trkpt><trkpt lat="38.714444453022104" lon="16.29597268470568"><ele>446.0</ele><time>2026-05-04T12:26:59Z</time></trkpt><trkpt lat="38.71443913779847" lon="16.295891440935154"><ele>446.0</ele><time>2026-05-04T12:27:05Z</time></trkpt><trkpt lat="38.714427240036656" lon="16.295811147038133"><ele>446.0</ele><time>2026-05-04T12:27:10Z</time></trkpt><trkpt lat="38.71441276733977" lon="16.295722934701313"><ele>446.0</ele><time>2026-05-04T12:27:17Z</time></trkpt><trkpt lat="38.71440322072686" lon="16.295629240230625"><ele>446.0</ele><time>2026-05-04T12:27:24Z</time></trkpt><trkpt lat="38.71443224739519" lon="16.295545951282197"><ele>446.0</ele><time>2026-05-04T12:27:31Z</time></trkpt><trkpt lat="38.71444921133015" lon="16.295463817237014"><ele>442.7142857142857</ele><time>2026-05-04T12:27:38Z</time></trkpt><trkpt lat="38.71448739850254" lon="16.295394652705504"><ele>439.42857142857144</ele><time>2026-05-04T12:27:46Z</time></trkpt><trkpt lat="38.714533847587745" lon="16.29532269183319"><ele>436.1428571428571</ele><time>2026-05-04T12:27:53Z</time></trkpt><trkpt lat="38.71455813427732" lon="16.295233675841303"><ele>432.8571428571429</ele><time>2026-05-04T12:27:59Z</time></trkpt><trkpt lat="38.71453625431403" lon="16.29515756619655"><ele>429.5714285714286</ele><time>2026-05-04T12:28:15Z</time></trkpt><trkpt lat="38.714463955907036" lon="16.295126518432323"><ele>426.2857142857143</ele><time>2026-05-04T12:28:22Z</time></trkpt><trkpt lat="38.714403149167644" lon="16.295148742123978"><ele>423.0</ele><time>2026-05-04T12:28:29Z</time></trkpt><trkpt lat="38.714334672088484" lon="16.295162039659434"><ele>422.0</ele><time>2026-05-04T12:28:37Z</time></trkpt><trkpt lat="38.71427129120407" lon="16.295131714539373"><ele>421.0</ele><time>2026-05-04T12:28:43Z</time></trkpt><trkpt lat="38.714205985635445" lon="16.295151086119194"><ele>420.0</ele><time>2026-05-04T12:28:48Z</time></trkpt><trkpt lat="38.71412670119838" lon="16.295128933746465"><ele>419.0</ele><time>2026-05-04T12:28:55Z</time></trkpt><trkpt lat="38.71408899445735" lon="16.29505513012787"><ele>418.0</ele><time>2026-05-04T12:29:00Z</time></trkpt><trkpt lat="38.714084209594446" lon="16.29495876265084"><ele>417.0</ele><time>2026-05-04T12:29:07Z</time></trkpt><trkpt lat="38.71412396597731" lon="16.294879587013902"><ele>416.0</ele><time>2026-05-04T12:29:17Z</time></trkpt><trkpt lat="38.71414430213633" lon="16.29479590417803"><ele>412.1428571428571</ele><time>2026-05-04T12:29:28Z</time></trkpt><trkpt lat="38.7142002750026" lon="16.294735042249926"><ele>408.28571428571433</ele><time>2026-05-04T12:29:37Z</time></trkpt><trkpt lat="38.71423687399904" lon="16.29466621612467"><ele>404.42857142857144</ele><time>2026-05-04T12:29:44Z</time></trkpt><trkpt lat="38.714280079889065" lon="16.294598433819353"><ele>400.57142857142856</ele><time>2026-05-04T12:29:51Z</time></trkpt><trkpt lat="38.71431140650528" lon="16.294526323706517"><ele>396.71428571428567</ele><time>2026-05-04T12:29:58Z</time></trkpt><trkpt lat="38.71434658080715" lon="16.294450482812433"><ele>392.8571428571429</ele><time>2026-05-04T12:30:05Z</time></trkpt><trkpt lat="38.71436152514097" lon="16.294369339406828"><ele>389.0</ele><time>2026-05-04T12:30:13Z</time></trkpt><trkpt lat="38.71438175839278" lon="16.294285803747517"><ele>389.0</ele><time>2026-05-04T12:30:22Z</time></trkpt><trkpt lat="38.714402332541766" lon="16.294208626287446"><ele>389.0</ele><time>2026-05-04T12:30:33Z</time></trkpt><trkpt lat="38.7144546774158" lon="16.294155906401496"><ele>389.0</ele><time>2026-05-04T12:30:39Z</time></trkpt><trkpt lat="38.71451480866454" lon="16.29410807912191"><ele>389.0</ele><time>2026-05-04T12:30:48Z</time></trkpt><trkpt lat="38.714569868264036" lon="16.29406807195248"><ele>389.0</ele><time>2026-05-04T12:30:56Z</time></trkpt><trkpt lat="38.714631190798904" lon="16.294046121048638"><ele>389.0</ele><time>2026-05-04T12:31:02Z</time></trkpt><trkpt lat="38.71469964086744" lon="16.294022398121005"><ele>389.0</ele><time>2026-05-04T12:31:09Z</time></trkpt><trkpt lat="38.71477193074089" lon="16.294033918242157"><ele>390.14285714285717</ele><time>2026-05-04T12:31:16Z</time></trkpt><trkpt lat="38.714845249403886" lon="16.29403343530655"><ele>391.2857142857143</ele><time>2026-05-04T12:31:22Z</time></trkpt><trkpt lat="38.71491999376568" lon="16.29401716088324"><ele>392.42857142857144</ele><time>2026-05-04T12:31:28Z</time></trkpt><trkpt lat="38.71499010620304" lon="16.294003908846943"><ele>393.57142857142856</ele><time>2026-05-04T12:31:35Z</time></trkpt><trkpt lat="38.71506665195751" lon="16.293986271920982"><ele>394.71428571428567</ele><time>2026-05-04T12:31:41Z</time></trkpt><trkpt lat="38.71513150081007" lon="16.29399536111828"><ele>395.85714285714283</ele><time>2026-05-04T12:31:47Z</time></trkpt><trkpt lat="38.71521495789648" lon="16.293983516687362"><ele>397.0</ele><time>2026-05-04T12:31:57Z</time></trkpt><trkpt lat="38.715279344832325" lon="16.29399150027537"><ele>397.42857142857144</ele><time>2026-05-04T12:32:04Z</time></trkpt><trkpt lat="38.71534749758775" lon="16.293982170987352"><ele>397.85714285714283</ele><time>2026-05-04T12:32:08Z</time></trkpt><trkpt lat="38.71541657062122" lon="16.293967967134996"><ele>398.28571428571433</ele><time>2026-05-04T12:32:15Z</time></trkpt><trkpt lat="38.715484552523705" lon="16.29394748047463"><ele>398.7142857142857</ele><time>2026-05-04T12:32:20Z</time></trkpt><trkpt lat="38.71554423390543" lon="16.29391630951195"><ele>399.14285714285717</ele><time>2026-05-04T12:32:24Z</time></trkpt><trkpt lat="38.715606786725175" lon="16.293869600965827"><ele>399.5714285714286</ele><time>2026-05-04T12:32:31Z</time></trkpt><trkpt lat="38.715684126740534" lon="16.293822675390736"><ele>400.0</ele><time>2026-05-04T12:32:36Z</time></trkpt><trkpt lat="38.71575720180754" lon="16.29378787239774"><ele>396.42857142857144</ele><time>2026-05-04T12:32:41Z</time></trkpt><trkpt lat="38.71582645230231" lon="16.293768568881156"><ele>392.8571428571429</ele><time>2026-05-04T12:32:47Z</time></trkpt><trkpt lat="38.71587641038468" lon="16.293710698541613"><ele>389.28571428571433</ele><time>2026-05-04T12:32:53Z</time></trkpt><trkpt lat="38.715923203168074" lon="16.29365641024379"><ele>385.7142857142857</ele><time>2026-05-04T12:32:59Z</time></trkpt><trkpt lat="38.7159446452855" lon="16.293571633493986"><ele>382.1428571428571</ele><time>2026-05-04T12:33:06Z</time></trkpt><trkpt lat="38.715956305538825" lon="16.293489562466707"><ele>378.5714285714286</ele><time>2026-05-04T12:33:16Z</time></trkpt><trkpt lat="38.71600645972833" lon="16.293428932240854"><ele>375.0</ele><time>2026-05-04T12:33:24Z</time></trkpt><trkpt lat="38.71601014566244" lon="16.293348168374813"><ele>375.0</ele><time>2026-05-04T12:33:31Z</time></trkpt><trkpt lat="38.71604638149269" lon="16.293279044461162"><ele>375.0</ele><time>2026-05-04T12:33:37Z</time></trkpt><trkpt lat="38.7161036547084" lon="16.29324131080433"><ele>375.0</ele><time>2026-05-04T12:33:44Z</time></trkpt><trkpt lat="38.71615360955255" lon="16.293179782633505"><ele>375.0</ele><time>2026-05-04T12:33:52Z</time></trkpt><trkpt lat="38.71620571600444" lon="16.293124914051557"><ele>375.0</ele><time>2026-05-04T12:34:02Z</time></trkpt><trkpt lat="38.71626946589285" lon="16.29310432278808"><ele>375.0</ele><time>2026-05-04T12:34:08Z</time></trkpt><trkpt lat="38.716317628629014" lon="16.29304509974974"><ele>375.0</ele><time>2026-05-04T12:34:15Z</time></trkpt><trkpt lat="38.71627207042243" lon="16.29297978259454"><ele>372.5714285714286</ele><time>2026-05-04T12:34:21Z</time></trkpt><trkpt lat="38.716209286817424" lon="16.29295969899914"><ele>370.1428571428571</ele><time>2026-05-04T12:34:26Z</time></trkpt><trkpt lat="38.71614346142324" lon="16.292950998615254"><ele>367.7142857142857</ele><time>2026-05-04T12:34:32Z</time></trkpt><trkpt lat="38.7160705703863" lon="16.292950701423354"><ele>365.28571428571433</ele><time>2026-05-04T12:34:40Z</time></trkpt><trkpt lat="38.71600451293155" lon="16.292966734454225"><ele>362.8571428571429</ele><time>2026-05-04T12:34:46Z</time></trkpt><trkpt lat="38.71593413140924" lon="16.292997060908924"><ele>360.42857142857144</ele><time>2026-05-04T12:34:54Z</time></trkpt><trkpt lat="38.71587509387799" lon="16.293028360488652"><ele>358.0</ele><time>2026-05-04T12:34:59Z</time></trkpt><trkpt lat="38.7158157862447" lon="16.293058558650227"><ele>357.00000000000006</ele><time>2026-05-04T12:35:05Z</time></trkpt><trkpt lat="38.715750643039826" lon="16.293079859868325"><ele>356.0</ele><time>2026-05-04T12:35:12Z</time></trkpt><trkpt lat="38.715687939359796" lon="16.293100100321638"><ele>355.0</ele><time>2026-05-04T12:35:19Z</time></trkpt><trkpt lat="38.7156161871494" lon="16.293095090396633"><ele>354.0</ele><time>2026-05-04T12:35:26Z</time></trkpt><trkpt lat="38.71555738590331" lon="16.293059933464193"><ele>353.0</ele><time>2026-05-04T12:35:34Z</time></trkpt><trkpt lat="38.715646183970534" lon="16.29303092823076"><ele>352.00000000000006</ele><time>2026-05-04T12:35:44Z</time></trkpt><trkpt lat="38.71571104601759" lon="16.292997024435135"><ele>351.0</ele><time>2026-05-04T12:35:49Z</time></trkpt><trkpt lat="38.71576209196892" lon="16.2929430425012"><ele>351.00000000000006</ele><time>2026-05-04T12:35:54Z</time></trkpt><trkpt lat="38.71580852530069" lon="16.29287925542785"><ele>351.0</ele><time>2026-05-04T12:36:00Z</time></trkpt><trkpt lat="38.71584741234993" lon="16.292806161330372"><ele>351.0</ele><time>2026-05-04T12:36:07Z</time></trkpt><trkpt lat="38.71586132093101" lon="16.292719897784142"><ele>351.0</ele><time>2026-05-04T12:36:14Z</time></trkpt><trkpt lat="38.71591500840664" lon="16.29266013249732"><ele>351.0</ele><time>2026-05-04T12:36:22Z</time></trkpt><trkpt lat="38.71596199316273" lon="16.292590022369676"><ele>351.00000000000006</ele><time>2026-05-04T12:36:29Z</time></trkpt><trkpt lat="38.7159980531694" lon="16.292523068445263"><ele>351.0</ele><time>2026-05-04T12:36:35Z</time></trkpt><trkpt lat="38.71604499731864" lon="16.2924593270583"><ele>352.00000000000006</ele><time>2026-05-04T12:36:41Z</time></trkpt><trkpt lat="38.71609511431325" lon="16.2924104338532"><ele>353.0</ele><time>2026-05-04T12:36:49Z</time></trkpt><trkpt lat="38.716130895118184" lon="16.2923317402146"><ele>354.0</ele><time>2026-05-04T12:36:56Z</time></trkpt><trkpt lat="38.716182951710074" lon="16.29227126264465"><ele>355.0</ele><time>2026-05-04T12:37:03Z</time></trkpt><trkpt lat="38.71621700508699" lon="16.292184743341704"><ele>356.0</ele><time>2026-05-04T12:37:09Z</time></trkpt><trkpt lat="38.7162652920541" lon="16.29210963405831"><ele>357.00000000000006</ele><time>2026-05-04T12:37:15Z</time></trkpt><trkpt lat="38.71630008919136" lon="16.292030688846676"><ele>358.0</ele><time>2026-05-04T12:37:22Z</time></trkpt><trkpt lat="38.71634363297038" lon="16.291971114882394"><ele>354.42857142857144</ele><time>2026-05-04T12:37:29Z</time></trkpt><trkpt lat="38.71639082065154" lon="16.291904728887786"><ele>350.8571428571429</ele><time>2026-05-04T12:37:36Z</time></trkpt><trkpt lat="38.716432826928205" lon="16.291841654716237"><ele>347.28571428571433</ele><time>2026-05-04T12:37:42Z</time></trkpt><trkpt lat="38.71649364912691" lon="16.291808628503027"><ele>343.7142857142857</ele><time>2026-05-04T12:37:49Z</time></trkpt><trkpt lat="38.716555250249264" lon="16.291783314256428"><ele>340.1428571428571</ele><time>2026-05-04T12:37:55Z</time></trkpt><trkpt lat="38.716622958434264" lon="16.291787567868838"><ele>336.5714285714286</ele><time>2026-05-04T12:38:00Z</time></trkpt><trkpt lat="38.716696429322496" lon="16.291795303031076"><ele>333.0</ele><time>2026-05-04T12:38:08Z</time></trkpt><trkpt lat="38.71675382658129" lon="16.291752592604123"><ele>333.0</ele><time>2026-05-04T12:38:18Z</time></trkpt><trkpt lat="38.71680359046394" lon="16.291692420157222"><ele>333.0</ele><time>2026-05-04T12:38:27Z</time></trkpt><trkpt lat="38.71674792440215" lon="16.29164226715113"><ele>333.0</ele><time>2026-05-04T12:38:46Z</time></trkpt><trkpt lat="38.71670454275517" lon="16.29156753840344"><ele>333.0</ele><time>2026-05-04T12:38:57Z</time></trkpt><trkpt lat="38.71668204980123" lon="16.29149170154122"><ele>333.0</ele><time>2026-05-04T12:39:06Z</time></trkpt><trkpt lat="38.716653995663044" lon="16.291419457523332"><ele>333.0</ele><time>2026-05-04T12:39:15Z</time></trkpt><trkpt lat="38.716630149962505" lon="16.291339271355568"><ele>333.0</ele><time>2026-05-04T12:39:27Z</time></trkpt><trkpt lat="38.71661288041274" lon="16.29125744704809"><ele>329.7142857142857</ele><time>2026-05-04T12:39:41Z</time></trkpt><trkpt lat="38.71663757604464" lon="16.291175547457534"><ele>326.4285714285714</ele><time>2026-05-04T12:39:59Z</time></trkpt><trkpt lat="38.71664176307733" lon="16.291093535065233"><ele>323.1428571428571</ele><time>2026-05-04T12:40:13Z</time></trkpt><trkpt lat="38.71663818316189" lon="16.29101133315266"><ele>319.8571428571429</ele><time>2026-05-04T12:40:29Z</time></trkpt><trkpt lat="38.71668599608899" lon="16.29094866098678"><ele>316.57142857142856</ele><time>2026-05-04T12:40:42Z</time></trkpt><trkpt lat="38.71674657970903" lon="16.290916645851034"><ele>313.2857142857143</ele><time>2026-05-04T12:40:47Z</time></trkpt><trkpt lat="38.71679364294859" lon="16.290856931438988"><ele>310.0</ele><time>2026-05-04T12:40:53Z</time></trkpt><trkpt lat="38.7168273391466" lon="16.290776315787703"><ele>310.0</ele><time>2026-05-04T12:40:59Z</time></trkpt><trkpt lat="38.716856309952625" lon="16.290691752550728"><ele>310.0</ele><time>2026-05-04T12:41:05Z</time></trkpt><trkpt lat="38.71686425711865" lon="16.290611118302817"><ele>310.0</ele><time>2026-05-04T12:41:09Z</time></trkpt><trkpt lat="38.71684899274508" lon="16.290529294370675"><ele>310.0</ele><time>2026-05-04T12:41:14Z</time></trkpt><trkpt lat="38.71691673533387" lon="16.29051089017803"><ele>310.0</ele><time>2026-05-04T12:41:19Z</time></trkpt><trkpt lat="38.716994721355626" lon="16.29050487556984"><ele>310.0</ele><time>2026-05-04T12:41:25Z</time></trkpt><trkpt lat="38.71706799996567" lon="16.290499914126155"><ele>310.0</ele><time>2026-05-04T12:41:31Z</time></trkpt><trkpt lat="38.717132811416484" lon="16.29050514502068"><ele>310.5</ele><time>2026-05-04T12:41:37Z</time></trkpt><trkpt lat="38.71720005066827" lon="16.29050013981472"><ele>311.0</ele><time>2026-05-04T12:41:44Z</time></trkpt><trkpt lat="38.71727373777733" lon="16.290499969282482"><ele>311.5</ele><time>2026-05-04T12:41:49Z</time></trkpt><trkpt lat="38.71733741666757" lon="16.290459120767732"><ele>312.0</ele><time>2026-05-04T12:41:57Z</time></trkpt><trkpt lat="38.71734851203602" lon="16.29036764469029"><ele>312.5</ele><time>2026-05-04T12:42:03.02Z</time></trkpt><trkpt lat="38.71733990403461" lon="16.2904897747183"><ele>313.0</ele><time>2026-05-04T12:43:16.999Z</time></trkpt><trkpt lat="38.7173618470656" lon="16.29067800757912"><ele>313.0</ele><time>2026-05-04T12:51:32Z</time></trkpt><trkpt lat="38.71734958820568" lon="16.29047592196157"><ele>289.0</ele><time>2026-05-04T12:51:53Z</time></trkpt><trkpt lat="38.71731271220717" lon="16.290555292853153"><ele>289.0</ele><time>2026-05-04T12:54:10Z</time></trkpt><trkpt lat="38.71725633331099" lon="16.290609397551556"><ele>313.0</ele><time>2026-05-04T12:54:26Z</time></trkpt><trkpt lat="38.71732822137769" lon="16.290532305206554"><ele>289.0</ele><time>2026-05-04T12:55:26Z</time></trkpt></trkseg></trk></gpx>